# Wetter Temperatur Luftdruck Luftfeuchtigkeit Sichtweite Windgeschwindigkeit Windrichtung Zeit
1 Clouds 11 1009 9 0 1.28 171 10:37 08.04.2020
2 Clouds 11 1009 9 0 1.28 171 10:18 08.04.2020
3 Clouds 11 1009 9 0 1.28 171 10:18 08.04.2020
4 Clouds 11 1009 9 0 1.28 171 09:42 08.04.2020
5 Clear 9 1013 10 0 2.9 187 09:20 08.04.2020
6 Clear 9 1013 10 0 2.9 187 08:59 08.04.2020
7 Clear 9 1013 10 0 2.9 187 08:41 08.04.2020
8 Clear 9 1013 10 0 2.9 187 08:21 08.04.2020
9 Clear 9 1013 10 0 2.9 187 07:43 08.04.2020
10 Clear 9 1013 10 0 2.9 187 07:22 08.04.2020
11 Clear 9 1013 10 0 2.9 187 06:43 08.04.2020
12 Clear 5 1018 13 0 1.69 164 05:49 08.04.2020
13 Clear 5 1018 13 0 1.69 164 03:34 08.04.2020
14 Clouds 0 1022 18 0 1.15 111 02:41 08.04.2020
15 Clouds 0 1022 18 0 1.15 103 02:19 08.04.2020
16 Clouds 0 1022 18 0 1.15 103 01:30 08.04.2020
17 Clouds 0 1022 18 0 1.15 103 00:57 08.04.2020
18 Clouds 0 1022 18 0 1.15 103 00:39 08.04.2020
19 Clouds 2 1020 16 0 1.03 76 00:19 08.04.2020
20 Clouds 2 1020 16 0 1.03 76 23:39 07.04.2020
21 Clouds 2 1020 16 0 1.03 76 23:20 07.04.2020
22 Clouds 2 1020 16 0 1.03 76 22:56 07.04.2020
23 Clouds 2 1020 16 0 1.03 76 22:38 07.04.2020
24 Clouds 2 1020 16 0 1.03 76 22:19 07.04.2020
25 Clouds 2 1020 16 0 1.03 76 21:55 07.04.2020
26 Clouds 2 1020 17 0 1.27 62 21:37 07.04.2020
27 Clouds 3 1020 16 0 1.66 38 21:18 07.04.2020
28 Clouds 3 1020 16 0 1.66 38 21:18 07.04.2020
29 Clouds 3 1020 16 0 1.66 38 20:55 07.04.2020
30 Clouds 3 1020 16 0 1.66 38 20:55 07.04.2020
31 Clouds 3 1020 16 0 1.66 38 20:36 07.04.2020
32 Clouds 3 1020 16 0 1.66 38 20:18 07.04.2020
33 Clouds 3 1020 16 0 1.66 38 19:55 07.04.2020
34 Clouds 3 1020 16 0 1.66 38 19:36 07.04.2020
35 Clouds 3 1020 16 0 1.66 38 19:18 07.04.2020
36 Clouds 3 1020 16 0 1.66 38 18:41 07.04.2020
37 Clouds 4 1018 14 0 2.62 26 18:21 07.04.2020
38 Clouds 4 1018 14 0 2.62 26 18:21 07.04.2020
39 Clouds 4 1018 14 0 2.62 26 17:56 07.04.2020
40 Clouds 4 1018 14 0 2.62 26 17:37 07.04.2020
41 Clouds 4 1018 14 0 2.62 26 17:19 07.04.2020
42 Clouds 4 1018 14 0 2.62 26 16:44 07.04.2020
43 Clouds 4 1018 14 0 2.62 26 16:26 07.04.2020
44 Clouds 4 1018 14 0 2.62 26 16:26 07.04.2020
45 Clouds 4 1018 14 0 2.62 26 15:46 07.04.2020
46 Clouds 8 1012 10 0 1.49 288 15:26 07.04.2020
47 Clouds 8 1012 10 0 1.49 288 14:56 07.04.2020
48 Clouds 8 1012 10 0 1.49 288 14:38 07.04.2020
49 Clouds 7 1012 11 0 2.1 299 14:19 07.04.2020
50 Clouds 7 1012 11 0 2.1 299 13:43 07.04.2020
51 Clouds 7 1012 11 0 2.1 299 13:20 07.04.2020
52 Clouds 7 1012 11 0 2.1 299 12:58 07.04.2020
53 Clouds 7 1012 11 0 2.1 299 12:39 07.04.2020
54 Clouds 9 1009 9 0 3.8 287 12:21 07.04.2020
55 Clouds 9 1009 9 0 3.8 287 11:58 07.04.2020
56 Clouds 9 1009 9 0 3.8 287 11:40 07.04.2020
57 Clouds 9 1009 9 0 3.8 287 11:20 07.04.2020
58 Clouds 9 1009 9 0 3.8 287 10:54 07.04.2020
59 Clouds 9 1009 9 0 3.8 287 10:36 07.04.2020
60 Clouds 9 1009 9 0 3.8 287 10:18 07.04.2020
61 Clouds 9 1009 9 0 3.8 287 09:40 07.04.2020
62 Rain 8 1013 10 0 4.5 258 09:18 07.04.2020
63 Rain 8 1013 10 0 4.5 258 08:40 07.04.2020
64 Rain 8 1013 10 0 4.5 258 08:22 07.04.2020
65 Rain 8 1013 10 0 4.5 258 07:55 07.04.2020
66 Rain 8 1013 10 0 4.5 258 07:37 07.04.2020
67 Rain 8 1013 10 0 4.5 258 07:18 07.04.2020
68 Rain 8 1013 10 0 4.5 258 06:39 07.04.2020
69 Rain 4 1017 15 0 1.97 195 06:18 07.04.2020
70 Rain 4 1017 15 0 1.97 195 05:26 07.04.2020
71 Rain 4 1017 15 0 1.97 195 04:31 07.04.2020
72 Snow 0 1019 21 0 1.01 97 03:23 07.04.2020
73 Snow 0 1019 21 0 1.01 97 02:47 07.04.2020
74 Snow 0 1018 21 0 0.73 98 01:43 07.04.2020
75 Snow 0 1018 21 0 0.73 98 01:23 07.04.2020
76 Snow 0 1017 21 0 1.22 69 00:26 07.04.2020
77 Snow 0 1017 21 0 1.22 69 23:44 06.04.2020
78 Snow 0 1017 21 0 1.22 69 23:44 06.04.2020
79 Snow 0 1017 21 0 1.22 69 23:23 06.04.2020
80 Snow 0 1017 21 0 1.22 69 22:57 06.04.2020
81 Snow 0 1017 21 0 1.22 69 22:37 06.04.2020
82 Snow 0 1017 21 0 1.22 69 22:19 06.04.2020
83 Snow 0 1017 21 0 1.22 69 21:56 06.04.2020
84 Snow 0 1017 21 0 1.22 69 21:38 06.04.2020
85 Snow 2 1017 19 0 1.27 77 21:18 06.04.2020
86 Snow 2 1017 19 0 1.27 77 20:42 06.04.2020
87 Snow 2 1017 19 0 1.27 77 20:23 06.04.2020
88 Snow 2 1017 19 0 1.27 77 20:23 06.04.2020
89 Snow 2 1017 19 0 1.27 77 19:59 06.04.2020
90 Snow 2 1017 19 0 1.27 77 19:40 06.04.2020
91 Snow 2 1017 19 0 1.27 77 19:22 06.04.2020
92 Snow 2 1017 19 0 1.27 77 18:55 06.04.2020
93 Snow 2 1017 19 0 1.27 77 18:37 06.04.2020
94 Clouds 3 1017 17 0 3.42 39 18:19 06.04.2020
95 Clouds 3 1017 17 0 3.42 39 17:42 06.04.2020
96 Clouds 3 1017 17 0 3.42 39 17:19 06.04.2020
97 Clouds 3 1017 17 0 3.42 39 17:19 06.04.2020
98 Clouds 3 1017 17 0 3.42 39 16:50 06.04.2020
99 Clouds 3 1017 17 0 3.42 39 16:31 06.04.2020
100 Clouds 3 1017 17 0 3.42 39 15:40 06.04.2020
101 Rain 6 1012 13 0 3.71 18 13:46 06.04.2020
102 Rain 6 1012 13 0 3.71 18 13:24 06.04.2020
103 -273 0 0 0 0 0 12:58 06.04.2020
104 Rain 6 1012 13 0 3.71 18 12:56 06.04.2020
105 Rain 6 1012 13 0 3.71 18 12:56 06.04.2020
106 Rain 6 1012 13 0 3.71 18 12:56 06.04.2020
107 Rain 6 1012 13 0 3.71 18 12:22 06.04.2020
108 Rain 6 1012 13 0 3.71 18 12:22 06.04.2020
109 Rain 8 1010 12 0 1.53 98 11:54 06.04.2020
110 Rain 8 1010 12 0 1.53 98 11:32 06.04.2020
111 Rain 8 1010 12 0 1.53 98 11:32 06.04.2020
112 Rain 8 1010 12 0 1.53 98 11:32 06.04.2020
113 Rain 8 1010 12 0 1.53 98 11:32 06.04.2020
114 Rain 8 1010 12 0 1.53 98 11:32 06.04.2020
115 Rain 8 1010 12 0 1.53 98 10:51 06.04.2020
116 Rain 8 1010 12 0 1.53 98 10:50 06.04.2020
117 Rain 8 1010 12 0 1.53 98 10:50 06.04.2020
118 Rain 8 1010 12 0 1.53 98 10:50 06.04.2020
119 Rain 8 1010 12 0 1.53 98 10:50 06.04.2020
120 Rain 8 1010 12 0 1.53 98 10:21 06.04.2020
121 Rain 8 1010 12 0 1.53 98 09:47 06.04.2020
122 Rain 8 1010 12 0 1.53 98 09:47 06.04.2020
123 Rain 8 1010 12 0 1.53 98 09:47 06.04.2020
124 Rain 8 1010 12 0 1.53 98 09:47 06.04.2020
125 Rain 8 1010 12 0 1.53 98 09:47 06.04.2020
126 Rain 8 1010 12 0 1.53 98 09:21 06.04.2020
127 Rain 8 1010 12 0 1.53 98 09:21 06.04.2020
128 Clouds 8 1014 11 0 0.8 228 08:54 06.04.2020
129 Clouds 8 1014 11 0 0.8 228 08:30 06.04.2020
130 Clouds 8 1014 11 0 0.8 228 07:36 06.04.2020
131 Clouds 8 1014 11 0 0.8 228 07:36 06.04.2020
132 Clouds 8 1014 11 0 0.8 228 06:42 06.04.2020
133 Clouds 8 1014 11 0 0.8 228 06:23 06.04.2020
134 Clouds 5 1018 14 0 1.58 149 04:20 06.04.2020
135 Clouds 0 1021 19 0 1.09 63 02:58 06.04.2020
136 Clouds 0 1021 19 0 1.09 63 02:36 06.04.2020
137 Clouds 0 1021 19 0 1.37 52 01:26 06.04.2020
138 Clouds 0 1021 19 0 1.37 52 00:41 06.04.2020
139 Clouds 0 1021 19 0 1.37 52 00:23 06.04.2020
140 Clouds 1 1019 18 0 0.96 66 23:43 05.04.2020
141 Clouds 1 1019 18 0 0.96 66 23:25 05.04.2020
142 Clouds 1 1019 18 0 0.96 66 23:25 05.04.2020
143 Clouds 1 1019 18 0 0.96 66 23:25 05.04.2020
144 Clouds 1 1019 18 0 0.96 66 22:55 05.04.2020
145 Clouds 1 1019 18 0 0.96 66 22:37 05.04.2020
146 Clouds 1 1019 18 0 0.96 66 22:18 05.04.2020
147 Clouds 1 1019 18 0 0.96 66 21:46 05.04.2020
148 Clouds 1 1019 18 0 0.96 66 21:24 05.04.2020
149 Clouds 0 1019 19 0 0.96 61 21:24 05.04.2020
150 Clouds 0 1019 19 0 0.96 61 21:24 05.04.2020
151 Rain 2 1020 17 0 1.17 27 20:43 05.04.2020
152 Rain 2 1020 17 0 1.17 27 20:18 05.04.2020
153 Rain 2 1020 17 0 1.17 27 19:37 05.04.2020
154 Rain 2 1020 17 0 1.17 27 19:19 05.04.2020
155 Rain 2 1020 17 0 1.17 27 18:44 05.04.2020
156 Rain 2 1020 17 0 1.17 27 18:44 05.04.2020
157 Rain 2 1020 17 0 1.17 27 18:44 05.04.2020
158 Rain 2 1020 17 0 1.17 27 18:44 05.04.2020
159 Rain 2 1020 17 0 1.17 27 18:44 05.04.2020
160 Clouds 3 1019 16 0 2.21 63 17:52 05.04.2020
161 Clouds 3 1019 16 0 2.21 63 17:52 05.04.2020
162 Clouds 3 1019 16 0 2.21 63 17:52 05.04.2020
163 Clouds 3 1019 16 0 2.21 63 17:52 05.04.2020
164 Clouds 3 1019 16 0 2.21 63 17:52 05.04.2020
165 Clouds 3 1019 16 0 2.21 63 17:24 05.04.2020
166 Clouds 3 1019 16 0 2.21 63 17:24 05.04.2020
167 Clouds 3 1019 16 0 2.21 63 16:47 05.04.2020
168 Clouds 3 1019 16 0 2.21 63 16:20 05.04.2020
169 Clouds 3 1019 16 0 2.21 63 15:51 05.04.2020
170 Clouds 3 1019 16 0 2.21 63 15:32 05.04.2020
171 Clouds 3 1019 16 0 2.21 63 15:32 05.04.2020
172 Rain 5 1014 14 0 1.46 21 14:49 05.04.2020
173 Rain 5 1014 14 0 1.46 21 14:49 05.04.2020
174 Rain 5 1014 14 0 1.46 21 14:25 05.04.2020
175 Rain 5 1014 14 0 1.46 21 14:25 05.04.2020
176 Rain 6 1014 13 0 1.56 356 13:43 05.04.2020
177 Rain 6 1014 13 0 1.56 356 12:48 05.04.2020
178 Clouds 6 1010 14 0 1.14 12 11:41 05.04.2020
179 Clouds 6 1010 14 0 1.14 12 11:21 05.04.2020
180 Clouds 6 1010 14 0 1.14 12 11:20 05.04.2020
181 Clouds 6 1010 14 0 1.14 12 10:49 05.04.2020
182 Clouds 6 1010 14 0 1.14 12 10:24 05.04.2020
183 Clouds 6 1010 14 0 1.14 12 09:58 05.04.2020
184 Clouds 6 1010 14 0 1.14 12 09:57 05.04.2020
185 Clouds 6 1010 14 0 1.14 12 09:31 05.04.2020
186 Rain 7 1014 11 0 1.51 246 09:02 05.04.2020
187 Rain 7 1014 11 0 1.51 246 09:02 05.04.2020
188 Rain 7 1014 11 0 1.51 246 07:31 05.04.2020
189 Rain 4 1018 15 0 1.71 212 04:36 05.04.2020
190 Rain 4 1018 15 0 1.71 212 03:32 05.04.2020
191 Snow 0 1020 20 0 0.74 67 02:51 05.04.2020
192 Snow 1 1020 19 0 0.68 143 01:48 05.04.2020
193 Snow 1 1020 19 0 0.68 143 01:28 05.04.2020
194 Snow 1 1020 19 0 0.68 143 01:28 05.04.2020
195 Snow 1 1020 19 0 0.68 143 00:44 05.04.2020
196 Snow 1 1020 19 0 0.68 143 00:21 05.04.2020
197 Snow 1 1018 18 0 1.27 23 23:55 04.04.2020
198 Snow 1 1018 18 0 1.27 23 23:37 04.04.2020
199 Snow 1 1018 18 0 1.27 23 23:18 04.04.2020
200 Snow 1 1018 18 0 1.27 23 22:40 04.04.2020
201 Snow 1 1018 18 0 1.27 23 22:21 04.04.2020
202 Snow 1 1018 18 0 1.27 23 21:59 04.04.2020
203 Snow 1 1018 18 0 1.27 23 21:40 04.04.2020
204 Clouds 3 1019 15 0 1.71 41 21:19 04.04.2020
205 Clouds 3 1018 15 0 1.1 65 20:59 04.04.2020
206 Clouds 3 1018 15 0 1.1 65 20:40 04.04.2020
207 Clouds 3 1018 15 0 1.1 65 20:21 04.04.2020
208 Clouds 3 1018 15 0 1.1 65 19:57 04.04.2020
209 Clouds 3 1018 15 0 1.1 65 19:37 04.04.2020
210 Clouds 3 1019 15 0 1.02 76 19:19 04.04.2020
211 Clouds 3 1018 15 0 1.1 65 18:56 04.04.2020
212 Clouds 3 1019 15 0 1.02 76 18:38 04.04.2020
213 Clouds 5 1018 13 0 1.9 71 18:19 04.04.2020
214 Clouds 4 1018 14 0 1.76 66 17:56 04.04.2020
215 Clouds 4 1018 14 0 1.76 66 17:38 04.04.2020
216 Clouds 4 1018 14 0 1.76 66 17:18 04.04.2020
217 Clouds 5 1018 13 0 1.9 71 16:42 04.04.2020
218 Clouds 4 1018 14 0 1.76 66 16:22 04.04.2020
219 Clouds 4 1018 14 0 1.76 66 15:55 04.04.2020
220 Clouds 5 1018 13 0 1.9 71 15:37 04.04.2020
221 Clouds 7 1013 11 0 2.91 52 15:18 04.04.2020
222 Clouds 7 1013 11 0 2.91 52 14:43 04.04.2020
223 Clouds 6 1013 11 0 2.88 35 14:23 04.04.2020
224 Clouds 7 1013 11 0 2.91 52 13:56 04.04.2020
225 Clouds 7 1013 11 0 2.91 52 13:38 04.04.2020
226 Clouds 7 1013 11 0 2.91 52 13:19 04.04.2020
227 Clouds 7 1013 11 0 2.91 52 12:45 04.04.2020
228 Clouds 7 1013 11 0 2.91 52 12:26 04.04.2020
229 Clouds 9 1011 9 0 1.84 281 11:59 04.04.2020
230 Clouds 9 1011 9 0 1.84 281 11:38 04.04.2020
231 Clouds 9 1011 9 0 1.84 281 11:20 04.04.2020
232 Clouds 9 1011 9 0 1.84 281 11:20 04.04.2020
233 Clouds 9 1011 9 0 1.84 281 10:56 04.04.2020
234 Clouds 9 1011 9 0 1.84 281 10:38 04.04.2020
235 Clouds 9 1011 9 0 1.84 281 10:19 04.04.2020
236 Clouds 9 1011 9 0 1.84 281 09:55 04.04.2020
237 Clouds 9 1011 9 0 1.84 281 09:36 04.04.2020
238 Clouds 7 1016 10 0 2.1 252 09:18 04.04.2020
239 Clouds 7 1016 10 0 2.1 252 08:42 04.04.2020
240 Clouds 7 1016 10 0 2.1 252 08:21 04.04.2020
241 Clouds 7 1016 10 0 2.1 252 08:21 04.04.2020
242 Clouds 7 1016 10 0 2.1 252 07:46 04.04.2020
243 Clouds 7 1016 10 0 2.1 252 07:26 04.04.2020
244 Clouds 7 1016 10 0 2.1 252 06:56 04.04.2020
245 Clouds 7 1016 10 0 2.1 252 06:20 04.04.2020
246 Clouds 5 1019 11 0 2.1 247 05:43 04.04.2020
247 Clouds 5 1019 11 0 2.1 247 05:43 04.04.2020
248 Clouds 5 1019 11 0 2.1 247 05:24 04.04.2020
249 Clouds 5 1019 11 0 2.1 247 04:31 04.04.2020
250 Clouds 5 1019 11 0 2.1 247 03:53 04.04.2020
251 Clouds 0 1021 17 0 0.43 236 02:54 04.04.2020
252 Clouds 0 1021 17 0 0.43 236 02:34 04.04.2020
253 Clouds 0 1021 16 0 1.02 290 01:57 04.04.2020
254 Clouds 0 1021 16 0 1.02 290 01:25 04.04.2020
255 Clouds 0 1021 16 0 1.02 290 00:50 04.04.2020
256 Clouds 0 1021 16 0 1.02 290 00:30 04.04.2020
257 Clouds 1 1019 15 0 1.62 252 23:41 03.04.2020
258 Clouds 1 1019 15 0 1.62 252 23:41 03.04.2020
259 Clouds 1 1019 15 0 1.62 252 23:21 03.04.2020
260 Clouds 1 1019 15 0 1.62 252 22:59 03.04.2020
261 Clouds 1 1019 15 0 1.62 252 22:40 03.04.2020
262 Clouds 1 1019 15 0 1.62 252 22:19 03.04.2020
263 Clouds 1 1019 15 0 1.62 252 21:45 03.04.2020
264 Clouds 1 1019 15 0 1.31 252 21:27 03.04.2020
265 Clouds 3 1018 15 0 1.31 174 20:59 03.04.2020
266 Clouds 3 1018 15 0 1.31 174 20:40 03.04.2020
267 Clouds 3 1018 15 0 1.31 174 20:22 03.04.2020
268 Clouds 3 1018 15 0 1.31 174 19:58 03.04.2020
269 Clouds 3 1018 15 0 1.31 174 19:40 03.04.2020
270 Clouds 3 1018 15 0 1.31 174 19:21 03.04.2020
271 Clouds 3 1018 15 0 1.31 174 19:00 03.04.2020
272 Clouds 3 1018 15 0 1.31 174 18:41 03.04.2020
273 Clouds 3 1018 15 0 1.31 174 18:23 03.04.2020
274 Clouds 5 1016 13 0 2.47 187 17:58 03.04.2020
275 Clouds 5 1016 13 0 2.47 187 17:39 03.04.2020
276 Clouds 5 1016 13 0 2.47 187 17:19 03.04.2020
277 Clouds 5 1016 13 0 2.47 187 16:46 03.04.2020
278 Clouds 5 1016 13 0 2.47 187 16:22 03.04.2020
279 Clouds 5 1016 13 0 2.47 187 15:59 03.04.2020
280 Clouds 5 1016 13 0 2.47 187 15:40 03.04.2020
281 Clouds 5 1016 13 0 2.47 187 15:22 03.04.2020
282 Clouds 7 1010 11 0 4.49 185 14:56 03.04.2020
283 Clouds 7 1010 11 0 4.49 185 14:38 03.04.2020
284 Clouds 8 1010 10 0 3.57 199 14:20 03.04.2020
285 Clouds 8 1010 10 0 3.57 199 13:45 03.04.2020
286 Clouds 8 1010 10 0 3.57 199 13:26 03.04.2020
287 Clouds 8 1010 10 0 3.57 199 12:56 03.04.2020
288 Clouds 8 1010 10 0 3.57 199 12:37 03.04.2020
289 Clouds 10 1008 9 0 6.92 268 12:18 03.04.2020
290 Clouds 10 1008 9 0 6.92 268 11:55 03.04.2020
291 Clouds 10 1008 9 0 6.92 268 11:37 03.04.2020
292 Clouds 10 1008 9 0 6.92 268 11:18 03.04.2020
293 Clouds 10 1008 9 0 6.92 268 11:18 03.04.2020
294 Clouds 10 1008 9 0 6.92 268 10:55 03.04.2020
295 Clouds 10 1008 9 0 6.92 268 10:36 03.04.2020
296 Clouds 10 1008 9 0 6.92 268 10:18 03.04.2020
297 Clouds 10 1008 9 0 6.92 268 09:54 03.04.2020
298 Clouds 10 1008 9 0 6.92 268 09:36 03.04.2020
299 Clouds 9 1011 9 0 5.38 245 09:18 03.04.2020
300 Clouds 9 1011 9 0 5.38 245 08:41 03.04.2020
301 Clouds 9 1011 9 0 5.38 245 08:22 03.04.2020
302 -273 0 0 0 0 0 07:50 03.04.2020
303 Clouds 9 1011 9 0 5.38 245 07:32 03.04.2020
304 Clouds 9 1011 9 0 5.38 245 06:55 03.04.2020
305 Clouds 9 1011 9 0 5.38 245 06:25 03.04.2020
306 Clear 5 1016 14 0 3.1 197 05:42 03.04.2020
307 Clear 5 1016 14 0 3.1 197 03:47 03.04.2020
308 Clear 5 1016 14 0 3.1 197 03:29 03.04.2020
309 Clear 0 1018 19 0 1.9 149 02:30 03.04.2020
310 Clear 0 1018 19 0 1.9 149 01:24 03.04.2020
311 Clear 0 1018 19 0 1.9 149 00:43 03.04.2020
312 Clear 0 1018 19 0 1.9 149 00:23 03.04.2020
313 Clouds 1 1016 18 0 2.04 147 23:43 02.04.2020
314 Clouds 1 1016 18 0 2.04 147 23:24 02.04.2020
315 Clouds 1 1016 18 0 2.04 147 22:59 02.04.2020
316 Clouds 1 1016 18 0 2.04 147 22:41 02.04.2020
317 Clouds 1 1016 18 0 2.04 147 22:22 02.04.2020
318 Clouds 1 1016 18 0 2.04 147 21:57 02.04.2020
319 Clouds 1 1016 18 0 2.04 147 21:37 02.04.2020
320 Clouds 3 1015 16 0 2.08 155 21:18 02.04.2020
321 Clouds 3 1015 16 0 2.09 145 20:44 02.04.2020
322 Clouds 3 1015 16 0 2.09 145 20:44 02.04.2020
323 Clouds 3 1015 16 0 2.09 145 20:24 02.04.2020
324 Clouds 3 1015 16 0 2.09 145 19:57 02.04.2020
325 Clouds 3 1015 16 0 2.09 145 19:38 02.04.2020
326 Clouds 3 1015 16 0 2.09 145 19:19 02.04.2020
327 Clouds 3 1015 16 0 2.09 145 18:42 02.04.2020
328 Clouds 3 1015 16 0 2.09 145 18:21 02.04.2020
329 Clouds 5 1013 14 0 1.78 196 17:59 02.04.2020
330 Clouds 5 1013 14 0 1.78 196 17:59 02.04.2020
331 Clouds 5 1013 14 0 1.78 196 17:41 02.04.2020
332 Clouds 5 1013 14 0 1.78 196 17:22 02.04.2020
333 Clouds 5 1013 14 0 1.78 196 16:58 02.04.2020
334 Clouds 5 1013 14 0 1.78 196 16:39 02.04.2020
335 Clouds 5 1013 14 0 1.78 196 16:21 02.04.2020
336 Clouds 5 1013 14 0 1.78 196 15:56 02.04.2020
337 Clouds 5 1013 14 0 1.78 196 15:38 02.04.2020
338 Clouds 7 1007 12 0 2.13 242 15:18 02.04.2020
339 Clouds 7 1007 12 0 2.13 242 14:55 02.04.2020
340 Clouds 7 1007 12 0 2.13 242 14:37 02.04.2020
341 Clouds 7 1007 12 0 2.56 231 14:18 02.04.2020
342 Clouds 7 1007 12 0 2.56 231 13:54 02.04.2020
343 Clouds 7 1007 12 0 2.56 231 13:36 02.04.2020
344 Clouds 7 1007 12 0 2.56 231 13:18 02.04.2020
345 Clouds 7 1007 12 0 2.56 231 12:41 02.04.2020
346 Clouds 11 1005 9 0 7.04 258 12:19 02.04.2020
347 Clouds 11 1005 9 0 7.04 258 11:57 02.04.2020
348 Clouds 11 1005 9 0 7.04 258 11:57 02.04.2020
349 Clouds 11 1005 9 0 7.04 258 11:39 02.04.2020
350 Clouds 11 1005 9 0 7.04 258 11:20 02.04.2020
351 Clouds 11 1005 9 0 7.04 258 10:56 02.04.2020
352 Clouds 11 1005 9 0 7.04 258 10:37 02.04.2020
353 Clouds 11 1005 9 0 7.04 258 10:19 02.04.2020
354 Clouds 11 1005 9 0 7.04 258 10:19 02.04.2020
355 Clouds 11 1005 9 0 7.04 258 09:58 02.04.2020
356 Clouds 11 1005 9 0 7.04 258 09:39 02.04.2020
357 Clouds 7 1009 13 0 2.65 183 09:20 02.04.2020
358 Clouds 7 1009 13 0 2.65 183 08:47 02.04.2020
359 Clouds 7 1009 13 0 2.65 183 08:27 02.04.2020
360 Clouds 7 1009 13 0 2.65 183 07:47 02.04.2020
361 Clouds 7 1009 13 0 2.65 183 07:22 02.04.2020
362 Clouds 7 1009 13 0 2.65 183 06:59 02.04.2020
363 Clouds 7 1009 13 0 2.65 183 06:23 02.04.2020
364 Snow 4 1014 16 0 2.12 149 05:45 02.04.2020
365 Snow 4 1014 16 0 2.12 149 04:47 02.04.2020
366 Snow 0 1015 21 0 1.59 157 02:18 02.04.2020
367 Snow 0 1015 21 0 1.59 157 00:54 02.04.2020
368 Snow 0 1015 21 0 1.59 157 00:36 02.04.2020
369 Snow 1 1014 21 0 1.1 155 00:18 02.04.2020
370 Snow 1 1014 21 0 1.1 155 23:38 01.04.2020
371 Snow 1 1014 21 0 1.1 155 23:19 01.04.2020
372 Snow 1 1014 21 0 1.1 155 22:41 01.04.2020
373 Snow 1 1014 21 0 1.1 155 22:22 01.04.2020
374 Snow 1 1014 21 0 1.1 155 21:58 01.04.2020
375 Snow 1 1014 21 0 1.1 155 21:39 01.04.2020
376 Snow 2 1015 23 0 2.29 156 21:19 01.04.2020
377 Snow 2 1015 23 0 2.29 156 20:56 01.04.2020
378 Snow 2 1015 23 0 2.29 156 20:38 01.04.2020
379 Snow 2 1015 23 0 2.29 156 20:19 01.04.2020
380 Snow 2 1015 23 0 2.29 156 19:57 01.04.2020
381 Snow 2 1015 23 0 2.29 156 19:37 01.04.2020
382 Snow 2 1015 23 0 2.29 156 19:37 01.04.2020
383 Snow 2 1015 23 0 2.29 156 19:19 01.04.2020
384 Snow 2 1015 23 0 2.29 156 18:41 01.04.2020
385 Snow 2 1015 23 0 2.29 156 18:21 01.04.2020
386 Snow 4 1014 20 0 3.49 146 17:57 01.04.2020
387 Snow 4 1014 20 0 3.49 146 17:37 01.04.2020
388 Snow 4 1014 20 0 3.49 146 17:18 01.04.2020
389 Snow 4 1014 20 0 3.49 146 16:56 01.04.2020
390 Snow 4 1014 20 0 3.49 146 16:38 01.04.2020
391 Snow 4 1014 20 0 3.49 146 16:20 01.04.2020
392 Snow 4 1014 20 0 3.49 146 15:43 01.04.2020
393 Snow 4 1014 20 0 3.49 146 15:24 01.04.2020
394 Clouds 8 1008 12 0 1.02 174 14:59 01.04.2020
395 Clouds 8 1008 12 0 1.02 174 14:40 01.04.2020
396 Clouds 7 1008 13 0 0.41 225 14:21 01.04.2020
397 Clouds 7 1008 13 0 0.41 225 13:59 01.04.2020
398 Clouds 7 1008 13 0 0.41 225 13:39 01.04.2020
399 Clouds 7 1008 13 0 0.41 225 13:20 01.04.2020
400 Clouds 7 1008 13 0 0.41 225 12:57 01.04.2020
401 Clouds 7 1008 13 0 0.41 225 12:37 01.04.2020
402 Rain 10 1005 11 0 1.79 230 12:19 01.04.2020
403 Rain 10 1005 11 0 1.79 230 11:56 01.04.2020
404 Rain 10 1005 11 0 1.79 230 11:37 01.04.2020
405 Rain 10 1005 11 0 1.79 230 11:18 01.04.2020
406 Rain 10 1005 11 0 1.79 230 10:39 01.04.2020
407 Rain 10 1005 11 0 1.79 230 10:21 01.04.2020
408 Rain 10 1005 11 0 1.79 230 09:58 01.04.2020
409 Rain 10 1005 11 0 1.79 230 09:40 01.04.2020
410 Clear 11 1009 9 0 2.91 151 09:20 01.04.2020
411 Clear 11 1009 9 0 3.03 153 08:44 01.04.2020
412 Clear 11 1009 9 0 3.03 153 08:20 01.04.2020
413 Clear 11 1009 9 0 3.03 153 07:58 01.04.2020
414 Clear 11 1009 9 0 3.03 153 07:40 01.04.2020
415 Clear 11 1009 9 0 3.03 153 07:19 01.04.2020
416 Clear 11 1009 9 0 3.03 153 06:41 01.04.2020
417 Clear 7 1015 12 0 2.11 154 06:20 01.04.2020
418 Clear 7 1015 12 0 2.11 154 05:24 01.04.2020
419 Clear 7 1015 12 0 2.11 154 03:40 01.04.2020
420 Clouds 2 1019 17 0 1.42 127 02:59 01.04.2020
421 Clouds 1 1018 17 0 1.34 126 02:31 01.04.2020
422 Clouds 1 1018 17 0 1.34 126 01:49 01.04.2020
423 Clouds 1 1018 17 0 1.34 126 01:25 01.04.2020
424 Clouds 1 1018 17 0 1.34 126 00:47 01.04.2020
425 Clouds 1 1018 17 0 1.34 126 00:22 01.04.2020
426 Clouds 3 1018 15 0 1.27 130 23:55 31.03.2020
427 Clouds 3 1018 15 0 1.27 130 23:37 31.03.2020
428 Clouds 3 1018 15 0 1.27 130 23:19 31.03.2020
429 Clouds 3 1018 15 0 1.27 130 22:40 31.03.2020
430 Clouds 3 1018 15 0 1.27 130 22:21 31.03.2020
431 Clouds 3 1018 15 0 1.27 130 21:58 31.03.2020
432 Clouds 3 1018 15 0 1.27 130 21:39 31.03.2020
433 Clouds 2 1017 16 0 1.18 120 21:21 31.03.2020
434 Clouds 4 1017 14 0 0.44 36 20:57 31.03.2020
435 Clouds 4 1017 14 0 0.44 36 20:37 31.03.2020
436 Clouds 4 1017 14 0 0.44 36 20:19 31.03.2020
437 Clouds 4 1017 14 0 0.44 36 19:56 31.03.2020
438 Clouds 4 1017 14 0 0.44 36 19:37 31.03.2020
439 Clouds 4 1017 14 0 0.44 36 19:19 31.03.2020
440 Clouds 4 1017 14 0 0.44 36 18:43 31.03.2020
441 Clouds 4 1017 14 0 0.44 36 18:20 31.03.2020
442 Clouds 7 1017 12 0 1.54 354 17:57 31.03.2020
443 Clouds 7 1017 12 0 1.54 354 17:39 31.03.2020
444 Clouds 7 1017 12 0 1.54 354 17:21 31.03.2020
445 Clouds 7 1017 12 0 1.54 354 16:56 31.03.2020
446 Clouds 7 1017 12 0 1.54 354 16:36 31.03.2020
447 Clouds 7 1017 12 0 1.54 354 16:18 31.03.2020
448 Clouds 7 1017 12 0 1.54 354 15:55 31.03.2020
449 Clouds 7 1017 12 0 1.54 354 15:36 31.03.2020
450 Clouds 10 1011 9 0 3.71 285 15:18 31.03.2020
451 Clouds 10 1011 9 0 3.71 285 14:42 31.03.2020
452 Clouds 10 1010 9 0 4 276 14:22 31.03.2020
453 Clouds 10 1010 9 0 4 276 13:58 31.03.2020
454 Clouds 10 1010 9 0 4 276 13:40 31.03.2020
455 Clouds 10 1010 9 0 4 276 13:19 31.03.2020
456 Clouds 10 1010 9 0 4 276 12:46 31.03.2020
457 Clouds 10 1010 9 0 4 276 12:20 31.03.2020
458 Clouds 13 1008 7 0 8.3 260 11:58 31.03.2020
459 Clouds 13 1008 7 0 8.3 260 11:38 31.03.2020
460 Clouds 13 1008 7 0 8.3 260 11:19 31.03.2020
461 Clouds 13 1008 7 0 8.3 260 10:55 31.03.2020
462 Clouds 13 1008 7 0 8.3 260 10:37 31.03.2020
463 Clouds 13 1008 7 0 8.3 260 10:19 31.03.2020
464 Clouds 13 1008 7 0 8.3 260 09:45 31.03.2020
465 Clouds 13 1008 7 0 8.3 260 09:26 31.03.2020
466 Clouds 12 1012 7 0 4.07 234 08:59 31.03.2020
467 Clouds 12 1012 7 0 4.07 234 08:41 31.03.2020
468 Clouds 12 1012 7 0 4.07 234 08:21 31.03.2020
469 Clouds 12 1012 7 0 4.07 234 07:59 31.03.2020
470 Clouds 12 1012 7 0 4.07 234 07:41 31.03.2020
471 Clouds 12 1012 7 0 4.07 234 07:22 31.03.2020
472 Clouds 12 1012 7 0 4.07 234 06:55 31.03.2020
473 Clouds 12 1012 7 0 4.07 234 06:36 31.03.2020
474 Clear 7 1017 11 0 1.93 176 05:42 31.03.2020
475 Clear 7 1017 11 0 1.93 176 05:23 31.03.2020
476 Clear 0 1020 15 0 1.42 134 02:53 31.03.2020
477 Clouds 0 1020 16 0 1.37 135 01:47 31.03.2020
478 Clouds 0 1020 16 0 1.37 135 01:19 31.03.2020
479 Clouds 0 1020 16 0 1.37 135 00:43 31.03.2020
480 Clouds 0 1020 16 0 1.37 135 00:20 31.03.2020
481 Clouds 1 1019 14 0 1.4 132 23:40 30.03.2020
482 Clouds 1 1019 14 0 1.4 132 23:20 30.03.2020
483 Clouds 1 1019 14 0 1.4 132 22:57 30.03.2020
484 Clouds 1 1019 14 0 1.4 132 22:38 30.03.2020
485 Clouds 1 1019 14 0 1.4 132 22:19 30.03.2020
486 Clouds 1 1019 14 0 1.4 132 21:57 30.03.2020
487 Clouds 1 1019 14 0 1.4 132 21:38 30.03.2020
488 Clouds 3 1020 12 0 0.8 119 21:20 30.03.2020
489 Clouds 3 1020 12 0 0.8 119 20:57 30.03.2020
490 Clouds 3 1020 12 0 0.8 119 20:38 30.03.2020
491 Clouds 3 1020 12 0 0.8 119 20:19 30.03.2020
492 Clouds 3 1020 12 0 0.8 119 19:41 30.03.2020
493 Clouds 3 1020 12 0 0.8 119 19:22 30.03.2020
494 Clouds 3 1020 12 0 0.8 119 18:59 30.03.2020
495 Clouds 3 1020 12 0 0.8 119 18:41 30.03.2020
496 Clouds 3 1020 12 0 0.8 119 18:22 30.03.2020
497 Clouds 4 1019 11 0 1.27 68 17:57 30.03.2020
498 Clouds 4 1019 11 0 1.27 68 17:39 30.03.2020
499 Clouds 4 1019 11 0 1.27 68 17:39 30.03.2020
500 Clouds 4 1019 11 0 1.27 68 17:19 30.03.2020
501 Clouds 4 1019 11 0 1.27 68 16:57 30.03.2020
502 Clouds 4 1019 11 0 1.27 68 16:38 30.03.2020
503 Clouds 4 1019 11 0 1.27 68 16:20 30.03.2020
504 Clouds 4 1019 11 0 1.27 68 15:55 30.03.2020
505 Clouds 4 1019 11 0 1.27 68 15:37 30.03.2020
506 Clouds 7 1014 9 0 2.68 321 15:18 30.03.2020
507 Clouds 7 1014 9 0 2.68 321 14:55 30.03.2020
508 Clouds 7 1014 9 0 2.68 321 14:36 30.03.2020
509 Clouds 7 1015 9 0 3.46 317 14:18 30.03.2020
510 Clouds 7 1015 9 0 3.46 317 13:44 30.03.2020
511 Clouds 7 1015 9 0 3.46 317 13:21 30.03.2020
512 Clouds 7 1015 9 0 3.46 317 12:59 30.03.2020
513 Clouds 7 1015 9 0 3.46 317 12:41 30.03.2020
514 Clouds 11 1012 8 0 9.61 290 12:19 30.03.2020
515 Clouds 11 1012 8 0 9.61 290 11:57 30.03.2020
516 Clouds 11 1012 8 0 9.61 290 11:38 30.03.2020
517 Clouds 11 1012 8 0 9.61 290 11:20 30.03.2020
518 Clouds 11 1012 8 0 9.61 290 10:40 30.03.2020
519 Clouds 11 1012 8 0 9.61 290 10:22 30.03.2020
520 Clouds 11 1012 8 0 9.61 290 09:57 30.03.2020
521 Clouds 11 1012 8 0 9.61 290 09:38 30.03.2020
522 Clouds 9 1015 10 0 10.47 274 09:19 30.03.2020
523 Clouds 9 1015 10 0 10.47 274 08:42 30.03.2020
524 Clouds 9 1015 10 0 10.47 274 08:22 30.03.2020
525 Clouds 9 1015 10 0 10.47 274 07:50 30.03.2020
526 Clouds 9 1015 10 0 10.47 274 07:31 30.03.2020
527 Clouds 9 1015 10 0 10.47 274 06:57 30.03.2020
528 Clouds 9 1015 10 0 10.47 274 06:33 30.03.2020
529 Clouds 6 1017 12 0 3.78 239 05:55 30.03.2020
530 Clouds 6 1017 12 0 3.78 239 05:33 30.03.2020
531 Clouds 6 1017 12 0 3.78 239 04:24 30.03.2020
532 Clouds 6 1017 12 0 3.78 239 03:44 30.03.2020
533 Clear 1 1019 18 0 0.82 242 02:42 30.03.2020
534 Clear 0 1018 18 0 0.66 294 01:48 30.03.2020
535 Clear 0 1018 18 0 0.66 294 00:55 30.03.2020
536 Clear 0 1018 18 0 0.66 294 00:24 30.03.2020
537 Clear 2 1016 16 0 0.97 236 23:43 29.03.2020
538 Clear 2 1016 16 0 0.97 236 23:24 29.03.2020
539 Clear 2 1016 16 0 0.97 236 22:59 29.03.2020
540 Clear 2 1016 16 0 0.97 236 22:39 29.03.2020
541 Clear 2 1016 16 0 0.97 236 22:19 29.03.2020
542 Clear 2 1016 16 0 0.97 236 22:19 29.03.2020
543 Clear 2 1016 16 0 0.97 236 21:58 29.03.2020
544 Clear 2 1016 16 0 0.97 236 21:37 29.03.2020
545 Clouds 5 1015 14 0 1.69 257 21:18 29.03.2020
546 Clouds 5 1015 14 0 1.69 257 20:55 29.03.2020
547 Clouds 5 1015 14 0 1.69 257 20:37 29.03.2020
548 Clouds 5 1015 14 0 1.69 257 20:37 29.03.2020
549 Clouds 5 1015 14 0 1.69 257 20:37 29.03.2020
550 Clouds 5 1015 14 0 1.69 257 20:18 29.03.2020
551 Clouds 5 1015 14 0 1.69 257 19:54 29.03.2020
552 Clouds 5 1015 14 0 1.69 257 19:36 29.03.2020
553 Clouds 5 1015 14 0 1.69 257 19:18 29.03.2020
554 Clouds 5 1015 14 0 1.69 257 18:54 29.03.2020
555 Clouds 5 1015 14 0 1.69 257 18:36 29.03.2020
556 Clouds 5 1015 14 0 1.69 257 18:36 29.03.2020
557 Clouds 7 1013 12 0 3.25 251 18:18 29.03.2020
558 Clouds 7 1013 12 0 3.25 251 18:18 29.03.2020
559 Clouds 7 1013 12 0 3.25 251 17:42 29.03.2020
560 Clouds 7 1013 12 0 3.25 251 17:22 29.03.2020
561 Clouds 7 1013 12 0 3.25 251 16:59 29.03.2020
562 Clouds 7 1013 12 0 3.25 251 16:40 29.03.2020
563 Clouds 7 1013 12 0 3.25 251 16:21 29.03.2020
564 Clouds 7 1013 12 0 3.25 251 15:58 29.03.2020
565 Clouds 7 1013 12 0 3.25 251 15:40 29.03.2020
566 Clouds 7 1013 12 0 3.25 251 15:20 29.03.2020
567 Clouds 10 1006 9 0 7.26 245 14:56 29.03.2020
568 Clouds 10 1006 9 0 7.26 245 14:37 29.03.2020
569 Clouds 10 1006 9 0 7.19 256 14:19 29.03.2020
570 Clouds 10 1006 9 0 7.19 256 13:55 29.03.2020
571 Clouds 10 1006 9 0 7.19 256 13:37 29.03.2020
572 Clouds 10 1006 9 0 7.19 256 13:18 29.03.2020
573 Clouds 10 1006 9 0 7.19 256 12:54 29.03.2020
574 Clouds 10 1006 9 0 7.19 256 12:54 29.03.2020
575 Clouds 10 1006 9 0 7.19 256 12:36 29.03.2020
576 Clouds 14 1004 7 0 9.58 266 12:18 29.03.2020
577 Clouds 14 1004 7 0 9.58 266 11:38 29.03.2020
578 Clouds 14 1004 7 0 9.58 266 11:20 29.03.2020
579 Clouds 14 1004 7 0 9.58 266 10:40 29.03.2020
580 Clouds 14 1004 7 0 9.58 266 10:21 29.03.2020
581 Clouds 14 1004 7 0 9.58 266 09:59 29.03.2020
582 Clouds 14 1004 7 0 9.58 266 09:38 29.03.2020
583 Clear 12 1010 8 0 4.56 256 09:19 29.03.2020
584 Clear 11 1010 8 0 3.58 255 08:45 29.03.2020
585 Clear 11 1010 8 0 3.58 255 08:27 29.03.2020
586 Clear 11 1010 8 0 3.58 255 07:56 29.03.2020
587 Clear 11 1010 8 0 3.58 255 07:37 29.03.2020
588 Clear 11 1010 8 0 3.58 255 07:19 29.03.2020
589 Clear 7 1015 11 0 2.63 224 04:58 29.03.2020
590 Clear 7 1015 11 0 2.63 224 03:42 29.03.2020
591 Clear 7 1015 11 0 2.63 224 03:23 29.03.2020
592 Clear 0 1018 18 0 1.23 272 01:50 29.03.2020
593 Clear 0 1018 18 0 1.23 272 01:23 29.03.2020
594 Clear 0 1018 17 0 1.08 226 00:48 29.03.2020
595 Clear 0 1018 17 0 1.08 226 00:29 29.03.2020
596 Clear 0 1018 17 0 1.08 226 23:41 28.03.2020
597 Clear 0 1018 17 0 1.08 226 23:41 28.03.2020
598 Clear 0 1018 17 0 1.08 226 23:23 28.03.2020
599 Clear 2 1017 15 0 1.86 262 22:57 28.03.2020
600 Clear 2 1017 15 0 1.86 262 22:37 28.03.2020
601 Clear 2 1017 15 0 1.86 262 22:18 28.03.2020
602 Clear 2 1017 15 0 1.86 262 21:41 28.03.2020
603 Clear 2 1017 15 0 1.86 262 21:23 28.03.2020
604 Clear 2 1017 15 0 1.86 262 20:58 28.03.2020
605 Clear 2 1017 15 0 1.86 262 20:39 28.03.2020
606 Clear 1 1016 15 0 1.46 260 20:21 28.03.2020
607 Clear 3 1016 14 0 1.85 268 19:56 28.03.2020
608 Clear 3 1016 14 0 1.85 268 19:37 28.03.2020
609 Clear 3 1016 14 0 1.85 268 19:37 28.03.2020
610 Clear 3 1016 14 0 1.85 268 19:18 28.03.2020
611 Clear 3 1016 14 0 1.85 268 18:47 28.03.2020
612 Clear 3 1016 14 0 1.85 268 18:22 28.03.2020
613 Clear 3 1016 14 0 1.85 268 17:58 28.03.2020
614 Clear 3 1016 14 0 1.85 268 17:38 28.03.2020
615 Clear 6 1013 12 0 3.12 277 17:19 28.03.2020
616 Clear 6 1013 12 0 3.12 277 16:42 28.03.2020
617 Clear 6 1013 12 0 3.12 277 16:20 28.03.2020
618 Clear 6 1013 12 0 3.12 277 15:56 28.03.2020
619 Clear 6 1013 12 0 3.12 277 15:37 28.03.2020
620 Clear 6 1013 12 0 3.12 277 15:18 28.03.2020
621 Clear 6 1013 12 0 3.12 277 14:42 28.03.2020
622 Clear 6 1013 12 0 3.12 277 14:22 28.03.2020
623 Clouds 11 1005 9 0 4.79 251 13:57 28.03.2020
624 Clouds 11 1005 9 0 4.79 251 13:37 28.03.2020
625 Clouds 10 1006 9 0 4.92 260 13:18 28.03.2020
626 Clouds 10 1006 9 0 4.92 260 12:38 28.03.2020
627 Clouds 10 1006 9 0 4.92 260 12:19 28.03.2020
628 Clouds 10 1006 9 0 4.92 260 11:42 28.03.2020
629 Clouds 10 1006 9 0 4.92 260 11:42 28.03.2020
630 Clouds 10 1006 9 0 4.92 260 11:21 28.03.2020
631 Clouds 14 1002 9 0 5.17 253 10:55 28.03.2020
632 Clouds 14 1002 9 0 5.17 253 10:36 28.03.2020
633 Clouds 14 1002 9 0 5.17 253 10:18 28.03.2020
634 Clouds 14 1002 9 0 5.17 253 09:40 28.03.2020
635 Clouds 14 1002 9 0 5.17 253 09:22 28.03.2020
636 Clouds 15 1002 8 0 6.36 262 08:45 28.03.2020
637 Clouds 15 1002 8 0 6.36 262 08:25 28.03.2020
638 Clouds 12 1008 12 0 1.86 208 07:58 28.03.2020
639 Clouds 12 1008 12 0 1.86 208 07:40 28.03.2020
640 Clouds 12 1008 12 0 1.86 208 06:54 28.03.2020
641 Clouds 12 1008 12 0 1.86 208 06:29 28.03.2020
642 Clouds 12 1008 12 0 1.86 208 05:38 28.03.2020
643 Clear 7 1014 16 0 2.5 172 05:19 28.03.2020
644 Clear 7 1014 16 0 2.5 172 04:39 28.03.2020
645 Clear 7 1014 16 0 2.5 172 02:55 28.03.2020
646 Clear 2 1019 18 0 1.29 167 01:48 28.03.2020
647 Clear 2 1019 18 0 1.29 167 01:24 28.03.2020
648 Clear 1 1018 18 0 1.44 161 00:52 28.03.2020
649 Clear 1 1018 18 0 1.44 161 00:28 28.03.2020
650 Clear 1 1018 18 0 1.44 161 23:45 27.03.2020
651 Clear 1 1018 18 0 1.44 161 23:26 27.03.2020
652 Clear 3 1017 17 0 1.72 153 22:58 27.03.2020
653 Clear 3 1017 17 0 1.72 153 22:39 27.03.2020
654 Clear 3 1017 17 0 1.72 153 22:21 27.03.2020
655 Clear 3 1017 17 0 1.72 153 21:59 27.03.2020
656 Clear 3 1017 17 0 1.72 153 21:40 27.03.2020
657 Clear 3 1017 17 0 1.72 153 21:22 27.03.2020
658 Clear 3 1017 17 0 1.72 153 20:57 27.03.2020
659 Clouds 3 1017 17 0 1.27 143 20:39 27.03.2020
660 Clouds 5 1018 15 0 0.54 131 20:19 27.03.2020
661 Clouds 5 1018 15 0 0.54 131 19:55 27.03.2020
662 Clouds 5 1018 15 0 0.54 131 19:36 27.03.2020
663 Clouds 5 1018 15 0 0.54 131 19:18 27.03.2020
664 Clouds 5 1018 15 0 0.54 131 18:42 27.03.2020
665 Clouds 5 1018 15 0 0.54 131 18:23 27.03.2020
666 Clouds 5 1018 15 0 0.54 131 17:55 27.03.2020
667 Clouds 5 1018 15 0 0.54 131 17:55 27.03.2020
668 Clouds 5 1018 15 0 0.54 131 17:36 27.03.2020
669 Clouds 7 1017 13 0 1.09 28 17:18 27.03.2020
670 Clouds 7 1017 13 0 1.09 28 16:43 27.03.2020
671 Clouds 7 1017 13 0 1.09 28 16:24 27.03.2020
672 Clouds 7 1017 13 0 1.09 28 15:45 27.03.2020
673 Clouds 7 1017 13 0 1.09 28 15:26 27.03.2020
674 Clouds 7 1017 13 0 1.09 28 14:56 27.03.2020
675 Clouds 7 1017 13 0 1.09 28 14:37 27.03.2020
676 Clouds 9 1012 11 0 2.68 39 14:18 27.03.2020
677 Clouds 9 1012 11 0 2.68 39 13:43 27.03.2020
678 Clouds 9 1012 11 0 2.76 36 13:22 27.03.2020
679 Clouds 9 1012 11 0 2.76 36 12:59 27.03.2020
680 Clouds 9 1012 11 0 2.76 36 12:39 27.03.2020
681 Clouds 9 1012 11 0 2.76 36 12:19 27.03.2020
682 Clouds 9 1012 11 0 2.76 36 11:42 27.03.2020
683 Clouds 9 1012 11 0 2.76 36 11:24 27.03.2020
684 Clear 13 1010 9 0 0.69 191 10:56 27.03.2020
685 Clear 13 1010 9 0 0.69 191 10:38 27.03.2020
686 Clear 13 1010 9 0 0.69 191 10:20 27.03.2020
687 Clear 13 1010 9 0 0.69 191 09:58 27.03.2020
688 Clear 13 1010 9 0 0.69 191 09:38 27.03.2020
689 Clear 13 1010 9 0 0.69 191 09:20 27.03.2020
690 Clear 13 1010 9 0 0.69 191 08:57 27.03.2020
691 Clear 13 1010 9 0 0.69 191 08:39 27.03.2020
692 Clear 13 1010 9 0 0.69 191 08:20 27.03.2020
693 Clouds 11 1015 10 0 1.18 199 07:52 27.03.2020
694 Clouds 11 1015 10 0 1.18 199 07:26 27.03.2020
695 Clouds 11 1015 10 0 1.18 199 06:57 27.03.2020
696 Clouds 11 1015 10 0 1.18 199 06:37 27.03.2020
697 Clouds 11 1015 10 0 1.18 199 05:37 27.03.2020
698 Clouds 6 1020 13 0 0.72 29 02:49 27.03.2020
699 Clouds 0 1022 17 0 1.33 14 01:36 27.03.2020
700 Clouds 0 1022 17 0 1.3 12 00:53 27.03.2020
701 Clouds 0 1022 17 0 1.3 12 00:32 27.03.2020
702 Clouds 0 1022 17 0 1.3 12 23:44 26.03.2020
703 Clouds 0 1022 17 0 1.3 12 23:24 26.03.2020
704 Clouds 1 1021 16 0 1.49 6 22:59 26.03.2020
705 Clouds 1 1021 16 0 1.49 6 22:59 26.03.2020
706 Clouds 1 1021 16 0 1.49 6 22:39 26.03.2020
707 Clouds 1 1021 16 0 1.49 6 22:20 26.03.2020
708 Clouds 1 1021 16 0 1.49 6 21:58 26.03.2020
709 Clouds 1 1021 16 0 1.49 6 21:39 26.03.2020
710 Clouds 1 1021 16 0 1.49 6 21:21 26.03.2020
711 Clouds 1 1021 16 0 1.49 6 20:58 26.03.2020
712 Clouds 1 1021 16 0 1.49 6 20:38 26.03.2020
713 Clouds 3 1022 15 0 2.03 2 20:20 26.03.2020
714 Clouds 3 1022 15 0 2.03 2 19:56 26.03.2020
715 Clouds 3 1022 15 0 2.03 2 19:38 26.03.2020
716 Clouds 3 1022 15 0 2.03 2 19:38 26.03.2020
717 Clouds 3 1022 15 0 2.03 2 19:20 26.03.2020
718 Clouds 3 1022 15 0 2.03 2 18:55 26.03.2020
719 Clouds 3 1022 15 0 2.03 2 18:37 26.03.2020
720 Clouds 3 1022 15 0 2.03 2 18:19 26.03.2020
721 Clouds 3 1022 15 0 2.03 2 17:42 26.03.2020
722 Clouds 5 1020 14 0 2.49 10 17:19 26.03.2020
723 Clouds 5 1020 14 0 2.49 10 17:19 26.03.2020
724 Clouds 5 1020 14 0 2.49 10 16:45 26.03.2020
725 Clouds 5 1020 14 0 2.49 10 16:27 26.03.2020
726 Clouds 5 1020 14 0 2.49 10 15:59 26.03.2020
727 Clouds 5 1020 14 0 2.49 10 15:40 26.03.2020
728 Clouds 5 1020 14 0 2.49 10 15:21 26.03.2020
729 Clouds 5 1020 14 0 2.49 10 14:58 26.03.2020
730 Clouds 5 1020 14 0 2.49 10 14:38 26.03.2020
731 Clouds 5 1020 14 0 2.49 10 14:38 26.03.2020
732 Clouds 8 1013 11 0 2.52 303 14:19 26.03.2020
733 Clouds 8 1013 11 0 2.52 303 13:43 26.03.2020
734 Clouds 8 1012 12 0 1.88 333 13:23 26.03.2020
735 Clouds 8 1012 12 0 1.88 333 12:57 26.03.2020
736 Clouds 8 1012 12 0 1.88 333 12:38 26.03.2020
737 Clouds 8 1012 12 0 1.88 333 12:19 26.03.2020
738 Clouds 8 1012 12 0 1.88 333 11:45 26.03.2020
739 Clouds 8 1012 12 0 1.88 333 11:21 26.03.2020
740 Clouds 11 1010 9 0 3.75 276 10:56 26.03.2020
741 Clouds 11 1010 9 0 3.75 276 10:37 26.03.2020
742 Clouds 11 1010 9 0 3.75 276 10:18 26.03.2020
743 Clouds 11 1010 9 0 3.75 276 09:43 26.03.2020
744 Clouds 11 1010 9 0 3.75 276 09:19 26.03.2020
745 Clouds 11 1010 9 0 3.75 276 08:55 26.03.2020
746 Clouds 11 1010 9 0 3.75 276 08:37 26.03.2020
747 Clear 8 1015 11 0 1.68 225 08:18 26.03.2020
748 Clear 8 1016 12 0 1.53 223 07:41 26.03.2020
749 Clear 8 1016 12 0 1.53 223 07:20 26.03.2020
750 Clear 8 1016 12 0 1.53 223 06:47 26.03.2020
751 Clear 8 1016 12 0 1.53 223 05:54 26.03.2020
752 Clear 4 1020 16 0 0.79 175 03:59 26.03.2020
753 Clear 4 1020 16 0 0.79 175 03:36 26.03.2020
754 Clear 4 1020 16 0 0.79 175 02:54 26.03.2020
755 Clouds -3 1021 22 0 0.52 88 01:50 26.03.2020
756 Clouds -3 1021 22 0 0.5 108 00:45 26.03.2020
757 Clouds -3 1021 22 0 0.5 108 23:56 25.03.2020
758 Clouds -3 1021 22 0 0.5 108 23:36 25.03.2020
759 Clouds -1 1020 20 0 0.57 75 23:18 25.03.2020
760 Clouds -1 1020 20 0 0.57 75 22:38 25.03.2020
761 Clouds -1 1020 20 0 0.57 75 22:20 25.03.2020
762 Clouds -1 1020 20 0 0.57 75 21:55 25.03.2020
763 Clouds -1 1020 20 0 0.57 75 21:37 25.03.2020
764 Clouds -1 1020 20 0 0.57 75 21:18 25.03.2020
765 Clouds -1 1020 20 0 0.57 75 20:40 25.03.2020
766 Clouds 1 1019 17 0 0.78 128 20:20 25.03.2020
767 Clouds 1 1019 17 0 0.78 128 19:59 25.03.2020
768 Clouds 1 1019 17 0 0.78 128 19:41 25.03.2020
769 Clouds 1 1019 17 0 0.78 128 19:21 25.03.2020
770 Clouds 1 1019 17 0 0.78 128 18:56 25.03.2020
771 Clouds 1 1019 17 0 1.13 163 18:37 25.03.2020
772 Clouds 1 1019 17 0 0.78 128 18:37 25.03.2020
773 Clouds 1 1019 17 0 0.78 128 18:19 25.03.2020
774 Clouds 1 1019 17 0 1.13 163 17:42 25.03.2020
775 Clouds 1 1019 17 0 0.78 128 17:23 25.03.2020
776 Clouds 4 1017 15 0 1.35 165 16:59 25.03.2020
777 Clouds 4 1017 15 0 1.35 165 16:41 25.03.2020
778 -273 0 0 0 0 0 16:21 25.03.2020
779 Clouds 4 1017 15 0 1.26 162 15:57 25.03.2020
780 Clouds 4 1017 15 0 1.26 162 15:37 25.03.2020
781 Clouds 4 1017 15 0 1.26 162 15:18 25.03.2020
782 Clouds 4 1017 15 0 1.35 165 15:18 25.03.2020
783 Clouds 4 1017 15 0 1.35 165 14:41 25.03.2020
784 Clouds 4 1017 15 0 1.26 162 14:21 25.03.2020
785 Clouds 5 1010 13 0 0.41 229 13:46 25.03.2020
786 Clouds 5 1010 14 0 0.34 40 13:26 25.03.2020
787 Clouds 5 1010 13 0 0.41 229 12:57 25.03.2020
788 Clouds 5 1010 14 0 0.34 40 12:37 25.03.2020
789 Clouds 5 1010 14 0 0.34 40 12:18 25.03.2020
790 Clouds 5 1010 14 0 0.34 40 11:43 25.03.2020
791 Clouds 5 1010 14 0 0.34 40 11:21 25.03.2020
792 Clouds 5 1010 14 0 0.34 40 11:21 25.03.2020
793 Clouds 8 1009 11 0 1.43 113 10:59 25.03.2020
794 Clouds 8 1009 11 0 1.43 113 10:40 25.03.2020
795 Clouds 8 1009 11 0 1.43 113 10:19 25.03.2020
796 Clouds 8 1009 11 0 1.43 113 09:59 25.03.2020
797 Clouds 8 1009 11 0 1.43 113 09:40 25.03.2020
798 Clouds 8 1009 11 0 1.43 113 09:22 25.03.2020
799 Clouds 8 1009 11 0 1.43 113 08:55 25.03.2020
800 Clouds 8 1009 11 0 1.43 113 08:37 25.03.2020
801 Clouds 5 1013 12 0 1.41 159 08:18 25.03.2020
802 Clouds 6 1013 11 0 2.01 169 07:39 25.03.2020
803 Clouds 6 1013 11 0 2.01 169 07:20 25.03.2020
804 Clouds 6 1013 11 0 2.01 169 06:46 25.03.2020
805 Clouds 6 1013 11 0 2.01 169 06:25 25.03.2020
806 Clouds 6 1013 11 0 2.01 169 05:50 25.03.2020
807 Clear 2 1020 14 0 1.7 158 04:59 25.03.2020
808 Clear 2 1020 14 0 1.7 158 04:39 25.03.2020
809 Clear 2 1020 14 0 1.7 158 03:35 25.03.2020
810 Clear -4 1023 20 0 0.86 109 01:57 25.03.2020
811 Clear -4 1023 20 0 0.86 109 01:20 25.03.2020
812 Clear -4 1023 20 0 0.78 109 00:47 25.03.2020
813 Clear -4 1023 20 0 0.78 109 00:19 25.03.2020
814 Clear -4 1023 20 0 0.78 109 23:45 24.03.2020
815 Clear -4 1023 20 0 0.78 109 23:25 24.03.2020
816 Clear -3 1023 19 0 0.99 105 22:56 24.03.2020
817 Clear -3 1023 19 0 0.99 105 22:37 24.03.2020
818 Clear -3 1023 19 0 0.99 105 22:19 24.03.2020
819 Clear -3 1023 19 0 0.99 105 21:55 24.03.2020
820 Clear -3 1023 19 0 0.99 105 21:37 24.03.2020
821 Clear -3 1023 19 0 0.99 105 21:18 24.03.2020
822 Clear -3 1023 19 0 0.99 105 20:43 24.03.2020
823 Clear -3 1023 19 0 0.99 105 20:24 24.03.2020
824 Clear -2 1024 17 0 0.81 92 19:59 24.03.2020
825 Clear -2 1024 17 0 0.81 92 19:41 24.03.2020
826 Clear -2 1024 17 0 0.81 92 19:19 24.03.2020
827 Clear -2 1024 17 0 0.81 92 18:55 24.03.2020
828 Clear -2 1024 17 0 0.81 92 18:36 24.03.2020
829 Clear -2 1024 17 0 0.81 92 18:18 24.03.2020
830 Clear -2 1024 17 0 0.81 92 17:42 24.03.2020
831 Clear -2 1024 17 0 0.81 92 17:22 24.03.2020
832 Clear -2 1024 30 0 0.42 37 16:58 24.03.2020
833 Clear -2 1024 30 0 0.42 37 16:39 24.03.2020
834 Clear -2 1024 30 0 0.42 37 16:21 24.03.2020
835 Clear -2 1024 30 0 0.42 37 15:58 24.03.2020
836 Clear -2 1024 30 0 0.42 37 15:37 24.03.2020
837 Clear -2 1024 30 0 0.42 37 15:19 24.03.2020
838 Clear -2 1024 30 0 0.42 37 14:43 24.03.2020
839 Clear 2 1018 14 0 0.88 22 14:19 24.03.2020
840 Clear 2 1018 14 0 0.88 22 13:44 24.03.2020
841 Clear 2 1018 14 0 0.88 22 13:24 24.03.2020
842 Clear 2 1018 14 0 0.5 30 12:57 24.03.2020
843 Clear 2 1018 14 0 0.5 30 12:37 24.03.2020
844 Clear 2 1018 14 0 0.5 30 12:19 24.03.2020
845 Clear 2 1018 14 0 0.5 30 11:40 24.03.2020
846 Clear 5 1017 12 0 1.92 358 11:20 24.03.2020
847 Clear 5 1017 12 0 1.92 358 10:43 24.03.2020
848 Clear 5 1017 12 0 1.92 358 10:20 24.03.2020
849 Clear 5 1017 12 0 1.92 358 10:20 24.03.2020
850 Clear 5 1017 12 0 1.92 358 09:59 24.03.2020
851 Clear 5 1017 12 0 1.92 358 09:41 24.03.2020
852 Clear 5 1017 12 0 1.92 358 09:22 24.03.2020
853 Clear 5 1017 12 0 1.92 358 08:39 24.03.2020
854 Clear 5 1017 12 0 1.92 358 08:21 24.03.2020
855 Clear 4 1017 14 0 2.83 346 08:21 24.03.2020
856 Clear 4 1017 14 0 2.83 346 08:21 24.03.2020
857 Clouds 1 1021 22 0 1.63 350 07:50 24.03.2020
858 Clouds 1 1021 22 0 1.63 350 07:25 24.03.2020
859 Clouds 1 1021 22 0 1.63 350 07:25 24.03.2020
860 Clouds 1 1021 22 0 1.63 350 06:59 24.03.2020
861 Clouds 1 1021 22 0 1.63 350 06:33 24.03.2020
862 Clouds 1 1021 22 0 1.63 350 05:30 24.03.2020
863 Clouds -1 1025 51 0 1.53 349 04:41 24.03.2020
864 Clouds -1 1025 51 0 1.53 349 03:19 24.03.2020
865 Snow -6 1025 82 0 1.24 311 01:59 24.03.2020
866 Snow -6 1025 83 0 0.66 327 00:52 24.03.2020
867 Snow -6 1025 83 0 0.66 327 00:26 24.03.2020
868 Snow -6 1025 83 0 0.66 327 23:50 23.03.2020
869 Snow -6 1025 83 0 0.66 327 23:30 23.03.2020
870 Clouds -3 1023 90 0 1.1 179 22:59 23.03.2020
871 Clouds -3 1023 90 0 1.1 179 22:40 23.03.2020
872 Clouds -3 1023 90 0 1.1 179 22:22 23.03.2020
873 Clouds -3 1023 90 0 1.1 179 21:54 23.03.2020
874 Clouds -3 1023 90 0 1.1 179 21:36 23.03.2020
875 Clouds -3 1023 90 0 1.1 179 21:18 23.03.2020
876 Clouds -3 1023 90 0 1.1 179 20:41 23.03.2020
877 Clouds -3 1023 90 0 1.1 179 20:23 23.03.2020
878 Snow 0 1020 62 0 1.58 300 19:55 23.03.2020
879 Snow 0 1020 62 0 1.58 300 19:55 23.03.2020
880 Snow 0 1020 62 0 1.58 300 19:55 23.03.2020
881 Snow 0 1020 62 0 1.58 300 19:37 23.03.2020
882 Snow 0 1020 62 0 1.58 300 19:18 23.03.2020
883 Snow 0 1020 62 0 1.58 300 18:43 23.03.2020
884 Snow 0 1020 62 0 1.58 300 18:24 23.03.2020
885 Snow 0 1020 62 0 1.58 300 17:58 23.03.2020
886 Snow 0 1020 62 0 1.58 300 17:39 23.03.2020
887 Clouds 1 1019 48 0 0.51 296 17:19 23.03.2020
888 Clouds 1 1019 48 0 0.51 296 16:43 23.03.2020
889 Clouds 1 1019 48 0 0.51 296 16:25 23.03.2020
890 Clouds 1 1019 48 0 0.51 296 15:54 23.03.2020
891 Clouds 1 1019 48 0 0.51 296 15:36 23.03.2020
892 Clouds 1 1019 48 0 0.51 296 15:18 23.03.2020
893 Clouds 1 1019 48 0 0.51 296 15:18 23.03.2020
894 Clouds 1 1019 48 0 0.51 296 14:37 23.03.2020
895 Clouds 0 1013 58 0 0.87 335 14:19 23.03.2020
896 Clouds 0 1013 58 0 0.87 335 14:19 23.03.2020
897 Clouds 0 1013 58 0 0.87 335 13:55 23.03.2020
898 Clouds 0 1013 58 0 0.87 335 13:37 23.03.2020
899 Clouds 0 1013 58 0 0.87 335 13:19 23.03.2020
900 Snow 2 1013 44 0 0.88 335 12:42 23.03.2020
901 Snow 2 1013 44 0 0.88 335 12:22 23.03.2020
902 Snow 2 1013 44 0 0.88 335 12:22 23.03.2020
903 Snow 2 1013 44 0 0.88 335 11:55 23.03.2020
904 Snow 2 1013 44 0 0.88 335 11:37 23.03.2020
905 Rain 5 1010 25 0 1.69 252 11:18 23.03.2020
906 Rain 5 1010 25 0 1.69 252 10:42 23.03.2020
907 Rain 5 1010 25 0 1.69 252 10:23 23.03.2020
908 Rain 5 1010 25 0 1.69 252 09:59 23.03.2020
909 Rain 5 1010 25 0 1.69 252 09:41 23.03.2020
910 Rain 5 1010 25 0 1.69 252 09:19 23.03.2020
911 Rain 5 1010 25 0 1.69 252 08:38 23.03.2020
912 Snow 4 1015 30 0 0.33 154 08:20 23.03.2020
913 Snow 4 1015 30 0 0.33 154 07:52 23.03.2020
914 Snow 4 1015 30 0 0.33 154 07:33 23.03.2020
915 Snow 4 1015 30 0 0.33 154 06:56 23.03.2020
916 Snow 4 1015 30 0 0.33 154 06:34 23.03.2020
917 Snow 4 1015 30 0 0.33 154 05:44 23.03.2020
918 Snow 4 1015 30 0 0.33 154 05:44 23.03.2020
919 Snow 0 1020 57 0 0.5 147 03:54 23.03.2020
920 Snow 0 1020 57 0 0.5 147 02:59 23.03.2020
921 Snow -3 1023 79 0 0.83 324 01:50 23.03.2020
922 Clouds -3 1023 60 0 0.3 273 00:50 23.03.2020
923 Clouds -3 1023 60 0 0.3 273 00:29 23.03.2020
924 Clouds -3 1023 60 0 0.3 273 23:44 22.03.2020
925 Clouds -3 1023 60 0 0.3 273 23:24 22.03.2020
926 Clouds -1 1021 53 0 0.35 130 22:42 22.03.2020
927 Clouds -1 1021 53 0 0.35 130 22:22 22.03.2020
928 Clouds -1 1021 53 0 0.35 130 21:54 22.03.2020
929 Clouds -1 1021 53 0 0.35 130 21:36 22.03.2020
930 Clouds -1 1021 53 0 0.35 130 21:18 22.03.2020
931 Clouds -1 1021 53 0 0.35 130 20:42 22.03.2020
932 Snow -2 1021 66 0 0.47 264 20:24 22.03.2020
933 Clouds 0 1022 42 0 2.19 189 19:56 22.03.2020
934 Clouds 0 1022 42 0 2.19 189 19:38 22.03.2020
935 Clouds 0 1022 42 0 2.19 189 19:19 22.03.2020
936 Clouds 0 1022 42 0 2.19 189 18:58 22.03.2020
937 Clouds 0 1022 42 0 2.19 189 18:40 22.03.2020
938 Clouds 0 1022 42 0 2.19 189 18:21 22.03.2020
939 Clouds 0 1022 42 0 2.19 189 17:57 22.03.2020
940 Clouds 0 1022 42 0 2.19 189 17:38 22.03.2020
941 Clouds 1 1021 33 0 1.84 18 17:20 22.03.2020
942 Clouds 1 1021 33 0 1.84 18 16:57 22.03.2020
943 Clouds 1 1021 33 0 1.84 18 16:39 22.03.2020
944 Clouds 1 1021 33 0 1.84 18 16:20 22.03.2020
945 Clouds 1 1021 33 0 1.84 18 15:40 22.03.2020
946 Clouds 1 1021 33 0 1.84 18 15:40 22.03.2020
947 Clouds 1 1021 33 0 1.84 18 15:20 22.03.2020
948 Clouds 1 1021 33 0 1.84 18 14:46 22.03.2020
949 Clouds 4 1015 23 0 1.72 75 14:19 22.03.2020
950 Clouds 4 1015 23 0 1.72 75 14:19 22.03.2020
951 Clouds 4 1015 23 0 1.72 75 13:44 22.03.2020
952 Clouds 4 1015 23 0 1.3 100 13:20 22.03.2020
953 Clouds 4 1015 23 0 1.3 100 12:59 22.03.2020
954 Clouds 4 1015 23 0 1.3 100 12:41 22.03.2020
955 Clouds 4 1015 23 0 1.3 100 12:19 22.03.2020
956 Clouds 4 1015 23 0 1.3 100 11:43 22.03.2020
957 Clouds 4 1015 23 0 1.3 100 11:25 22.03.2020
958 Clouds 5 1012 21 0 1.47 23 10:58 22.03.2020
959 Clouds 5 1012 21 0 1.47 23 10:40 22.03.2020
960 Clouds 5 1012 21 0 1.47 23 10:22 22.03.2020
961 Clouds 5 1012 21 0 1.47 23 10:22 22.03.2020
962 Clouds 5 1012 21 0 1.47 23 09:47 22.03.2020
963 Clouds 5 1012 21 0 1.47 23 09:28 22.03.2020
964 Clouds 5 1012 21 0 1.47 23 08:51 22.03.2020
965 Snow 3 1012 33 0 4.24 350 08:32 22.03.2020
966 Clouds 3 1017 33 0 0.98 97 07:56 22.03.2020
967 Clouds 3 1017 33 0 0.98 97 07:38 22.03.2020
968 Clouds 3 1017 33 0 0.98 97 06:48 22.03.2020
969 Clouds 3 1017 33 0 0.98 97 05:52 22.03.2020
970 Clouds -1 1021 56 0 0.31 151 04:39 22.03.2020
971 Clouds -5 1022 73 0 1.09 35 01:49 22.03.2020
972 Clouds -5 1022 71 0 0.86 18 00:50 22.03.2020
973 Clouds -5 1022 71 0 0.86 18 00:31 22.03.2020
974 Clouds -5 1022 71 0 0.86 18 23:46 21.03.2020
975 Clouds -5 1022 71 0 0.86 18 23:23 21.03.2020
976 Clouds -4 1021 61 0 0.94 360 22:59 21.03.2020
977 Clouds -4 1021 61 0 0.94 360 22:38 21.03.2020
978 Clouds -4 1021 61 0 0.94 360 22:20 21.03.2020
979 Clouds -4 1021 61 0 0.94 360 21:58 21.03.2020
980 Clouds -4 1021 61 0 0.94 360 21:38 21.03.2020
981 Clouds -4 1021 61 0 0.94 360 21:20 21.03.2020
982 Clouds -4 1021 61 0 0.94 360 20:43 21.03.2020
983 Clouds -4 1021 61 0 0.94 360 20:22 21.03.2020
984 Snow -3 1020 64 0 0.44 68 19:56 21.03.2020
985 Snow -3 1020 64 0 0.44 68 19:38 21.03.2020
986 Snow -3 1020 64 0 0.44 68 19:19 21.03.2020
987 Snow -3 1020 64 0 0.44 68 18:54 21.03.2020
988 Snow -3 1020 64 0 0.44 68 18:36 21.03.2020
989 Snow -3 1020 64 0 0.44 68 18:18 21.03.2020
990 Snow -3 1020 64 0 0.44 68 17:42 21.03.2020
991 Snow -3 1020 64 0 0.44 68 17:22 21.03.2020
992 Clouds -1 1019 53 0 1.68 26 16:43 21.03.2020
993 Clouds -1 1019 53 0 1.68 26 16:24 21.03.2020
994 Clouds -1 1019 53 0 1.68 26 16:24 21.03.2020
995 Clouds -1 1019 53 0 1.68 26 15:59 21.03.2020
996 Clouds -1 1019 53 0 1.68 26 15:41 21.03.2020
997 Clouds -1 1019 53 0 1.68 26 15:23 21.03.2020
998 Clouds -1 1019 53 0 1.68 26 14:58 21.03.2020
999 Clouds -1 1019 53 0 1.68 26 14:58 21.03.2020
1000 Clouds -1 1019 53 0 1.68 26 14:40 21.03.2020
1001 Rain 2 1013 35 0 2.8 58 14:20 21.03.2020
1002 Rain 2 1013 35 0 2.8 58 13:59 21.03.2020
1003 Rain 2 1013 35 0 2.8 58 13:40 21.03.2020
1004 Clouds 3 1013 22 0 2.48 82 13:21 21.03.2020
1005 Clouds 3 1013 22 0 2.48 82 13:21 21.03.2020
1006 Clouds 3 1013 22 0 2.48 82 12:58 21.03.2020
1007 Clouds 3 1013 22 0 2.48 82 12:37 21.03.2020
1008 Clouds 3 1013 22 0 2.48 82 12:19 21.03.2020
1009 Clouds 3 1013 22 0 2.48 82 11:55 21.03.2020
1010 Clouds 3 1013 22 0 2.48 82 11:37 21.03.2020
1011 Clouds 5 1010 19 0 1.64 307 11:18 21.03.2020
1012 Clouds 5 1010 19 0 1.64 307 10:56 21.03.2020
1013 Clouds 5 1010 19 0 1.64 307 10:38 21.03.2020
1014 Clouds 5 1010 19 0 1.64 307 10:19 21.03.2020
1015 Clouds 5 1010 19 0 1.64 307 09:55 21.03.2020
1016 Clouds 5 1010 19 0 1.64 307 09:36 21.03.2020
1017 Clouds 5 1010 19 0 1.64 307 09:18 21.03.2020
1018 Clouds 5 1010 19 0 1.64 307 08:42 21.03.2020
1019 Clouds 5 1010 19 0 1.64 307 08:23 21.03.2020
1020 Snow 2 1013 31 0 1.56 172 07:42 21.03.2020
1021 Snow 2 1013 31 0 1.56 172 07:23 21.03.2020
1022 Snow 2 1013 31 0 1.56 172 06:47 21.03.2020
1023 Snow 2 1013 31 0 1.56 172 06:27 21.03.2020
1024 Snow 2 1013 31 0 1.56 172 05:46 21.03.2020
1025 Clouds -2 1018 54 0 1.1 165 04:46 21.03.2020
1026 Clouds -2 1018 54 0 1.1 165 02:48 21.03.2020
1027 Clouds -2 1018 54 0 1.1 165 02:30 21.03.2020
1028 Clouds -7 1019 75 0 0.04 144 01:32 21.03.2020
1029 Clouds -6 1019 72 0 0.57 221 00:48 21.03.2020
1030 Clouds -6 1019 72 0 0.57 221 00:26 21.03.2020
1031 Clouds -6 1019 72 0 0.57 221 23:51 20.03.2020
1032 Clouds -6 1019 72 0 0.57 221 23:27 20.03.2020
1033 Snow -4 1017 69 0 0.99 120 22:57 20.03.2020
1034 Snow -4 1017 69 0 0.99 120 22:39 20.03.2020
1035 Snow -4 1017 69 0 0.99 120 22:20 20.03.2020
1036 Snow -4 1017 69 0 0.99 120 21:55 20.03.2020
1037 Snow -4 1017 69 0 0.99 120 21:37 20.03.2020
1038 Snow -4 1017 69 0 0.99 120 21:18 20.03.2020
1039 Snow -4 1017 69 0 0.99 120 20:55 20.03.2020
1040 Snow -4 1017 69 0 0.99 120 20:37 20.03.2020
1041 Snow -4 1017 66 0 1 152 20:18 20.03.2020
1042 Snow -4 1017 66 0 1 152 19:44 20.03.2020
1043 Snow -4 1017 66 0 1 152 19:18 20.03.2020
1044 Snow -4 1017 66 0 1 152 18:55 20.03.2020
1045 Snow -4 1017 66 0 1 152 18:36 20.03.2020
1046 Snow -4 1017 66 0 1 152 18:18 20.03.2020
1047 Snow -4 1017 66 0 1 152 17:39 20.03.2020
1048 Snow -4 1017 66 0 1 152 17:21 20.03.2020
1049 Snow -2 1015 56 0 2.42 136 16:57 20.03.2020
1050 Snow -2 1015 56 0 2.42 136 16:39 20.03.2020
1051 Snow -2 1015 56 0 2.42 136 16:18 20.03.2020
1052 Snow -2 1015 56 0 2.42 136 15:42 20.03.2020
1053 Snow -2 1015 56 0 2.42 136 15:21 20.03.2020
1054 Snow -2 1015 56 0 2.42 136 14:55 20.03.2020
1055 Snow -2 1015 56 0 2.42 136 14:37 20.03.2020
1056 Rain 2 1010 31 0 3.36 130 14:18 20.03.2020
1057 Rain 2 1010 31 0 3.36 130 13:42 20.03.2020
1058 Rain 2 1010 31 0 3.36 130 13:19 20.03.2020
1059 Rain 1 1010 39 0 4.08 134 12:40 20.03.2020
1060 Rain 1 1010 39 0 4.08 134 12:22 20.03.2020
1061 Rain 1 1010 39 0 4.08 134 11:57 20.03.2020
1062 Rain 1 1010 39 0 4.08 134 11:38 20.03.2020
1063 Clouds 5 1007 16 0 3.7 264 11:19 20.03.2020
1064 Clouds 5 1007 16 0 3.7 264 10:41 20.03.2020
1065 Clouds 5 1007 16 0 3.7 264 10:21 20.03.2020
1066 Clouds 5 1007 16 0 3.7 264 09:57 20.03.2020
1067 Clouds 5 1007 16 0 3.7 264 09:39 20.03.2020
1068 Clouds 5 1007 16 0 3.7 264 09:19 20.03.2020
1069 Clouds 5 1007 16 0 3.7 264 08:42 20.03.2020
1070 Rain 5 1007 13 0 2.83 236 08:22 20.03.2020
1071 Clouds 3 1012 22 0 2.08 195 07:54 20.03.2020
1072 Clouds 3 1012 22 0 2.08 195 07:36 20.03.2020
1073 Clouds 3 1012 22 0 2.08 195 07:18 20.03.2020
1074 Clouds 3 1012 22 0 2.08 195 06:41 20.03.2020
1075 Clouds 3 1012 22 0 2.08 195 06:41 20.03.2020
1076 Clouds -1 1017 45 0 2.12 172 04:52 20.03.2020
1077 Clouds -1 1017 45 0 2.12 172 03:22 20.03.2020
1078 Clouds -6 1018 79 0 1.79 158 02:20 20.03.2020
1079 Snow -5 1018 75 0 1.42 154 00:59 20.03.2020
1080 Snow -5 1018 75 0 1.42 154 00:31 20.03.2020
1081 Snow -5 1018 75 0 1.42 154 23:49 19.03.2020
1082 Snow -5 1018 75 0 1.42 154 23:30 19.03.2020
1083 Snow -3 1016 56 0 2.42 132 22:57 19.03.2020
1084 Snow -3 1016 56 0 2.42 132 22:38 19.03.2020
1085 Snow -3 1016 56 0 2.42 132 22:20 19.03.2020
1086 Snow -3 1016 56 0 2.42 132 21:42 19.03.2020
1087 Snow -3 1016 56 0 2.42 132 21:20 19.03.2020
1088 Snow -3 1016 56 0 2.42 132 20:59 19.03.2020
1089 Snow -3 1016 56 0 2.42 132 20:41 19.03.2020
1090 Clouds -4 1016 50 0 2.09 151 20:23 19.03.2020
1091 Clouds -2 1016 40 0 0.15 91 19:56 19.03.2020
1092 Clouds -2 1016 40 0 0.15 91 19:38 19.03.2020
1093 Clouds -2 1016 40 0 0.15 91 19:19 19.03.2020
1094 Clouds -2 1016 40 0 0.15 91 18:56 19.03.2020
1095 Clouds -2 1016 40 0 0.15 91 18:38 19.03.2020
1096 Clouds -2 1016 40 0 0.15 91 18:19 19.03.2020
1097 Clouds -2 1016 40 0 0.15 91 17:41 19.03.2020
1098 Clouds 1 1015 24 0 1.79 269 17:19 19.03.2020
1099 Clouds 1 1015 24 0 1.79 269 16:45 19.03.2020
1100 Clouds 1 1015 24 0 1.79 269 16:24 19.03.2020
1101 Clouds 1 1015 24 0 1.79 269 15:54 19.03.2020
1102 Clouds 1 1015 24 0 1.79 269 15:36 19.03.2020
1103 Clouds 1 1015 24 0 1.79 269 15:18 19.03.2020
1104 Clouds 1 1015 24 0 1.79 269 14:42 19.03.2020
1105 Clouds 1 1015 24 0 1.79 269 14:21 19.03.2020
1106 Clouds 4 1010 14 0 6.07 269 13:41 19.03.2020
1107 Clouds 4 1010 14 0 6.07 269 13:19 19.03.2020
1108 Clouds 4 1010 14 0 5.77 271 12:57 19.03.2020
1109 Clouds 4 1010 14 0 5.77 271 12:39 19.03.2020
1110 Clouds 4 1010 14 0 5.77 271 12:21 19.03.2020
1111 Clouds 4 1010 14 0 5.77 271 11:42 19.03.2020
1112 Clouds 4 1010 14 0 5.77 271 11:24 19.03.2020
1113 Rain 4 1006 27 0 2.04 290 10:57 19.03.2020
1114 Rain 4 1006 27 0 2.04 290 10:38 19.03.2020
1115 Rain 4 1006 27 0 2.04 290 10:19 19.03.2020
1116 Rain 4 1006 27 0 2.04 290 09:45 19.03.2020
1117 Rain 4 1006 27 0 2.04 290 09:27 19.03.2020
1118 Rain 4 1006 27 0 2.04 290 08:59 19.03.2020
1119 Rain 4 1006 27 0 2.04 290 08:41 19.03.2020
1120 Snow 4 1011 29 0 1.16 243 08:19 19.03.2020
1121 Snow 2 1012 38 0 1.7 263 07:44 19.03.2020
1122 Snow 2 1012 38 0 1.7 263 07:23 19.03.2020
1123 Snow 2 1012 38 0 1.7 263 06:34 19.03.2020
1124 Snow 2 1012 38 0 1.7 263 05:48 19.03.2020
1125 Clouds -2 1016 63 0 0.75 27 04:54 19.03.2020
1126 Clouds -2 1016 63 0 0.75 27 04:34 19.03.2020
1127 Clouds -2 1016 63 0 0.75 27 02:37 19.03.2020
1128 Snow -5 1017 80 0 1.68 5 00:58 19.03.2020
1129 Snow -5 1017 80 0 1.68 5 00:28 19.03.2020
1130 Snow -5 1017 80 0 1.68 5 23:48 18.03.2020
1131 Snow -5 1017 80 0 1.68 5 23:29 18.03.2020
1132 Snow -4 1016 74 0 2.3 26 22:56 18.03.2020
1133 Snow -4 1016 74 0 2.3 26 22:38 18.03.2020
1134 Snow -4 1016 74 0 2.3 26 22:20 18.03.2020
1135 Snow -4 1016 74 0 2.3 26 21:41 18.03.2020
1136 Snow -4 1016 74 0 2.3 26 21:21 18.03.2020
1137 Snow -4 1016 74 0 2.3 26 20:57 18.03.2020
1138 Snow -4 1016 74 0 2.3 26 20:39 18.03.2020
1139 Clouds 0 1017 50 0 1.7 84 20:20 18.03.2020
1140 Clouds 0 1017 50 0 1.7 84 19:56 18.03.2020
1141 Clouds 0 1017 50 0 1.7 84 19:37 18.03.2020
1142 Clouds 0 1017 50 0 1.7 84 19:19 18.03.2020
1143 Clouds 0 1017 50 0 1.7 84 19:19 18.03.2020
1144 Clouds 0 1017 50 0 1.7 84 18:41 18.03.2020
1145 Clouds 0 1017 50 0 1.7 84 18:20 18.03.2020
1146 Clouds 0 1017 50 0 1.7 84 17:58 18.03.2020
1147 Clouds 0 1017 50 0 1.7 84 17:39 18.03.2020
1148 Clouds 0 1017 50 0 1.7 84 17:21 18.03.2020
1149 Snow 1 1016 35 0 2.56 138 16:55 18.03.2020
1150 Snow 1 1016 35 0 2.56 138 16:37 18.03.2020
1151 Snow 1 1016 35 0 2.56 138 16:19 18.03.2020
1152 Snow 1 1016 35 0 2.56 138 15:45 18.03.2020
1153 Snow 1 1016 35 0 2.56 138 15:20 18.03.2020
1154 Snow 1 1016 35 0 2.56 138 14:45 18.03.2020
1155 Snow 1 1016 35 0 2.56 138 14:22 18.03.2020
1156 Clouds 4 1012 21 0 2.95 76 13:58 18.03.2020
1157 Clouds 4 1012 21 0 2.95 76 13:36 18.03.2020
1158 Clouds 5 1012 20 0 3 91 13:18 18.03.2020
1159 Clouds 5 1012 20 0 3 91 12:41 18.03.2020
1160 Clouds 5 1012 20 0 3 91 12:19 18.03.2020
1161 Clouds 5 1012 20 0 3 91 11:40 18.03.2020
1162 Clouds 5 1012 20 0 3 91 11:21 18.03.2020
1163 Clouds 7 1010 16 0 0.96 16 10:58 18.03.2020
1164 Clouds 7 1010 16 0 0.96 16 10:39 18.03.2020
1165 Clouds 7 1010 16 0 0.96 16 10:20 18.03.2020
1166 Clouds 7 1010 16 0 0.96 16 09:56 18.03.2020
1167 Clouds 7 1010 16 0 0.96 16 09:38 18.03.2020
1168 Clouds 7 1010 16 0 0.96 16 09:20 18.03.2020
1169 Clouds 7 1010 16 0 0.96 16 08:39 18.03.2020
1170 Clouds 7 1010 15 0 1.45 245 08:21 18.03.2020
1171 Clouds 7 1010 15 0 1.45 245 08:21 18.03.2020
1172 Clear 6 1015 23 0 0.63 182 07:49 18.03.2020
1173 Clear 6 1015 23 0 0.63 182 07:30 18.03.2020
1174 Clear 6 1015 23 0 0.63 182 06:45 18.03.2020
1175 Clear 6 1015 23 0 0.63 182 06:24 18.03.2020
1176 Clear 6 1015 23 0 0.63 182 05:35 18.03.2020
1177 Clouds 1 1021 35 0 0.78 175 04:27 18.03.2020
1178 Clouds 1 1021 35 0 0.78 175 02:49 18.03.2020
1179 Clouds 1 1021 35 0 0.78 175 02:23 18.03.2020
1180 Clear -6 1022 49 0 0.32 60 01:29 18.03.2020
1181 Clear -6 1023 47 0 0.29 33 00:26 18.03.2020
1182 Clear -6 1023 47 0 0.29 33 23:59 17.03.2020
1183 Clear -6 1022 50 0 0.23 68 23:40 17.03.2020
1184 Clear -4 1020 44 0 0.7 126 23:19 17.03.2020
1185 Clear -4 1020 44 0 0.7 126 22:42 17.03.2020
1186 Clear -4 1020 44 0 0.7 126 22:23 17.03.2020
1187 Clear -4 1020 44 0 0.7 126 21:42 17.03.2020
1188 Clear -4 1021 42 0 0.72 122 21:22 17.03.2020
1189 Clear -4 1021 42 0 0.72 122 20:56 17.03.2020
1190 Clear -4 1021 42 0 0.72 122 20:37 17.03.2020
1191 Clouds -1 1020 35 0 1.54 151 20:18 17.03.2020
1192 Clouds -1 1020 35 0 1.54 151 19:41 17.03.2020
1193 Clouds -1 1020 35 0 1.54 151 19:18 17.03.2020
1194 Clouds -1 1020 35 0 1.54 151 18:56 17.03.2020
1195 Clouds -1 1020 35 0 1.54 151 18:38 17.03.2020
1196 Clouds -1 1020 35 0 1.54 151 18:38 17.03.2020
1197 Clouds -1 1020 35 0 1.54 151 18:20 17.03.2020
1198 Clouds -1 1020 35 0 1.54 151 17:41 17.03.2020
1199 Clouds -1 1020 35 0 1.54 151 17:22 17.03.2020
1200 Clouds 2 1019 25 0 2.22 160 16:56 17.03.2020
1201 Clouds 2 1019 25 0 2.22 160 16:38 17.03.2020
1202 Clouds 2 1019 25 0 2.22 160 16:18 17.03.2020
1203 Clouds 2 1019 25 0 2.22 160 15:43 17.03.2020
1204 Clouds 2 1019 25 0 2.22 160 15:21 17.03.2020
1205 Clouds 2 1019 25 0 2.22 160 14:44 17.03.2020
1206 Clouds 2 1019 25 0 2.22 160 14:23 17.03.2020
1207 Clouds 5 1013 15 0 2.88 173 13:56 17.03.2020
1208 Clouds 5 1013 15 0 2.88 173 13:38 17.03.2020
1209 Clouds 5 1013 15 0 2.88 173 13:20 17.03.2020
1210 Clear 5 1013 16 0 2.75 193 12:42 17.03.2020
1211 Clear 5 1013 16 0 2.75 193 12:22 17.03.2020
1212 Clear 4 1013 13 0 2.79 194 11:48 17.03.2020
1213 Clear 5 1013 16 0 2.75 193 11:29 17.03.2020
1214 Clear 7 1011 8 0 1.51 230 10:58 17.03.2020
1215 Clear 7 1011 7 0 1.2 247 10:40 17.03.2020
1216 Clear 7 1011 8 0 1.51 230 10:22 17.03.2020
1217 Clear 7 1011 8 0 1.51 230 09:59 17.03.2020
1218 Clear 7 1011 8 0 1.51 230 09:40 17.03.2020
1219 Clear 7 1011 8 0 1.51 230 09:19 17.03.2020
1220 Clear 7 1011 7 0 1.2 247 08:48 17.03.2020
1221 Clear 7 1011 7 0 1.2 247 08:23 17.03.2020
1222 Clear 4 1016 11 0 2.26 216 07:56 17.03.2020
1223 Clear 4 1016 11 0 2.26 216 07:38 17.03.2020
1224 Clear 4 1016 11 0 2.26 216 07:19 17.03.2020
1225 Clear 4 1016 11 0 2.26 216 06:38 17.03.2020
1226 Clear 4 1016 11 0 2.26 216 05:58 17.03.2020
1227 Clear -1 1023 23 0 1.31 188 03:58 17.03.2020
1228 Clear -1 1023 23 0 1.31 188 02:54 17.03.2020
1229 Clear -9 1026 39 0 0.29 326 01:49 17.03.2020
1230 Clear -9 1026 42 0 0.29 329 01:25 17.03.2020
1231 Clear -9 1026 42 0 0.29 329 00:46 17.03.2020
1232 Clear -9 1026 42 0 0.29 329 23:50 16.03.2020
1233 Clear -9 1026 42 0 0.29 329 23:32 16.03.2020
1234 Clear -7 1025 35 0 0.52 29 22:42 16.03.2020
1235 Clear -7 1025 35 0 0.52 29 22:24 16.03.2020
1236 Clear -7 1025 35 0 0.52 29 21:58 16.03.2020
1237 Clear -7 1025 35 0 0.52 29 21:40 16.03.2020
1238 Clear -7 1025 35 0 0.52 29 21:22 16.03.2020
1239 Clear -7 1025 35 0 0.52 29 20:56 16.03.2020
1240 Clear -7 1025 35 0 0.52 29 20:38 16.03.2020
1241 Clouds -5 1025 29 0 0.15 145 20:19 16.03.2020
1242 Clouds -5 1025 26 0 0.37 184 19:41 16.03.2020
1243 Clouds -5 1025 26 0 0.37 184 19:21 16.03.2020
1244 Clouds -5 1025 26 0 0.37 184 18:56 16.03.2020
1245 Clouds -5 1025 26 0 0.37 184 18:37 16.03.2020
1246 Clouds -5 1025 26 0 0.37 184 18:18 16.03.2020
1247 Clouds -5 1025 26 0 0.37 184 17:42 16.03.2020
1248 Clouds -5 1025 26 0 0.37 184 17:22 16.03.2020
1249 Clouds -3 1024 23 0 0.3 293 16:46 16.03.2020
1250 Clouds -3 1024 23 0 0.3 293 16:27 16.03.2020
1251 Clouds -3 1024 23 0 0.3 293 15:56 16.03.2020
1252 Clouds -3 1024 23 0 0.3 293 15:37 16.03.2020
1253 Clouds -3 1024 23 0 0.3 293 15:18 16.03.2020
1254 Clouds -3 1024 23 0 0.3 293 14:39 16.03.2020
1255 Clouds 1 1019 20 0 2.44 300 14:19 16.03.2020
1256 Clouds 1 1019 20 0 2.44 300 13:41 16.03.2020
1257 Clouds 1 1018 18 0 2.73 295 13:23 16.03.2020
1258 Clouds 1 1018 18 0 2.73 295 12:45 16.03.2020
1259 Clouds 1 1018 18 0 2.73 295 12:26 16.03.2020
1260 Clouds 1 1018 18 0 2.73 295 11:58 16.03.2020
1261 Clouds 1 1018 18 0 2.73 295 11:39 16.03.2020
1262 Clouds 3 1015 14 0 3.73 281 11:18 16.03.2020
1263 Clouds 3 1015 14 0 3.73 281 10:41 16.03.2020
1264 Clouds 3 1015 14 0 3.73 281 10:19 16.03.2020
1265 Clouds 3 1015 14 0 3.73 281 09:44 16.03.2020
1266 Clouds 3 1015 14 0 3.73 281 09:24 16.03.2020
1267 Clouds 3 1015 14 0 3.73 281 08:56 16.03.2020
1268 Clouds 4 1015 10 0 5.13 281 08:25 16.03.2020
1269 Clouds 2 1018 17 0 2.74 239 07:50 16.03.2020
1270 Clouds 2 1018 17 0 2.74 239 07:28 16.03.2020
1271 Clouds 2 1018 17 0 2.74 239 06:54 16.03.2020
1272 Clouds 2 1018 17 0 2.74 239 06:26 16.03.2020
1273 Clouds 2 1018 17 0 2.74 239 05:50 16.03.2020
1274 Clouds -1 1022 32 0 2.24 172 02:45 16.03.2020
1275 Clouds -8 1024 56 0 1.36 105 01:20 16.03.2020
1276 Clouds -8 1024 56 0 1.36 105 00:40 16.03.2020
1277 Clouds -8 1024 56 0 1.36 105 23:48 15.03.2020
1278 Clouds -8 1024 56 0 1.36 105 23:20 15.03.2020
1279 Clouds -5 1021 44 0 1.88 125 22:43 15.03.2020
1280 Clouds -5 1021 44 0 1.88 125 22:24 15.03.2020
1281 Clouds -5 1021 44 0 1.88 125 21:59 15.03.2020
1282 Clouds -5 1021 44 0 1.88 125 21:39 15.03.2020
1283 Clouds -5 1021 44 0 1.88 125 21:19 15.03.2020
1284 Clouds -5 1021 44 0 1.88 125 20:43 15.03.2020
1285 Clouds -5 1021 44 0 1.88 125 20:22 15.03.2020
1286 Clouds -4 1019 31 0 1.05 17 19:58 15.03.2020
1287 Clouds -4 1019 31 0 1.05 17 19:40 15.03.2020
1288 Clouds -4 1019 31 0 1.05 17 19:21 15.03.2020
1289 Clouds -4 1019 31 0 1.05 17 18:56 15.03.2020
1290 Clouds -4 1019 31 0 1.05 17 18:38 15.03.2020
1291 Clouds -4 1019 31 0 1.05 17 18:20 15.03.2020
1292 Clouds -4 1019 31 0 1.05 17 17:41 15.03.2020
1293 Clouds -4 1019 31 0 1.05 17 17:22 15.03.2020
1294 Clear -2 1017 26 0 2.15 265 16:59 15.03.2020
1295 Clear -2 1017 26 0 2.15 265 16:40 15.03.2020
1296 Clear -2 1017 26 0 2.15 265 16:21 15.03.2020
1297 Clear -2 1017 26 0 2.15 265 15:54 15.03.2020
1298 Clear -2 1017 26 0 2.15 265 15:36 15.03.2020
1299 Clear -2 1017 26 0 2.15 265 15:18 15.03.2020
1300 Clear -2 1017 26 0 2.15 265 14:39 15.03.2020
1301 Clear -2 1017 26 0 2.15 265 14:21 15.03.2020
1302 Clouds 2 1011 14 0 8.41 229 13:56 15.03.2020
1303 Clouds 2 1011 14 0 8.41 229 13:37 15.03.2020
1304 Clouds 3 1010 14 0 8.09 238 13:18 15.03.2020
1305 Clouds 3 1010 14 0 8.09 238 12:40 15.03.2020
1306 Clouds 3 1010 14 0 8.09 238 12:22 15.03.2020
1307 Clouds 3 1010 14 0 8.09 238 11:44 15.03.2020
1308 Clouds 3 1010 14 0 8.09 238 11:25 15.03.2020
1309 Clouds 7 1007 9 0 17.66 227 10:59 15.03.2020
1310 Clouds 7 1007 9 0 17.66 227 10:40 15.03.2020
1311 Clouds 7 1007 9 0 17.66 227 10:22 15.03.2020
1312 Clouds 7 1007 9 0 17.66 227 09:59 15.03.2020
1313 Clouds 7 1007 9 0 17.66 227 09:38 15.03.2020
1314 Clouds 7 1007 9 0 17.66 227 09:20 15.03.2020
1315 Clouds 7 1007 9 0 17.66 227 08:41 15.03.2020
1316 Clouds 8 1012 7 0 12.82 222 08:19 15.03.2020
1317 Clouds 8 1012 7 0 12.82 222 07:49 15.03.2020
1318 Clouds 8 1012 7 0 12.82 222 07:22 15.03.2020
1319 Clouds 8 1012 7 0 12.82 222 06:44 15.03.2020
1320 Clouds 8 1012 7 0 12.82 222 05:49 15.03.2020
1321 Clear 3 1017 20 0 4.55 195 04:57 15.03.2020
1322 Clear 3 1017 20 0 4.55 195 04:39 15.03.2020
1323 Clear 3 1017 20 0 4.55 195 04:20 15.03.2020
1324 Clear 3 1017 20 0 4.55 195 03:19 15.03.2020
1325 Clear 3 1017 20 0 4.55 195 02:23 15.03.2020
1326 Clouds -5 1019 64 0 1.92 142 00:59 15.03.2020
1327 Clouds -5 1019 64 0 1.92 142 00:40 15.03.2020
1328 Clouds -5 1019 64 0 1.92 142 00:19 15.03.2020
1329 Clouds -5 1019 64 0 1.92 142 23:40 14.03.2020
1330 Clouds -2 1015 54 0 2.32 157 23:20 14.03.2020
1331 Clouds -2 1015 54 0 2.32 157 22:56 14.03.2020
1332 Clouds -2 1015 54 0 2.32 157 22:38 14.03.2020
1333 Clouds -2 1015 54 0 2.32 157 22:19 14.03.2020
1334 Clouds -2 1015 54 0 2.32 157 21:55 14.03.2020
1335 Clouds -2 1015 54 0 2.32 157 21:36 14.03.2020
1336 Clouds -2 1015 54 0 2.32 157 21:36 14.03.2020
1337 Clouds -2 1015 54 0 2.32 157 21:18 14.03.2020
1338 Clouds -2 1015 54 0 2.32 157 21:18 14.03.2020
1339 Clouds -2 1015 54 0 2.32 157 20:56 14.03.2020
1340 Clouds -2 1015 54 0 2.32 157 20:56 14.03.2020
1341 Clouds -2 1015 54 0 2.32 157 20:38 14.03.2020
1342 Clouds 1 1016 50 0 2.55 134 20:18 14.03.2020
1343 Rain 0 1016 57 0 2.44 134 19:41 14.03.2020
1344 Rain 0 1016 57 0 2.44 134 19:21 14.03.2020
1345 Rain 0 1016 57 0 2.44 134 18:41 14.03.2020
1346 Rain 0 1016 57 0 2.44 134 18:21 14.03.2020
1347 Rain 0 1016 57 0 2.44 134 17:43 14.03.2020
1348 Rain 0 1016 57 0 2.44 134 17:24 14.03.2020
1349 Snow 3 1016 50 0 2.7 147 16:59 14.03.2020
1350 Snow 3 1016 50 0 2.7 147 16:40 14.03.2020
1351 Snow 3 1016 50 0 2.7 147 16:21 14.03.2020
1352 Snow 3 1016 50 0 2.7 147 15:51 14.03.2020
1353 Snow 3 1016 50 0 2.7 147 15:25 14.03.2020
1354 Snow 3 1016 50 0 2.7 147 14:45 14.03.2020
1355 Snow 3 1016 50 0 2.7 147 14:23 14.03.2020
1356 Snow 4 1014 52 0 2.06 178 13:57 14.03.2020
1357 Snow 4 1014 52 0 2.06 178 13:39 14.03.2020
1358 Snow 3 1013 61 0 3.4 158 13:20 14.03.2020
1359 Snow 3 1013 61 0 3.4 158 12:44 14.03.2020
1360 Snow 3 1013 61 0 3.4 158 12:26 14.03.2020
1361 Snow 3 1013 61 0 3.4 158 11:48 14.03.2020
1362 Snow 3 1013 61 0 3.4 158 11:28 14.03.2020
1363 Snow 5 1012 40 0 2.57 201 10:59 14.03.2020
1364 Snow 5 1012 40 0 2.57 201 10:41 14.03.2020
1365 Snow 5 1012 40 0 2.57 201 10:23 14.03.2020
1366 Snow 5 1012 40 0 2.57 201 09:44 14.03.2020
1367 Snow 5 1012 40 0 2.57 201 09:24 14.03.2020
1368 Snow 5 1012 40 0 2.57 201 09:24 14.03.2020
1369 Snow 5 1012 40 0 2.57 201 08:48 14.03.2020
1370 Snow 6 1012 32 0 3.68 170 08:29 14.03.2020
1371 Clouds 6 1016 25 0 2.96 182 07:55 14.03.2020
1372 Clouds 6 1016 25 0 2.96 182 07:37 14.03.2020
1373 Clouds 6 1016 25 0 2.96 182 07:19 14.03.2020
1374 Clouds 6 1016 25 0 2.96 182 06:40 14.03.2020
1375 Clouds 6 1016 25 0 2.96 182 05:24 14.03.2020
1376 Clouds 2 1022 39 0 2.26 181 03:49 14.03.2020
1377 Clouds 2 1022 39 0 2.26 181 03:24 14.03.2020
1378 Clouds 2 1022 39 0 2.26 181 02:22 14.03.2020
1379 Clouds -4 1024 64 0 1.96 144 00:49 14.03.2020
1380 Clouds -4 1024 64 0 1.96 144 23:50 13.03.2020
1381 Clouds -4 1024 64 0 1.96 144 23:30 13.03.2020
1382 Clear -2 1023 60 0 2.57 158 22:52 13.03.2020
1383 Clear -2 1023 60 0 2.57 158 22:26 13.03.2020
1384 Clear -2 1023 60 0 2.57 158 21:44 13.03.2020
1385 Clear -2 1023 60 0 2.57 158 21:22 13.03.2020
1386 Clear -2 1023 60 0 2.57 158 20:59 13.03.2020
1387 Clear -2 1023 60 0 2.57 158 20:41 13.03.2020
1388 Clouds -2 1023 59 0 2.11 139 20:21 13.03.2020
1389 Clear 0 1024 48 0 2.08 145 19:48 13.03.2020
1390 Clear 0 1024 48 0 2.08 145 19:30 13.03.2020
1391 Clear 0 1024 48 0 2.08 145 18:49 13.03.2020
1392 Clear 0 1024 48 0 2.08 145 18:31 13.03.2020
1393 Clear 0 1024 48 0 2.08 145 17:57 13.03.2020
1394 Clear 0 1024 48 0 2.08 145 17:39 13.03.2020
1395 Clear 2 1022 29 0 2.52 179 17:20 13.03.2020
1396 Clear 2 1022 29 0 2.52 179 16:42 13.03.2020
1397 Clear 2 1022 29 0 2.52 179 16:24 13.03.2020
1398 Clear 2 1022 29 0 2.52 179 15:58 13.03.2020
1399 Clear 2 1022 29 0 2.52 179 15:38 13.03.2020
1400 Clear 2 1022 29 0 2.52 179 15:20 13.03.2020
1401 Clear 2 1022 29 0 2.52 179 14:43 13.03.2020
1402 Clear 2 1022 29 0 2.52 179 14:22 13.03.2020
1403 Clouds 6 1016 15 0 3.62 237 13:57 13.03.2020
1404 Clouds 6 1016 15 0 3.62 237 13:39 13.03.2020
1405 Clouds 6 1015 17 0 4.65 236 13:19 13.03.2020
1406 Clouds 6 1015 17 0 4.65 236 12:55 13.03.2020
1407 Clouds 6 1015 17 0 4.65 236 12:36 13.03.2020
1408 Clouds 6 1015 17 0 4.65 236 12:18 13.03.2020
1409 Clouds 6 1015 17 0 4.65 236 11:42 13.03.2020
1410 Clouds 6 1015 17 0 4.65 236 11:24 13.03.2020
1411 Clouds 10 1011 10 0 2.91 65 10:57 13.03.2020
1412 Clouds 10 1011 10 0 2.91 65 10:38 13.03.2020
1413 Clouds 10 1011 10 0 2.91 65 10:20 13.03.2020
1414 Clouds 10 1011 10 0 2.91 65 09:43 13.03.2020
1415 Clouds 10 1011 10 0 2.91 65 09:24 13.03.2020
1416 Clouds 10 1011 10 0 2.91 65 08:47 13.03.2020
1417 Clouds 10 1011 10 0 2.91 65 08:23 13.03.2020
1418 Clear 7 1017 10 0 2.13 188 07:58 13.03.2020
1419 Clear 7 1017 10 0 2.13 188 07:38 13.03.2020
1420 Clear 7 1017 10 0 2.13 188 07:18 13.03.2020
1421 Clear 7 1017 10 0 2.13 188 06:43 13.03.2020
1422 Clear 7 1017 10 0 2.13 188 05:56 13.03.2020
1423 Clear 7 1017 10 0 2.13 188 05:37 13.03.2020
1424 Clear 2 1023 25 0 1.64 164 04:38 13.03.2020
1425 Clear 2 1023 25 0 1.64 164 03:46 13.03.2020
1426 Clear -6 1025 45 0 1.03 119 01:48 13.03.2020
1427 Clear -6 1025 49 0 1 120 01:19 13.03.2020
1428 Clear -6 1025 49 0 1 120 00:56 13.03.2020
1429 Clear -6 1025 49 0 1 120 00:37 13.03.2020
1430 Clear -6 1025 49 0 1 120 00:18 13.03.2020
1431 Clear -6 1025 49 0 1 120 23:29 12.03.2020
1432 Clear -3 1023 37 0 1.27 166 22:58 12.03.2020
1433 Clear -3 1023 37 0 1.27 166 22:40 12.03.2020
1434 Clear -3 1023 37 0 1.27 166 22:22 12.03.2020
1435 Clear -3 1023 37 0 1.27 166 21:54 12.03.2020
1436 Clear -3 1023 37 0 1.27 166 21:36 12.03.2020
1437 Clear -3 1023 37 0 1.27 166 21:18 12.03.2020
1438 Clear -3 1023 37 0 1.27 166 20:41 12.03.2020
1439 Clear -1 1022 32 0 0.5 244 20:19 12.03.2020
1440 Clear -1 1022 29 0 0.4 237 19:42 12.03.2020
1441 Clear -1 1022 29 0 0.4 237 19:21 12.03.2020
1442 Clear -1 1022 29 0 0.4 237 18:45 12.03.2020
1443 Clear -1 1022 29 0 0.4 237 18:25 12.03.2020
1444 Clear -1 1022 29 0 0.4 237 17:57 12.03.2020
1445 Clear -1 1022 29 0 0.4 237 17:39 12.03.2020
1446 Clear -1 1022 29 0 0.4 237 17:21 12.03.2020
1447 Clear -1 1022 29 0 0.4 237 17:21 12.03.2020
1448 Clear 1 1020 16 0 2.41 297 16:58 12.03.2020
1449 Clear 1 1020 16 0 2.41 297 16:39 12.03.2020
1450 Clear 1 1020 16 0 2.41 297 16:20 12.03.2020
1451 Clear 1 1020 16 0 2.41 297 15:47 12.03.2020
1452 Clear 1 1020 16 0 2.41 297 15:27 12.03.2020
1453 Clear 1 1020 16 0 2.41 297 14:43 12.03.2020
1454 Clear 1 1020 16 0 2.41 297 14:24 12.03.2020
1455 Clear 6 1014 10 0 4.1 303 13:58 12.03.2020
1456 Clear 6 1014 10 0 4.1 303 13:37 12.03.2020
1457 Clear 6 1013 10 0 4.34 302 13:19 12.03.2020
1458 Clear 6 1013 10 0 4.34 302 12:43 12.03.2020
1459 Clear 6 1013 10 0 4.34 302 12:22 12.03.2020
1460 Clear 6 1013 10 0 4.34 302 11:58 12.03.2020
1461 Clear 6 1013 10 0 4.34 302 11:39 12.03.2020
1462 Clear 6 1013 10 0 4.34 302 11:39 12.03.2020
1463 Clear 10 1009 6 0 10.72 282 11:20 12.03.2020
1464 Clear 10 1009 6 0 10.72 282 10:59 12.03.2020
1465 Clear 10 1009 6 0 10.72 282 10:41 12.03.2020
1466 Clear 10 1009 6 0 10.72 282 10:22 12.03.2020
1467 Clear 10 1009 6 0 10.72 282 09:49 12.03.2020
1468 Clear 10 1009 6 0 10.72 282 09:28 12.03.2020
1469 Clear 10 1009 6 0 10.72 282 08:55 12.03.2020
1470 Clear 10 1009 6 0 10.72 282 08:37 12.03.2020
1471 Clear 9 1014 7 0 4.87 271 08:18 12.03.2020
1472 Clear 9 1013 7 0 6.11 266 07:46 12.03.2020
1473 Clear 9 1013 7 0 6.11 266 07:21 12.03.2020
1474 Clear 9 1013 7 0 6.11 266 05:59 12.03.2020
1475 Clear 9 1013 7 0 6.11 266 05:27 12.03.2020
1476 Clear 3 1017 21 0 2.38 177 02:47 12.03.2020
1477 Clear -5 1020 44 0 0.95 171 01:39 12.03.2020
1478 Clear -6 1019 46 0 1.34 155 01:20 12.03.2020
1479 Clear -6 1019 46 0 1.34 155 00:41 12.03.2020
1480 Clear -6 1019 46 0 1.34 155 23:57 11.03.2020
1481 Clear -6 1019 46 0 1.34 155 23:28 11.03.2020
1482 Clear -4 1017 40 0 1.32 143 22:58 11.03.2020
1483 Clear -4 1017 40 0 1.32 143 22:39 11.03.2020
1484 Clear -4 1017 40 0 1.32 143 22:21 11.03.2020
1485 Clear -4 1017 40 0 1.32 143 21:56 11.03.2020
1486 Clear -4 1017 40 0 1.32 143 21:37 11.03.2020
1487 Clear -4 1017 40 0 1.32 143 21:19 11.03.2020
1488 Clear -4 1017 40 0 1.32 143 20:55 11.03.2020
1489 Clear -4 1017 40 0 1.32 143 20:55 11.03.2020
1490 Clear -4 1017 40 0 1.32 143 20:36 11.03.2020
1491 Clear -2 1017 20 0 1.19 251 20:18 11.03.2020
1492 Clear -2 1017 20 0 1.19 251 19:42 11.03.2020
1493 Clear -2 1017 20 0 1.19 251 19:23 11.03.2020
1494 Clear -2 1017 20 0 1.19 251 18:56 11.03.2020
1495 Clear -2 1017 20 0 1.19 251 18:36 11.03.2020
1496 Clear -2 1017 20 0 1.19 251 18:18 11.03.2020
1497 Clear -2 1017 20 0 1.19 251 17:40 11.03.2020
1498 Clear -2 1017 20 0 1.19 251 17:21 11.03.2020
1499 Clear 1 1014 17 0 2.06 270 16:56 11.03.2020
1500 Clear 1 1014 17 0 2.06 270 16:38 11.03.2020
1501 Clear 1 1014 17 0 2.06 270 16:19 11.03.2020
1502 Clear 1 1014 17 0 2.06 270 15:42 11.03.2020
1503 Clear 1 1014 17 0 2.06 270 15:23 11.03.2020
1504 Clear 1 1014 17 0 2.06 270 14:46 11.03.2020
1505 Clear 1 1014 17 0 2.06 270 14:24 11.03.2020
1506 Clouds 6 1008 10 0 4.76 254 13:59 11.03.2020
1507 Clouds 6 1008 10 0 4.76 254 13:40 11.03.2020
1508 Clouds 6 1007 10 0 5.65 258 13:22 11.03.2020
1509 Clouds 6 1007 10 0 5.65 258 12:56 11.03.2020
1510 Clouds 6 1007 10 0 5.65 258 12:37 11.03.2020
1511 Clouds 6 1007 10 0 5.65 258 12:18 11.03.2020
1512 Clouds 6 1007 10 0 5.65 258 11:40 11.03.2020
1513 Clouds 9 1004 10 0 12.64 274 11:20 11.03.2020
1514 Clouds 9 1004 10 0 12.64 274 10:47 11.03.2020
1515 Clouds 9 1004 10 0 12.64 274 10:20 11.03.2020
1516 Clouds 9 1004 10 0 12.64 274 09:59 11.03.2020
1517 Clouds 9 1004 10 0 12.64 274 09:40 11.03.2020
1518 Clouds 9 1004 10 0 12.64 274 09:21 11.03.2020
1519 Clouds 9 1004 10 0 12.64 274 08:42 11.03.2020
1520 Clouds 9 1004 10 0 12.64 274 08:24 11.03.2020
1521 Clear 6 1009 20 0 1.55 206 07:47 11.03.2020
1522 Clear 6 1009 20 0 1.55 206 07:20 11.03.2020
1523 Clear 6 1009 20 0 1.55 206 06:50 11.03.2020
1524 Clear 6 1009 20 0 1.55 206 06:30 11.03.2020
1525 Clear 6 1009 20 0 1.55 206 05:32 11.03.2020
1526 Clear 0 1015 39 0 1.8 152 02:45 11.03.2020
1527 Clear -6 1017 58 0 1.56 118 01:53 11.03.2020
1528 Clear -6 1017 58 0 1.63 116 01:23 11.03.2020
1529 Clear -6 1017 58 0 1.63 116 00:37 11.03.2020
1530 Clear -6 1017 58 0 1.63 116 23:50 10.03.2020
1531 Clear -6 1017 58 0 1.63 116 23:28 10.03.2020
1532 Clear -4 1014 50 0 1.46 110 22:58 10.03.2020
1533 Clear -4 1014 50 0 1.46 110 22:37 10.03.2020
1534 Clear -4 1014 50 0 1.46 110 22:19 10.03.2020
1535 Clear -4 1014 50 0 1.46 110 21:56 10.03.2020
1536 Clear -4 1014 50 0 1.46 110 21:38 10.03.2020
1537 Clear -4 1014 50 0 1.46 110 21:19 10.03.2020
1538 Clear -4 1014 50 0 1.46 110 20:43 10.03.2020
1539 Clear -4 1014 50 0 1.46 110 20:21 10.03.2020
1540 Clear -1 1016 43 0 2.4 146 19:59 10.03.2020
1541 Clear -1 1016 43 0 2.4 146 19:41 10.03.2020
1542 Clear -1 1016 43 0 2.4 146 19:23 10.03.2020
1543 Clear -1 1016 43 0 2.4 146 18:58 10.03.2020
1544 Clear -1 1016 43 0 2.4 146 18:40 10.03.2020
1545 Clear -1 1016 43 0 2.4 146 18:21 10.03.2020
1546 Clear -1 1016 43 0 2.4 146 17:56 10.03.2020
1547 Clear -1 1016 43 0 2.4 146 17:37 10.03.2020
1548 Clear 1 1013 29 0 2.13 150 17:18 10.03.2020
1549 Clear 1 1013 29 0 2.13 150 16:38 10.03.2020
1550 Clear 1 1013 29 0 2.13 150 16:18 10.03.2020
1551 Clear 1 1013 29 0 2.13 150 15:43 10.03.2020
1552 Clear 1 1013 29 0 2.13 150 15:20 10.03.2020
1553 Clear 1 1013 29 0 2.13 150 14:59 10.03.2020
1554 Clear 1 1013 29 0 2.13 150 14:40 10.03.2020
1555 Clear 4 1008 10 0 1.05 25 14:19 10.03.2020
1556 Clear 4 1008 10 0 1.05 25 13:45 10.03.2020
1557 Clear 4 1008 10 0 1.05 25 13:26 10.03.2020
1558 Clear 4 1008 11 0 1.22 75 12:57 10.03.2020
1559 Clear 4 1008 11 0 1.22 75 12:37 10.03.2020
1560 Clear 4 1008 11 0 1.22 75 12:37 10.03.2020
1561 Clear 4 1008 11 0 1.22 75 12:18 10.03.2020
1562 Clear 4 1008 11 0 1.22 75 11:42 10.03.2020
1563 Clear 4 1008 11 0 1.22 75 11:24 10.03.2020
1564 Clear 8 1005 6 0 1.09 212 10:58 10.03.2020
1565 Clear 8 1005 6 0 1.09 212 10:40 10.03.2020
1566 Clear 8 1005 6 0 1.09 212 10:21 10.03.2020
1567 Clear 8 1005 6 0 1.09 212 09:56 10.03.2020
1568 Clear 8 1005 6 0 1.09 212 09:37 10.03.2020
1569 Clear 8 1005 6 0 1.09 212 09:18 10.03.2020
1570 Clear 8 1005 6 0 1.09 212 08:43 10.03.2020
1571 Clear 8 1004 6 0 1.65 208 08:25 10.03.2020
1572 Clear 6 1011 9 0 2.26 243 07:46 10.03.2020
1573 Clear 6 1011 9 0 2.26 243 07:28 10.03.2020
1574 Clear 6 1011 9 0 2.26 243 06:38 10.03.2020
1575 Clear 6 1011 9 0 2.26 243 05:58 10.03.2020
1576 Clear 6 1011 9 0 2.26 243 05:38 10.03.2020
1577 Clear -1 1016 17 0 0.9 153 04:34 10.03.2020
1578 Clear -1 1016 17 0 0.9 153 03:31 10.03.2020
1579 Clear -8 1020 26 0 1.08 66 01:55 10.03.2020
1580 Clear -8 1019 28 0 0.85 69 00:53 10.03.2020
1581 Clear -8 1019 28 0 0.85 69 00:30 10.03.2020
1582 Clear -8 1019 28 0 0.85 69 23:56 09.03.2020
1583 Clear -8 1019 28 0 0.85 69 23:37 09.03.2020
1584 Clear -6 1017 24 0 0.83 77 23:19 09.03.2020
1585 Clear -6 1017 24 0 0.83 77 22:40 09.03.2020
1586 Clear -6 1017 24 0 0.83 77 22:21 09.03.2020
1587 Clear -6 1017 24 0 0.83 77 21:56 09.03.2020
1588 Clear -6 1017 24 0 0.83 77 21:38 09.03.2020
1589 Clear -6 1017 24 0 0.83 77 21:20 09.03.2020
1590 Clear -6 1017 24 0 0.83 77 20:41 09.03.2020
1591 Clear -6 1017 24 0 0.83 77 20:41 09.03.2020
1592 Clear -7 1017 22 0 0.68 42 20:23 09.03.2020
1593 Clouds -4 1018 18 0 0.5 321 19:59 09.03.2020
1594 Clouds -4 1018 18 0 0.5 321 19:41 09.03.2020
1595 Clouds -4 1018 18 0 0.5 321 19:20 09.03.2020
1596 Clouds -4 1018 18 0 0.5 321 18:57 09.03.2020
1597 Clouds -4 1018 18 0 0.5 321 18:38 09.03.2020
1598 Clouds -4 1018 18 0 0.5 321 18:18 09.03.2020
1599 Clouds -4 1018 18 0 0.5 321 17:56 09.03.2020
1600 Clouds -4 1018 18 0 0.5 321 17:37 09.03.2020
1601 Clouds -4 1018 18 0 0.5 321 17:37 09.03.2020
1602 Clouds -2 1016 14 0 0.68 328 17:19 09.03.2020
1603 Clouds -2 1016 14 0 0.68 328 16:56 09.03.2020
1604 Clouds -2 1016 14 0 0.68 328 16:38 09.03.2020
1605 Clouds -2 1016 14 0 0.68 328 16:20 09.03.2020
1606 Clouds -2 1016 14 0 0.68 328 16:20 09.03.2020
1607 Clouds -2 1016 14 0 0.68 328 15:56 09.03.2020
1608 Clouds -2 1016 14 0 0.68 328 15:38 09.03.2020
1609 Clouds -2 1016 14 0 0.68 328 15:18 09.03.2020
1610 Clouds -2 1016 14 0 0.68 328 14:39 09.03.2020
1611 Clouds 2 1012 10 0 2.54 44 14:21 09.03.2020
1612 Clouds 2 1012 10 0 2.54 44 13:59 09.03.2020
1613 Clouds 2 1012 10 0 2.54 44 13:59 09.03.2020
1614 Clouds 2 1012 10 0 2.54 44 13:39 09.03.2020
1615 Clouds 2 1012 10 0 2.54 44 13:39 09.03.2020
1616 Clouds 2 1012 10 0 2.54 44 13:21 09.03.2020
1617 Clear 2 1012 11 0 2.09 7 12:59 09.03.2020
1618 Clear 2 1012 11 0 2.09 7 12:40 09.03.2020
1619 Clear 2 1012 11 0 2.09 7 12:19 09.03.2020
1620 Clear 2 1012 11 0 2.09 7 11:40 09.03.2020
1621 Clear 2 1012 11 0 2.09 7 11:40 09.03.2020
1622 Clear 6 1008 7 0 5.62 320 11:20 09.03.2020
1623 Clear 6 1008 7 0 5.62 320 10:58 09.03.2020
1624 Clear 6 1008 7 0 5.62 320 10:40 09.03.2020
1625 Clear 6 1008 7 0 5.62 320 10:19 09.03.2020
1626 Clear 6 1008 7 0 5.62 320 09:42 09.03.2020
1627 Clear 6 1008 7 0 5.62 320 09:24 09.03.2020
1628 Clear 6 1008 7 0 5.62 320 08:54 09.03.2020
1629 Clear 6 1008 7 0 5.62 320 08:36 09.03.2020
1630 Clear 5 1014 6 0 4.12 282 08:18 09.03.2020
1631 Clear 5 1014 6 0 4.12 282 07:39 09.03.2020
1632 Clear 5 1014 6 0 4.12 282 07:21 09.03.2020
1633 Clear 5 1014 6 0 4.12 282 06:43 09.03.2020
1634 Clear 5 1014 6 0 4.12 282 06:23 09.03.2020
1635 Clear 5 1014 6 0 4.12 282 05:46 09.03.2020
1636 Clear -1 1017 16 0 0.62 96 04:59 09.03.2020
1637 Clear -1 1017 16 0 0.62 96 04:40 09.03.2020
1638 Clear -1 1017 16 0 0.62 96 04:21 09.03.2020
1639 Clear -1 1017 16 0 0.62 96 02:56 09.03.2020
1640 Clear -9 1020 27 0 1.2 355 00:46 09.03.2020
1641 Clear -9 1020 27 0 1.2 355 00:28 09.03.2020
1642 Clear -9 1020 27 0 1.2 355 23:59 08.03.2020
1643 Clear -9 1020 27 0 1.2 355 23:41 08.03.2020
1644 Clear -9 1020 27 0 1.2 355 23:21 08.03.2020
1645 Clear -6 1017 23 0 1.14 342 22:55 08.03.2020
1646 Clear -6 1017 23 0 1.14 342 22:37 08.03.2020
1647 Clear -6 1017 23 0 1.14 342 22:18 08.03.2020
1648 Clear -6 1017 23 0 1.14 342 21:42 08.03.2020
1649 Clear -6 1017 23 0 1.14 342 21:42 08.03.2020
1650 Clear -6 1017 23 0 1.14 342 21:23 08.03.2020
1651 Clear -6 1017 23 0 1.14 342 20:59 08.03.2020
1652 Clear -6 1017 23 0 1.14 342 20:39 08.03.2020
1653 Clear -6 1017 23 0 1.14 342 20:39 08.03.2020
1654 Clear -4 1017 22 0 0.58 330 20:20 08.03.2020
1655 Clear -4 1016 21 0 0.84 307 19:41 08.03.2020
1656 Clear -4 1016 21 0 0.84 307 19:21 08.03.2020
1657 Clear -4 1016 21 0 0.84 307 18:58 08.03.2020
1658 Clear -4 1016 21 0 0.84 307 18:40 08.03.2020
1659 Clear -4 1016 21 0 0.84 307 18:21 08.03.2020
1660 Clear -4 1016 21 0 0.84 307 17:55 08.03.2020
1661 Clear -4 1016 21 0 0.84 307 17:37 08.03.2020
1662 Clear -2 1015 18 0 1.91 278 17:18 08.03.2020
1663 Clear -2 1015 18 0 1.91 278 16:42 08.03.2020
1664 Clear -2 1015 18 0 1.91 278 16:23 08.03.2020
1665 Clear -2 1015 18 0 1.91 278 15:55 08.03.2020
1666 Clear -2 1015 18 0 1.91 278 15:37 08.03.2020
1667 Clear -2 1015 18 0 1.91 278 15:18 08.03.2020
1668 Clear -2 1015 18 0 1.91 278 14:40 08.03.2020
1669 Clear -2 1015 18 0 1.91 278 14:21 08.03.2020
1670 Clear 2 1009 12 0 2.87 308 13:55 08.03.2020
1671 Clear 2 1009 12 0 2.87 308 13:36 08.03.2020
1672 Clouds 2 1009 15 0 2.24 313 13:18 08.03.2020
1673 Clouds 2 1009 15 0 2.24 313 12:38 08.03.2020
1674 Clouds 2 1009 15 0 2.24 313 12:18 08.03.2020
1675 Clouds 2 1009 15 0 2.24 313 11:42 08.03.2020
1676 Clouds 2 1009 15 0 2.24 313 11:24 08.03.2020
1677 Clouds 6 1006 10 0 5.34 281 10:58 08.03.2020
1678 Clouds 6 1006 10 0 5.34 281 10:40 08.03.2020
1679 Clouds 6 1006 10 0 5.34 281 10:21 08.03.2020
1680 Clouds 6 1006 10 0 5.34 281 09:40 08.03.2020
1681 Clouds 6 1006 10 0 5.34 281 09:22 08.03.2020
1682 Clouds 6 1006 10 0 5.34 281 08:49 08.03.2020
1683 Clouds 6 1006 10 0 5.34 281 08:49 08.03.2020
1684 Clouds 6 1006 10 0 5.34 281 08:24 08.03.2020
1685 Clear 4 1011 15 0 2.89 223 07:50 08.03.2020
1686 Clear 4 1011 15 0 2.89 223 07:28 08.03.2020
1687 Clear 4 1011 15 0 2.89 223 06:51 08.03.2020
1688 Clear 4 1011 15 0 2.89 223 06:33 08.03.2020
1689 Clear 4 1011 15 0 2.89 223 05:58 08.03.2020
1690 Clear -2 1016 39 0 2.21 177 04:50 08.03.2020
1691 Clear -2 1016 39 0 2.21 177 03:19 08.03.2020
1692 Clear -2 1016 39 0 2.21 177 02:27 08.03.2020
1693 Clear -8 1018 61 0 1.48 145 01:21 08.03.2020
1694 Clear -7 1018 60 0 1.53 145 00:42 08.03.2020
1695 Clear -7 1018 60 0 1.53 145 00:23 08.03.2020
1696 Clear -7 1018 60 0 1.53 145 23:43 07.03.2020
1697 Clear -7 1018 60 0 1.53 145 23:21 07.03.2020
1698 Clear -5 1016 53 0 1.52 142 22:39 07.03.2020
1699 Clear -5 1016 53 0 1.52 142 22:39 07.03.2020
1700 Clear -5 1016 53 0 1.52 142 22:20 07.03.2020
1701 Clear -5 1016 53 0 1.52 142 21:48 07.03.2020
1702 Clear -5 1016 53 0 1.52 142 21:25 07.03.2020
1703 Clear -5 1016 53 0 1.52 142 20:42 07.03.2020
1704 Clear -5 1016 53 0 1.52 142 20:23 07.03.2020
1705 Clouds -4 1016 48 0 1.76 148 19:58 07.03.2020
1706 Clouds -4 1016 48 0 1.76 148 19:40 07.03.2020
1707 Clouds -4 1016 48 0 1.76 148 19:20 07.03.2020
1708 Clouds -4 1016 48 0 1.76 148 18:41 07.03.2020
1709 Clouds -4 1016 48 0 1.76 148 18:22 07.03.2020
1710 Clouds -4 1016 48 0 1.76 148 17:56 07.03.2020
1711 Clouds -4 1016 48 0 1.76 148 17:38 07.03.2020
1712 Clouds -1 1014 37 0 1.89 198 17:18 07.03.2020
1713 Clouds -1 1014 37 0 1.89 198 16:42 07.03.2020
1714 Clouds -1 1014 37 0 1.89 198 16:23 07.03.2020
1715 Clouds -1 1014 37 0 1.89 198 15:58 07.03.2020
1716 Clouds -1 1014 37 0 1.89 198 15:40 07.03.2020
1717 Clouds -1 1014 37 0 1.89 198 15:21 07.03.2020
1718 Clouds -1 1014 37 0 1.89 198 14:57 07.03.2020
1719 Clouds -1 1014 37 0 1.89 198 14:38 07.03.2020
1720 Clouds 3 1008 22 0 3.39 205 14:19 07.03.2020
1721 Clouds 3 1008 22 0 3.39 205 13:40 07.03.2020
1722 Clouds 4 1007 21 0 2.74 215 13:21 07.03.2020
1723 Clouds 4 1007 21 0 2.74 215 12:44 07.03.2020
1724 Clouds 4 1007 21 0 2.74 215 12:22 07.03.2020
1725 Clouds 4 1007 21 0 2.74 215 11:59 07.03.2020
1726 Clouds 4 1007 21 0 2.74 215 11:40 07.03.2020
1727 Clouds 4 1007 21 0 2.74 215 11:22 07.03.2020
1728 Clouds 6 1006 20 0 2.14 331 10:42 07.03.2020
1729 Clouds 6 1006 20 0 2.14 331 10:22 07.03.2020
1730 Clouds 6 1006 20 0 2.14 331 09:58 07.03.2020
1731 Clouds 6 1006 20 0 2.14 331 09:39 07.03.2020
1732 Clouds 6 1006 20 0 2.14 331 09:19 07.03.2020
1733 Clouds 6 1006 20 0 2.14 331 08:44 07.03.2020
1734 Snow 3 1007 29 0 1.78 41 08:22 07.03.2020
1735 Clear 3 1011 24 0 2.57 154 07:59 07.03.2020
1736 Clear 3 1011 24 0 2.57 154 07:41 07.03.2020
1737 Clear 3 1011 24 0 2.57 154 07:20 07.03.2020
1738 Clear 3 1011 24 0 2.57 154 06:38 07.03.2020
1739 Clear 3 1011 24 0 2.57 154 05:57 07.03.2020
1740 Clear 3 1011 24 0 2.57 154 05:35 07.03.2020
1741 Clear -2 1019 41 0 2.11 174 02:58 07.03.2020
1742 Clear -2 1019 41 0 2.11 174 02:39 07.03.2020
1743 Clouds -8 1021 67 0 1.5 147 01:47 07.03.2020
1744 Clouds -7 1022 65 0 1.52 134 00:42 07.03.2020
1745 Clouds -7 1022 65 0 1.52 134 00:23 07.03.2020
1746 Clouds -7 1022 65 0 1.52 134 23:56 06.03.2020
1747 Clouds -7 1022 65 0 1.52 134 23:38 06.03.2020
1748 Clouds -6 1020 56 0 1.47 138 23:20 06.03.2020
1749 Clouds -6 1020 56 0 1.47 138 22:42 06.03.2020
1750 Clouds -6 1020 56 0 1.47 138 22:19 06.03.2020
1751 Clouds -6 1020 56 0 1.47 138 21:45 06.03.2020
1752 Clouds -6 1020 56 0 1.47 138 21:19 06.03.2020
1753 Clouds -6 1020 56 0 1.47 138 20:42 06.03.2020
1754 Clouds -5 1020 58 0 1.47 134 20:21 06.03.2020
1755 Clouds -3 1020 47 0 0.85 108 19:54 06.03.2020
1756 Clouds -3 1020 47 0 0.85 108 19:36 06.03.2020
1757 Clouds -3 1020 47 0 0.85 108 19:18 06.03.2020
1758 Clouds -3 1020 47 0 0.85 108 18:41 06.03.2020
1759 Clouds -3 1020 47 0 0.85 108 18:20 06.03.2020
1760 Clouds -3 1020 47 0 0.85 108 18:20 06.03.2020
1761 Clouds -3 1020 47 0 0.85 108 17:56 06.03.2020
1762 Clouds -3 1020 47 0 0.85 108 17:36 06.03.2020
1763 Clouds -2 1018 49 0 0.91 12 17:18 06.03.2020
1764 Clouds -2 1018 49 0 0.91 12 16:42 06.03.2020
1765 Clouds -2 1018 49 0 0.91 12 16:21 06.03.2020
1766 Clouds -2 1018 49 0 0.91 12 15:58 06.03.2020
1767 Clouds -2 1018 49 0 0.91 12 15:39 06.03.2020
1768 Clouds -2 1018 49 0 0.91 12 15:20 06.03.2020
1769 Clouds -2 1018 49 0 0.91 12 14:39 06.03.2020
1770 Snow 0 1013 46 0 2.94 45 14:20 06.03.2020
1771 Snow 0 1013 46 0 2.94 45 13:43 06.03.2020
1772 Snow 1 1012 39 0 1.92 53 13:23 06.03.2020
1773 Snow 1 1012 39 0 1.92 53 12:58 06.03.2020
1774 Snow 1 1012 39 0 1.92 53 12:38 06.03.2020
1775 Snow 1 1012 39 0 1.92 53 12:20 06.03.2020
1776 Snow 1 1012 39 0 1.92 53 11:58 06.03.2020
1777 Snow 1 1012 39 0 1.92 53 11:40 06.03.2020
1778 Snow 3 1010 28 0 3.47 174 11:20 06.03.2020
1779 Snow 3 1010 28 0 3.47 174 10:40 06.03.2020
1780 Snow 3 1010 28 0 3.47 174 10:21 06.03.2020
1781 Snow 3 1010 28 0 3.47 174 09:56 06.03.2020
1782 Snow 3 1010 28 0 3.47 174 09:37 06.03.2020
1783 Snow 3 1010 28 0 3.47 174 09:19 06.03.2020
1784 Snow 3 1010 28 0 3.47 174 08:46 06.03.2020
1785 Snow 1 1010 34 0 2.68 171 08:27 06.03.2020
1786 Clear 1 1013 31 0 0.8 156 07:58 06.03.2020
1787 Clear 1 1013 31 0 0.8 156 07:39 06.03.2020
1788 Clear 1 1013 31 0 0.8 156 06:59 06.03.2020
1789 Clear 1 1013 31 0 0.8 156 06:41 06.03.2020
1790 Clear 1 1013 31 0 0.8 156 05:50 06.03.2020
1791 Clear 1 1013 31 0 0.8 156 05:31 06.03.2020
1792 Clouds -3 1018 47 0 2.07 164 04:58 06.03.2020
1793 Clouds -3 1018 47 0 2.07 164 03:46 06.03.2020
1794 Clouds -8 1020 65 0 1.27 143 01:42 06.03.2020
1795 Clouds -8 1020 66 0 1.09 128 01:23 06.03.2020
1796 Clouds -8 1020 66 0 1.09 128 00:47 06.03.2020
1797 Clouds -8 1020 66 0 1.09 128 00:20 06.03.2020
1798 Clouds -8 1020 66 0 1.09 128 23:43 05.03.2020
1799 Clouds -8 1020 66 0 1.09 128 23:23 05.03.2020
1800 Clouds -6 1018 62 0 1.66 138 22:41 05.03.2020
1801 Clouds -6 1018 62 0 1.66 138 22:23 05.03.2020
1802 Clouds -6 1018 62 0 1.66 138 21:58 05.03.2020
1803 Clouds -6 1018 62 0 1.66 138 21:39 05.03.2020
1804 -273 0 0 0 0 0 21:21 05.03.2020
1805 Clouds -6 1018 62 0 1.66 138 20:59 05.03.2020
1806 Clouds -6 1018 62 0 1.66 138 20:41 05.03.2020
1807 Snow -3 1017 62 0 1.48 151 20:20 05.03.2020
1808 Snow -3 1017 62 0 1.48 151 19:58 05.03.2020
1809 Snow -3 1017 62 0 1.48 151 19:39 05.03.2020
1810 Snow -3 1017 62 0 1.48 151 19:19 05.03.2020
1811 Snow -3 1017 62 0 1.48 151 18:58 05.03.2020
1812 Snow -3 1017 62 0 1.48 151 18:37 05.03.2020
1813 Snow -3 1017 62 0 1.48 151 18:18 05.03.2020
1814 Snow -3 1017 62 0 1.48 151 17:54 05.03.2020
1815 Snow -3 1017 62 0 1.48 151 17:36 05.03.2020
1816 Snow -2 1016 73 0 1.95 3 17:18 05.03.2020
1817 Snow -2 1016 73 0 1.95 3 16:41 05.03.2020
1818 Snow -2 1016 73 0 1.95 3 16:22 05.03.2020
1819 Snow -2 1016 73 0 1.95 3 15:46 05.03.2020
1820 Snow -2 1016 73 0 1.95 3 15:24 05.03.2020
1821 Snow -2 1016 73 0 1.95 3 14:59 05.03.2020
1822 Snow -2 1016 73 0 1.95 3 14:41 05.03.2020
1823 Snow -2 1016 73 0 1.95 3 14:22 05.03.2020
1824 Snow 0 1011 42 0 0.92 94 13:57 05.03.2020
1825 Snow 0 1011 42 0 0.92 94 13:39 05.03.2020
1826 Snow 1 1011 35 0 1.14 249 13:20 05.03.2020
1827 Snow 1 1011 35 0 1.14 249 12:43 05.03.2020
1828 Snow 1 1011 35 0 1.14 249 12:21 05.03.2020
1829 Snow 1 1011 35 0 1.14 249 11:58 05.03.2020
1830 Snow 1 1011 35 0 1.14 249 11:39 05.03.2020
1831 Clouds 4 1008 21 0 3.1 200 11:20 05.03.2020
1832 Clouds 4 1008 21 0 3.1 200 10:58 05.03.2020
1833 Clouds 4 1008 21 0 3.1 200 10:40 05.03.2020
1834 Clouds 4 1008 21 0 3.1 200 10:21 05.03.2020
1835 Clouds 4 1008 21 0 3.1 200 09:59 05.03.2020
1836 Clouds 4 1008 21 0 3.1 200 09:40 05.03.2020
1837 Clouds 4 1008 21 0 3.1 200 09:22 05.03.2020
1838 Clouds 4 1008 21 0 3.1 200 08:43 05.03.2020
1839 Clouds 4 1008 21 0 3.1 200 08:24 05.03.2020
1840 Clouds 2 1013 24 0 2.17 181 07:45 05.03.2020
1841 Clouds 2 1013 24 0 2.17 181 07:22 05.03.2020
1842 Clouds 2 1013 24 0 2.17 181 06:46 05.03.2020
1843 Clouds 2 1013 24 0 2.17 181 06:21 05.03.2020
1844 Clouds 2 1013 24 0 2.17 181 05:39 05.03.2020
1845 Clouds -2 1018 42 0 2 167 04:26 05.03.2020
1846 Clouds -2 1018 42 0 2 167 03:59 05.03.2020
1847 Clouds -2 1018 42 0 2 167 03:19 05.03.2020
1848 Clouds -7 1019 60 0 1.2 107 01:46 05.03.2020
1849 Clouds -7 1019 61 0 1.2 111 01:20 05.03.2020
1850 Clouds -7 1019 61 0 1.2 111 00:25 05.03.2020
1851 Clouds -7 1019 61 0 1.2 111 23:42 04.03.2020
1852 Clouds -7 1019 61 0 1.2 111 23:22 04.03.2020
1853 Clouds -5 1017 54 0 1.73 123 22:57 04.03.2020
1854 Clouds -5 1017 54 0 1.73 123 22:39 04.03.2020
1855 Clouds -5 1017 54 0 1.73 123 22:19 04.03.2020
1856 Clouds -5 1017 54 0 1.73 123 22:19 04.03.2020
1857 Clouds -5 1017 54 0 1.73 123 21:57 04.03.2020
1858 Clouds -5 1017 54 0 1.73 123 21:38 04.03.2020
1859 Clouds -5 1017 54 0 1.73 123 21:20 04.03.2020
1860 Clouds -5 1017 54 0 1.73 123 20:54 04.03.2020
1861 Clouds -5 1017 54 0 1.73 123 20:36 04.03.2020
1862 Snow -2 1017 43 0 2.54 133 20:18 04.03.2020
1863 Snow -2 1017 43 0 2.54 133 19:42 04.03.2020
1864 Snow -2 1017 43 0 2.54 133 19:22 04.03.2020
1865 Snow -2 1017 43 0 2.54 133 18:54 04.03.2020
1866 Snow -2 1017 43 0 2.54 133 18:36 04.03.2020
1867 Snow -2 1017 43 0 2.54 133 18:18 04.03.2020
1868 Snow -2 1017 43 0 2.54 133 17:40 04.03.2020
1869 Snow -2 1017 43 0 2.54 133 17:21 04.03.2020
1870 Snow -1 1015 35 0 1.99 144 16:59 04.03.2020
1871 Snow -1 1015 35 0 1.99 144 16:40 04.03.2020
1872 Snow -1 1015 35 0 1.99 144 16:22 04.03.2020
1873 Snow -1 1015 35 0 1.99 144 15:55 04.03.2020
1874 Snow -1 1015 35 0 1.99 144 15:36 04.03.2020
1875 Snow -1 1015 35 0 1.99 144 15:18 04.03.2020
1876 Snow -1 1015 35 0 1.99 144 14:41 04.03.2020
1877 Snow -1 1015 35 0 1.99 144 14:22 04.03.2020
1878 Clouds 3 1010 17 0 1.77 114 13:59 04.03.2020
1879 Clouds 3 1010 17 0 1.77 114 13:40 04.03.2020
1880 Clouds 3 1010 17 0 1.77 114 13:21 04.03.2020
1881 Snow 3 1010 24 0 3.62 138 13:21 04.03.2020
1882 Snow 3 1010 24 0 3.62 138 12:59 04.03.2020
1883 Snow 3 1010 24 0 3.62 138 12:41 04.03.2020
1884 Snow 3 1010 24 0 3.62 138 12:23 04.03.2020
1885 Snow 3 1010 24 0 3.62 138 11:55 04.03.2020
1886 Snow 3 1010 24 0 3.62 138 11:37 04.03.2020
1887 Clouds 4 1007 17 0 0.63 275 11:19 04.03.2020
1888 Clouds 4 1007 17 0 0.63 275 10:44 04.03.2020
1889 Clouds 4 1007 17 0 0.63 275 10:25 04.03.2020
1890 Clouds 4 1007 17 0 0.63 275 09:56 04.03.2020
1891 Clouds 4 1007 17 0 0.63 275 09:38 04.03.2020
1892 Clouds 4 1007 17 0 0.63 275 09:18 04.03.2020
1893 Clouds 4 1007 17 0 0.63 275 08:41 04.03.2020
1894 Clouds 3 1007 25 0 1.32 152 08:23 04.03.2020
1895 Clouds 0 1013 43 0 2.28 162 07:48 04.03.2020
1896 Clouds 0 1013 43 0 2.28 162 07:29 04.03.2020
1897 Clouds 0 1013 43 0 2.28 162 06:51 04.03.2020
1898 Clouds 0 1013 43 0 2.28 162 06:26 04.03.2020
1899 Clouds 0 1013 43 0 2.28 162 06:26 04.03.2020
1900 Clouds 0 1013 43 0 2.28 162 05:58 04.03.2020
1901 Clouds 0 1013 43 0 2.28 162 05:21 04.03.2020
1902 Clouds -5 1017 73 0 1.67 169 03:54 04.03.2020
1903 Clouds -5 1017 73 0 1.67 169 03:35 04.03.2020
1904 Clouds -5 1017 73 0 1.67 169 02:58 04.03.2020
1905 Clouds -5 1017 73 0 1.67 169 02:27 04.03.2020
1906 Clouds -8 1019 90 0 0.45 103 01:56 04.03.2020
1907 Clouds -8 1019 90 0 0.45 103 01:33 04.03.2020
1908 Snow -8 1019 92 0 0.63 121 00:41 04.03.2020
1909 Snow -8 1019 92 0 0.63 121 00:22 04.03.2020
1910 Snow -8 1019 92 0 0.63 121 23:43 03.03.2020
1911 Snow -8 1019 92 0 0.63 121 23:23 03.03.2020
1912 Clouds -7 1016 91 0 0.35 58 22:56 03.03.2020
1913 Clouds -7 1016 91 0 0.35 58 22:37 03.03.2020
1914 Clouds -7 1016 91 0 0.35 58 22:19 03.03.2020
1915 Clouds -7 1016 91 0 0.35 58 21:43 03.03.2020
1916 Clouds -7 1016 91 0 0.35 58 21:22 03.03.2020
1917 Clouds -7 1016 91 0 0.35 58 20:59 03.03.2020
1918 Clouds -7 1016 91 0 0.35 58 20:39 03.03.2020
1919 Snow -6 1017 89 0 0.39 132 20:19 03.03.2020
1920 Snow -5 1017 91 0 0.09 225 19:56 03.03.2020
1921 Snow -5 1017 91 0 0.09 225 19:56 03.03.2020
1922 Snow -5 1017 91 0 0.09 225 19:37 03.03.2020
1923 Snow -5 1017 91 0 0.09 225 19:37 03.03.2020
1924 Snow -5 1016 86 0 0.19 27 19:18 03.03.2020
1925 Snow -5 1017 91 0 0.09 225 18:57 03.03.2020
1926 Snow -5 1016 86 0 0.19 27 18:38 03.03.2020
1927 Snow -5 1017 91 0 0.09 225 18:19 03.03.2020
1928 Snow -5 1017 91 0 0.09 225 17:55 03.03.2020
1929 Snow -5 1017 91 0 0.09 225 17:36 03.03.2020
1930 Snow -3 1016 76 0 0.6 32 17:18 03.03.2020
1931 Snow -3 1016 76 0 0.6 32 16:55 03.03.2020
1932 Snow -3 1016 76 0 0.6 32 16:36 03.03.2020
1933 Clouds -3 1015 73 0 0.57 118 16:18 03.03.2020
1934 Clouds -3 1015 73 0 0.57 118 15:41 03.03.2020
1935 Clouds -3 1015 73 0 0.57 118 15:21 03.03.2020
1936 Snow -3 1016 76 0 0.6 32 14:54 03.03.2020
1937 Snow -3 1016 76 0 0.6 32 14:54 03.03.2020
1938 Snow -3 1016 76 0 0.6 32 14:36 03.03.2020
1939 Snow -3 1011 72 0 2.3 44 14:18 03.03.2020
1940 Snow -3 1011 72 0 2.3 44 13:42 03.03.2020
1941 Snow -3 1011 77 0 2.84 19 13:24 03.03.2020
1942 Snow -3 1011 77 0 2.84 19 12:55 03.03.2020
1943 Snow -3 1011 77 0 2.84 19 12:36 03.03.2020
1944 Snow -3 1011 77 0 2.84 19 12:18 03.03.2020
1945 Snow -3 1011 77 0 2.84 19 11:38 03.03.2020
1946 Snow 3 1008 30 0 0.69 217 11:19 03.03.2020
1947 Snow 3 1008 30 0 0.69 217 10:57 03.03.2020
1948 Snow 3 1008 30 0 0.69 217 10:39 03.03.2020
1949 Snow 3 1008 30 0 0.69 217 10:19 03.03.2020
1950 Snow 3 1008 30 0 0.69 217 10:19 03.03.2020
1951 Snow 3 1008 30 0 0.69 217 09:45 03.03.2020
1952 Snow 3 1008 30 0 0.69 217 09:23 03.03.2020
1953 Snow 3 1008 30 0 0.69 217 08:59 03.03.2020
1954 Snow 3 1008 30 0 0.69 217 08:40 03.03.2020
1955 Snow 2 1008 32 0 1.49 319 08:22 03.03.2020
1956 Snow 1 1012 39 0 1.94 150 07:44 03.03.2020
1957 Snow 1 1012 39 0 1.94 150 07:24 03.03.2020
1958 Snow 1 1012 39 0 1.94 150 06:59 03.03.2020
1959 Snow 1 1012 39 0 1.94 150 06:39 03.03.2020
1960 Snow 1 1012 39 0 1.94 150 06:18 03.03.2020
1961 Snow 1 1012 39 0 1.94 150 05:39 03.03.2020
1962 Clouds -4 1017 68 0 1.06 127 04:51 03.03.2020
1963 Clouds -4 1017 68 0 1.06 127 02:38 03.03.2020
1964 Clouds -7 1019 85 0 1.5 51 01:27 03.03.2020
1965 Clouds -7 1019 85 0 1.5 51 00:41 03.03.2020
1966 Clouds -7 1019 85 0 1.5 51 00:22 03.03.2020
1967 Clouds -7 1019 85 0 1.5 51 23:48 02.03.2020
1968 Clouds -7 1019 85 0 1.5 51 23:23 02.03.2020
1969 Snow -5 1017 85 0 1.06 191 22:57 02.03.2020
1970 Snow -5 1017 85 0 1.06 191 22:38 02.03.2020
1971 Snow -5 1017 85 0 1.06 191 22:19 02.03.2020
1972 Snow -5 1017 85 0 1.06 191 21:56 02.03.2020
1973 Snow -5 1017 85 0 1.06 191 21:37 02.03.2020
1974 Snow -5 1017 85 0 1.06 191 21:19 02.03.2020
1975 Snow -5 1017 85 0 1.06 191 20:54 02.03.2020
1976 Snow -5 1017 85 0 1.06 191 20:36 02.03.2020
1977 Snow -2 1017 54 0 1.19 112 20:18 02.03.2020
1978 Snow -2 1017 54 0 1.19 112 19:40 02.03.2020
1979 Snow -2 1017 54 0 1.19 112 19:21 02.03.2020
1980 Snow -2 1017 54 0 1.19 112 18:57 02.03.2020
1981 Snow -2 1017 54 0 1.19 112 18:38 02.03.2020
1982 Snow -2 1017 54 0 1.19 112 18:18 02.03.2020
1983 Snow -2 1017 54 0 1.19 112 17:57 02.03.2020
1984 Snow -2 1017 54 0 1.19 112 17:39 02.03.2020
1985 Clouds -2 1016 43 0 0.74 297 17:20 02.03.2020
1986 Clouds -2 1016 43 0 0.74 297 16:45 02.03.2020
1987 Clouds -2 1016 43 0 0.74 297 16:27 02.03.2020
1988 Clouds -2 1016 43 0 0.74 297 15:59 02.03.2020
1989 Clouds -2 1016 43 0 0.74 297 15:41 02.03.2020
1990 Clouds -2 1016 43 0 0.74 297 15:19 02.03.2020
1991 Clouds -2 1016 43 0 0.74 297 14:40 02.03.2020
1992 Clouds 2 1011 24 0 2.06 277 14:20 02.03.2020
1993 Clouds 2 1011 24 0 2.06 277 13:57 02.03.2020
1994 Clouds 2 1011 24 0 2.06 277 13:38 02.03.2020
1995 Clouds 2 1011 24 0 2.06 277 13:18 02.03.2020
1996 Snow 2 1011 27 0 1.97 227 12:43 02.03.2020
1997 Snow 2 1011 27 0 1.97 227 12:43 02.03.2020
1998 Snow 2 1011 27 0 1.97 227 12:19 02.03.2020
1999 Snow 2 1011 27 0 1.97 227 12:19 02.03.2020
2000 Snow 2 1011 27 0 1.97 227 11:40 02.03.2020
2001 Snow 2 1011 27 0 1.97 227 11:22 02.03.2020
2002 Rain 5 1008 16 0 2.87 251 10:59 02.03.2020
2003 Rain 5 1008 16 0 2.87 251 10:41 02.03.2020
2004 Rain 5 1008 16 0 2.87 251 10:20 02.03.2020
2005 Rain 5 1008 16 0 2.87 251 09:55 02.03.2020
2006 Rain 5 1008 16 0 2.87 251 09:37 02.03.2020
2007 Rain 5 1008 16 0 2.87 251 09:18 02.03.2020
2008 Rain 5 1008 16 0 2.87 251 08:40 02.03.2020
2009 Clouds 3 1012 28 0 2.61 203 08:19 02.03.2020
2010 Clouds 3 1012 28 0 2.61 203 07:40 02.03.2020
2011 Clouds 3 1012 28 0 2.61 203 06:57 02.03.2020
2012 Clouds 3 1012 28 0 2.61 203 06:37 02.03.2020
2013 Clouds 3 1012 28 0 2.61 203 05:52 02.03.2020
2014 Clouds -2 1017 57 0 2.2 173 04:21 02.03.2020
2015 Clouds -2 1017 57 0 2.2 173 03:20 02.03.2020
2016 Clouds -2 1017 57 0 2.2 173 02:37 02.03.2020
2017 Clouds -4 1018 53 0 2.41 137 01:45 02.03.2020
2018 Clouds -6 1018 56 0 1.67 149 01:26 02.03.2020
2019 Clouds -6 1018 56 0 1.67 149 00:23 02.03.2020
2020 Clouds -6 1018 56 0 1.67 149 23:56 01.03.2020
2021 Clouds -6 1018 56 0 1.67 149 23:38 01.03.2020
2022 Clear -6 1017 49 0 1.11 136 23:19 01.03.2020
2023 Clear -6 1017 49 0 1.11 136 22:42 01.03.2020
2024 Clear -6 1017 49 0 1.11 136 22:19 01.03.2020
2025 Clear -6 1017 49 0 1.11 136 21:55 01.03.2020
2026 Clear -6 1017 49 0 1.11 136 21:37 01.03.2020
2027 Clear -6 1017 49 0 1.11 136 21:18 01.03.2020
2028 Clear -6 1017 49 0 1.11 136 20:43 01.03.2020
2029 Clear -6 1017 47 0 1.02 122 20:24 01.03.2020
2030 Clouds -4 1017 37 0 1.09 128 19:43 01.03.2020
2031 Clouds -4 1017 37 0 1.09 128 19:24 01.03.2020
2032 Clouds -4 1017 37 0 1.09 128 18:59 01.03.2020
2033 Clouds -4 1017 37 0 1.09 128 18:40 01.03.2020
2034 Clouds -4 1017 37 0 1.09 128 18:19 01.03.2020
2035 Clouds -4 1017 37 0 1.09 128 17:57 01.03.2020
2036 Clouds -4 1017 37 0 1.09 128 17:39 01.03.2020
2037 Clouds -1 1016 31 0 0.99 105 17:20 01.03.2020
2038 Clouds -1 1016 31 0 0.99 105 16:57 01.03.2020
2039 Clouds -1 1016 31 0 0.99 105 16:38 01.03.2020
2040 Clouds -1 1016 31 0 0.99 105 16:18 01.03.2020
2041 Clouds -1 1016 31 0 0.99 105 15:56 01.03.2020
2042 Clouds -1 1016 31 0 0.99 105 15:38 01.03.2020
2043 Clouds -1 1016 31 0 0.99 105 15:19 01.03.2020
2044 Clouds -1 1016 31 0 0.99 105 14:56 01.03.2020
2045 Clouds -1 1016 31 0 0.99 105 14:38 01.03.2020
2046 Clouds 2 1012 22 0 1.58 354 14:20 01.03.2020
2047 Clouds 2 1012 22 0 1.58 354 13:55 01.03.2020
2048 Clouds 2 1012 22 0 1.58 354 13:37 01.03.2020
2049 Clouds 1 1013 36 0 3.29 352 13:18 01.03.2020
2050 Clouds 2 1012 28 0 1.46 333 12:42 01.03.2020
2051 Clouds 2 1012 28 0 1.46 333 12:42 01.03.2020
2052 Clouds 2 1012 28 0 1.46 333 12:21 01.03.2020
2053 Clouds 1 1013 36 0 3.29 352 12:21 01.03.2020
2054 Clouds 2 1012 28 0 1.46 333 11:43 01.03.2020
2055 Clouds 1 1013 36 0 3.29 352 11:25 01.03.2020
2056 Clouds 4 1010 20 0 2.24 251 10:57 01.03.2020
2057 Clouds 4 1010 20 0 2.24 251 10:38 01.03.2020
2058 Clouds 5 1011 18 0 2.92 279 10:20 01.03.2020
2059 Clouds 5 1011 18 0 2.92 279 09:58 01.03.2020
2060 Clouds 5 1011 18 0 2.92 279 09:58 01.03.2020
2061 Clouds 5 1011 18 0 2.92 279 09:40 01.03.2020
2062 Clouds 4 1010 20 0 2.24 251 09:21 01.03.2020
2063 Clouds 5 1011 18 0 2.92 279 08:42 01.03.2020
2064 Clouds 5 1011 18 0 2.92 279 08:21 01.03.2020
2065 Clouds 3 1015 20 0 1.79 221 07:43 01.03.2020
2066 Clouds 3 1015 20 0 1.79 221 07:24 01.03.2020
2067 Clouds 3 1015 20 0 1.79 221 06:58 01.03.2020
2068 Clouds 3 1015 20 0 1.79 221 06:39 01.03.2020
2069 Clouds -1 1020 31 0 0.6 150 04:39 01.03.2020
2070 Clouds -1 1020 31 0 0.6 150 02:58 01.03.2020
2071 Clouds -7 1021 47 0 1.4 17 01:54 01.03.2020
2072 Clouds -7 1021 47 0 1.4 17 01:34 01.03.2020
2073 Clouds -7 1021 47 0 1.37 12 00:48 01.03.2020
2074 Clouds -7 1021 47 0 1.37 12 00:25 01.03.2020
2075 Clouds -7 1021 47 0 1.37 12 23:54 29.02.2020
2076 Clouds -7 1021 47 0 1.37 12 23:35 29.02.2020
2077 Clouds -5 1020 38 0 0.91 54 22:46 29.02.2020
2078 Clouds -5 1020 38 0 0.91 54 22:26 29.02.2020
2079 Clouds -5 1020 38 0 0.91 54 21:57 29.02.2020
2080 Clouds -5 1020 38 0 0.91 54 21:38 29.02.2020
2081 Clouds -5 1020 38 0 0.91 54 21:19 29.02.2020
2082 Clouds -5 1020 38 0 0.91 54 20:41 29.02.2020
2083 Clouds -2 1021 27 0 0.53 52 20:20 29.02.2020
2084 Snow -1 1021 32 0 0.38 32 19:54 29.02.2020
2085 Snow -1 1021 32 0 0.38 32 19:36 29.02.2020
2086 Snow -1 1021 32 0 0.38 32 19:18 29.02.2020
2087 Snow -1 1021 32 0 0.38 32 18:39 29.02.2020
2088 Snow -1 1021 32 0 0.38 32 18:19 29.02.2020
2089 Snow -1 1021 32 0 0.38 32 17:55 29.02.2020
2090 Snow -1 1021 32 0 0.38 32 17:37 29.02.2020
2091 Clouds -1 1019 23 0 0.61 30 17:19 29.02.2020
2092 Clouds -1 1019 23 0 0.61 30 16:43 29.02.2020
2093 Clouds -1 1019 23 0 0.61 30 16:19 29.02.2020
2094 Clouds -1 1019 23 0 0.61 30 15:56 29.02.2020
2095 Clouds -1 1019 23 0 0.61 30 15:36 29.02.2020
2096 Clouds -1 1019 23 0 0.61 30 15:18 29.02.2020
2097 Clouds -1 1019 23 0 0.61 30 14:39 29.02.2020
2098 Clouds -1 1019 23 0 0.61 30 14:21 29.02.2020
2099 Clouds 2 1014 15 0 1.42 69 13:45 29.02.2020
2100 Clouds 2 1014 16 0 1.34 80 13:26 29.02.2020
2101 Clouds 2 1014 16 0 1.34 80 12:57 29.02.2020
2102 Clouds 2 1014 16 0 1.34 80 12:38 29.02.2020
2103 Clouds 2 1014 16 0 1.34 80 12:20 29.02.2020
2104 Clouds 2 1014 16 0 1.34 80 11:45 29.02.2020
2105 Clouds 2 1014 16 0 1.34 80 11:26 29.02.2020
2106 Clear 4 1013 12 0 1.47 27 10:51 29.02.2020
2107 Clear 4 1013 12 0 1.47 27 10:30 29.02.2020
2108 Clear 4 1013 12 0 1.47 27 09:55 29.02.2020
2109 Clear 4 1013 12 0 1.47 27 09:55 29.02.2020
2110 Clear 4 1013 12 0 1.47 27 09:37 29.02.2020
2111 Clear 4 1013 12 0 1.47 27 09:18 29.02.2020
2112 Clear 4 1013 12 0 1.47 27 08:39 29.02.2020
2113 Clear 1 1017 14 0 0.76 250 08:20 29.02.2020
2114 Clear 1 1017 14 0 0.76 250 07:51 29.02.2020
2115 Clear 1 1017 14 0 0.76 250 07:22 29.02.2020
2116 Clear 1 1017 14 0 0.76 250 06:54 29.02.2020
2117 Clear 1 1017 14 0 0.76 250 06:29 29.02.2020
2118 Clear 1 1017 14 0 0.76 250 05:52 29.02.2020
2119 Clear 1 1017 14 0 0.76 250 05:32 29.02.2020
2120 Clear -5 1024 21 0 0.98 24 03:59 29.02.2020
2121 Clear -5 1024 21 0 0.98 24 03:24 29.02.2020
2122 Clear -5 1024 21 0 0.98 24 02:57 29.02.2020
2123 Clear -12 1026 36 0 1.91 12 01:59 29.02.2020
2124 Clear -12 1027 36 0 1.85 11 00:52 29.02.2020
2125 Clear -12 1027 36 0 1.85 11 00:28 29.02.2020
2126 Clear -12 1027 36 0 1.85 11 23:41 28.02.2020
2127 Clear -12 1027 36 0 1.85 11 23:23 28.02.2020
2128 Clear -10 1026 33 0 2.18 9 22:43 28.02.2020
2129 Clear -10 1026 33 0 2.18 9 22:23 28.02.2020
2130 Clear -10 1026 33 0 2.18 9 21:56 28.02.2020
2131 Clear -10 1026 33 0 2.18 9 21:38 28.02.2020
2132 Clear -10 1026 33 0 2.18 9 21:19 28.02.2020
2133 Clear -10 1026 33 0 2.18 9 20:39 28.02.2020
2134 Clouds -8 1028 28 0 2.01 10 20:21 28.02.2020
2135 Clouds -8 1028 28 0 2.01 10 19:57 28.02.2020
2136 Clouds -8 1028 28 0 2.01 10 19:39 28.02.2020
2137 Clouds -8 1028 28 0 2.01 10 19:39 28.02.2020
2138 Clouds -8 1028 28 0 2.01 10 19:20 28.02.2020
2139 Clouds -8 1028 28 0 2.01 10 18:47 28.02.2020
2140 Clouds -8 1028 28 0 2.01 10 18:47 28.02.2020
2141 Clouds -8 1028 28 0 2.01 10 18:28 28.02.2020
2142 Clouds -8 1028 28 0 2.01 10 17:58 28.02.2020
2143 Clouds -8 1028 28 0 2.01 10 17:39 28.02.2020
2144 Clouds -8 1028 28 0 2.01 10 17:39 28.02.2020
2145 Clouds -5 1027 22 0 1.97 21 17:20 28.02.2020
2146 Clouds -5 1027 22 0 1.97 21 16:43 28.02.2020
2147 Clouds -5 1027 22 0 1.97 21 16:20 28.02.2020
2148 Clouds -5 1027 22 0 1.97 21 15:58 28.02.2020
2149 Clouds -5 1027 22 0 1.97 21 15:39 28.02.2020
2150 Clouds -5 1027 22 0 1.97 21 15:19 28.02.2020
2151 Clouds -5 1027 22 0 1.97 21 14:56 28.02.2020
2152 Clouds -5 1027 22 0 1.97 21 14:38 28.02.2020
2153 Clouds -3 1022 15 0 1.5 38 14:18 28.02.2020
2154 Clouds -3 1022 15 0 1.5 38 13:41 28.02.2020
2155 Clouds -3 1022 15 0 1.3 37 13:20 28.02.2020
2156 Clouds -3 1022 15 0 1.3 37 12:56 28.02.2020
2157 Clouds -3 1022 15 0 1.3 37 12:37 28.02.2020
2158 Clouds -3 1022 15 0 1.3 37 12:18 28.02.2020
2159 Clouds -3 1022 15 0 1.3 37 11:41 28.02.2020
2160 Clouds -3 1022 15 0 1.3 37 11:22 28.02.2020
2161 Clear 1 1020 9 0 1.78 30 10:54 28.02.2020
2162 Clear 1 1020 9 0 1.78 30 10:54 28.02.2020
2163 Clear 1 1020 9 0 1.78 30 10:36 28.02.2020
2164 Clear 1 1020 9 0 1.78 30 10:18 28.02.2020
2165 Clear 1 1020 9 0 1.78 30 09:40 28.02.2020
2166 Clear 1 1020 9 0 1.78 30 09:20 28.02.2020
2167 Clear 1 1020 9 0 1.78 30 08:42 28.02.2020
2168 Clear -1 1026 11 0 1.41 14 08:21 28.02.2020
2169 Clear -1 1024 12 0 1.43 350 07:46 28.02.2020
2170 Clear -1 1024 12 0 1.43 350 07:26 28.02.2020
2171 Clear -1 1024 12 0 1.43 350 06:59 28.02.2020
2172 Clear -1 1024 12 0 1.43 350 06:38 28.02.2020
2173 Clear -1 1024 12 0 1.43 350 05:31 28.02.2020
2174 Clear -7 1031 21 0 1.92 16 04:32 28.02.2020
2175 Clear -7 1031 21 0 1.92 16 03:22 28.02.2020
2176 Clear -7 1031 21 0 1.92 16 02:34 28.02.2020
2177 Clear -12 1034 38 0 2.69 10 01:48 28.02.2020
2178 Clear -12 1034 38 0 2.74 12 00:33 28.02.2020
2179 Clear -12 1034 38 0 2.74 12 23:47 27.02.2020
2180 Clear -12 1034 38 0 2.74 12 23:23 27.02.2020
2181 Clear -11 1031 37 0 2.68 359 22:59 27.02.2020
2182 Clear -11 1031 37 0 2.68 359 22:40 27.02.2020
2183 Clear -11 1031 37 0 2.68 359 22:21 27.02.2020
2184 Clear -11 1031 37 0 2.68 359 21:42 27.02.2020
2185 Clear -11 1031 37 0 2.68 359 21:24 27.02.2020
2186 Clear -11 1031 37 0 2.68 359 20:59 27.02.2020
2187 Clear -11 1031 37 0 2.68 359 20:41 27.02.2020
2188 Clear -11 1031 37 0 2.65 358 20:23 27.02.2020
2189 Clear -9 1030 34 0 2.5 341 19:57 27.02.2020
2190 Clear -9 1030 34 0 2.5 341 19:39 27.02.2020
2191 Clear -9 1030 34 0 2.5 341 19:21 27.02.2020
2192 Clear -9 1030 34 0 2.5 341 18:55 27.02.2020
2193 Clear -9 1030 34 0 2.5 341 18:37 27.02.2020
2194 Clear -9 1030 34 0 2.5 341 18:18 27.02.2020
2195 Clear -9 1030 34 0 2.5 341 17:54 27.02.2020
2196 Clear -9 1030 34 0 2.5 341 17:36 27.02.2020
2197 Clear -6 1027 34 0 2.72 337 17:18 27.02.2020
2198 Clear -6 1027 34 0 2.72 337 16:41 27.02.2020
2199 Clear -6 1027 34 0 2.72 337 16:20 27.02.2020
2200 Clear -6 1027 34 0 2.72 337 15:59 27.02.2020
2201 Clear -6 1027 34 0 2.72 337 15:38 27.02.2020
2202 Clear -6 1027 34 0 2.72 337 15:38 27.02.2020
2203 Clear -6 1027 34 0 2.72 337 15:19 27.02.2020
2204 Clear -6 1027 34 0 2.72 337 14:58 27.02.2020
2205 Clear -6 1027 34 0 2.72 337 14:37 27.02.2020
2206 Clouds -3 1021 27 0 3.72 22 14:19 27.02.2020
2207 Clouds -3 1021 27 0 3.72 22 13:42 27.02.2020
2208 Clouds -3 1021 27 0 3.72 22 13:21 27.02.2020
2209 Clouds -3 1021 28 0 3.41 27 12:56 27.02.2020
2210 Clouds -3 1021 28 0 3.41 27 12:38 27.02.2020
2211 Clouds -3 1021 28 0 3.41 27 12:18 27.02.2020
2212 Clouds -3 1021 28 0 3.41 27 11:41 27.02.2020
2213 Clouds -3 1021 28 0 3.41 27 11:22 27.02.2020
2214 Snow 0 1016 34 0 3.83 16 10:44 27.02.2020
2215 Snow 0 1016 34 0 3.83 16 10:24 27.02.2020
2216 Snow 0 1016 34 0 3.83 16 09:50 27.02.2020
2217 Snow 0 1016 34 0 3.83 16 09:30 27.02.2020
2218 Snow 0 1016 34 0 3.83 16 08:59 27.02.2020
2219 Snow 0 1016 34 0 3.83 16 08:41 27.02.2020
2220 Snow 0 1016 34 0 3.83 16 08:22 27.02.2020
2221 Snow -2 1018 47 0 1.24 321 07:45 27.02.2020
2222 Snow -2 1018 47 0 1.24 321 07:25 27.02.2020
2223 Snow -2 1018 47 0 1.24 321 06:48 27.02.2020
2224 Snow -2 1018 47 0 1.24 321 05:48 27.02.2020
2225 Clouds -5 1021 69 0 1.27 276 03:42 27.02.2020
2226 Clouds -5 1021 69 0 1.27 276 02:33 27.02.2020
2227 Clouds -7 1020 85 0 0.59 295 00:46 27.02.2020
2228 Clouds -7 1020 85 0 0.59 295 00:26 27.02.2020
2229 Clouds -7 1020 85 0 0.59 295 23:40 26.02.2020
2230 Snow -6 1018 79 0 0.7 28 23:19 26.02.2020
2231 Snow -6 1018 79 0 0.7 28 22:58 26.02.2020
2232 Snow -6 1018 79 0 0.7 28 22:39 26.02.2020
2233 Snow -6 1018 79 0 0.7 28 22:20 26.02.2020
2234 Snow -6 1018 79 0 0.7 28 21:56 26.02.2020
2235 Snow -6 1018 79 0 0.7 28 21:38 26.02.2020
2236 Snow -6 1018 79 0 0.7 28 21:18 26.02.2020
2237 Snow -6 1018 79 0 0.7 28 20:55 26.02.2020
2238 Snow -6 1018 79 0 0.7 28 20:37 26.02.2020
2239 Snow -5 1018 82 0 1.21 313 20:18 26.02.2020
2240 Snow -5 1018 82 0 1.21 313 19:46 26.02.2020
2241 Snow -5 1018 82 0 1.21 313 19:21 26.02.2020
2242 Snow -5 1018 82 0 1.21 313 18:59 26.02.2020
2243 Snow -5 1018 82 0 1.21 313 18:40 26.02.2020
2244 Snow -5 1018 82 0 1.21 313 18:22 26.02.2020
2245 Snow -5 1018 82 0 1.21 313 17:56 26.02.2020
2246 -273 0 0 0 0 0 17:37 26.02.2020
2247 Snow -3 1017 64 0 2.5 343 17:18 26.02.2020
2248 Snow -3 1017 64 0 2.5 343 16:43 26.02.2020
2249 Snow -3 1017 64 0 2.5 343 16:22 26.02.2020
2250 Snow -3 1017 64 0 2.5 343 15:56 26.02.2020
2251 Snow -3 1017 64 0 2.5 343 15:38 26.02.2020
2252 Snow -3 1017 64 0 2.5 343 15:19 26.02.2020
2253 Snow -3 1017 64 0 2.5 343 14:42 26.02.2020
2254 Snow -3 1017 64 0 2.5 343 14:22 26.02.2020
2255 Clouds 0 1011 36 0 2.4 54 13:43 26.02.2020
2256 Snow 0 1012 38 0 0.93 350 13:22 26.02.2020
2257 Snow 0 1012 38 0 0.93 350 12:42 26.02.2020
2258 Snow 0 1012 38 0 0.93 350 12:23 26.02.2020
2259 Snow 0 1012 38 0 0.93 350 11:59 26.02.2020
2260 Snow 0 1012 38 0 0.93 350 11:41 26.02.2020
2261 Snow 0 1012 38 0 0.93 350 11:22 26.02.2020
2262 Snow 2 1009 28 0 2.71 189 10:58 26.02.2020
2263 Snow 2 1009 28 0 2.71 189 10:39 26.02.2020
2264 Snow 2 1009 28 0 2.71 189 10:20 26.02.2020
2265 Snow 2 1009 28 0 2.71 189 09:43 26.02.2020
2266 Snow 2 1009 28 0 2.71 189 09:22 26.02.2020
2267 Snow 2 1009 28 0 2.71 189 08:55 26.02.2020
2268 Snow 2 1009 28 0 2.71 189 08:36 26.02.2020
2269 Clouds 1 1012 25 0 2.42 223 08:18 26.02.2020
2270 Clouds 1 1012 25 0 2.42 223 07:41 26.02.2020
2271 Clouds 1 1012 25 0 2.42 223 07:23 26.02.2020
2272 Clouds 1 1012 25 0 2.42 223 06:49 26.02.2020
2273 Clouds 1 1012 25 0 2.42 223 06:31 26.02.2020
2274 Clouds 1 1012 25 0 2.42 223 05:48 26.02.2020
2275 Clouds -2 1017 42 0 1.13 170 05:19 26.02.2020
2276 Clouds -2 1017 42 0 1.13 170 03:57 26.02.2020
2277 Clouds -8 1016 67 0 0.22 133 02:20 26.02.2020
2278 Clouds -8 1016 67 0 0.22 133 01:38 26.02.2020
2279 Clouds -6 1016 72 0 1.36 350 00:47 26.02.2020
2280 Clouds -6 1016 72 0 1.36 350 00:21 26.02.2020
2281 Clouds -6 1016 72 0 1.36 350 00:21 26.02.2020
2282 Clouds -6 1016 72 0 1.36 350 23:43 25.02.2020
2283 Clouds -6 1016 72 0 1.36 350 23:25 25.02.2020
2284 Clouds -4 1016 51 0 0.83 297 22:58 25.02.2020
2285 Clouds -4 1016 51 0 0.83 297 22:40 25.02.2020
2286 Clouds -4 1016 51 0 0.83 297 22:19 25.02.2020
2287 Clouds -4 1016 51 0 0.83 297 21:38 25.02.2020
2288 Clouds -4 1016 51 0 0.83 297 21:20 25.02.2020
2289 Clouds -4 1016 51 0 0.83 297 21:20 25.02.2020
2290 Clouds -4 1016 51 0 0.83 297 20:57 25.02.2020
2291 Clouds -4 1016 51 0 0.83 297 20:39 25.02.2020
2292 Clouds -3 1016 39 0 0.94 163 20:20 25.02.2020
2293 Clouds -3 1016 39 0 0.94 163 19:59 25.02.2020
2294 Clouds -3 1016 39 0 0.94 163 19:40 25.02.2020
2295 Clouds -3 1016 39 0 0.94 163 19:19 25.02.2020
2296 Clouds -3 1016 39 0 0.94 163 18:42 25.02.2020
2297 Clouds -3 1016 39 0 0.94 163 18:21 25.02.2020
2298 Clouds -3 1016 39 0 0.94 163 17:58 25.02.2020
2299 Clouds -3 1016 39 0 0.94 163 17:38 25.02.2020
2300 Clouds -3 1015 34 0 1.58 150 17:19 25.02.2020
2301 Clouds -3 1015 34 0 1.58 150 16:58 25.02.2020
2302 Clouds -3 1015 34 0 1.58 150 16:40 25.02.2020
2303 Clouds -3 1015 34 0 1.58 150 16:22 25.02.2020
2304 Clouds -3 1015 34 0 1.58 150 15:56 25.02.2020
2305 Clouds -3 1015 34 0 1.58 150 15:56 25.02.2020
2306 Clouds -3 1015 34 0 1.58 150 15:37 25.02.2020
2307 Clouds -3 1015 34 0 1.58 150 15:18 25.02.2020
2308 Clouds -3 1015 34 0 1.58 150 14:56 25.02.2020
2309 Clouds -3 1015 34 0 1.58 150 14:37 25.02.2020
2310 Rain -1 1011 27 0 0.67 128 14:18 25.02.2020
2311 Rain -1 1011 27 0 0.67 128 14:18 25.02.2020
2312 Rain -1 1011 27 0 0.67 128 14:18 25.02.2020
2313 Rain -1 1011 27 0 0.67 128 13:55 25.02.2020
2314 Rain -1 1011 27 0 0.67 128 13:37 25.02.2020
2315 Snow 0 1011 30 0 2.25 316 13:18 25.02.2020
2316 Snow 0 1011 30 0 2.25 316 12:41 25.02.2020
2317 Snow 0 1011 30 0 2.25 316 12:21 25.02.2020
2318 Snow 0 1011 30 0 2.25 316 11:56 25.02.2020
2319 Snow 0 1011 30 0 2.25 316 11:38 25.02.2020
2320 Clouds 4 1009 17 0 3.18 190 11:19 25.02.2020
2321 Clouds 4 1009 17 0 3.18 190 10:57 25.02.2020
2322 Clouds 4 1009 17 0 3.18 190 10:57 25.02.2020
2323 Clouds 4 1009 17 0 3.18 190 10:39 25.02.2020
2324 Clouds 4 1009 17 0 3.18 190 10:20 25.02.2020
2325 Clouds 4 1009 17 0 3.18 190 09:41 25.02.2020
2326 Clouds 4 1009 17 0 3.18 190 09:20 25.02.2020
2327 Clouds 4 1009 17 0 3.18 190 08:45 25.02.2020
2328 Clouds 4 1009 17 0 3.18 190 08:26 25.02.2020
2329 Clouds 1 1014 24 0 2.47 178 07:51 25.02.2020
2330 Clouds 1 1014 24 0 2.47 178 07:25 25.02.2020
2331 Clouds 1 1014 24 0 2.47 178 06:59 25.02.2020
2332 Clouds 1 1014 24 0 2.47 178 06:26 25.02.2020
2333 Clouds 1 1014 24 0 2.47 178 05:24 25.02.2020
2334 Clouds -3 1019 44 0 2.02 174 02:44 25.02.2020
2335 Clouds -10 1020 73 0 1.41 141 01:28 25.02.2020
2336 Clouds -10 1020 73 0 1.46 143 00:34 25.02.2020
2337 Clouds -10 1020 73 0 1.46 143 23:57 24.02.2020
2338 Clouds -10 1020 73 0 1.46 143 23:39 24.02.2020
2339 Clouds -8 1019 63 0 1.81 137 23:19 24.02.2020
2340 Clouds -8 1019 63 0 1.81 137 22:38 24.02.2020
2341 Clouds -8 1019 63 0 1.81 137 22:19 24.02.2020
2342 Clouds -8 1019 63 0 1.81 137 21:56 24.02.2020
2343 Clouds -8 1019 63 0 1.81 137 21:38 24.02.2020
2344 Clouds -8 1019 63 0 1.81 137 21:19 24.02.2020
2345 Clouds -8 1019 63 0 1.81 137 20:56 24.02.2020
2346 Clouds -8 1019 63 0 1.81 137 20:37 24.02.2020
2347 Clouds -6 1019 58 0 1.76 133 20:18 24.02.2020
2348 Clouds -6 1019 58 0 1.76 133 19:56 24.02.2020
2349 Clouds -6 1019 58 0 1.76 133 19:37 24.02.2020
2350 Clouds -6 1019 58 0 1.76 133 19:19 24.02.2020
2351 Clouds -6 1019 58 0 1.76 133 18:42 24.02.2020
2352 Clouds -6 1019 58 0 1.76 133 18:23 24.02.2020
2353 Clouds -6 1019 58 0 1.76 133 17:57 24.02.2020
2354 Clouds -6 1019 58 0 1.76 133 17:38 24.02.2020
2355 Snow -1 1017 43 0 1.06 100 17:19 24.02.2020
2356 Snow -1 1017 43 0 1.06 100 16:55 24.02.2020
2357 Snow -1 1017 43 0 1.06 100 16:55 24.02.2020
2358 Snow -1 1017 43 0 1.06 100 16:37 24.02.2020
2359 Snow -1 1017 43 0 1.06 100 16:18 24.02.2020
2360 Snow -1 1017 43 0 1.06 100 15:56 24.02.2020
2361 Snow -1 1017 43 0 1.06 100 15:38 24.02.2020
2362 Snow -1 1017 43 0 1.06 100 15:19 24.02.2020
2363 Snow -1 1017 43 0 1.06 100 14:42 24.02.2020
2364 Snow -1 1017 43 0 1.06 100 14:23 24.02.2020
2365 Clouds -2 1013 46 0 1.99 133 13:59 24.02.2020
2366 Clouds -2 1013 46 0 1.99 133 13:41 24.02.2020
2367 Snow -3 1013 56 0 1.29 141 13:22 24.02.2020
2368 Snow -3 1013 56 0 1.29 141 12:58 24.02.2020
2369 Snow -3 1013 56 0 1.29 141 12:40 24.02.2020
2370 Snow -3 1013 56 0 1.29 141 12:22 24.02.2020
2371 Snow -3 1013 56 0 1.29 141 11:48 24.02.2020
2372 Snow -3 1013 56 0 1.29 141 11:29 24.02.2020
2373 Snow 2 1010 32 0 4.25 223 10:51 24.02.2020
2374 Snow 2 1010 32 0 4.25 223 10:31 24.02.2020
2375 Snow 2 1010 32 0 4.25 223 09:56 24.02.2020
2376 Snow 2 1010 32 0 4.25 223 09:38 24.02.2020
2377 Snow 2 1010 32 0 4.25 223 09:19 24.02.2020
2378 Snow 2 1010 32 0 4.25 223 08:48 24.02.2020
2379 Snow 2 1010 32 0 4.25 223 08:28 24.02.2020
2380 Clear 2 1015 23 0 3.06 201 07:52 24.02.2020
2381 Clear 2 1015 23 0 3.06 201 07:52 24.02.2020
2382 Clear 2 1015 23 0 3.06 201 07:31 24.02.2020
2383 Clear 2 1015 23 0 3.06 201 06:48 24.02.2020
2384 Clear 2 1015 23 0 3.06 201 06:22 24.02.2020
2385 Clear 2 1015 23 0 3.06 201 05:33 24.02.2020
2386 Clear -2 1019 42 0 2.19 182 04:49 24.02.2020
2387 Clear -2 1019 42 0 2.19 182 02:57 24.02.2020
2388 Clouds -9 1020 68 0 1.63 142 01:52 24.02.2020
2389 Clouds -9 1020 68 0 1.63 142 01:28 24.02.2020
2390 Clear -9 1020 72 0 1.38 135 00:37 24.02.2020
2391 Clear -9 1020 72 0 1.38 135 00:19 24.02.2020
2392 Clear -9 1020 72 0 1.38 135 23:42 23.02.2020
2393 Clear -9 1020 72 0 1.38 135 23:22 23.02.2020
2394 Clear -7 1019 57 0 1.92 145 22:58 23.02.2020
2395 Clear -7 1019 57 0 1.92 145 22:40 23.02.2020
2396 Clear -7 1019 57 0 1.92 145 22:20 23.02.2020
2397 Clear -7 1019 57 0 1.92 145 21:46 23.02.2020
2398 Clear -7 1019 57 0 1.92 145 21:20 23.02.2020
2399 Clear -7 1019 57 0 1.92 145 20:57 23.02.2020
2400 Clear -7 1019 57 0 1.92 145 20:39 23.02.2020
2401 Clear -7 1019 57 0 1.92 145 20:21 23.02.2020
2402 Clouds -5 1020 45 0 1.95 148 19:59 23.02.2020
2403 Clouds -5 1020 45 0 1.95 148 19:40 23.02.2020
2404 Clouds -5 1020 45 0 1.95 148 19:19 23.02.2020
2405 Clouds -5 1020 45 0 1.95 148 18:58 23.02.2020
2406 Clouds -5 1020 45 0 1.95 148 18:37 23.02.2020
2407 Clouds -5 1020 45 0 1.95 148 18:19 23.02.2020
2408 Clouds -5 1020 45 0 1.95 148 17:57 23.02.2020
2409 Clouds -5 1020 45 0 1.95 148 17:38 23.02.2020
2410 Clouds -1 1019 32 0 1.45 141 17:19 23.02.2020
2411 Clouds -1 1019 32 0 1.45 141 16:46 23.02.2020
2412 Clouds -1 1019 32 0 1.45 141 16:27 23.02.2020
2413 Clouds -1 1019 32 0 1.45 141 15:59 23.02.2020
2414 Clouds -1 1019 32 0 1.45 141 15:39 23.02.2020
2415 Clouds -1 1019 32 0 1.45 141 15:20 23.02.2020
2416 Clouds -1 1019 32 0 1.45 141 14:58 23.02.2020
2417 Clouds -1 1019 32 0 1.45 141 14:58 23.02.2020
2418 Clouds -1 1019 32 0 1.45 141 14:40 23.02.2020
2419 Clouds -1 1019 32 0 1.45 141 14:21 23.02.2020
2420 -273 0 0 0 0 0 14:21 23.02.2020
2421 Clouds 2 1015 19 0 1.1 123 13:57 23.02.2020
2422 Clouds 2 1015 19 0 1.1 123 13:38 23.02.2020
2423 Clouds 2 1014 21 0 2.26 116 13:20 23.02.2020
2424 Clouds 2 1014 21 0 2.26 116 12:42 23.02.2020
2425 Clouds 2 1014 21 0 2.26 116 12:22 23.02.2020
2426 Clouds 2 1014 21 0 2.26 116 11:56 23.02.2020
2427 Clouds 2 1014 21 0 2.26 116 11:37 23.02.2020
2428 Clouds 4 1012 17 0 2.29 208 11:18 23.02.2020
2429 Clouds 4 1012 17 0 2.29 208 10:42 23.02.2020
2430 Clouds 4 1012 17 0 2.29 208 10:24 23.02.2020
2431 Clouds 4 1012 17 0 2.29 208 10:00 23.02.2020
2432 Clouds 4 1012 17 0 2.29 208 09:39 23.02.2020
2433 Clouds 4 1012 17 0 2.29 208 09:21 23.02.2020
2434 Clouds 4 1012 17 0 2.29 208 08:51 23.02.2020
2435 Clouds 4 1012 17 0 2.29 208 08:30 23.02.2020
2436 Clouds 3 1018 26 0 3.14 193 07:58 23.02.2020
2437 Clouds 3 1018 26 0 3.14 193 07:39 23.02.2020
2438 Clouds 3 1018 26 0 3.14 193 06:39 23.02.2020
2439 Clouds 3 1018 26 0 3.14 193 05:48 23.02.2020
2440 Clouds -2 1024 48 0 2.52 172 04:35 23.02.2020
2441 Clouds -2 1024 48 0 2.52 172 03:21 23.02.2020
2442 Clouds -2 1024 48 0 2.52 172 02:26 23.02.2020
2443 Clouds -8 1023 84 0 1.94 145 01:24 23.02.2020
2444 Clouds -8 1023 84 0 1.94 145 00:46 23.02.2020
2445 Clouds -8 1023 84 0 1.94 145 00:25 23.02.2020
2446 Clouds -8 1023 84 0 1.94 145 23:45 22.02.2020
2447 Clouds -8 1023 84 0 1.94 145 23:27 22.02.2020
2448 Clouds -6 1023 65 0 1.73 135 22:57 22.02.2020
2449 Clouds -6 1023 65 0 1.73 135 22:38 22.02.2020
2450 Clouds -6 1023 65 0 1.73 135 22:18 22.02.2020
2451 Clouds -6 1023 65 0 1.73 135 21:40 22.02.2020
2452 Clouds -6 1023 65 0 1.73 135 21:22 22.02.2020
2453 Clouds -6 1023 65 0 1.73 135 20:46 22.02.2020
2454 Clouds -6 1023 65 0 1.73 135 20:24 22.02.2020
2455 Clouds -3 1023 49 0 1.49 133 19:56 22.02.2020
2456 Clouds -3 1023 49 0 1.49 133 19:37 22.02.2020
2457 Clouds -3 1023 49 0 1.49 133 19:18 22.02.2020
2458 Clouds -3 1023 49 0 1.49 133 18:39 22.02.2020
2459 Clouds -3 1023 49 0 1.49 133 18:21 22.02.2020
2460 Clouds -3 1023 49 0 1.49 133 17:57 22.02.2020
2461 Clouds -3 1023 49 0 1.49 133 17:39 22.02.2020
2462 Clouds 0 1022 39 0 1.4 126 17:21 22.02.2020
2463 Clouds 0 1022 39 0 1.4 126 16:57 22.02.2020
2464 Clouds 0 1022 39 0 1.4 126 16:38 22.02.2020
2465 Clouds 0 1022 39 0 1.4 126 16:19 22.02.2020
2466 Clouds 0 1022 39 0 1.4 126 15:43 22.02.2020
2467 Clouds 0 1022 39 0 1.4 126 15:24 22.02.2020
2468 Clouds 0 1022 39 0 1.4 126 14:44 22.02.2020
2469 Clouds 0 1022 39 0 1.4 126 14:23 22.02.2020
2470 Clouds 1 1017 38 0 1.73 10 13:58 22.02.2020
2471 Clouds 1 1017 38 0 1.73 10 13:40 22.02.2020
2472 Clouds -1 1017 67 0 3.5 8 13:18 22.02.2020
2473 Clouds -1 1017 67 0 3.5 8 12:44 22.02.2020
2474 Clouds -1 1017 67 0 3.5 8 12:24 22.02.2020
2475 Clouds -1 1017 67 0 3.5 8 11:48 22.02.2020
2476 Clouds -1 1017 67 0 3.5 8 11:29 22.02.2020
2477 Clouds 5 1013 26 0 3.42 164 10:58 22.02.2020
2478 Clouds 5 1013 26 0 3.42 164 10:40 22.02.2020
2479 Clouds 5 1013 26 0 3.42 164 10:20 22.02.2020
2480 Clouds 5 1013 26 0 3.42 164 09:58 22.02.2020
2481 Clouds 5 1013 26 0 3.42 164 09:38 22.02.2020
2482 Clouds 5 1013 26 0 3.42 164 09:20 22.02.2020
2483 Clouds 5 1013 26 0 3.42 164 08:47 22.02.2020
2484 Clouds 5 1013 26 0 3.42 164 08:28 22.02.2020
2485 Clouds 3 1018 26 0 2.61 185 07:49 22.02.2020
2486 Clouds 3 1018 26 0 2.61 185 07:20 22.02.2020
2487 Clouds 3 1018 26 0 2.61 185 06:47 22.02.2020
2488 Clouds 3 1018 26 0 2.61 185 06:29 22.02.2020
2489 Clouds -2 1024 42 0 2.48 177 04:33 22.02.2020
2490 Clouds -2 1024 42 0 2.48 177 03:22 22.02.2020
2491 Clouds -2 1024 42 0 2.48 177 02:31 22.02.2020
2492 Clouds -8 1025 74 0 1.96 131 01:46 22.02.2020
2493 Clouds -8 1025 73 0 1.9 144 01:25 22.02.2020
2494 Clouds -8 1025 73 0 1.9 144 00:45 22.02.2020
2495 Clouds -8 1025 73 0 1.9 144 00:26 22.02.2020
2496 Clouds -8 1025 73 0 1.9 144 23:47 21.02.2020
2497 Clouds -8 1025 73 0 1.9 144 23:22 21.02.2020
2498 Clear -5 1024 67 0 2.42 142 22:55 21.02.2020
2499 Clear -5 1024 67 0 2.42 142 22:37 21.02.2020
2500 Clear -5 1024 67 0 2.42 142 22:18 21.02.2020
2501 Clear -5 1024 67 0 2.42 142 21:42 21.02.2020
2502 Clear -5 1024 67 0 2.42 142 21:42 21.02.2020
2503 Clear -5 1024 67 0 2.42 142 21:23 21.02.2020
2504 Clear -5 1024 67 0 2.42 142 21:23 21.02.2020
2505 Clear -5 1024 67 0 2.42 142 21:23 21.02.2020
2506 Clear -5 1024 67 0 2.42 142 20:49 21.02.2020
2507 Clear -5 1024 67 0 2.42 142 20:29 21.02.2020
2508 Clouds -4 1024 54 0 1.86 133 19:57 21.02.2020
2509 Clouds -4 1024 54 0 1.86 133 19:37 21.02.2020
2510 Clouds -4 1024 54 0 1.86 133 19:18 21.02.2020
2511 Clouds -4 1024 54 0 1.86 133 18:40 21.02.2020
2512 Clouds -4 1024 54 0 1.86 133 18:22 21.02.2020
2513 Clouds -4 1024 54 0 1.86 133 17:42 21.02.2020
2514 Clouds -4 1024 54 0 1.86 133 17:23 21.02.2020
2515 Clouds -1 1023 34 0 2.8 164 16:58 21.02.2020
2516 Clouds -1 1023 34 0 2.8 164 16:40 21.02.2020
2517 Clouds -1 1023 34 0 2.8 164 16:21 21.02.2020
2518 Clouds -1 1023 34 0 2.8 164 15:56 21.02.2020
2519 Clouds -1 1023 34 0 2.8 164 15:38 21.02.2020
2520 Clouds -1 1023 34 0 2.8 164 15:18 21.02.2020
2521 Clouds -1 1023 34 0 2.8 164 14:42 21.02.2020
2522 Clouds 2 1018 15 0 1.1 190 14:19 21.02.2020
2523 Clouds 2 1018 15 0 1.1 190 13:44 21.02.2020
2524 Clouds 2 1017 17 0 2.74 192 13:24 21.02.2020
2525 Clouds 2 1017 17 0 2.74 192 12:56 21.02.2020
2526 Clouds 2 1017 17 0 2.74 192 12:37 21.02.2020
2527 Clouds 2 1017 17 0 2.74 192 12:19 21.02.2020
2528 Clouds 2 1017 17 0 2.74 192 11:42 21.02.2020
2529 Clouds 2 1017 17 0 2.74 192 11:22 21.02.2020
2530 Clouds 6 1015 11 0 2.19 198 10:57 21.02.2020
2531 Clouds 6 1015 11 0 2.19 198 10:39 21.02.2020
2532 Clouds 6 1015 11 0 2.19 198 10:19 21.02.2020
2533 Clouds 6 1015 11 0 2.19 198 09:57 21.02.2020
2534 Clouds 6 1015 11 0 2.19 198 09:38 21.02.2020
2535 Clouds 6 1015 11 0 2.19 198 09:19 21.02.2020
2536 Clouds 6 1015 11 0 2.19 198 08:43 21.02.2020
2537 Clouds 5 1015 21 0 2 141 08:22 21.02.2020
2538 Clouds 4 1020 24 0 2.16 195 07:59 21.02.2020
2539 Clouds 4 1020 24 0 2.16 195 07:59 21.02.2020
2540 Clouds 4 1020 24 0 2.16 195 07:41 21.02.2020
2541 Clouds 4 1020 24 0 2.16 195 07:19 21.02.2020
2542 Clouds 4 1020 24 0 2.16 195 06:52 21.02.2020
2543 Clouds 4 1020 24 0 2.16 195 06:30 21.02.2020
2544 Clouds 4 1020 24 0 2.16 195 05:47 21.02.2020
2545 Clouds -1 1025 56 0 0.63 87 04:38 21.02.2020
2546 Clouds -1 1025 56 0 0.63 87 04:19 21.02.2020
2547 Clouds -1 1025 56 0 0.63 87 03:39 21.02.2020
2548 Clouds -1 1025 56 0 0.63 87 02:43 21.02.2020
2549 Clouds -6 1024 83 0 1.61 30 01:24 21.02.2020
2550 Clouds -7 1024 86 0 1.53 45 00:45 21.02.2020
2551 Clouds -7 1024 86 0 1.53 45 00:23 21.02.2020
2552 Clouds -7 1024 86 0 1.53 45 23:46 20.02.2020
2553 Clouds -7 1024 86 0 1.53 45 23:25 20.02.2020
2554 Clouds -6 1022 81 0 2.09 30 22:57 20.02.2020
2555 Clouds -6 1022 81 0 2.09 30 22:38 20.02.2020
2556 Clouds -6 1022 81 0 2.09 30 22:20 20.02.2020
2557 Clouds -6 1022 81 0 2.09 30 21:56 20.02.2020
2558 Clouds -6 1022 81 0 2.09 30 21:37 20.02.2020
2559 Clouds -6 1022 81 0 2.09 30 21:19 20.02.2020
2560 Clouds -6 1022 81 0 2.09 30 21:19 20.02.2020
2561 Clouds -6 1022 81 0 2.09 30 20:55 20.02.2020
2562 Clouds -6 1022 81 0 2.09 30 20:37 20.02.2020
2563 Snow -4 1022 64 0 3.49 13 20:18 20.02.2020
2564 Clouds -3 1022 51 0 2.81 22 19:58 20.02.2020
2565 Clouds -3 1022 51 0 2.81 22 19:39 20.02.2020
2566 Clouds -3 1022 51 0 2.81 22 19:21 20.02.2020
2567 Clouds -3 1022 51 0 2.81 22 18:39 20.02.2020
2568 Clouds -3 1022 51 0 2.81 22 18:39 20.02.2020
2569 Clouds -3 1022 51 0 2.81 22 18:20 20.02.2020
2570 Clouds -3 1022 51 0 2.81 22 17:55 20.02.2020
2571 Clouds -3 1022 51 0 2.81 22 17:36 20.02.2020
2572 Clouds -1 1020 27 0 3.61 17 17:18 20.02.2020
2573 Clouds -1 1020 27 0 3.61 17 16:55 20.02.2020
2574 Clouds -1 1020 27 0 3.61 17 16:37 20.02.2020
2575 Clouds -1 1020 27 0 3.61 17 16:18 20.02.2020
2576 Clouds -1 1020 27 0 3.61 17 15:41 20.02.2020
2577 Clouds -1 1020 27 0 3.61 17 15:21 20.02.2020
2578 Clouds -1 1020 27 0 3.61 17 14:56 20.02.2020
2579 Clouds -1 1020 27 0 3.61 17 14:38 20.02.2020
2580 Clouds 1 1015 18 0 0.88 281 14:20 20.02.2020
2581 Clouds 1 1015 18 0 0.88 281 13:45 20.02.2020
2582 Clouds 3 1015 12 0 4.45 291 13:20 20.02.2020
2583 Clouds 3 1015 12 0 4.45 291 12:58 20.02.2020
2584 Clouds 3 1015 12 0 4.45 291 12:39 20.02.2020
2585 Clouds 3 1015 12 0 4.45 291 12:19 20.02.2020
2586 Clouds 3 1015 12 0 4.45 291 11:54 20.02.2020
2587 Clouds 3 1015 12 0 4.45 291 11:36 20.02.2020
2588 Clouds 8 1010 7 0 12.99 268 11:18 20.02.2020
2589 Clouds 8 1010 7 0 12.99 268 10:42 20.02.2020
2590 Clouds 8 1010 7 0 12.99 268 10:42 20.02.2020
2591 Clouds 8 1010 7 0 12.99 268 10:21 20.02.2020
2592 Clouds 8 1010 7 0 12.99 268 10:21 20.02.2020
2593 Clouds 8 1010 7 0 12.99 268 09:55 20.02.2020
2594 Clouds 8 1010 7 0 12.99 268 09:36 20.02.2020
2595 Clouds 8 1010 7 0 12.99 268 09:18 20.02.2020
2596 Clouds 8 1010 7 0 12.99 268 08:40 20.02.2020
2597 Clouds 7 1009 8 0 10.43 269 08:22 20.02.2020
2598 Clouds 6 1013 12 0 5.53 235 07:46 20.02.2020
2599 Clouds 6 1013 12 0 5.53 235 07:26 20.02.2020
2600 Clouds 6 1013 12 0 5.53 235 06:56 20.02.2020
2601 Clouds 6 1013 12 0 5.53 235 06:30 20.02.2020
2602 Clouds 6 1013 12 0 5.53 235 05:47 20.02.2020
2603 Clouds -1 1019 35 0 2.18 175 05:18 20.02.2020
2604 Clouds -1 1019 35 0 2.18 175 04:29 20.02.2020
2605 Clouds -1 1019 35 0 2.18 175 03:40 20.02.2020
2606 Clouds -1 1019 35 0 2.18 175 02:37 20.02.2020
2607 Clouds -9 1019 67 0 1.81 156 01:21 20.02.2020
2608 Clouds -9 1019 67 0 1.81 156 00:35 20.02.2020
2609 Clouds -9 1019 67 0 1.81 156 23:55 19.02.2020
2610 Clouds -9 1019 67 0 1.81 156 23:24 19.02.2020
2611 Clouds -7 1017 59 0 1.73 132 22:56 19.02.2020
2612 Clouds -7 1017 59 0 1.73 132 22:38 19.02.2020
2613 Clouds -7 1017 59 0 1.73 132 22:20 19.02.2020
2614 Clouds -7 1017 59 0 1.73 132 21:56 19.02.2020
2615 Clouds -7 1017 59 0 1.73 132 21:38 19.02.2020
2616 Clouds -7 1017 59 0 1.73 132 21:18 19.02.2020
2617 Clouds -7 1017 59 0 1.73 132 20:55 19.02.2020
2618 Clouds -7 1017 59 0 1.73 132 20:36 19.02.2020
2619 Clouds -4 1017 38 0 1.36 163 20:18 19.02.2020
2620 Clouds -4 1017 38 0 1.36 163 19:56 19.02.2020
2621 Clouds -4 1017 38 0 1.36 163 19:37 19.02.2020
2622 Clouds -4 1017 38 0 1.36 163 19:18 19.02.2020
2623 Clouds -4 1017 38 0 1.36 163 18:56 19.02.2020
2624 Clouds -4 1017 38 0 1.36 163 18:38 19.02.2020
2625 Clouds -4 1017 38 0 1.36 163 18:38 19.02.2020
2626 Clouds -4 1017 38 0 1.36 163 18:20 19.02.2020
2627 Clouds -4 1017 38 0 1.36 163 17:43 19.02.2020
2628 Clouds -2 1015 17 0 1.21 207 17:20 19.02.2020
2629 Clouds -2 1015 17 0 1.21 207 16:44 19.02.2020
2630 Clouds -2 1015 17 0 1.21 207 16:20 19.02.2020
2631 Clouds -2 1015 17 0 1.21 207 15:59 19.02.2020
2632 Clouds -2 1015 17 0 1.21 207 15:41 19.02.2020
2633 Clouds -2 1015 17 0 1.21 207 15:23 19.02.2020
2634 Clouds -2 1015 17 0 1.21 207 14:55 19.02.2020
2635 Clouds -2 1015 17 0 1.21 207 14:37 19.02.2020
2636 Clouds 2 1010 9 0 3.02 240 14:18 19.02.2020
2637 Clouds 2 1010 9 0 3.02 240 13:41 19.02.2020
2638 Clouds 3 1009 8 0 4.45 235 13:21 19.02.2020
2639 Clouds 3 1009 8 0 4.45 235 12:42 19.02.2020
2640 Clouds 3 1009 8 0 4.45 235 12:19 19.02.2020
2641 Clouds 3 1009 8 0 4.45 235 11:59 19.02.2020
2642 Clouds 3 1009 8 0 4.45 235 11:37 19.02.2020
2643 Clouds 7 1007 6 0 10.42 268 11:19 19.02.2020
2644 Clouds 7 1007 6 0 10.42 268 10:57 19.02.2020
2645 Clouds 7 1007 6 0 10.42 268 10:38 19.02.2020
2646 Clouds 7 1007 6 0 10.42 268 10:19 19.02.2020
2647 Clouds 7 1007 6 0 10.42 268 09:57 19.02.2020
2648 Clouds 7 1007 6 0 10.42 268 09:37 19.02.2020
2649 Clouds 7 1007 6 0 10.42 268 09:18 19.02.2020
2650 Clouds 7 1007 6 0 10.42 268 09:18 19.02.2020
2651 Clouds 7 1007 6 0 10.42 268 09:18 19.02.2020
2652 Clouds 7 1007 6 0 10.42 268 08:44 19.02.2020
2653 Clouds 7 1007 5 0 9.78 273 08:24 19.02.2020
2654 Clear 4 1012 12 0 3.18 209 07:42 19.02.2020
2655 Clear 4 1012 12 0 3.18 209 07:21 19.02.2020
2656 Clear 4 1012 12 0 3.18 209 06:53 19.02.2020
2657 Clear 4 1012 12 0 3.18 209 06:53 19.02.2020
2658 Clear 4 1012 12 0 3.18 209 06:27 19.02.2020
2659 Clear -3 1019 23 0 2.57 176 04:24 19.02.2020
2660 Clear -3 1019 23 0 2.57 176 02:56 19.02.2020
2661 Clear -3 1019 23 0 2.57 176 02:31 19.02.2020
2662 Clouds -11 1020 24 0 1.78 143 01:24 19.02.2020
2663 Clouds -11 1020 21 0 1.88 150 00:51 19.02.2020
2664 Clouds -11 1020 21 0 1.88 150 00:51 19.02.2020
2665 Clouds -11 1020 21 0 1.88 150 00:31 19.02.2020
2666 Clouds -11 1020 21 0 1.88 150 23:44 18.02.2020
2667 Clear -10 1019 13 0 1.82 137 23:21 18.02.2020
2668 Clear -10 1019 13 0 1.82 137 22:59 18.02.2020
2669 Clear -10 1019 13 0 1.82 137 22:41 18.02.2020
2670 Clear -10 1019 13 0 1.82 137 22:19 18.02.2020
2671 Clear -10 1019 13 0 1.82 137 21:56 18.02.2020
2672 Clear -10 1019 13 0 1.82 137 21:38 18.02.2020
2673 Clear -10 1019 13 0 1.82 137 21:19 18.02.2020
2674 Clear -10 1019 13 0 1.82 137 20:58 18.02.2020
2675 Clear -10 1019 13 0 1.82 137 20:38 18.02.2020
2676 Clouds -9 1021 12 0 1.15 106 20:20 18.02.2020
2677 Clouds -9 1020 14 0 0.77 96 19:55 18.02.2020
2678 Clouds -9 1020 14 0 0.77 96 19:36 18.02.2020
2679 Clouds -9 1020 14 0 0.77 96 19:18 18.02.2020
2680 Clouds -9 1020 14 0 0.77 96 18:41 18.02.2020
2681 Clouds -9 1020 14 0 0.77 96 18:20 18.02.2020
2682 Clouds -9 1020 14 0 0.77 96 17:57 18.02.2020
2683 Clouds -9 1020 14 0 0.77 96 17:38 18.02.2020
2684 Clouds -7 1020 8 0 1.42 88 17:19 18.02.2020
2685 Clouds -7 1020 8 0 1.42 88 16:40 18.02.2020
2686 Clouds -7 1020 8 0 1.42 88 16:40 18.02.2020
2687 Clouds -7 1020 8 0 1.42 88 16:20 18.02.2020
2688 Clouds -7 1020 8 0 1.42 88 15:42 18.02.2020
2689 Clouds -7 1020 8 0 1.42 88 15:21 18.02.2020
2690 Clouds -7 1020 8 0 1.42 88 14:58 18.02.2020
2691 Clouds -7 1020 8 0 1.42 88 14:40 18.02.2020
2692 Clouds -3 1018 6 0 2.23 60 14:21 18.02.2020
2693 Clouds -3 1018 6 0 2.23 60 13:57 18.02.2020
2694 Clouds -3 1018 6 0 2.23 60 13:38 18.02.2020
2695 Clouds -3 1018 6 0 2.14 67 13:20 18.02.2020
2696 Clouds -3 1018 6 0 2.14 67 12:43 18.02.2020
2697 Clouds -3 1018 6 0 2.14 67 12:24 18.02.2020
2698 Clouds -3 1018 6 0 2.14 67 11:56 18.02.2020
2699 Clouds -3 1018 6 0 2.14 67 11:38 18.02.2020
2700 Clear 3 1017 3 0 4.47 349 11:19 18.02.2020
2701 Clear 3 1017 3 0 4.47 349 10:44 18.02.2020
2702 Clear 3 1017 3 0 4.47 349 10:44 18.02.2020
2703 Clear 3 1017 3 0 4.47 349 10:22 18.02.2020
2704 Clear 3 1017 3 0 4.47 349 09:56 18.02.2020
2705 Clear 3 1017 3 0 4.47 349 09:38 18.02.2020
2706 Clear 3 1017 3 0 4.47 349 09:19 18.02.2020
2707 Clear 3 1017 3 0 4.47 349 08:55 18.02.2020
2708 Clear 3 1017 3 0 4.47 349 08:37 18.02.2020
2709 Clouds 3 1019 6 0 6.37 330 08:19 18.02.2020
2710 Clouds 3 1019 6 0 6.37 330 07:46 18.02.2020
2711 Clouds 3 1019 6 0 6.37 330 07:25 18.02.2020
2712 Clouds 3 1019 6 0 6.37 330 06:51 18.02.2020
2713 Clouds 3 1019 6 0 6.37 330 06:28 18.02.2020
2714 Clouds 3 1019 6 0 6.37 330 05:48 18.02.2020
2715 Clouds 0 1020 12 0 2.32 352 05:20 18.02.2020
2716 Clouds 0 1020 12 0 2.32 352 03:49 18.02.2020
2717 Clouds 0 1020 12 0 2.32 352 02:58 18.02.2020
2718 Clouds -9 1018 36 0 1.56 1 01:25 18.02.2020
2719 Clouds -8 1019 38 0 1.43 2 00:40 18.02.2020
2720 Clouds -8 1019 38 0 1.43 2 00:18 18.02.2020
2721 Clouds -8 1019 38 0 1.43 2 23:39 17.02.2020
2722 Clouds -7 1016 46 0 0.95 30 23:19 17.02.2020
2723 Clouds -7 1016 46 0 0.95 30 22:58 17.02.2020
2724 Clouds -7 1016 46 0 0.95 30 22:39 17.02.2020
2725 Clouds -7 1016 46 0 0.95 30 22:18 17.02.2020
2726 Clouds -7 1016 46 0 0.95 30 21:39 17.02.2020
2727 Clouds -7 1016 46 0 0.95 30 21:19 17.02.2020
2728 Clouds -7 1016 46 0 0.95 30 20:55 17.02.2020
2729 Clouds -7 1016 46 0 0.95 30 20:55 17.02.2020
2730 Clouds -7 1016 46 0 0.95 30 20:37 17.02.2020
2731 Clouds -7 1016 46 0 0.95 30 20:37 17.02.2020
2732 Clouds -3 1016 37 0 1.02 87 20:19 17.02.2020
2733 Clouds -3 1016 37 0 1.02 87 19:43 17.02.2020
2734 Clouds -3 1016 37 0 1.02 87 19:43 17.02.2020
2735 Clouds -3 1016 37 0 1.02 87 19:21 17.02.2020
2736 Clouds -3 1016 37 0 1.02 87 18:57 17.02.2020
2737 Clouds -3 1016 37 0 1.02 87 18:36 17.02.2020
2738 Clouds -3 1016 37 0 1.02 87 18:36 17.02.2020
2739 Clouds -3 1016 37 0 1.02 87 18:36 17.02.2020
2740 Clouds -3 1016 37 0 1.02 87 18:36 17.02.2020
2741 Clouds -3 1016 37 0 1.02 87 18:18 17.02.2020
2742 Clouds -3 1016 37 0 1.02 87 17:38 17.02.2020
2743 Clouds -1 1013 29 0 1.7 163 17:20 17.02.2020
2744 Clouds -1 1013 29 0 1.7 163 16:59 17.02.2020
2745 Clouds -1 1013 29 0 1.7 163 16:59 17.02.2020
2746 Clouds -1 1013 29 0 1.7 163 16:59 17.02.2020
2747 Clouds -1 1013 29 0 1.7 163 16:40 17.02.2020
2748 Clouds -1 1013 29 0 1.7 163 16:22 17.02.2020
2749 Clouds -1 1013 29 0 1.7 163 15:48 17.02.2020
2750 Clouds -1 1013 29 0 1.7 163 15:29 17.02.2020
2751 Clouds -1 1013 29 0 1.7 163 15:00 17.02.2020
2752 Clouds -1 1013 29 0 1.7 163 14:41 17.02.2020
2753 Clouds -1 1013 29 0 1.7 163 14:22 17.02.2020
2754 Clouds 4 1008 5 0 5.56 270 13:57 17.02.2020
2755 Clouds 4 1008 5 0 5.56 270 13:38 17.02.2020
2756 Clouds 4 1008 5 0 5.56 270 13:19 17.02.2020
2757 Clouds 5 1008 5 0 6.73 281 12:43 17.02.2020
2758 Clouds 5 1008 5 0 6.73 281 12:25 17.02.2020
2759 Clouds 5 1008 5 0 6.73 281 11:58 17.02.2020
2760 Clouds 5 1008 5 0 6.73 281 11:39 17.02.2020
2761 Clouds 10 1006 4 0 9.92 268 11:20 17.02.2020
2762 Clouds 10 1006 4 0 9.92 268 10:55 17.02.2020
2763 Clouds 10 1006 4 0 9.92 268 10:37 17.02.2020
2764 Clouds 10 1006 4 0 9.92 268 10:18 17.02.2020
2765 Clouds 10 1006 4 0 9.92 268 09:41 17.02.2020
2766 Clouds 10 1006 4 0 9.92 268 09:21 17.02.2020
2767 Clouds 10 1006 4 0 9.92 268 08:58 17.02.2020
2768 Clouds 10 1006 4 0 9.92 268 08:39 17.02.2020
2769 Clear 6 1012 14 0 0.7 164 08:20 17.02.2020
2770 Clear 6 1012 14 0 0.7 164 07:45 17.02.2020
2771 Clear 6 1012 14 0 0.7 164 07:24 17.02.2020
2772 Clear 6 1012 14 0 0.7 164 06:52 17.02.2020
2773 Clear 6 1012 14 0 0.7 164 06:32 17.02.2020
2774 Clear 6 1012 14 0 0.7 164 05:56 17.02.2020
2775 Clear 6 1012 14 0 0.7 164 05:37 17.02.2020
2776 Clear -1 1019 36 0 1.7 177 03:22 17.02.2020
2777 Clear -8 1019 63 0 1.79 142 01:58 17.02.2020
2778 Clear -8 1019 55 0 1.89 133 00:48 17.02.2020
2779 Clear -8 1019 55 0 1.89 133 00:22 17.02.2020
2780 Clear -8 1019 55 0 1.89 133 23:54 16.02.2020
2781 Clear -8 1019 55 0 1.89 133 23:32 16.02.2020
2782 Clear -6 1018 38 0 1.64 134 22:58 16.02.2020
2783 Clear -6 1018 38 0 1.64 134 22:39 16.02.2020
2784 Clear -6 1018 38 0 1.64 134 22:21 16.02.2020
2785 Clear -6 1018 38 0 1.64 134 21:58 16.02.2020
2786 Clear -6 1018 38 0 1.64 134 21:40 16.02.2020
2787 Clear -6 1018 38 0 1.64 134 21:21 16.02.2020
2788 Clear -6 1018 38 0 1.64 134 20:57 16.02.2020
2789 Clear -6 1018 38 0 1.64 134 20:39 16.02.2020
2790 Clear -4 1016 24 0 1.57 162 20:21 16.02.2020
2791 Clear -4 1016 24 0 1.57 162 19:58 16.02.2020
2792 Clear -4 1016 24 0 1.57 162 19:38 16.02.2020
2793 Clear -4 1016 24 0 1.57 162 19:19 16.02.2020
2794 Clear -4 1016 24 0 1.57 162 18:44 16.02.2020
2795 Clear -4 1016 24 0 1.57 162 18:25 16.02.2020
2796 Clear -4 1016 24 0 1.57 162 17:57 16.02.2020
2797 Clear -4 1016 24 0 1.57 162 17:39 16.02.2020
2798 Clear -3 1015 16 0 0.86 250 17:19 16.02.2020
2799 Clear -3 1015 16 0 0.86 250 16:54 16.02.2020
2800 Clear -3 1015 16 0 0.86 250 16:36 16.02.2020
2801 Clear -3 1015 16 0 0.86 250 16:18 16.02.2020
2802 Clear -3 1015 16 0 0.86 250 15:41 16.02.2020
2803 Clear -3 1015 16 0 0.86 250 15:41 16.02.2020
2804 Clear -3 1015 16 0 0.86 250 15:22 16.02.2020
2805 Clear -3 1015 16 0 0.86 250 14:44 16.02.2020
2806 Clear -3 1015 16 0 0.86 250 14:24 16.02.2020
2807 Clouds 2 1010 13 0 3.02 243 13:59 16.02.2020
2808 Clouds 2 1010 13 0 3.02 243 13:41 16.02.2020
2809 Clouds 2 1010 13 0 3.02 243 13:22 16.02.2020
2810 Clear 2 1009 14 0 3.08 246 12:39 16.02.2020
2811 Clear 2 1009 14 0 3.08 246 12:20 16.02.2020
2812 Clear 2 1009 14 0 3.08 246 11:41 16.02.2020
2813 Clear 10 1007 3 0 8.53 264 11:20 16.02.2020
2814 Clear 10 1007 3 0 8.53 264 10:59 16.02.2020
2815 Clear 10 1007 3 0 8.53 264 10:41 16.02.2020
2816 Clear 10 1007 3 0 8.53 264 10:22 16.02.2020
2817 Clear 10 1007 3 0 8.53 264 09:59 16.02.2020
2818 Clear 10 1007 3 0 8.53 264 09:39 16.02.2020
2819 Clear 10 1007 3 0 8.53 264 09:20 16.02.2020
2820 Clear 10 1007 3 0 8.53 264 08:57 16.02.2020
2821 Clear 10 1007 3 0 8.53 264 08:57 16.02.2020
2822 Clear 10 1007 3 0 8.53 264 08:39 16.02.2020
2823 Clear 8 1012 4 0 5.04 238 08:19 16.02.2020
2824 Clear 8 1012 5 0 3.95 222 07:42 16.02.2020
2825 Clear 8 1012 5 0 3.95 222 06:58 16.02.2020
2826 Clear 8 1012 5 0 3.95 222 06:31 16.02.2020
2827 Clear 0 1018 13 0 1.65 172 04:37 16.02.2020
2828 Clear 0 1018 13 0 1.65 172 03:22 16.02.2020
2829 Clear -10 1018 31 0 0.7 150 01:58 16.02.2020
2830 Clear -10 1018 31 0 0.7 150 01:39 16.02.2020
2831 Clear -10 1018 31 0 0.83 153 01:20 16.02.2020
2832 Clear -10 1018 31 0 0.83 153 00:51 16.02.2020
2833 Clear -10 1018 31 0 0.83 153 00:27 16.02.2020
2834 Clear -10 1018 31 0 0.83 153 23:44 15.02.2020
2835 Clear -10 1018 31 0 0.83 153 23:25 15.02.2020
2836 Clear -8 1016 28 0 0.39 104 22:59 15.02.2020
2837 Clear -8 1016 28 0 0.39 104 22:40 15.02.2020
2838 Clear -8 1016 28 0 0.39 104 22:19 15.02.2020
2839 Clear -8 1016 28 0 0.39 104 21:56 15.02.2020
2840 Clear -8 1016 28 0 0.39 104 21:37 15.02.2020
2841 Clear -8 1016 28 0 0.39 104 21:19 15.02.2020
2842 Clear -8 1016 28 0 0.39 104 20:39 15.02.2020
2843 Clear -5 1016 19 0 2.03 37 20:20 15.02.2020
2844 Clear -5 1016 19 0 2.03 37 19:44 15.02.2020
2845 Clear -5 1016 19 0 2.03 37 19:22 15.02.2020
2846 Clear -5 1016 19 0 2.03 37 18:43 15.02.2020
2847 Clear -5 1016 19 0 2.03 37 18:23 15.02.2020
2848 Clear -5 1016 19 0 2.03 37 17:58 15.02.2020
2849 Clear -5 1016 19 0 2.03 37 17:38 15.02.2020
2850 Clear -2 1016 11 0 2.67 14 17:19 15.02.2020
2851 Clear -2 1016 11 0 2.67 14 16:43 15.02.2020
2852 Clear -2 1016 11 0 2.67 14 16:24 15.02.2020
2853 Clear -2 1016 11 0 2.67 14 15:58 15.02.2020
2854 Clear -2 1016 11 0 2.67 14 15:40 15.02.2020
2855 Clear -2 1016 11 0 2.67 14 15:22 15.02.2020
2856 Clear -2 1016 11 0 2.67 14 14:45 15.02.2020
2857 Clear 0 1011 7 0 2.08 279 14:19 15.02.2020
2858 Clear 0 1011 7 0 2.08 279 13:56 15.02.2020
2859 Clear 0 1011 7 0 2.08 279 13:37 15.02.2020
2860 Clear 0 1011 11 0 2.02 280 13:19 15.02.2020
2861 Clear 0 1011 11 0 2.02 280 12:42 15.02.2020
2862 Clear 0 1011 11 0 2.02 280 12:23 15.02.2020
2863 Clear 0 1011 11 0 2.02 280 11:49 15.02.2020
2864 Clear 0 1011 11 0 2.02 280 11:31 15.02.2020
2865 Clear 8 1008 3 0 6.83 293 10:57 15.02.2020
2866 Clear 8 1008 3 0 6.83 293 10:38 15.02.2020
2867 Clear 8 1008 3 0 6.83 293 10:19 15.02.2020
2868 Clear 8 1008 3 0 6.83 293 09:43 15.02.2020
2869 Clear 8 1008 3 0 6.83 293 09:25 15.02.2020
2870 Clear 8 1008 3 0 6.83 293 08:45 15.02.2020
2871 Clear 8 1008 4 0 6.5 296 08:26 15.02.2020
2872 Clear 6 1013 4 0 4.38 323 07:59 15.02.2020
2873 Clear 6 1013 4 0 4.38 323 07:39 15.02.2020
2874 Clear 6 1013 4 0 4.38 323 07:18 15.02.2020
2875 Clear 6 1013 4 0 4.38 323 06:37 15.02.2020
2876 Clear 6 1013 4 0 4.38 323 05:55 15.02.2020
2877 Clear 2 1015 10 0 1.82 289 04:48 15.02.2020
2878 Clear 2 1015 10 0 1.82 289 03:45 15.02.2020
2879 Clear 2 1015 10 0 1.82 289 02:58 15.02.2020
2880 Clear 2 1015 10 0 1.82 289 02:23 15.02.2020
2881 Clear -9 1014 45 0 0.56 254 01:41 15.02.2020
2882 Clear -9 1014 29 0 0.75 234 00:56 15.02.2020
2883 Clear -9 1014 29 0 0.75 234 00:26 15.02.2020
2884 Clear -9 1014 29 0 0.75 234 23:44 14.02.2020
2885 Clear -5 1011 20 0 1.96 248 23:21 14.02.2020
2886 Clear -5 1011 20 0 1.96 248 22:54 14.02.2020
2887 Clear -5 1011 20 0 1.96 248 22:36 14.02.2020
2888 Clear -5 1011 20 0 1.96 248 22:18 14.02.2020
2889 Clear -5 1011 20 0 1.96 248 21:40 14.02.2020
2890 Clear -5 1011 20 0 1.96 248 21:21 14.02.2020
2891 Clear -5 1011 20 0 1.96 248 20:44 14.02.2020
2892 Clear -3 1008 16 0 1.79 254 20:20 14.02.2020
2893 Clear -4 1008 18 0 1.71 240 19:57 14.02.2020
2894 Clear -4 1008 18 0 1.71 240 19:38 14.02.2020
2895 Clear -4 1008 18 0 1.71 240 19:19 14.02.2020
2896 Clear -4 1008 18 0 1.71 240 18:56 14.02.2020
2897 Clear -4 1008 18 0 1.71 240 18:38 14.02.2020
2898 Clear -4 1008 18 0 1.71 240 18:18 14.02.2020
2899 Clear -4 1008 18 0 1.71 240 17:42 14.02.2020
2900 Clear -1 1007 11 0 2.66 350 17:20 14.02.2020
2901 Clear -1 1007 11 0 2.66 350 16:57 14.02.2020
2902 Clear -1 1007 11 0 2.66 350 16:39 14.02.2020
2903 Clear -1 1007 11 0 2.66 350 16:21 14.02.2020
2904 Clear -1 1007 11 0 2.66 350 15:56 14.02.2020
2905 Clear -1 1007 11 0 2.66 350 15:37 14.02.2020
2906 -273 0 0 0 0 0 15:37 14.02.2020
2907 Clear -1 1007 11 0 2.66 350 15:19 14.02.2020
2908 Clear -1 1007 11 0 2.66 350 15:19 14.02.2020
2909 Clear -1 1007 11 0 2.66 350 14:56 14.02.2020
2910 Clear -1 1007 11 0 2.66 350 14:38 14.02.2020
2911 Clear 3 1001 7 0 3.52 331 14:19 14.02.2020
2912 Clear 3 1001 7 0 3.52 331 13:40 14.02.2020
2913 Clear 3 1001 7 0 3.52 331 13:40 14.02.2020
2914 Clear 3 1001 7 0 3.52 331 13:21 14.02.2020
2915 Clear 3 1001 7 0 3.36 329 12:58 14.02.2020
2916 Clear 3 1001 7 0 3.36 329 12:58 14.02.2020
2917 Clear 3 1001 7 0 3.36 329 12:39 14.02.2020
2918 Clear 3 1001 7 0 3.36 329 12:21 14.02.2020
2919 Clear 3 1001 7 0 3.36 329 11:58 14.02.2020
2920 Clear 3 1001 7 0 3.36 329 11:40 14.02.2020
2921 Clear 12 997 3 0 10.62 284 11:20 14.02.2020
2922 Clear 12 997 3 0 10.62 284 10:55 14.02.2020
2923 Clear 12 997 3 0 10.62 284 10:37 14.02.2020
2924 Clear 12 997 3 0 10.62 284 10:19 14.02.2020
2925 Clear 12 997 3 0 10.62 284 09:40 14.02.2020
2926 Clear 12 997 3 0 10.62 284 09:20 14.02.2020
2927 Clear 12 997 3 0 10.62 284 08:43 14.02.2020
2928 Clear 11 997 3 0 7.64 288 08:25 14.02.2020
2929 Clear 10 1002 3 0 7.45 292 07:56 14.02.2020
2930 Clear 10 1002 3 0 7.45 292 07:38 14.02.2020
2931 Clear 10 1002 3 0 7.45 292 07:18 14.02.2020
2932 Clear 10 1002 3 0 7.45 292 06:29 14.02.2020
2933 Clear 10 1002 3 0 7.45 292 05:47 14.02.2020
2934 Clear 3 1007 8 0 0.81 205 04:46 14.02.2020
2935 Clear 3 1007 8 0 0.81 205 03:29 14.02.2020
2936 Clear 3 1007 8 0 0.81 205 02:30 14.02.2020
2937 Clouds -7 1010 25 0 1.04 353 01:28 14.02.2020
2938 Clouds -7 1009 24 0 1.2 356 00:43 14.02.2020
2939 Clouds -7 1009 24 0 1.2 356 00:43 14.02.2020
2940 Clouds -7 1009 24 0 1.2 356 00:23 14.02.2020
2941 Clouds -7 1009 24 0 1.2 356 23:45 13.02.2020
2942 Clouds -7 1009 24 0 1.2 356 23:22 13.02.2020
2943 Clouds -4 1010 22 0 1.87 228 22:44 13.02.2020
2944 Clouds -4 1010 22 0 1.87 228 22:20 13.02.2020
2945 Clouds -4 1010 22 0 1.87 228 22:20 13.02.2020
2946 Clouds -4 1010 22 0 1.87 228 22:20 13.02.2020
2947 Clouds -4 1010 22 0 1.87 228 21:59 13.02.2020
2948 Clouds -4 1010 22 0 1.87 228 21:40 13.02.2020
2949 Clouds -4 1010 22 0 1.87 228 21:22 13.02.2020
2950 Clouds -4 1010 22 0 1.87 228 20:58 13.02.2020
2951 Clouds -4 1010 22 0 1.87 228 20:39 13.02.2020
2952 Clouds -3 1011 22 0 1.64 304 20:21 13.02.2020
2953 Clouds -3 1011 26 0 1.15 303 19:56 13.02.2020
2954 Clouds -3 1011 26 0 1.15 303 19:37 13.02.2020
2955 Clouds -3 1011 26 0 1.15 303 19:18 13.02.2020
2956 Clouds -3 1011 26 0 1.15 303 19:18 13.02.2020
2957 Clouds -3 1011 26 0 1.15 303 18:44 13.02.2020
2958 Clouds -3 1011 26 0 1.15 303 18:44 13.02.2020
2959 Clouds -3 1011 26 0 1.15 303 18:24 13.02.2020
2960 Clouds -3 1011 26 0 1.15 303 18:24 13.02.2020
2961 Clouds -3 1011 26 0 1.15 303 17:59 13.02.2020
2962 Clouds -3 1011 26 0 1.15 303 17:40 13.02.2020
2963 Clouds -3 1011 26 0 1.15 303 17:21 13.02.2020
2964 Clear 0 1011 14 0 2.87 358 16:58 13.02.2020
2965 Clear 0 1011 14 0 2.87 358 16:38 13.02.2020
2966 Clear 0 1011 14 0 2.87 358 16:19 13.02.2020
2967 Clear 0 1011 14 0 2.87 358 16:19 13.02.2020
2968 Clear 0 1011 14 0 2.87 358 15:56 13.02.2020
2969 Clear 0 1011 14 0 2.87 358 15:38 13.02.2020
2970 Clear 0 1011 14 0 2.87 358 15:19 13.02.2020
2971 Clear 0 1011 14 0 2.87 358 14:57 13.02.2020
2972 Clear 0 1011 14 0 2.87 358 14:38 13.02.2020
2973 Clouds 3 1008 11 0 2.01 312 14:20 13.02.2020
2974 Clouds 3 1008 11 0 2.01 312 13:47 13.02.2020
2975 Clouds 3 1008 11 0 2.01 312 13:19 13.02.2020
2976 Clouds 4 1008 10 0 2.9 315 12:56 13.02.2020
2977 Clouds 4 1008 10 0 2.9 315 12:37 13.02.2020
2978 Clouds 4 1008 10 0 2.9 315 12:37 13.02.2020
2979 Clouds 4 1008 10 0 2.9 315 12:19 13.02.2020
2980 Clouds 4 1008 10 0 2.9 315 11:45 13.02.2020
2981 Clear 12 1006 5 0 9.67 325 11:20 13.02.2020
2982 Clear 12 1006 5 0 9.67 325 10:55 13.02.2020
2983 Clear 12 1006 5 0 9.67 325 10:37 13.02.2020
2984 Clear 12 1006 5 0 9.67 325 10:19 13.02.2020
2985 Clear 12 1006 5 0 9.67 325 09:41 13.02.2020
2986 Clear 12 1006 5 0 9.67 325 09:22 13.02.2020
2987 Clear 12 1006 5 0 9.67 325 08:42 13.02.2020
2988 Clear 9 1012 6 0 4.26 331 08:19 13.02.2020
2989 Clear 9 1012 6 0 4.26 331 08:19 13.02.2020
2990 Clear 8 1013 7 0 3.15 338 07:41 13.02.2020
2991 Clear 8 1013 7 0 3.15 338 07:22 13.02.2020
2992 Clear 8 1013 7 0 3.15 338 07:22 13.02.2020
2993 Clear 8 1013 7 0 3.15 338 06:49 13.02.2020
2994 Clear 8 1013 7 0 3.15 338 06:29 13.02.2020
2995 Clear 8 1013 7 0 3.15 338 05:37 13.02.2020
2996 Clear 1 1020 11 0 1.81 22 04:28 13.02.2020
2997 Clear 1 1020 11 0 1.81 22 03:52 13.02.2020
2998 Clear 1 1020 11 0 1.81 22 03:26 13.02.2020
2999 Clear 1 1020 11 0 1.81 22 02:53 13.02.2020
3000 Clear -6 1020 19 0 2.8 11 02:19 13.02.2020
3001 Clear -6 1020 19 0 2.8 11 01:36 13.02.2020
3002 Clear -7 1020 23 0 2.27 19 00:43 13.02.2020
3003 Clear -7 1020 23 0 2.27 19 00:22 13.02.2020
3004 Clear -7 1020 23 0 2.27 19 23:41 12.02.2020
3005 Clear -7 1020 23 0 2.27 19 23:22 12.02.2020
3006 Clear -5 1019 17 0 2.61 358 22:48 12.02.2020
3007 Clear -5 1019 17 0 2.61 358 22:28 12.02.2020
3008 Clear -5 1019 17 0 2.61 358 21:59 12.02.2020
3009 Clear -5 1019 17 0 2.61 358 21:40 12.02.2020
3010 Clear -5 1019 17 0 2.61 358 21:20 12.02.2020
3011 Clear -5 1019 17 0 2.61 358 20:59 12.02.2020
3012 Clear -5 1019 17 0 2.61 358 20:41 12.02.2020
3013 Clear -5 1019 17 0 2.61 358 20:41 12.02.2020
3014 Clear -5 1019 17 0 2.61 358 20:22 12.02.2020
3015 Clouds -3 1019 14 0 2.97 322 19:56 12.02.2020
3016 Clouds -4 1019 16 0 3.23 29 19:37 12.02.2020
3017 Clouds -3 1019 14 0 2.97 322 19:19 12.02.2020
3018 Clouds -4 1019 16 0 3.23 29 18:47 12.02.2020
3019 Clouds -4 1019 16 0 3.23 29 18:19 12.02.2020
3020 Clouds -3 1019 14 0 2.97 322 17:56 12.02.2020
3021 Clouds -3 1019 14 0 2.97 322 17:37 12.02.2020
3022 Clouds -3 1019 14 0 2.97 322 17:37 12.02.2020
3023 Clouds -1 1016 13 0 3.05 300 17:19 12.02.2020
3024 Clouds -1 1016 13 0 3.05 300 16:40 12.02.2020
3025 Clouds -1 1016 13 0 3.05 300 16:20 12.02.2020
3026 Clouds -1 1016 13 0 3.05 300 15:57 12.02.2020
3027 Clouds -2 1017 13 0 1.53 343 15:36 12.02.2020
3028 Clouds -1 1016 13 0 3.05 300 15:36 12.02.2020
3029 Clouds -1 1016 13 0 3.05 300 15:18 12.02.2020
3030 Clouds -1 1016 13 0 3.05 300 14:42 12.02.2020
3031 Clouds 3 1012 9 0 3.66 268 14:21 12.02.2020
3032 Clouds 3 1012 9 0 3.66 268 13:58 12.02.2020
3033 Clouds 3 1012 9 0 3.66 268 13:40 12.02.2020
3034 Clouds 2 1012 10 0 2.92 274 13:21 12.02.2020
3035 Clouds 2 1012 10 0 2.92 274 12:57 12.02.2020
3036 Clouds 2 1012 10 0 2.92 274 12:57 12.02.2020
3037 Clouds 2 1012 10 0 2.92 274 12:38 12.02.2020
3038 Clouds 2 1012 10 0 2.92 274 12:18 12.02.2020
3039 Clouds 2 1012 10 0 2.92 274 11:58 12.02.2020
3040 Clouds 2 1012 10 0 2.92 274 11:39 12.02.2020
3041 Clouds 9 1010 4 0 9.8 311 11:20 12.02.2020
3042 Clouds 9 1010 4 0 9.8 311 10:56 12.02.2020
3043 Clouds 9 1010 4 0 9.8 311 10:38 12.02.2020
3044 Clouds 9 1010 4 0 9.8 311 10:19 12.02.2020
3045 Clouds 9 1010 4 0 9.8 311 09:42 12.02.2020
3046 Clouds 9 1010 4 0 9.8 311 09:24 12.02.2020
3047 Clouds 9 1010 4 0 9.8 311 09:24 12.02.2020
3048 Clouds 9 1010 4 0 9.8 311 08:58 12.02.2020
3049 Clouds 9 1010 4 0 9.8 311 08:38 12.02.2020
3050 Clear 6 1016 5 0 2.83 319 08:20 12.02.2020
3051 Clear 6 1016 4 0 3.83 317 08:20 12.02.2020
3052 Clear 6 1016 5 0 2.83 319 08:20 12.02.2020
3053 Clear 6 1016 5 0 2.83 319 08:20 12.02.2020
3054 Clear 6 1016 5 0 2.83 319 07:45 12.02.2020
3055 Clear 6 1016 5 0 2.83 319 07:24 12.02.2020
3056 Clear 6 1016 5 0 2.83 319 06:59 12.02.2020
3057 Clear 6 1016 5 0 2.83 319 06:24 12.02.2020
3058 Clear 6 1016 5 0 2.83 319 05:44 12.02.2020
3059 Clear 0 1020 9 0 0.17 353 05:21 12.02.2020
3060 Clear 0 1020 9 0 0.17 353 04:41 12.02.2020
3061 Clear 0 1020 9 0 0.17 353 03:43 12.02.2020
3062 Clear 0 1020 9 0 0.17 353 03:24 12.02.2020
3063 Clear 0 1020 9 0 0.17 353 02:32 12.02.2020
3064 Clouds -10 1021 25 0 0.53 194 01:59 12.02.2020
3065 Clouds -10 1021 25 0 0.38 56 00:58 12.02.2020
3066 Clouds -10 1021 25 0 0.38 56 00:39 12.02.2020
3067 Clouds -10 1021 25 0 0.38 56 00:21 12.02.2020
3068 Clouds -10 1021 25 0 0.38 56 23:45 11.02.2020
3069 Clouds -10 1021 25 0 0.38 56 23:27 11.02.2020
3070 Clouds -7 1019 14 0 1.17 38 22:56 11.02.2020
3071 Clouds -7 1019 14 0 1.17 38 22:38 11.02.2020
3072 Clouds -7 1019 14 0 1.17 38 22:20 11.02.2020
3073 Clouds -7 1019 14 0 1.17 38 21:56 11.02.2020
3074 Clouds -7 1019 14 0 1.17 38 21:38 11.02.2020
3075 Clouds -7 1019 14 0 1.17 38 21:18 11.02.2020
3076 Clouds -7 1019 14 0 1.17 38 20:57 11.02.2020
3077 Clouds -7 1019 14 0 1.17 38 20:38 11.02.2020
3078 Clouds -5 1020 12 0 1.73 14 20:19 11.02.2020
3079 Clouds -5 1020 12 0 1.73 14 20:19 11.02.2020
3080 Clouds -5 1020 14 0 1.48 16 19:54 11.02.2020
3081 Clouds -5 1020 14 0 1.48 16 19:36 11.02.2020
3082 Clouds -5 1020 14 0 1.48 16 19:18 11.02.2020
3083 Clouds -5 1020 14 0 1.48 16 18:43 11.02.2020
3084 Clouds -5 1020 14 0 1.48 16 18:25 11.02.2020
3085 Clouds -5 1020 14 0 1.48 16 17:55 11.02.2020
3086 Clouds -5 1020 14 0 1.48 16 17:37 11.02.2020
3087 Clouds -3 1019 13 0 2.83 25 17:18 11.02.2020
3088 Clouds -3 1019 13 0 2.83 25 16:58 11.02.2020
3089 Clouds -3 1019 13 0 2.83 25 16:38 11.02.2020
3090 Clouds -3 1019 13 0 2.83 25 16:20 11.02.2020
3091 Clouds -3 1019 13 0 2.83 25 15:48 11.02.2020
3092 Clouds -3 1019 13 0 2.83 25 15:29 11.02.2020
3093 Clouds -3 1019 13 0 2.83 25 14:59 11.02.2020
3094 Clouds -3 1019 13 0 2.83 25 14:41 11.02.2020
3095 Clouds -1 1015 10 0 3.15 15 14:19 11.02.2020
3096 Clouds -1 1015 10 0 3.15 15 13:42 11.02.2020
3097 Clouds -1 1015 9 0 2.71 359 13:23 11.02.2020
3098 Clouds -1 1015 9 0 2.71 359 12:59 11.02.2020
3099 Clouds -1 1015 9 0 2.71 359 12:41 11.02.2020
3100 Clouds -1 1015 9 0 2.71 359 12:21 11.02.2020
3101 Clouds -1 1015 9 0 2.71 359 11:57 11.02.2020
3102 Clouds -1 1015 9 0 2.71 359 11:39 11.02.2020
3103 Clouds 7 1010 4 0 7.63 314 11:19 11.02.2020
3104 Clouds 7 1010 4 0 7.63 314 10:40 11.02.2020
3105 Clouds 7 1010 4 0 7.63 314 10:21 11.02.2020
3106 Clouds 7 1010 4 0 7.63 314 09:58 11.02.2020
3107 Clouds 7 1010 4 0 7.63 314 09:40 11.02.2020
3108 Clouds 7 1010 4 0 7.63 314 09:21 11.02.2020
3109 Clouds 7 1010 4 0 7.63 314 08:49 11.02.2020
3110 Clouds 7 1010 4 0 7.63 314 08:25 11.02.2020
3111 Clouds 7 1010 4 0 6.79 298 08:25 11.02.2020
3112 Clear 3 1014 7 0 1.41 4 07:55 11.02.2020
3113 Clear 3 1014 7 0 1.41 4 07:55 11.02.2020
3114 Clear 3 1014 7 0 1.41 4 07:33 11.02.2020
3115 Clear 3 1014 7 0 1.41 4 06:58 11.02.2020
3116 Clear 3 1014 7 0 1.41 4 06:58 11.02.2020
3117 Clear 3 1014 7 0 1.41 4 06:38 11.02.2020
3118 Clear 3 1014 7 0 1.41 4 06:38 11.02.2020
3119 Clear 3 1014 7 0 1.41 4 06:20 11.02.2020
3120 Clear 3 1014 7 0 1.41 4 05:41 11.02.2020
3121 Clear -3 1019 23 0 1.4 184 05:20 11.02.2020
3122 Clear -3 1019 23 0 1.4 184 03:32 11.02.2020
3123 Clear -3 1019 23 0 1.4 184 02:38 11.02.2020
3124 Clear -13 1020 49 0 0.91 151 01:53 11.02.2020
3125 Clear -13 1020 49 0 0.91 151 01:30 11.02.2020
3126 Clear -13 1020 43 0 0.91 148 00:26 11.02.2020
3127 Clear -13 1020 43 0 0.91 148 23:48 10.02.2020
3128 Clear -13 1020 43 0 0.91 148 23:29 10.02.2020
3129 Clear -11 1019 26 0 1.37 123 22:57 10.02.2020
3130 Clear -11 1019 26 0 1.37 123 22:37 10.02.2020
3131 Clear -11 1019 26 0 1.37 123 22:19 10.02.2020
3132 Clear -11 1019 26 0 1.37 123 21:41 10.02.2020
3133 Clear -11 1019 26 0 1.37 123 21:23 10.02.2020
3134 Clear -11 1019 26 0 1.37 123 20:56 10.02.2020
3135 Clear -11 1019 26 0 1.37 123 20:38 10.02.2020
3136 Clear -11 1019 26 0 1.37 123 20:38 10.02.2020
3137 Clouds -9 1019 23 0 0.57 64 20:19 10.02.2020
3138 Clouds -9 1019 24 0 0.7 57 19:58 10.02.2020
3139 Clouds -9 1019 24 0 0.7 57 19:37 10.02.2020
3140 Clouds -9 1019 24 0 0.7 57 19:18 10.02.2020
3141 Clouds -9 1019 24 0 0.7 57 18:58 10.02.2020
3142 Clouds -9 1019 24 0 0.7 57 18:38 10.02.2020
3143 Clouds -9 1019 24 0 0.7 57 18:20 10.02.2020
3144 Clouds -9 1019 24 0 0.7 57 18:20 10.02.2020
3145 Clouds -9 1019 24 0 0.7 57 17:55 10.02.2020
3146 Clouds -9 1019 24 0 0.7 57 17:37 10.02.2020
3147 Clouds -6 1017 12 0 1.91 19 17:18 10.02.2020
3148 Clouds -6 1017 12 0 1.91 19 17:18 10.02.2020
3149 Clouds -6 1017 12 0 1.91 19 16:56 10.02.2020
3150 Clouds -6 1017 12 0 1.91 19 16:38 10.02.2020
3151 Clouds -6 1017 12 0 1.91 19 16:18 10.02.2020
3152 Clouds -6 1017 12 0 1.91 19 15:42 10.02.2020
3153 Clouds -6 1017 12 0 1.91 19 15:22 10.02.2020
3154 Clouds -6 1017 12 0 1.91 19 14:59 10.02.2020
3155 Clouds -6 1017 12 0 1.91 19 14:40 10.02.2020
3156 Clouds -4 1012 10 0 1.02 71 14:19 10.02.2020
3157 Clouds -4 1012 10 0 1.02 71 13:56 10.02.2020
3158 Clouds -4 1012 10 0 1.02 71 13:37 10.02.2020
3159 Clouds -4 1012 10 0 0.91 46 13:18 10.02.2020
3160 Clouds -4 1012 10 0 0.91 46 12:43 10.02.2020
3161 Clouds -4 1012 10 0 0.91 46 12:24 10.02.2020
3162 Clouds -4 1012 10 0 0.91 46 11:55 10.02.2020
3163 Clouds -4 1012 10 0 0.91 46 11:36 10.02.2020
3164 Clear 2 1011 6 0 1.37 128 11:18 10.02.2020
3165 Clear 2 1011 6 0 1.37 128 10:44 10.02.2020
3166 Clear 2 1011 6 0 1.37 128 10:26 10.02.2020
3167 Clear 2 1011 6 0 1.37 128 09:45 10.02.2020
3168 Clear 2 1011 6 0 1.37 128 09:24 10.02.2020
3169 Clear 2 1011 6 0 1.37 128 08:45 10.02.2020
3170 Clear 1 1010 6 0 1.2 114 08:22 10.02.2020
3171 Clear -1 1016 11 0 1.02 193 07:58 10.02.2020
3172 Clear -1 1016 11 0 1.02 193 07:38 10.02.2020
3173 Clear -1 1016 11 0 1.02 193 06:59 10.02.2020
3174 Clear -1 1016 11 0 1.02 193 05:42 10.02.2020
3175 Clear -6 1023 23 0 0.71 16 04:26 10.02.2020
3176 Clear -6 1023 23 0 0.71 16 03:31 10.02.2020
3177 Clear -6 1023 23 0 0.71 16 02:53 10.02.2020
3178 Clear -14 1025 55 0 1.34 27 01:36 10.02.2020
3179 Clear -14 1025 55 0 1.34 27 01:36 10.02.2020
3180 Clear -14 1025 50 0 1.4 25 00:48 10.02.2020
3181 Clear -14 1025 50 0 1.4 25 00:28 10.02.2020
3182 Clear -14 1025 50 0 1.4 25 23:45 09.02.2020
3183 Clear -14 1025 50 0 1.4 25 23:26 09.02.2020
3184 Clear -13 1025 47 0 1.22 30 22:59 09.02.2020
3185 Clear -13 1025 47 0 1.22 30 22:38 09.02.2020
3186 Clear -13 1025 47 0 1.22 30 22:19 09.02.2020
3187 Clear -13 1025 47 0 1.22 30 21:42 09.02.2020
3188 Clear -13 1025 47 0 1.22 30 21:23 09.02.2020
3189 Clear -13 1025 47 0 1.22 30 20:48 09.02.2020
3190 Clear -13 1025 47 0 1.22 30 20:23 09.02.2020
3191 Clear -12 1025 43 0 0.6 341 19:58 09.02.2020
3192 Clear -12 1025 43 0 0.6 341 19:39 09.02.2020
3193 Clear -12 1025 43 0 0.6 341 19:20 09.02.2020
3194 Clear -12 1025 43 0 0.6 341 18:54 09.02.2020
3195 Clear -12 1025 43 0 0.6 341 18:36 09.02.2020
3196 Clear -12 1025 43 0 0.6 341 18:18 09.02.2020
3197 Clear -12 1025 43 0 0.6 341 17:40 09.02.2020
3198 Clear -12 1025 43 0 0.6 341 17:22 09.02.2020
3199 Clear -12 1025 43 0 0.6 341 17:21 09.02.2020
3200 Clear -10 1025 47 0 0.7 29 16:44 09.02.2020
3201 Clear -10 1025 47 0 0.7 29 16:25 09.02.2020
3202 Clear -10 1025 47 0 0.7 29 15:59 09.02.2020
3203 Clear -10 1025 47 0 0.7 29 15:41 09.02.2020
3204 Clear -10 1025 47 0 0.7 29 15:22 09.02.2020
3205 Clear -10 1025 47 0 0.7 29 14:57 09.02.2020
3206 Clear -10 1025 47 0 0.7 29 14:39 09.02.2020
3207 Clear -10 1025 47 0 0.7 29 14:39 09.02.2020
3208 Clouds -7 1021 43 0 1.32 23 14:21 09.02.2020
3209 Clouds -7 1021 43 0 1.32 23 13:44 09.02.2020
3210 Clouds -7 1021 43 0 1.32 23 13:26 09.02.2020
3211 Clouds -6 1021 34 0 1.45 27 12:57 09.02.2020
3212 Clouds -6 1021 34 0 1.45 27 12:38 09.02.2020
3213 Clouds -6 1021 34 0 1.45 27 12:19 09.02.2020
3214 Clouds -6 1021 34 0 1.45 27 11:41 09.02.2020
3215 Clouds -6 1021 34 0 1.45 27 11:22 09.02.2020
3216 Clouds -3 1018 20 0 2.26 359 10:59 09.02.2020
3217 Clouds -3 1018 20 0 2.26 359 10:41 09.02.2020
3218 Clouds -3 1018 20 0 2.26 359 10:21 09.02.2020
3219 Clouds -3 1018 20 0 2.26 359 09:46 09.02.2020
3220 Clouds -3 1018 20 0 2.26 359 09:27 09.02.2020
3221 Clouds -3 1018 20 0 2.26 359 08:45 09.02.2020
3222 Clouds -3 1018 18 0 1.04 331 08:27 09.02.2020
3223 Clear -3 1021 16 0 2.33 198 07:59 09.02.2020
3224 Clear -3 1021 16 0 2.33 198 07:39 09.02.2020
3225 Clear -3 1021 16 0 2.33 198 06:48 09.02.2020
3226 Clear -3 1021 16 0 2.33 198 06:28 09.02.2020
3227 Clear -3 1021 16 0 2.33 198 05:43 09.02.2020
3228 Clear -8 1026 34 0 1.53 165 05:18 09.02.2020
3229 Clear -8 1026 34 0 1.53 165 03:53 09.02.2020
3230 Clear -8 1026 34 0 1.53 165 02:46 09.02.2020
3231 Clear -8 1026 34 0 1.53 165 02:26 09.02.2020
3232 Clouds -14 1028 68 0 1.35 137 01:35 09.02.2020
3233 Clouds -14 1027 67 0 1.24 135 00:46 09.02.2020
3234 Clouds -14 1027 67 0 1.24 135 00:25 09.02.2020
3235 Clouds -14 1027 67 0 1.24 135 23:44 08.02.2020
3236 Clouds -14 1027 67 0 1.24 135 23:22 08.02.2020
3237 Clouds -11 1024 57 0 1.69 147 22:43 08.02.2020
3238 Clouds -11 1024 57 0 1.69 147 22:22 08.02.2020
3239 Clouds -11 1024 57 0 1.69 147 21:59 08.02.2020
3240 Clouds -11 1024 57 0 1.69 147 21:40 08.02.2020
3241 Clouds -11 1024 57 0 1.69 147 21:40 08.02.2020
3242 Clouds -11 1024 57 0 1.69 147 21:21 08.02.2020
3243 Clouds -11 1024 57 0 1.69 147 20:57 08.02.2020
3244 Clouds -11 1024 57 0 1.69 147 20:38 08.02.2020
3245 Clear -10 1024 44 0 2.1 140 20:19 08.02.2020
3246 Clear -10 1024 44 0 2.1 140 19:55 08.02.2020
3247 Clear -10 1024 44 0 2.1 140 19:37 08.02.2020
3248 Clear -10 1024 44 0 2.1 140 19:19 08.02.2020
3249 Clear -10 1024 44 0 2.1 140 18:43 08.02.2020
3250 Clear -10 1024 44 0 2.1 140 18:24 08.02.2020
3251 Clear -10 1024 44 0 2.1 140 17:44 08.02.2020
3252 Clear -10 1024 44 0 2.1 140 17:22 08.02.2020
3253 Clear -8 1021 33 0 2.47 138 16:59 08.02.2020
3254 Clear -8 1021 33 0 2.47 138 16:40 08.02.2020
3255 Clear -8 1021 33 0 2.47 138 16:21 08.02.2020
3256 Clear -8 1021 33 0 2.47 138 15:43 08.02.2020
3257 Clear -8 1021 33 0 2.47 138 15:19 08.02.2020
3258 Clear -8 1021 33 0 2.47 138 14:59 08.02.2020
3259 Clear -8 1021 33 0 2.47 138 14:41 08.02.2020
3260 Clouds -4 1015 14 0 4.08 191 14:19 08.02.2020
3261 Clouds -4 1015 14 0 4.08 191 13:43 08.02.2020
3262 Clouds -4 1015 14 0 4.08 191 13:23 08.02.2020
3263 Clouds -4 1015 15 0 4 182 12:57 08.02.2020
3264 Clouds -4 1015 15 0 4 182 12:38 08.02.2020
3265 Clouds -4 1015 15 0 4 182 12:38 08.02.2020
3266 Clouds -4 1015 15 0 4 182 12:19 08.02.2020
3267 Clouds -4 1015 15 0 4 182 11:43 08.02.2020
3268 Clouds -4 1015 15 0 4 182 11:22 08.02.2020
3269 Clouds 0 1012 14 0 1.88 185 10:57 08.02.2020
3270 Clouds 0 1012 14 0 1.88 185 10:39 08.02.2020
3271 Clouds 0 1012 14 0 1.88 185 10:20 08.02.2020
3272 Clouds 0 1012 14 0 1.88 185 09:50 08.02.2020
3273 Clouds 0 1012 14 0 1.88 185 09:24 08.02.2020
3274 Clouds 0 1012 14 0 1.88 185 08:47 08.02.2020
3275 Clouds -1 1012 17 0 2.13 227 08:27 08.02.2020
3276 Clouds -3 1015 24 0 2.64 175 07:53 08.02.2020
3277 Clouds -3 1015 24 0 2.64 175 07:34 08.02.2020
3278 Clouds -3 1015 24 0 2.64 175 06:55 08.02.2020
3279 Clouds -3 1015 24 0 2.64 175 06:22 08.02.2020
3280 Clouds -3 1015 24 0 2.64 175 05:34 08.02.2020
3281 Clouds -7 1021 46 0 2.28 173 04:55 08.02.2020
3282 Clouds -7 1021 46 0 2.28 173 04:26 08.02.2020
3283 Clouds -7 1021 46 0 2.28 173 03:39 08.02.2020
3284 Clouds -7 1021 46 0 2.28 173 02:29 08.02.2020
3285 Clouds -12 1022 74 0 1.71 141 01:34 08.02.2020
3286 Clear -13 1022 76 0 1.65 140 00:57 08.02.2020
3287 Clear -13 1022 76 0 1.65 140 00:25 08.02.2020
3288 Clear -13 1022 76 0 1.65 140 23:59 07.02.2020
3289 Clear -13 1022 76 0 1.65 140 23:39 07.02.2020
3290 Clear -11 1019 58 0 1.97 144 23:20 07.02.2020
3291 Clear -11 1019 58 0 1.97 144 22:55 07.02.2020
3292 Clear -11 1019 58 0 1.97 144 22:37 07.02.2020
3293 Clear -11 1019 58 0 1.97 144 22:18 07.02.2020
3294 Clear -11 1019 58 0 1.97 144 21:41 07.02.2020
3295 Clear -11 1019 58 0 1.97 144 21:21 07.02.2020
3296 Clear -11 1019 58 0 1.97 144 20:40 07.02.2020
3297 Clear -11 1019 56 0 2 143 20:22 07.02.2020
3298 Clouds -9 1018 42 0 2.14 145 19:57 07.02.2020
3299 Clouds -9 1018 42 0 2.14 145 19:38 07.02.2020
3300 Clouds -9 1018 42 0 2.14 145 19:19 07.02.2020
3301 Clouds -9 1018 42 0 2.14 145 18:46 07.02.2020
3302 Clouds -9 1018 42 0 2.14 145 18:26 07.02.2020
3303 Clouds -9 1018 42 0 2.14 145 17:57 07.02.2020
3304 Clouds -9 1018 42 0 2.14 145 17:39 07.02.2020
3305 Clouds -7 1016 31 0 2.05 157 17:21 07.02.2020
3306 Clouds -7 1016 31 0 2.05 157 16:52 07.02.2020
3307 Clouds -7 1016 31 0 2.05 157 16:52 07.02.2020
3308 Clouds -7 1016 31 0 2.05 157 16:25 07.02.2020
3309 Clouds -7 1016 31 0 2.05 157 15:56 07.02.2020
3310 Clouds -7 1016 31 0 2.05 157 15:38 07.02.2020
3311 Clouds -7 1016 31 0 2.05 157 15:20 07.02.2020
3312 Clouds -7 1016 31 0 2.05 157 14:42 07.02.2020
3313 Clouds -7 1016 31 0 2.05 157 14:24 07.02.2020
3314 Clouds -3 1011 14 0 2.29 181 13:57 07.02.2020
3315 Clouds -3 1011 14 0 2.29 181 13:39 07.02.2020
3316 Clouds -5 1011 14 0 1.15 189 13:20 07.02.2020
3317 Clouds -5 1011 14 0 1.15 189 13:20 07.02.2020
3318 Clouds -5 1011 14 0 1.15 189 12:45 07.02.2020
3319 Clouds -5 1011 14 0 1.15 189 12:26 07.02.2020
3320 Clouds -5 1011 14 0 1.15 189 11:59 07.02.2020
3321 Clouds -5 1011 14 0 1.15 189 11:40 07.02.2020
3322 Clouds 2 1008 13 0 3.8 196 11:19 07.02.2020
3323 Clouds 2 1008 13 0 3.8 196 10:41 07.02.2020
3324 Clouds 2 1008 13 0 3.8 196 10:21 07.02.2020
3325 Clouds 2 1008 13 0 3.8 196 09:47 07.02.2020
3326 Clouds 2 1008 13 0 3.8 196 09:27 07.02.2020
3327 Clouds 2 1008 13 0 3.8 196 08:58 07.02.2020
3328 Clouds 2 1008 13 0 3.8 196 08:40 07.02.2020
3329 Clear -1 1012 26 0 3.19 195 08:20 07.02.2020
3330 Clear -1 1011 23 0 2.95 195 07:43 07.02.2020
3331 Clear -1 1011 23 0 2.95 195 07:24 07.02.2020
3332 Clear -1 1011 23 0 2.95 195 06:44 07.02.2020
3333 Clear -1 1011 23 0 2.95 195 06:23 07.02.2020
3334 Clear -1 1011 23 0 2.95 195 05:44 07.02.2020
3335 Clear -7 1017 46 0 2.02 168 04:33 07.02.2020
3336 Clear -7 1017 46 0 2.02 168 02:50 07.02.2020
3337 Clear -12 1019 76 0 2.13 139 01:37 07.02.2020
3338 Clear -12 1019 78 0 1.81 142 00:48 07.02.2020
3339 Clear -12 1019 78 0 1.81 142 00:19 07.02.2020
3340 Clear -12 1019 78 0 1.81 142 23:37 06.02.2020
3341 Clear -10 1017 66 0 2.3 144 23:19 06.02.2020
3342 Clear -10 1017 66 0 2.3 144 22:44 06.02.2020
3343 Clear -10 1017 66 0 2.3 144 22:25 06.02.2020
3344 Clear -10 1017 66 0 2.3 144 21:38 06.02.2020
3345 Clear -10 1017 66 0 2.3 144 21:20 06.02.2020
3346 Clear -10 1017 66 0 2.3 144 20:58 06.02.2020
3347 Clear -10 1017 66 0 2.3 144 20:39 06.02.2020
3348 Clouds -8 1014 48 0 2.07 143 20:19 06.02.2020
3349 Clouds -8 1014 48 0 2.07 143 19:59 06.02.2020
3350 Clouds -8 1014 48 0 2.07 143 19:41 06.02.2020
3351 Clouds -8 1014 48 0 2.07 143 19:22 06.02.2020
3352 Clouds -8 1014 48 0 2.07 143 18:58 06.02.2020
3353 Clouds -8 1014 48 0 2.07 143 18:40 06.02.2020
3354 Clouds -8 1014 48 0 2.07 143 18:40 06.02.2020
3355 Clouds -8 1014 48 0 2.07 143 18:21 06.02.2020
3356 Clouds -8 1014 48 0 2.07 143 17:45 06.02.2020
3357 Clouds -7 1011 33 0 2.63 150 17:21 06.02.2020
3358 Clouds -7 1011 33 0 2.63 150 16:59 06.02.2020
3359 Clouds -7 1011 33 0 2.63 150 16:40 06.02.2020
3360 Clouds -7 1011 33 0 2.63 150 16:22 06.02.2020
3361 Clouds -7 1011 33 0 2.63 150 15:42 06.02.2020
3362 Clouds -7 1011 33 0 2.63 150 15:22 06.02.2020
3363 Clouds -7 1011 33 0 2.63 150 14:50 06.02.2020
3364 Clouds -7 1011 33 0 2.63 150 14:28 06.02.2020
3365 Clouds -4 1005 14 0 2.04 214 13:59 06.02.2020
3366 Clouds -4 1005 14 0 2.04 214 13:40 06.02.2020
3367 Clouds -4 1005 14 0 2.04 214 13:19 06.02.2020
3368 Clouds -4 1005 13 0 1.51 227 12:44 06.02.2020
3369 Clouds -4 1005 13 0 1.51 227 12:19 06.02.2020
3370 Clouds -4 1005 13 0 1.51 227 11:57 06.02.2020
3371 Clouds -4 1005 13 0 1.51 227 11:39 06.02.2020
3372 Clear 2 1002 8 0 2.28 157 11:19 06.02.2020
3373 Clear 2 1002 8 0 2.28 157 10:56 06.02.2020
3374 Clear 2 1002 8 0 2.28 157 10:38 06.02.2020
3375 Clear 2 1002 8 0 2.28 157 10:19 06.02.2020
3376 Clear 2 1002 8 0 2.28 157 10:19 06.02.2020
3377 Clear 2 1002 8 0 2.28 157 09:56 06.02.2020
3378 Clear 2 1002 8 0 2.28 157 09:36 06.02.2020
3379 Clear 2 1002 8 0 2.28 157 09:18 06.02.2020
3380 Clear 2 1002 8 0 2.28 157 08:41 06.02.2020
3381 Clear -1 1007 12 0 0.86 179 08:20 06.02.2020
3382 Clear -1 1007 12 0 0.86 179 07:46 06.02.2020
3383 Clear -1 1007 12 0 0.86 179 07:25 06.02.2020
3384 Clear -1 1007 12 0 0.86 179 06:22 06.02.2020
3385 Clear -1 1007 12 0 0.86 179 06:22 06.02.2020
3386 Clear -1 1007 12 0 0.86 179 06:22 06.02.2020
3387 Clear -1 1007 12 0 0.86 179 05:54 06.02.2020
3388 Clear -6 1015 22 0 1.36 25 04:22 06.02.2020
3389 Clear -6 1015 22 0 1.36 25 03:20 06.02.2020
3390 Clear -6 1015 22 0 1.36 25 02:29 06.02.2020
3391 Clear -14 1018 42 0 1.53 36 01:35 06.02.2020
3392 Clear -14 1018 38 0 1.51 39 00:58 06.02.2020
3393 Clear -14 1018 38 0 1.51 39 00:26 06.02.2020
3394 Clear -14 1018 38 0 1.51 39 23:45 05.02.2020
3395 Clear -14 1018 38 0 1.51 39 23:25 05.02.2020
3396 Clear -12 1018 24 0 1.42 9 22:57 05.02.2020
3397 Clear -12 1018 24 0 1.42 9 22:39 05.02.2020
3398 Clear -12 1018 24 0 1.42 9 22:21 05.02.2020
3399 Clear -12 1018 24 0 1.42 9 21:42 05.02.2020
3400 Clear -12 1018 24 0 1.42 9 21:24 05.02.2020
3401 Clear -12 1018 24 0 1.42 9 20:59 05.02.2020
3402 Clear -12 1018 24 0 1.42 9 20:38 05.02.2020
3403 Clouds -10 1018 22 0 2.16 326 20:19 05.02.2020
3404 Clouds -10 1018 22 0 2.16 326 19:56 05.02.2020
3405 Clouds -10 1018 22 0 2.16 326 19:38 05.02.2020
3406 Clouds -10 1018 22 0 2.16 326 19:19 05.02.2020
3407 Clouds -10 1018 22 0 2.16 326 18:45 05.02.2020
3408 Clouds -10 1018 22 0 2.16 326 18:21 05.02.2020
3409 Clouds -10 1018 22 0 2.16 326 18:21 05.02.2020
3410 Clouds -10 1018 22 0 2.16 326 17:59 05.02.2020
3411 Clouds -10 1018 22 0 2.16 326 17:37 05.02.2020
3412 Clouds -7 1014 13 0 2.92 300 17:18 05.02.2020
3413 Clouds -7 1014 13 0 2.92 300 16:55 05.02.2020
3414 Clouds -7 1014 13 0 2.92 300 16:37 05.02.2020
3415 Clouds -7 1014 13 0 2.92 300 16:18 05.02.2020
3416 Clouds -7 1014 13 0 2.92 300 15:41 05.02.2020
3417 Clouds -7 1014 13 0 2.92 300 15:19 05.02.2020
3418 Clouds -7 1014 13 0 2.92 300 14:55 05.02.2020
3419 Clouds -7 1014 13 0 2.92 300 14:37 05.02.2020
3420 Clouds -4 1008 8 0 4.67 246 14:19 05.02.2020
3421 Clouds -4 1008 8 0 4.67 246 13:41 05.02.2020
3422 Clouds -4 1008 12 0 3.77 261 13:22 05.02.2020
3423 Clouds -4 1008 12 0 3.77 261 12:44 05.02.2020
3424 Clouds -4 1008 12 0 3.77 261 12:25 05.02.2020
3425 Clouds -4 1008 12 0 3.77 261 11:59 05.02.2020
3426 Clouds -4 1008 12 0 3.77 261 11:40 05.02.2020
3427 Clouds 2 1004 7 0 9.69 262 11:21 05.02.2020
3428 Clouds 2 1004 7 0 9.69 262 10:43 05.02.2020
3429 Clouds 2 1004 7 0 9.69 262 10:25 05.02.2020
3430 Clouds 2 1004 7 0 9.69 262 09:59 05.02.2020
3431 Clouds 2 1004 7 0 9.69 262 09:38 05.02.2020
3432 Clouds 2 1004 7 0 9.69 262 09:20 05.02.2020
3433 Clouds 2 1004 7 0 9.69 262 08:46 05.02.2020
3434 Clouds 2 1004 7 0 9.69 262 08:24 05.02.2020
3435 Clouds -2 1007 30 0 3.01 194 07:55 05.02.2020
3436 Clouds -2 1007 30 0 3.01 194 07:36 05.02.2020
3437 Clouds -2 1007 30 0 3.01 194 06:54 05.02.2020
3438 Clouds -2 1007 30 0 3.01 194 06:36 05.02.2020
3439 Clouds -2 1007 30 0 3.01 194 06:18 05.02.2020
3440 Clear -7 1013 50 0 1.88 171 05:19 05.02.2020
3441 Clear -7 1013 50 0 1.88 171 04:54 05.02.2020
3442 Clear -7 1013 50 0 1.88 171 03:56 05.02.2020
3443 Clear -7 1013 50 0 1.88 171 02:28 05.02.2020
3444 Clear -13 1014 80 0 1.65 143 01:53 05.02.2020
3445 Clear -13 1014 80 0 1.66 139 00:53 05.02.2020
3446 Clear -13 1014 80 0 1.66 139 23:58 04.02.2020
3447 Clear -13 1014 80 0 1.66 139 23:39 04.02.2020
3448 Clear -11 1012 70 0 1.71 130 23:18 04.02.2020
3449 Clear -11 1012 70 0 1.71 130 22:56 04.02.2020
3450 Clear -11 1012 70 0 1.71 130 22:38 04.02.2020
3451 Clear -11 1012 70 0 1.71 130 22:19 04.02.2020
3452 Clear -11 1012 70 0 1.71 130 21:54 04.02.2020
3453 Clear -11 1012 70 0 1.71 130 21:54 04.02.2020
3454 Clear -11 1012 70 0 1.71 130 21:36 04.02.2020
3455 Clear -11 1012 70 0 1.71 130 21:18 04.02.2020
3456 Clear -11 1012 70 0 1.71 130 20:42 04.02.2020
3457 Clear -9 1012 48 0 2.59 136 20:21 04.02.2020
3458 Clear -9 1012 48 0 2.59 136 19:59 04.02.2020
3459 Clear -9 1012 48 0 2.59 136 19:40 04.02.2020
3460 Clear -9 1012 48 0 2.59 136 19:22 04.02.2020
3461 Clear -9 1012 48 0 2.59 136 18:56 04.02.2020
3462 Clear -9 1012 48 0 2.59 136 18:38 04.02.2020
3463 Clear -9 1012 48 0 2.59 136 18:19 04.02.2020
3464 Clear -9 1012 48 0 2.59 136 17:43 04.02.2020
3465 Clear -6 1011 30 0 3.18 157 17:21 04.02.2020
3466 Clear -6 1011 30 0 3.18 157 16:57 04.02.2020
3467 Clear -6 1011 30 0 3.18 157 16:38 04.02.2020
3468 Clear -6 1011 30 0 3.18 157 16:19 04.02.2020
3469 Clear -6 1011 30 0 3.18 157 15:56 04.02.2020
3470 Clear -6 1011 30 0 3.18 157 15:56 04.02.2020
3471 Clear -6 1011 30 0 3.18 157 15:38 04.02.2020
3472 Clear -6 1011 30 0 3.18 157 15:19 04.02.2020
3473 Clear -6 1011 30 0 3.18 157 14:42 04.02.2020
3474 Clear -6 1011 30 0 3.18 157 14:23 04.02.2020
3475 Clear -5 1007 9 0 2 200 13:57 04.02.2020
3476 Clear -5 1007 9 0 2 200 13:39 04.02.2020
3477 Clear -6 1007 11 0 1.39 209 13:20 04.02.2020
3478 Clear -6 1007 11 0 1.39 209 12:44 04.02.2020
3479 Clear -6 1007 11 0 1.39 209 12:26 04.02.2020
3480 Clear -6 1007 11 0 1.39 209 11:58 04.02.2020
3481 Clear -6 1007 11 0 1.39 209 11:39 04.02.2020
3482 Clear 3 1004 8 0 3.88 191 11:21 04.02.2020
3483 Clear 3 1004 8 0 3.88 191 10:56 04.02.2020
3484 Clear 3 1004 8 0 3.88 191 10:36 04.02.2020
3485 Clear 3 1004 8 0 3.88 191 10:18 04.02.2020
3486 Clear 3 1004 8 0 3.88 191 09:41 04.02.2020
3487 Clear 3 1004 8 0 3.88 191 09:23 04.02.2020
3488 Clear 3 1004 8 0 3.88 191 08:50 04.02.2020
3489 Clear 3 1004 8 0 3.88 191 08:29 04.02.2020
3490 Clear -1 1010 15 0 2.61 188 07:59 04.02.2020
3491 Clear -1 1010 15 0 2.61 188 07:39 04.02.2020
3492 Clear -1 1010 15 0 2.61 188 07:39 04.02.2020
3493 Clear -1 1010 15 0 2.61 188 07:21 04.02.2020
3494 Clear -1 1010 15 0 2.61 188 06:43 04.02.2020
3495 Clear -1 1010 15 0 2.61 188 05:50 04.02.2020
3496 Clear -1 1010 15 0 2.61 188 05:28 04.02.2020
3497 Clear -6 1018 15 0 0.53 118 03:51 04.02.2020
3498 Clear -6 1018 15 0 0.53 118 03:31 04.02.2020
3499 Clear -6 1018 15 0 0.53 118 02:53 04.02.2020
3500 Clear -6 1018 15 0 0.53 118 02:31 04.02.2020
3501 Clear -14 1019 34 0 1.16 48 01:52 04.02.2020
3502 Clear -14 1019 34 0 1.16 48 01:33 04.02.2020
3503 Clear -14 1019 34 0 1.43 42 00:41 04.02.2020
3504 Clear -14 1019 34 0 1.43 42 00:20 04.02.2020
3505 Clear -14 1019 34 0 1.43 42 23:39 03.02.2020
3506 Clear -12 1018 22 0 1.74 48 23:19 03.02.2020
3507 Clear -12 1018 22 0 1.74 48 22:39 03.02.2020
3508 Clear -12 1018 22 0 1.74 48 22:20 03.02.2020
3509 Clear -12 1018 22 0 1.74 48 21:54 03.02.2020
3510 Clear -12 1018 22 0 1.74 48 21:36 03.02.2020
3511 Clear -12 1018 22 0 1.74 48 21:18 03.02.2020
3512 Clear -12 1018 22 0 1.74 48 20:41 03.02.2020
3513 Clear -10 1018 17 0 2.12 37 20:19 03.02.2020
3514 Clear -10 1018 17 0 2.12 37 20:19 03.02.2020
3515 Clear -10 1018 17 0 2.12 37 19:56 03.02.2020
3516 Clear -10 1018 17 0 2.12 37 19:38 03.02.2020
3517 Clear -10 1018 17 0 2.12 37 19:19 03.02.2020
3518 Clear -10 1018 17 0 2.12 37 18:45 03.02.2020
3519 Clear -10 1018 17 0 2.12 37 18:25 03.02.2020
3520 Clear -10 1018 17 0 2.12 37 17:59 03.02.2020
3521 Clear -10 1018 17 0 2.12 37 17:59 03.02.2020
3522 Clear -10 1018 17 0 2.12 37 17:40 03.02.2020
3523 Clear -9 1017 14 0 1.56 27 17:20 03.02.2020
3524 Clear -9 1017 14 0 1.56 27 16:58 03.02.2020
3525 Clear -9 1017 14 0 1.56 27 16:58 03.02.2020
3526 Clear -9 1017 14 0 1.56 27 16:38 03.02.2020
3527 Clear -9 1017 14 0 1.56 27 16:20 03.02.2020
3528 Clear -9 1017 14 0 1.56 27 15:54 03.02.2020
3529 Clear -9 1017 14 0 1.56 27 15:36 03.02.2020
3530 Clear -9 1017 14 0 1.56 27 15:18 03.02.2020
3531 Clear -9 1017 14 0 1.56 27 15:18 03.02.2020
3532 Clear -9 1017 14 0 1.56 27 14:41 03.02.2020
3533 Clear -9 1017 14 0 1.56 27 14:23 03.02.2020
3534 Clear -7 1013 12 0 0.84 97 13:56 03.02.2020
3535 Clear -7 1013 12 0 0.84 97 13:37 03.02.2020
3536 Clear -7 1013 12 0 1 128 13:19 03.02.2020
3537 Clear -7 1013 12 0 1 128 12:41 03.02.2020
3538 Clear -7 1013 12 0 1 128 12:23 03.02.2020
3539 Clear -7 1013 12 0 1 128 11:59 03.02.2020
3540 Clear -7 1013 12 0 1 128 11:38 03.02.2020
3541 Clear 0 1010 8 0 1.49 90 11:19 03.02.2020
3542 Clear 0 1010 8 0 1.49 90 10:55 03.02.2020
3543 Clear 0 1010 8 0 1.49 90 10:55 03.02.2020
3544 Clear 0 1010 8 0 1.49 90 10:37 03.02.2020
3545 Clear 0 1010 8 0 1.49 90 10:18 03.02.2020
3546 Clear 0 1010 8 0 1.49 90 09:38 03.02.2020
3547 Clear 0 1010 8 0 1.49 90 09:19 03.02.2020
3548 Clear 0 1010 8 0 1.49 90 09:19 03.02.2020
3549 Clear 0 1010 8 0 1.49 90 08:41 03.02.2020
3550 Clear 0 1010 8 0 1.49 90 08:22 03.02.2020
3551 Clear -3 1015 15 0 0.84 190 07:43 03.02.2020
3552 Clear -3 1015 15 0 0.84 190 07:23 03.02.2020
3553 Clear -3 1015 15 0 0.84 190 06:57 03.02.2020
3554 Clear -3 1015 15 0 0.84 190 06:31 03.02.2020
3555 Clear -3 1015 15 0 0.84 190 05:55 03.02.2020
3556 Clear -3 1015 15 0 0.84 190 05:33 03.02.2020
3557 Clear -8 1022 30 0 0.96 26 04:45 03.02.2020
3558 Clear -8 1022 30 0 0.96 26 02:48 03.02.2020
3559 Clear -8 1022 30 0 0.96 26 02:48 03.02.2020
3560 Clear -8 1022 30 0 0.96 26 02:28 03.02.2020
3561 Clear -15 1025 53 0 1.86 36 00:50 03.02.2020
3562 Clear -15 1025 53 0 1.86 36 00:28 03.02.2020
3563 Clear -15 1025 53 0 1.86 36 23:56 02.02.2020
3564 Clear -15 1025 53 0 1.86 36 23:36 02.02.2020
3565 Clear -13 1024 44 0 2.23 38 23:18 02.02.2020
3566 Clear -13 1024 44 0 2.23 38 22:40 02.02.2020
3567 Clear -13 1024 44 0 2.23 38 22:22 02.02.2020
3568 Clear -13 1024 44 0 2.23 38 21:58 02.02.2020
3569 Clear -13 1024 44 0 2.23 38 21:39 02.02.2020
3570 Clear -13 1024 44 0 2.23 38 21:20 02.02.2020
3571 Clear -13 1024 44 0 2.23 38 20:57 02.02.2020
3572 Clear -13 1024 44 0 2.23 38 20:39 02.02.2020
3573 Clear -11 1024 34 0 2.94 35 20:20 02.02.2020
3574 Clouds -11 1024 41 0 3.06 35 19:57 02.02.2020
3575 Clouds -11 1024 41 0 3.06 35 19:39 02.02.2020
3576 Clouds -11 1024 41 0 3.06 35 19:21 02.02.2020
3577 Clouds -11 1024 41 0 3.06 35 18:56 02.02.2020
3578 Clouds -11 1024 41 0 3.06 35 18:56 02.02.2020
3579 Clouds -11 1024 41 0 3.06 35 18:37 02.02.2020
3580 Clouds -11 1024 41 0 3.06 35 18:19 02.02.2020
3581 Clouds -11 1024 41 0 3.06 35 17:57 02.02.2020
3582 Clouds -11 1024 41 0 3.06 35 17:37 02.02.2020
3583 Clouds -8 1021 34 0 2.57 28 17:18 02.02.2020
3584 Clouds -8 1021 34 0 2.57 28 16:57 02.02.2020
3585 Clouds -8 1021 34 0 2.57 28 16:38 02.02.2020
3586 Clouds -8 1021 34 0 2.57 28 16:18 02.02.2020
3587 Clouds -8 1021 34 0 2.57 28 15:56 02.02.2020
3588 Clouds -8 1021 34 0 2.57 28 15:37 02.02.2020
3589 Clouds -8 1021 34 0 2.57 28 15:19 02.02.2020
3590 Clouds -8 1021 34 0 2.57 28 14:44 02.02.2020
3591 Clouds -6 1016 34 0 1.92 33 14:19 02.02.2020
3592 Clouds -6 1016 34 0 1.92 33 13:59 02.02.2020
3593 Clouds -6 1016 34 0 1.92 33 13:41 02.02.2020
3594 Clouds -6 1016 35 0 2.61 347 13:21 02.02.2020
3595 Clouds -6 1016 35 0 2.61 347 12:57 02.02.2020
3596 Clouds -6 1016 35 0 2.61 347 12:38 02.02.2020
3597 Clouds -7 1016 30 0 2.01 32 12:20 02.02.2020
3598 Clouds -7 1016 30 0 2.01 32 11:43 02.02.2020
3599 Clouds -1 1011 11 0 5.55 284 11:20 02.02.2020
3600 Clouds -3 1011 27 0 2.69 15 10:58 02.02.2020
3601 Clouds -1 1011 11 0 5.55 284 10:39 02.02.2020
3602 Clouds -1 1011 11 0 5.55 284 10:21 02.02.2020
3603 Clouds -1 1011 11 0 5.55 284 09:59 02.02.2020
3604 Clouds -1 1011 11 0 5.55 284 09:39 02.02.2020
3605 Clouds -3 1011 27 0 2.69 15 09:20 02.02.2020
3606 Clouds -1 1011 11 0 5.55 284 08:46 02.02.2020
3607 Clouds -3 1011 27 0 2.69 15 08:26 02.02.2020
3608 Clouds -3 1014 26 0 1.44 225 07:49 02.02.2020
3609 Clouds -3 1014 26 0 1.44 225 07:30 02.02.2020
3610 Clouds -3 1014 26 0 1.44 225 06:56 02.02.2020
3611 Clouds -3 1014 26 0 1.44 225 06:37 02.02.2020
3612 Clouds -3 1014 26 0 1.44 225 06:18 02.02.2020
3613 Clouds -7 1019 43 0 2.03 170 05:19 02.02.2020
3614 Clouds -7 1019 43 0 2.03 170 03:42 02.02.2020
3615 Clouds -7 1019 43 0 2.03 170 03:21 02.02.2020
3616 Clouds -13 1019 68 0 1.77 142 02:19 02.02.2020
3617 Clouds -13 1019 68 0 1.77 142 01:49 02.02.2020
3618 Clear -13 1019 68 0 1.78 144 00:50 02.02.2020
3619 Clear -13 1019 68 0 1.78 144 00:24 02.02.2020
3620 Clear -13 1019 68 0 1.78 144 23:56 01.02.2020
3621 Clear -13 1019 68 0 1.78 144 23:38 01.02.2020
3622 Clear -11 1016 57 0 1.68 139 23:19 01.02.2020
3623 Clear -11 1016 57 0 1.68 139 22:43 01.02.2020
3624 Clear -11 1016 57 0 1.68 139 22:18 01.02.2020
3625 Clear -11 1016 57 0 1.68 139 21:41 01.02.2020
3626 Clear -11 1016 57 0 1.68 139 21:19 01.02.2020
3627 Clear -11 1016 57 0 1.68 139 20:55 01.02.2020
3628 Clear -11 1016 57 0 1.68 139 20:37 01.02.2020
3629 Clouds -10 1014 40 0 1.68 153 20:18 01.02.2020
3630 Clear -10 1014 46 0 2.28 145 19:55 01.02.2020
3631 Clear -10 1014 46 0 2.28 145 19:36 01.02.2020
3632 Clear -10 1014 46 0 2.28 145 19:18 01.02.2020
3633 Clear -10 1014 46 0 2.28 145 18:55 01.02.2020
3634 Clear -10 1014 46 0 2.28 145 18:36 01.02.2020
3635 Clear -10 1014 46 0 2.28 145 18:18 01.02.2020
3636 Clear -10 1014 46 0 2.28 145 17:54 01.02.2020
3637 Clear -10 1014 46 0 2.28 145 17:36 01.02.2020
3638 Clear -8 1012 36 0 1.98 133 17:18 01.02.2020
3639 Clear -8 1012 36 0 1.98 133 16:39 01.02.2020
3640 Clear -8 1012 36 0 1.98 133 16:39 01.02.2020
3641 Clear -8 1012 36 0 1.98 133 16:21 01.02.2020
3642 Clear -8 1012 36 0 1.98 133 16:21 01.02.2020
3643 Clear -8 1012 36 0 1.98 133 15:47 01.02.2020
3644 Clear -8 1012 36 0 1.98 133 15:29 01.02.2020
3645 Clear -8 1012 36 0 1.98 133 14:58 01.02.2020
3646 Clear -8 1012 36 0 1.98 133 14:39 01.02.2020
3647 Clouds -5 1007 16 0 3.2 242 14:20 01.02.2020
3648 Clouds -5 1007 16 0 3.2 242 13:45 01.02.2020
3649 Clouds -4 1007 17 0 3.81 241 13:22 01.02.2020
3650 Clouds -4 1007 17 0 3.81 241 13:22 01.02.2020
3651 Clouds -4 1007 17 0 3.81 241 12:46 01.02.2020
3652 Clouds -4 1007 17 0 3.81 241 12:28 01.02.2020
3653 Clouds -4 1007 17 0 3.81 241 11:58 01.02.2020
3654 Clouds -4 1007 17 0 3.81 241 11:38 01.02.2020
3655 Clouds 2 1004 14 0 4.72 172 11:19 01.02.2020
3656 Clouds 2 1004 14 0 4.72 172 10:57 01.02.2020
3657 Clouds 2 1004 14 0 4.72 172 10:38 01.02.2020
3658 Clouds 2 1004 14 0 4.72 172 10:20 01.02.2020
3659 Clouds 2 1004 14 0 4.72 172 09:57 01.02.2020
3660 Clouds 2 1004 14 0 4.72 172 09:38 01.02.2020
3661 Clouds 2 1004 14 0 4.72 172 09:19 01.02.2020
3662 Clouds 2 1004 14 0 4.72 172 08:41 01.02.2020
3663 Clear -1 1007 25 0 3.84 192 07:48 01.02.2020
3664 Clear -1 1007 25 0 3.84 192 07:26 01.02.2020
3665 Clear -1 1007 25 0 3.84 192 06:55 01.02.2020
3666 Clear -1 1007 25 0 3.84 192 06:55 01.02.2020
3667 Clear -1 1007 25 0 3.84 192 06:32 01.02.2020
3668 Clear -1 1007 25 0 3.84 192 05:51 01.02.2020
3669 Clear -6 1014 43 0 2.52 173 03:53 01.02.2020
3670 Clear -6 1014 43 0 2.52 173 03:21 01.02.2020
3671 Clear -6 1014 43 0 2.52 173 02:45 01.02.2020
3672 Clear -6 1014 43 0 2.52 173 02:26 01.02.2020
3673 Clear -13 1015 64 0 1.78 135 01:52 01.02.2020
3674 Clear -13 1015 64 0 1.78 135 01:31 01.02.2020
3675 Clear -13 1016 64 0 1.73 145 00:30 01.02.2020
3676 Clear -13 1016 64 0 1.73 145 23:43 31.01.2020
3677 Clear -11 1014 43 0 1.62 134 23:20 31.01.2020
3678 Clear -11 1014 43 0 1.62 134 22:59 31.01.2020
3679 Clear -11 1014 43 0 1.62 134 22:40 31.01.2020
3680 Clear -11 1014 43 0 1.62 134 22:22 31.01.2020
3681 Clear -11 1014 43 0 1.62 134 21:56 31.01.2020
3682 Clear -11 1014 43 0 1.62 134 21:38 31.01.2020
3683 Clear -11 1014 43 0 1.62 134 21:19 31.01.2020
3684 Clear -11 1014 43 0 1.62 134 20:56 31.01.2020
3685 Clear -11 1014 43 0 1.62 134 20:37 31.01.2020
3686 Clear -9 1014 29 0 1.49 132 20:19 31.01.2020
3687 Clear -9 1014 29 0 1.67 132 19:55 31.01.2020
3688 Clear -9 1014 29 0 1.67 132 19:37 31.01.2020
3689 Clear -9 1014 29 0 1.67 132 19:18 31.01.2020
3690 Clear -9 1014 29 0 1.67 132 18:41 31.01.2020
3691 Clear -9 1014 29 0 1.67 132 18:23 31.01.2020
3692 Clear -9 1014 29 0 1.67 132 17:54 31.01.2020
3693 Clear -9 1014 29 0 1.67 132 17:36 31.01.2020
3694 Clear -7 1012 16 0 2.04 187 17:18 31.01.2020
3695 Clear -7 1012 16 0 2.04 187 16:54 31.01.2020
3696 Clear -7 1012 16 0 2.04 187 16:36 31.01.2020
3697 Clear -7 1012 16 0 2.04 187 16:18 31.01.2020
3698 Clear -7 1012 16 0 2.04 187 15:41 31.01.2020
3699 Clear -7 1012 16 0 2.04 187 15:20 31.01.2020
3700 Clear -7 1012 16 0 2.04 187 14:55 31.01.2020
3701 Clear -7 1012 16 0 2.04 187 14:36 31.01.2020
3702 Clear -7 1012 16 0 2.04 187 14:36 31.01.2020
3703 Clear -3 1007 11 0 4.83 253 14:18 31.01.2020
3704 Clear -3 1007 11 0 4.83 253 13:43 31.01.2020
3705 Clear -3 1007 11 0 4.83 253 13:24 31.01.2020
3706 Clear -4 1007 15 0 3.04 266 12:45 31.01.2020
3707 Clear -4 1007 15 0 3.04 266 12:24 31.01.2020
3708 Clear -4 1007 15 0 3.04 266 11:56 31.01.2020
3709 Clear -4 1007 15 0 3.04 266 11:38 31.01.2020
3710 Clear 2 1005 7 0 5.61 235 11:19 31.01.2020
3711 Clear 2 1005 7 0 5.61 235 10:55 31.01.2020
3712 Clear 2 1005 7 0 5.61 235 10:37 31.01.2020
3713 Clear 2 1005 7 0 5.61 235 10:18 31.01.2020
3714 Clear 2 1005 7 0 5.61 235 09:42 31.01.2020
3715 Clear 1 1005 8 0 3.35 258 09:22 31.01.2020
3716 Clear 2 1005 7 0 5.61 235 08:56 31.01.2020
3717 Clear 2 1005 7 0 5.61 235 08:38 31.01.2020
3718 Clear -1 1009 18 0 3.44 199 08:20 31.01.2020
3719 Clear -2 1009 19 0 3.18 185 07:47 31.01.2020
3720 Clear -2 1009 19 0 3.18 185 07:19 31.01.2020
3721 Clear -2 1009 19 0 3.18 185 07:19 31.01.2020
3722 Clear -2 1009 19 0 3.18 185 06:34 31.01.2020
3723 Clear -2 1009 19 0 3.18 185 05:55 31.01.2020
3724 Clear -7 1015 42 0 2.26 179 05:20 31.01.2020
3725 Clear -7 1015 42 0 2.26 179 04:20 31.01.2020
3726 Clear -7 1015 42 0 2.26 179 02:49 31.01.2020
3727 Clear -13 1017 71 0 1.8 145 01:30 31.01.2020
3728 Clear -13 1017 71 0 1.8 143 00:39 31.01.2020
3729 Clear -13 1017 71 0 1.8 143 00:39 31.01.2020
3730 Clear -13 1017 71 0 1.8 143 00:20 31.01.2020
3731 Clear -13 1017 71 0 1.8 143 23:42 30.01.2020
3732 Clear -11 1014 64 0 2.02 133 23:21 30.01.2020
3733 Clear -11 1014 64 0 2.02 133 22:39 30.01.2020
3734 Clear -11 1014 64 0 2.02 133 22:21 30.01.2020
3735 Clear -11 1014 64 0 2.02 133 21:58 30.01.2020
3736 Clear -11 1014 64 0 2.02 133 21:40 30.01.2020
3737 Clear -11 1014 64 0 2.02 133 21:18 30.01.2020
3738 Clear -11 1014 64 0 2.02 133 20:56 30.01.2020
3739 Clear -11 1014 64 0 2.02 133 20:38 30.01.2020
3740 Clouds -9 1012 50 0 2.2 136 20:19 30.01.2020
3741 Clouds -9 1012 50 0 2.2 136 19:44 30.01.2020
3742 Clouds -9 1012 50 0 2.2 136 19:44 30.01.2020
3743 Clouds -9 1012 50 0 2.2 136 19:19 30.01.2020
3744 Clouds -9 1012 50 0 2.2 136 19:19 30.01.2020
3745 Clouds -9 1012 50 0 2.2 136 18:58 30.01.2020
3746 Clouds -9 1012 50 0 2.2 136 18:58 30.01.2020
3747 Clouds -9 1012 50 0 2.2 136 18:37 30.01.2020
3748 Clouds -9 1012 50 0 2.2 136 18:18 30.01.2020
3749 Clouds -9 1012 50 0 2.2 136 17:41 30.01.2020
3750 Clouds -5 1011 36 0 2.32 142 17:19 30.01.2020
3751 Clouds -5 1011 36 0 2.32 142 16:58 30.01.2020
3752 Clouds -5 1011 36 0 2.32 142 16:39 30.01.2020
3753 Clouds -5 1011 36 0 2.32 142 16:21 30.01.2020
3754 Clouds -5 1011 36 0 2.32 142 15:44 30.01.2020
3755 Clouds -5 1011 36 0 2.32 142 15:21 30.01.2020
3756 Clouds -5 1011 36 0 2.32 142 14:58 30.01.2020
3757 Clouds -5 1011 36 0 2.32 142 14:39 30.01.2020
3758 Clouds -4 1005 38 0 2.15 137 14:20 30.01.2020
3759 Clouds -4 1005 38 0 2.15 137 13:41 30.01.2020
3760 Clouds -4 1005 38 0 2.15 137 13:41 30.01.2020
3761 Clouds -3 1005 34 0 2.4 143 13:23 30.01.2020
3762 Clouds -3 1005 34 0 2.4 143 12:55 30.01.2020
3763 Clouds -3 1005 34 0 2.4 143 12:37 30.01.2020
3764 Clouds -3 1005 34 0 2.4 143 12:19 30.01.2020
3765 Clouds -3 1005 34 0 2.4 143 11:41 30.01.2020
3766 Clouds -3 1005 34 0 2.4 143 11:22 30.01.2020
3767 Clouds 2 1003 15 0 4.77 197 10:59 30.01.2020
3768 Clouds 2 1003 15 0 4.77 197 10:40 30.01.2020
3769 Clouds 2 1003 15 0 4.77 197 10:20 30.01.2020
3770 Clouds 2 1003 15 0 4.77 197 09:45 30.01.2020
3771 Clouds 2 1003 15 0 4.77 197 09:25 30.01.2020
3772 Clouds 2 1003 15 0 4.77 197 08:43 30.01.2020
3773 Clouds 2 1003 17 0 4.65 191 08:22 30.01.2020
3774 Clear -1 1007 30 0 3.19 186 07:58 30.01.2020
3775 Clear -1 1007 30 0 3.19 186 07:39 30.01.2020
3776 Clear -1 1007 30 0 3.19 186 07:18 30.01.2020
3777 Clear -1 1007 30 0 3.19 186 06:44 30.01.2020
3778 Clear -1 1007 30 0 3.19 186 06:26 30.01.2020
3779 Clear -1 1007 30 0 3.19 186 05:30 30.01.2020
3780 Clear -1 1007 30 0 3.19 186 05:30 30.01.2020
3781 Clear -6 1015 50 0 2.05 167 04:57 30.01.2020
3782 Clear -6 1015 50 0 2.05 167 03:48 30.01.2020
3783 Clear -6 1015 50 0 2.05 167 03:24 30.01.2020
3784 Clear -12 1016 77 0 2.04 137 01:35 30.01.2020
3785 Clear -12 1016 75 0 2.15 137 00:37 30.01.2020
3786 Clear -12 1016 75 0 2.15 137 00:18 30.01.2020
3787 Clear -12 1016 75 0 2.15 137 23:43 29.01.2020
3788 Clear -10 1015 57 0 2.23 144 23:20 29.01.2020
3789 Clear -10 1015 57 0 2.23 144 22:56 29.01.2020
3790 Clear -10 1015 57 0 2.23 144 22:56 29.01.2020
3791 Clear -10 1015 57 0 2.23 144 22:37 29.01.2020
3792 Clear -10 1015 57 0 2.23 144 22:18 29.01.2020
3793 Clear -10 1015 57 0 2.23 144 21:56 29.01.2020
3794 Clear -10 1015 57 0 2.23 144 21:37 29.01.2020
3795 Clear -10 1015 57 0 2.23 144 21:18 29.01.2020
3796 Clear -10 1015 57 0 2.23 144 20:54 29.01.2020
3797 Clear -10 1015 57 0 2.23 144 20:36 29.01.2020
3798 Clear -8 1013 40 0 1.78 138 20:18 29.01.2020
3799 Clear -8 1013 40 0 1.78 138 19:54 29.01.2020
3800 Clear -8 1013 40 0 1.78 138 19:36 29.01.2020
3801 Clear -8 1013 40 0 1.78 138 19:18 29.01.2020
3802 Clear -8 1013 40 0 1.78 138 18:40 29.01.2020
3803 Clear -8 1013 40 0 1.78 138 18:19 29.01.2020
3804 Clear -8 1013 40 0 1.78 138 17:41 29.01.2020
3805 Clear -8 1013 40 0 1.78 138 17:41 29.01.2020
3806 Clear -8 1013 40 0 1.78 138 17:23 29.01.2020
3807 Clear -8 1013 40 0 1.78 138 17:23 29.01.2020
3808 Clear -6 1012 24 0 1.74 171 16:57 29.01.2020
3809 Clear -6 1012 24 0 1.74 171 16:39 29.01.2020
3810 Clear -6 1012 24 0 1.74 171 16:19 29.01.2020
3811 Clear -6 1012 24 0 1.74 171 15:40 29.01.2020
3812 Clear -6 1012 24 0 1.74 171 15:22 29.01.2020
3813 Clear -6 1012 24 0 1.74 171 14:57 29.01.2020
3814 Clear -6 1012 24 0 1.74 171 14:39 29.01.2020
3815 Clear -5 1007 15 0 0.8 261 14:18 29.01.2020
3816 Clear -5 1007 15 0 0.8 261 13:40 29.01.2020
3817 Clear -5 1007 15 0 0.8 261 13:22 29.01.2020
3818 Clear -5 1008 16 0 0.26 218 13:22 29.01.2020
3819 Clear -5 1008 16 0 0.26 218 12:56 29.01.2020
3820 Clear -5 1008 16 0 0.26 218 12:38 29.01.2020
3821 Clear -5 1008 16 0 0.26 218 12:20 29.01.2020
3822 Clear -5 1008 16 0 0.26 218 11:47 29.01.2020
3823 Clear -5 1008 16 0 0.26 218 11:24 29.01.2020
3824 Clear 3 1005 8 0 1.26 165 10:58 29.01.2020
3825 Clear 3 1005 8 0 1.26 165 10:40 29.01.2020
3826 Clear 3 1005 8 0 1.26 165 10:20 29.01.2020
3827 Clear 3 1005 8 0 1.26 165 09:40 29.01.2020
3828 Clear 3 1005 8 0 1.26 165 09:22 29.01.2020
3829 Clear 3 1005 8 0 1.26 165 08:58 29.01.2020
3830 Clear 3 1005 8 0 1.26 165 08:39 29.01.2020
3831 Clear 0 1011 11 0 1.26 196 08:20 29.01.2020
3832 Clear 0 1011 11 0 1.26 196 07:45 29.01.2020
3833 Clear 0 1011 11 0 1.26 196 07:24 29.01.2020
3834 Clear 0 1011 11 0 1.26 196 06:55 29.01.2020
3835 Clear 0 1011 11 0 1.26 196 06:37 29.01.2020
3836 Clear 0 1011 11 0 1.26 196 06:18 29.01.2020
3837 Clear 0 1011 11 0 1.26 196 05:44 29.01.2020
3838 Clear 0 1011 11 0 1.26 196 05:25 29.01.2020
3839 Clear -6 1017 17 0 0.85 30 04:37 29.01.2020
3840 Clear -6 1017 17 0 0.85 30 02:50 29.01.2020
3841 Clear -13 1017 33 0 2.07 29 02:18 29.01.2020
3842 Clear -13 1018 32 0 2.26 29 00:43 29.01.2020
3843 Clear -13 1018 32 0 2.26 29 00:25 29.01.2020
3844 Clear -13 1018 32 0 2.26 29 23:58 28.01.2020
3845 Clear -13 1018 32 0 2.26 29 23:37 28.01.2020
3846 Clear -11 1016 26 0 2.68 36 23:18 28.01.2020
3847 Clear -11 1016 26 0 2.68 36 22:40 28.01.2020
3848 Clear -11 1016 26 0 2.68 36 22:21 28.01.2020
3849 Clear -11 1016 26 0 2.68 36 21:42 28.01.2020
3850 Clear -11 1016 26 0 2.68 36 21:23 28.01.2020
3851 Clear -11 1016 26 0 2.68 36 20:58 28.01.2020
3852 Clear -11 1016 26 0 2.68 36 20:40 28.01.2020
3853 Clear -8 1016 18 0 2.8 37 20:21 28.01.2020
3854 Clear -8 1016 18 0 2.8 37 19:39 28.01.2020
3855 Clear -8 1016 18 0 2.8 37 19:39 28.01.2020
3856 Clear -8 1016 18 0 2.8 37 19:21 28.01.2020
3857 Clear -8 1016 18 0 2.8 37 18:59 28.01.2020
3858 Clear -8 1016 18 0 2.8 37 18:40 28.01.2020
3859 Clear -8 1016 18 0 2.8 37 18:22 28.01.2020
3860 Clear -8 1016 18 0 2.8 37 18:22 28.01.2020
3861 Clear -8 1016 18 0 2.8 37 17:59 28.01.2020
3862 Clear -8 1016 18 0 2.8 37 17:38 28.01.2020
3863 Clear -7 1014 13 0 0.5 359 17:19 28.01.2020
3864 Clear -7 1014 13 0 0.5 359 16:55 28.01.2020
3865 Clear -7 1014 13 0 0.5 359 16:37 28.01.2020
3866 Clear -7 1014 13 0 0.5 359 16:19 28.01.2020
3867 Clear -7 1014 13 0 0.5 359 15:44 28.01.2020
3868 Clear -7 1014 13 0 0.5 359 15:19 28.01.2020
3869 Clear -7 1014 13 0 0.5 359 14:57 28.01.2020
3870 Clear -7 1014 13 0 0.5 359 14:38 28.01.2020
3871 Clear -5 1008 11 0 0.27 257 14:18 28.01.2020
3872 Clear -5 1008 11 0 0.27 257 13:39 28.01.2020
3873 Clear -4 1008 10 0 1.81 185 13:21 28.01.2020
3874 Clear -4 1008 10 0 1.81 185 12:42 28.01.2020
3875 Clear -4 1008 10 0 1.81 185 12:24 28.01.2020
3876 Clear -4 1008 10 0 1.81 185 11:55 28.01.2020
3877 Clear -4 1008 10 0 1.81 185 11:55 28.01.2020
3878 Clear -4 1008 10 0 1.81 185 11:37 28.01.2020
3879 Clear 4 1005 5 0 4.1 274 11:18 28.01.2020
3880 Clear 4 1005 5 0 4.1 274 10:40 28.01.2020
3881 Clear 4 1005 5 0 4.1 274 10:22 28.01.2020
3882 Clear 4 1005 5 0 4.1 274 09:55 28.01.2020
3883 Clear 4 1005 5 0 4.1 274 09:37 28.01.2020
3884 Clear 4 1005 5 0 4.1 274 09:18 28.01.2020
3885 Clear 4 1005 5 0 4.1 274 08:41 28.01.2020
3886 Clear -1 1007 9 0 0.74 31 08:19 28.01.2020
3887 Clear -1 1007 9 0 0.74 31 07:38 28.01.2020
3888 Clear -1 1007 9 0 0.74 31 06:51 28.01.2020
3889 Clear -1 1007 9 0 0.74 31 06:28 28.01.2020
3890 Clear -1 1007 9 0 0.74 31 05:55 28.01.2020
3891 Clear -1 1007 9 0 0.74 31 05:33 28.01.2020
3892 Clear -7 1013 15 0 1.38 37 04:38 28.01.2020
3893 Clear -7 1013 15 0 1.38 37 03:33 28.01.2020
3894 Clear -7 1013 15 0 1.38 37 02:25 28.01.2020
3895 Clear -13 1012 28 0 2.5 37 01:58 28.01.2020
3896 Clear -13 1012 28 0 2.5 37 01:40 28.01.2020
3897 Clear -13 1012 28 0 2.5 37 01:40 28.01.2020
3898 Clear -13 1012 26 0 2.24 37 00:51 28.01.2020
3899 Clear -13 1012 26 0 2.24 37 00:29 28.01.2020
3900 Clear -13 1012 26 0 2.24 37 23:53 27.01.2020
3901 Clear -13 1012 26 0 2.24 37 23:30 27.01.2020
3902 Clear -11 1011 22 0 2.3 36 22:59 27.01.2020
3903 Clear -11 1011 22 0 2.3 36 22:41 27.01.2020
3904 Clear -11 1011 22 0 2.3 36 22:20 27.01.2020
3905 Clear -11 1011 22 0 2.3 36 21:57 27.01.2020
3906 Clear -11 1011 22 0 2.3 36 21:38 27.01.2020
3907 Clear -11 1011 22 0 2.3 36 21:18 27.01.2020
3908 Clear -11 1011 22 0 2.3 36 20:55 27.01.2020
3909 Clear -11 1011 22 0 2.3 36 20:37 27.01.2020
3910 Clear -9 1010 21 0 1.47 316 20:18 27.01.2020
3911 Clear -9 1010 18 0 0.98 328 19:41 27.01.2020
3912 Clear -9 1010 18 0 0.98 328 19:23 27.01.2020
3913 Clear -9 1010 18 0 0.98 328 18:56 27.01.2020
3914 Clear -9 1010 18 0 0.98 328 18:38 27.01.2020
3915 Clear -9 1010 18 0 0.98 328 18:20 27.01.2020
3916 Clear -9 1010 18 0 0.98 328 17:40 27.01.2020
3917 Clear -8 1009 12 0 0.81 275 17:21 27.01.2020
3918 Clear -8 1009 12 0 0.81 275 16:59 27.01.2020
3919 Clear -8 1009 12 0 0.81 275 16:41 27.01.2020
3920 Clear -8 1009 12 0 0.81 275 16:23 27.01.2020
3921 Clear -8 1009 12 0 0.81 275 15:55 27.01.2020
3922 Clear -8 1009 12 0 0.81 275 15:37 27.01.2020
3923 Clear -8 1009 12 0 0.81 275 15:19 27.01.2020
3924 Clear -8 1009 12 0 0.81 275 15:19 27.01.2020
3925 Clear -8 1009 12 0 0.81 275 14:43 27.01.2020
3926 Clear -8 1009 12 0 0.81 275 14:23 27.01.2020
3927 Clear -6 1004 10 0 1.62 253 13:58 27.01.2020
3928 Clear -6 1004 10 0 1.62 253 13:40 27.01.2020
3929 Clear -6 1004 12 0 1.05 208 13:20 27.01.2020
3930 Clear -6 1004 12 0 1.05 208 12:55 27.01.2020
3931 Clear -6 1004 12 0 1.05 208 12:37 27.01.2020
3932 Clear -6 1004 12 0 1.05 208 12:18 27.01.2020
3933 Clear -6 1004 12 0 1.05 208 11:41 27.01.2020
3934 Clear 2 1002 5 0 1.7 279 11:21 27.01.2020
3935 Clear 2 1002 5 0 1.7 279 10:43 27.01.2020
3936 Clear 2 1002 5 0 1.7 279 10:25 27.01.2020
3937 Clear 2 1002 5 0 1.7 279 09:56 27.01.2020
3938 Clear 2 1002 5 0 1.7 279 09:38 27.01.2020
3939 Clear 2 1002 5 0 1.7 279 09:18 27.01.2020
3940 Clear 2 1002 5 0 1.7 279 08:42 27.01.2020
3941 Clear -1 1007 12 0 0.68 112 08:20 27.01.2020
3942 Clear -1 1007 12 0 0.68 112 07:54 27.01.2020
3943 Clear -1 1007 12 0 0.68 112 07:34 27.01.2020
3944 Clear -1 1007 12 0 0.68 112 06:53 27.01.2020
3945 Clear -1 1007 12 0 0.68 112 06:25 27.01.2020
3946 Clear -1 1007 12 0 0.68 112 05:24 27.01.2020
3947 Clear -7 1013 24 0 0.54 90 03:49 27.01.2020
3948 Clear -7 1013 24 0 0.54 90 02:38 27.01.2020
3949 Clear -14 1013 43 0 1.86 42 01:29 27.01.2020
3950 Clear -14 1014 44 0 1.58 36 00:58 27.01.2020
3951 Clear -14 1014 44 0 1.58 36 00:37 27.01.2020
3952 Clear -14 1014 44 0 1.58 36 00:18 27.01.2020
3953 Clear -14 1014 44 0 1.58 36 23:41 26.01.2020
3954 Clear -13 1013 39 0 1.25 54 23:19 26.01.2020
3955 Clear -13 1013 39 0 1.25 54 22:55 26.01.2020
3956 Clear -13 1013 39 0 1.25 54 22:37 26.01.2020
3957 Clear -13 1013 39 0 1.25 54 22:18 26.01.2020
3958 Clear -13 1013 39 0 1.25 54 21:56 26.01.2020
3959 Clear -13 1013 39 0 1.25 54 21:38 26.01.2020
3960 Clear -13 1013 39 0 1.25 54 21:19 26.01.2020
3961 Clear -13 1013 39 0 1.25 54 20:55 26.01.2020
3962 Clear -13 1013 39 0 1.25 54 20:36 26.01.2020
3963 Clouds -10 1013 28 0 1.65 25 20:18 26.01.2020
3964 Clouds -10 1013 27 0 1.15 12 19:56 26.01.2020
3965 Clouds -10 1013 27 0 1.15 12 19:37 26.01.2020
3966 Clouds -10 1013 27 0 1.15 12 19:37 26.01.2020
3967 Clouds -10 1013 27 0 1.15 12 19:18 26.01.2020
3968 Clouds -10 1013 27 0 1.15 12 18:41 26.01.2020
3969 Clouds -10 1013 27 0 1.15 12 18:22 26.01.2020
3970 Clouds -10 1013 27 0 1.15 12 17:58 26.01.2020
3971 Clouds -10 1013 27 0 1.15 12 17:58 26.01.2020
3972 Clouds -10 1013 27 0 1.15 12 17:39 26.01.2020
3973 Clouds -8 1010 20 0 0.29 252 17:20 26.01.2020
3974 Clouds -8 1010 20 0 0.29 252 16:58 26.01.2020
3975 Clouds -8 1010 20 0 0.29 252 16:39 26.01.2020
3976 Clouds -8 1010 20 0 0.29 252 16:39 26.01.2020
3977 Clouds -8 1010 20 0 0.29 252 16:39 26.01.2020
3978 Clouds -8 1010 20 0 0.29 252 16:39 26.01.2020
3979 Clouds -8 1010 20 0 0.29 252 16:20 26.01.2020
3980 Clouds -8 1010 20 0 0.29 252 15:58 26.01.2020
3981 Clouds -8 1010 20 0 0.29 252 15:39 26.01.2020
3982 Clouds -8 1010 20 0 0.29 252 15:18 26.01.2020
3983 Clouds -8 1010 20 0 0.29 252 14:40 26.01.2020
3984 Clouds -8 1010 20 0 0.29 252 14:40 26.01.2020
3985 Clouds -7 1006 17 0 0.59 181 14:21 26.01.2020
3986 Clouds -7 1006 17 0 0.59 181 13:55 26.01.2020
3987 Clouds -7 1006 17 0 0.59 181 13:37 26.01.2020
3988 Clouds -7 1006 17 0 0.87 215 13:18 26.01.2020
3989 Clouds -7 1006 17 0 0.87 215 13:18 26.01.2020
3990 Clouds -7 1006 17 0 0.87 215 12:41 26.01.2020
3991 Clouds -7 1006 17 0 0.87 215 12:23 26.01.2020
3992 Clouds -7 1006 17 0 0.87 215 11:57 26.01.2020
3993 Clouds -7 1006 17 0 0.87 215 11:39 26.01.2020
3994 Clouds 0 1004 10 0 2.21 216 11:19 26.01.2020
3995 Clouds 0 1004 10 0 2.21 216 10:58 26.01.2020
3996 Clouds 0 1004 10 0 2.21 216 10:38 26.01.2020
3997 Clouds 0 1004 10 0 2.21 216 10:20 26.01.2020
3998 Clouds 0 1004 10 0 2.21 216 09:57 26.01.2020
3999 Clouds 0 1004 10 0 2.21 216 09:39 26.01.2020
4000 Clouds 0 1004 10 0 2.21 216 09:39 26.01.2020
4001 Clouds 0 1004 10 0 2.21 216 09:20 26.01.2020
4002 Clouds 0 1004 10 0 2.21 216 08:43 26.01.2020
4003 Clouds 0 1004 10 0 2.21 216 08:22 26.01.2020
4004 Clouds -2 1008 13 0 2.2 176 07:57 26.01.2020
4005 Clouds -2 1008 13 0 2.2 176 07:39 26.01.2020
4006 Clouds -2 1008 13 0 2.2 176 07:21 26.01.2020
4007 Clouds -2 1008 13 0 2.2 176 06:31 26.01.2020
4008 Clouds -2 1008 13 0 2.2 176 05:32 26.01.2020
4009 Clouds -7 1015 17 0 0.98 188 04:45 26.01.2020
4010 Clouds -7 1015 17 0 0.98 188 02:54 26.01.2020
4011 Clouds -14 1015 32 0 1.48 35 01:49 26.01.2020
4012 Clouds -14 1015 32 0 1.48 35 01:25 26.01.2020
4013 Clouds -14 1015 35 0 1.48 34 00:48 26.01.2020
4014 Clouds -14 1015 35 0 1.48 34 00:29 26.01.2020
4015 Clouds -14 1015 35 0 1.48 34 23:41 25.01.2020
4016 Clouds -14 1015 35 0 1.48 34 23:22 25.01.2020
4017 Clouds -12 1014 22 0 1.44 48 22:58 25.01.2020
4018 Clouds -12 1014 22 0 1.44 48 22:40 25.01.2020
4019 Clouds -12 1014 22 0 1.44 48 22:19 25.01.2020
4020 Clouds -12 1014 22 0 1.44 48 21:57 25.01.2020
4021 Clouds -12 1014 22 0 1.44 48 21:38 25.01.2020
4022 Clouds -12 1014 22 0 1.44 48 21:20 25.01.2020
4023 Clouds -12 1014 22 0 1.44 48 20:44 25.01.2020
4024 Clouds -12 1014 22 0 1.44 48 20:25 25.01.2020
4025 Clouds -10 1015 19 0 1.84 34 19:55 25.01.2020
4026 Clouds -10 1015 17 0 2.23 35 19:37 25.01.2020
4027 Clouds -10 1015 19 0 1.84 34 19:18 25.01.2020
4028 Clouds -10 1015 19 0 1.84 34 18:42 25.01.2020
4029 Clouds -10 1015 17 0 2.23 35 18:21 25.01.2020
4030 Clouds -10 1015 19 0 1.84 34 17:58 25.01.2020
4031 Clouds -10 1015 19 0 1.84 34 17:38 25.01.2020
4032 Clouds -9 1015 14 0 1.2 60 17:18 25.01.2020
4033 Clouds -9 1015 14 0 1.2 60 16:42 25.01.2020
4034 Clouds -9 1015 14 0 1.2 60 16:23 25.01.2020
4035 Clouds -9 1015 14 0 1.2 60 15:58 25.01.2020
4036 Clouds -9 1015 14 0 1.2 60 15:39 25.01.2020
4037 Clouds -9 1015 14 0 1.2 60 15:21 25.01.2020
4038 Clouds -9 1015 14 0 1.2 60 14:43 25.01.2020
4039 Clouds -8 1012 13 0 1.41 184 14:19 25.01.2020
4040 Clouds -8 1012 13 0 1.41 184 13:54 25.01.2020
4041 Clouds -8 1012 13 0 1.41 184 13:36 25.01.2020
4042 Clear -9 1012 13 0 0.79 202 13:18 25.01.2020
4043 Clear -9 1012 13 0 0.79 202 12:39 25.01.2020
4044 Clear -9 1012 13 0 0.79 202 12:20 25.01.2020
4045 Clear -9 1012 13 0 0.79 202 11:40 25.01.2020
4046 Clear -2 1010 7 0 0.87 86 11:20 25.01.2020
4047 Clear -2 1010 7 0 0.87 86 10:56 25.01.2020
4048 Clear -2 1010 7 0 0.87 86 10:38 25.01.2020
4049 Clear -2 1010 7 0 0.87 86 10:38 25.01.2020
4050 Clear -2 1010 7 0 0.87 86 10:18 25.01.2020
4051 Clear -2 1010 7 0 0.87 86 09:40 25.01.2020
4052 Clear -2 1010 7 0 0.87 86 09:20 25.01.2020
4053 Clear -2 1010 7 0 0.87 86 08:43 25.01.2020
4054 Clear -6 1018 9 0 0.9 185 08:00 25.01.2020
4055 Clear -6 1018 9 0 0.9 185 07:40 25.01.2020
4056 Clear -6 1018 9 0 0.9 185 06:44 25.01.2020
4057 Clear -6 1018 9 0 0.9 185 06:24 25.01.2020
4058 Clear -6 1018 9 0 0.9 185 05:44 25.01.2020
4059 Clear -11 1028 15 0 1.07 34 04:24 25.01.2020
4060 Clear -11 1028 15 0 1.07 34 03:50 25.01.2020
4061 Clear -11 1028 15 0 1.07 34 02:38 25.01.2020
4062 Clear -18 1032 29 0 1.86 33 01:58 25.01.2020
4063 Clear -18 1032 29 0 1.86 33 01:23 25.01.2020
4064 Clear -18 1032 28 0 2.01 36 00:41 25.01.2020
4065 Clear -18 1032 28 0 2.01 36 00:41 25.01.2020
4066 Clear -18 1032 28 0 2.01 36 00:22 25.01.2020
4067 Clear -18 1032 28 0 2.01 36 23:42 24.01.2020
4068 Clear -18 1032 28 0 2.01 36 23:24 24.01.2020
4069 Clear -16 1031 27 0 1.61 52 22:47 24.01.2020
4070 Clear -16 1031 27 0 1.61 52 22:29 24.01.2020
4071 Clear -16 1031 27 0 1.61 52 21:59 24.01.2020
4072 Clear -16 1031 27 0 1.61 52 21:41 24.01.2020
4073 Clear -16 1031 27 0 1.61 52 21:19 24.01.2020
4074 Clear -16 1031 27 0 1.61 52 20:44 24.01.2020
4075 Clear -17 1031 32 0 1.45 48 20:23 24.01.2020
4076 Clouds -15 1031 24 0 0.98 46 19:59 24.01.2020
4077 Clouds -15 1031 24 0 0.98 46 19:40 24.01.2020
4078 Clouds -15 1031 24 0 0.98 46 19:22 24.01.2020
4079 Clouds -15 1031 24 0 0.98 46 18:57 24.01.2020
4080 Clouds -15 1031 24 0 0.98 46 18:39 24.01.2020
4081 Clouds -15 1031 24 0 0.98 46 18:21 24.01.2020
4082 Clouds -15 1031 24 0 0.98 46 18:21 24.01.2020
4083 Clouds -15 1031 24 0 0.98 46 17:42 24.01.2020
4084 Clouds -13 1030 20 0 0.85 328 17:21 24.01.2020
4085 Clouds -13 1030 20 0 0.85 328 16:57 24.01.2020
4086 Clouds -13 1030 20 0 0.85 328 16:38 24.01.2020
4087 Clouds -13 1030 20 0 0.85 328 16:18 24.01.2020
4088 Clouds -13 1030 20 0 0.85 328 15:41 24.01.2020
4089 Clouds -13 1030 20 0 0.85 328 15:21 24.01.2020
4090 Clouds -13 1030 20 0 0.85 328 14:42 24.01.2020
4091 Clouds -13 1030 20 0 0.85 328 14:24 24.01.2020
4092 Clouds -10 1024 13 0 1.61 17 13:58 24.01.2020
4093 Clouds -10 1024 13 0 1.61 17 13:40 24.01.2020
4094 Clouds -10 1024 13 0 1.77 23 13:21 24.01.2020
4095 Clouds -10 1024 13 0 1.77 23 12:42 24.01.2020
4096 Clouds -10 1024 13 0 1.77 23 12:20 24.01.2020
4097 Clouds -10 1024 13 0 1.77 23 11:44 24.01.2020
4098 Clouds -6 1019 8 0 5.12 331 11:19 24.01.2020
4099 Clouds -6 1019 8 0 5.12 331 10:43 24.01.2020
4100 Clouds -6 1019 8 0 5.12 331 10:23 24.01.2020
4101 Clouds -6 1019 8 0 5.12 331 09:59 24.01.2020
4102 Clouds -6 1019 8 0 5.12 331 09:40 24.01.2020
4103 Clouds -6 1019 8 0 5.12 331 09:22 24.01.2020
4104 Clouds -6 1019 8 0 5.12 331 08:41 24.01.2020
4105 Clouds -6 1022 10 0 4.24 338 08:20 24.01.2020
4106 Clouds -7 1022 10 0 3.84 339 07:53 24.01.2020
4107 Clouds -7 1022 10 0 3.84 339 07:35 24.01.2020
4108 Clouds -7 1022 10 0 3.84 339 06:52 24.01.2020
4109 Clouds -7 1022 10 0 3.84 339 06:33 24.01.2020
4110 Clouds -7 1022 10 0 3.84 339 05:59 24.01.2020
4111 Clear -9 1026 20 0 2.81 350 05:18 24.01.2020
4112 Clear -9 1026 20 0 2.81 350 02:54 24.01.2020
4113 Clear -9 1026 20 0 2.81 350 02:27 24.01.2020
4114 Clouds -14 1026 38 0 2.16 5 01:53 24.01.2020
4115 Clouds -14 1026 38 0 2.16 5 01:33 24.01.2020
4116 Clouds -15 1027 41 0 1.99 10 00:31 24.01.2020
4117 Clouds -15 1027 41 0 1.99 10 23:56 23.01.2020
4118 Clouds -15 1027 41 0 1.99 10 23:37 23.01.2020
4119 Clouds -12 1022 35 0 2.56 7 23:18 23.01.2020
4120 Clouds -12 1022 35 0 2.56 7 22:39 23.01.2020
4121 Clouds -12 1022 35 0 2.56 7 22:20 23.01.2020
4122 Clouds -12 1022 35 0 2.56 7 21:58 23.01.2020
4123 Clouds -12 1022 35 0 2.56 7 21:39 23.01.2020
4124 Clouds -12 1022 35 0 2.56 7 21:21 23.01.2020
4125 Clouds -12 1022 35 0 2.56 7 20:59 23.01.2020
4126 Clouds -12 1022 35 0 2.56 7 20:39 23.01.2020
4127 Clouds -11 1018 36 0 2.96 15 20:21 23.01.2020
4128 Clouds -11 1018 36 0 2.96 15 19:56 23.01.2020
4129 Clouds -11 1018 36 0 2.96 15 19:38 23.01.2020
4130 Clouds -11 1018 36 0 2.96 15 19:20 23.01.2020
4131 Clouds -11 1018 36 0 2.96 15 18:56 23.01.2020
4132 Clouds -11 1018 36 0 2.96 15 18:37 23.01.2020
4133 Clouds -11 1018 36 0 2.96 15 18:19 23.01.2020
4134 Clouds -11 1018 36 0 2.96 15 17:43 23.01.2020
4135 Clouds -9 1015 20 0 3.21 28 17:20 23.01.2020
4136 Clouds -9 1015 20 0 3.21 28 16:58 23.01.2020
4137 Clouds -9 1015 20 0 3.21 28 16:37 23.01.2020
4138 Clouds -9 1015 20 0 3.21 28 16:18 23.01.2020
4139 Clouds -9 1015 20 0 3.21 28 15:57 23.01.2020
4140 Clouds -9 1015 20 0 3.21 28 15:37 23.01.2020
4141 Clouds -9 1015 20 0 3.21 28 15:18 23.01.2020
4142 Clouds -9 1015 20 0 3.21 28 14:56 23.01.2020
4143 Clouds -9 1015 20 0 3.21 28 14:38 23.01.2020
4144 Clouds -6 1008 9 0 3.23 290 14:20 23.01.2020
4145 Clouds -6 1008 9 0 3.23 290 13:43 23.01.2020
4146 Clouds -6 1008 9 0 3.23 290 13:20 23.01.2020
4147 Clouds -6 1007 10 0 2.74 307 12:54 23.01.2020
4148 Clouds -7 1007 12 0 0.7 259 12:36 23.01.2020
4149 Clouds -6 1007 10 0 2.74 307 12:18 23.01.2020
4150 Clouds -6 1007 10 0 2.74 307 11:42 23.01.2020
4151 Clouds -7 1007 12 0 0.7 259 11:23 23.01.2020
4152 Clouds 1 1001 5 0 7.21 293 10:56 23.01.2020
4153 Clouds 1 1001 5 0 7.21 293 10:38 23.01.2020
4154 Clouds 1 1001 5 0 7.21 293 10:18 23.01.2020
4155 Clouds 1 1001 5 0 7.21 293 09:40 23.01.2020
4156 Clouds 1 1002 5 0 9.79 283 09:21 23.01.2020
4157 Clouds 1 1002 5 0 9.79 283 08:43 23.01.2020
4158 Clouds 1 1002 5 0 9.79 283 08:25 23.01.2020
4159 Clear -1 1005 10 0 1.59 198 07:52 23.01.2020
4160 Clear -1 1005 10 0 1.59 198 07:27 23.01.2020
4161 Clear -1 1005 10 0 1.59 198 06:58 23.01.2020
4162 Clear -1 1005 10 0 1.59 198 06:25 23.01.2020
4163 Clear -1 1005 10 0 1.59 198 05:59 23.01.2020
4164 Clear -7 1014 17 0 1.49 60 04:25 23.01.2020
4165 Clear -7 1014 17 0 1.49 60 03:23 23.01.2020
4166 Clear -14 1015 43 0 1.23 25 01:53 23.01.2020
4167 Clear -13 1016 31 0 1.87 27 00:44 23.01.2020
4168 Clear -13 1016 31 0 1.87 27 00:24 23.01.2020
4169 Clear -13 1016 31 0 1.87 27 23:46 22.01.2020
4170 Clear -13 1016 31 0 1.87 27 23:28 22.01.2020
4171 Clear -13 1015 23 0 0.95 359 22:43 22.01.2020
4172 Clear -13 1015 23 0 0.95 359 22:25 22.01.2020
4173 Clear -13 1015 23 0 0.95 359 21:59 22.01.2020
4174 Clear -13 1015 23 0 0.95 359 21:38 22.01.2020
4175 Clear -13 1015 23 0 0.95 359 21:19 22.01.2020
4176 Clear -13 1015 23 0 0.95 359 20:42 22.01.2020
4177 Clear -13 1014 30 0 1.02 41 20:23 22.01.2020
4178 Clear -10 1014 21 0 2.24 290 19:59 22.01.2020
4179 Clear -10 1014 21 0 2.24 290 19:41 22.01.2020
4180 Clear -10 1014 21 0 2.24 290 19:21 22.01.2020
4181 Clear -10 1014 21 0 2.24 290 18:59 22.01.2020
4182 Clear -10 1014 21 0 2.24 290 18:40 22.01.2020
4183 Clear -10 1014 21 0 2.24 290 18:21 22.01.2020
4184 Clear -10 1014 21 0 2.24 290 17:59 22.01.2020
4185 Clear -10 1014 21 0 2.24 290 17:39 22.01.2020
4186 Clear -8 1013 13 0 1.91 251 17:20 22.01.2020
4187 Clear -8 1013 13 0 1.91 251 17:20 22.01.2020
4188 Clear -8 1013 13 0 1.91 251 16:56 22.01.2020
4189 Clear -8 1013 13 0 1.91 251 16:37 22.01.2020
4190 Clear -8 1013 13 0 1.91 251 16:18 22.01.2020
4191 Clear -8 1013 13 0 1.91 251 15:43 22.01.2020
4192 Clear -8 1013 13 0 1.91 251 15:24 22.01.2020
4193 Clear -8 1013 13 0 1.91 251 14:59 22.01.2020
4194 Clear -8 1013 13 0 1.91 251 14:38 22.01.2020
4195 Clouds -5 1009 11 0 2.86 266 14:20 22.01.2020
4196 Clouds -5 1009 11 0 2.86 266 13:56 22.01.2020
4197 Clouds -5 1009 11 0 2.86 266 13:37 22.01.2020
4198 Clouds -4 1008 10 0 3.75 263 13:19 22.01.2020
4199 Clouds -4 1008 10 0 3.75 263 12:57 22.01.2020
4200 Clouds -4 1008 10 0 3.75 263 12:38 22.01.2020
4201 Clouds -4 1008 10 0 3.75 263 12:19 22.01.2020
4202 Clouds -4 1008 10 0 3.75 263 11:56 22.01.2020
4203 Clouds -4 1008 10 0 3.75 263 11:38 22.01.2020
4204 Clouds 2 1006 7 0 9.15 256 11:19 22.01.2020
4205 Clouds 2 1006 7 0 9.15 256 10:45 22.01.2020
4206 Clouds 2 1006 7 0 9.15 256 10:21 22.01.2020
4207 Clouds 2 1006 7 0 9.15 256 09:58 22.01.2020
4208 Clouds 2 1006 7 0 9.15 256 09:40 22.01.2020
4209 Clouds 2 1006 7 0 9.15 256 09:21 22.01.2020
4210 Clouds 2 1006 7 0 9.15 256 08:55 22.01.2020
4211 Clouds 2 1006 7 0 9.15 256 08:36 22.01.2020
4212 Clear 1 1011 7 0 9.24 273 08:18 22.01.2020
4213 Clear 1 1011 7 0 9.24 273 07:42 22.01.2020
4214 Clear 1 1011 7 0 9.24 273 07:23 22.01.2020
4215 Clear 1 1011 7 0 9.24 273 06:34 22.01.2020
4216 Clear 1 1011 7 0 9.24 273 05:45 22.01.2020
4217 Clear -3 1017 20 0 2.8 240 04:25 22.01.2020
4218 Clear -3 1017 20 0 2.8 240 03:26 22.01.2020
4219 Clear -3 1017 20 0 2.8 240 02:42 22.01.2020
4220 Clear -12 1018 57 0 0.97 246 00:47 22.01.2020
4221 Clear -12 1018 57 0 0.97 246 00:27 22.01.2020
4222 Clear -12 1018 57 0 0.97 246 23:57 21.01.2020
4223 Clear -12 1018 57 0 0.97 246 23:37 21.01.2020
4224 Clear -11 1017 50 0 0.74 210 23:19 21.01.2020
4225 Clear -11 1017 50 0 0.74 210 22:40 21.01.2020
4226 Clear -11 1017 50 0 0.74 210 22:21 21.01.2020
4227 Clear -11 1017 50 0 0.74 210 21:58 21.01.2020
4228 Clear -11 1017 50 0 0.74 210 21:38 21.01.2020
4229 Clear -11 1017 50 0 0.74 210 21:20 21.01.2020
4230 Clear -11 1017 50 0 0.74 210 20:57 21.01.2020
4231 Clear -11 1017 50 0 0.74 210 20:38 21.01.2020
4232 Clouds -9 1015 38 0 0.64 208 20:20 21.01.2020
4233 Clouds -9 1015 38 0 0.64 208 19:57 21.01.2020
4234 Clouds -9 1015 38 0 0.64 208 19:39 21.01.2020
4235 Clouds -9 1015 38 0 0.64 208 19:20 21.01.2020
4236 Clouds -9 1015 38 0 0.64 208 19:20 21.01.2020
4237 Clouds -9 1015 38 0 0.64 208 18:55 21.01.2020
4238 Clouds -9 1015 38 0 0.64 208 18:37 21.01.2020
4239 Clouds -9 1015 38 0 0.64 208 18:18 21.01.2020
4240 Clouds -9 1015 38 0 0.64 208 17:45 21.01.2020
4241 Clouds -4 1016 19 0 1.84 333 17:20 21.01.2020
4242 Clouds -4 1016 19 0 1.84 333 16:59 21.01.2020
4243 Clouds -4 1016 19 0 1.84 333 16:37 21.01.2020
4244 Clouds -4 1016 19 0 1.84 333 16:37 21.01.2020
4245 Clouds -4 1016 19 0 1.84 333 16:19 21.01.2020
4246 Clouds -4 1016 19 0 1.84 333 15:54 21.01.2020
4247 Clouds -4 1016 19 0 1.84 333 15:36 21.01.2020
4248 Clouds -4 1016 19 0 1.84 333 15:18 21.01.2020
4249 Clouds -4 1016 19 0 1.84 333 14:38 21.01.2020
4250 Clouds -3 1012 14 0 4.51 272 14:20 21.01.2020
4251 Clouds -3 1012 14 0 4.51 272 13:40 21.01.2020
4252 Clouds -3 1011 14 0 4.54 282 13:19 21.01.2020
4253 Clouds -3 1011 14 0 4.54 282 12:45 21.01.2020
4254 Clouds -3 1011 14 0 4.54 282 12:27 21.01.2020
4255 Clouds -3 1011 14 0 4.54 282 11:58 21.01.2020
4256 Clouds -3 1011 14 0 4.54 282 11:40 21.01.2020
4257 Clouds 0 1009 11 0 10.18 281 11:21 21.01.2020
4258 Clouds 0 1009 11 0 10.18 281 11:21 21.01.2020
4259 Clouds 0 1009 11 0 10.18 281 10:55 21.01.2020
4260 Clouds 0 1009 11 0 10.18 281 10:37 21.01.2020
4261 Clouds 0 1009 11 0 10.18 281 10:18 21.01.2020
4262 Clouds 0 1009 11 0 10.18 281 09:41 21.01.2020
4263 Clouds 0 1009 11 0 10.18 281 09:22 21.01.2020
4264 Clouds 0 1009 11 0 10.18 281 08:50 21.01.2020
4265 Clouds 0 1009 11 0 10.18 281 08:30 21.01.2020
4266 Clouds 0 1013 10 0 7.34 258 07:59 21.01.2020
4267 Clouds 0 1013 10 0 7.34 258 07:40 21.01.2020
4268 Clouds 0 1013 10 0 7.34 258 07:40 21.01.2020
4269 Clouds 0 1013 10 0 7.34 258 07:21 21.01.2020
4270 Clouds 0 1013 10 0 7.34 258 06:49 21.01.2020
4271 Clouds 0 1013 10 0 7.34 258 06:29 21.01.2020
4272 Clouds 0 1013 10 0 7.34 258 06:29 21.01.2020
4273 Clouds 0 1013 10 0 7.34 258 06:29 21.01.2020
4274 Clouds 0 1013 10 0 7.34 258 05:42 21.01.2020
4275 Clear -6 1019 28 0 2.17 184 04:40 21.01.2020
4276 Clear -6 1019 28 0 2.17 184 02:57 21.01.2020
4277 Clouds -13 1020 57 0 2.03 153 01:55 21.01.2020
4278 Clouds -13 1020 57 0 2.03 153 01:18 21.01.2020
4279 Clouds -13 1020 60 0 1.72 157 00:37 21.01.2020
4280 Clouds -13 1020 60 0 1.72 157 23:59 20.01.2020
4281 Clouds -13 1020 60 0 1.72 157 23:39 20.01.2020
4282 Clouds -13 1020 60 0 1.72 157 23:39 20.01.2020
4283 Clouds -12 1017 48 0 1.37 142 23:19 20.01.2020
4284 Clouds -12 1017 48 0 1.37 142 22:56 20.01.2020
4285 Clouds -12 1017 48 0 1.37 142 22:37 20.01.2020
4286 Clouds -12 1017 48 0 1.37 142 22:19 20.01.2020
4287 Clouds -12 1017 48 0 1.37 142 21:57 20.01.2020
4288 Clouds -12 1017 48 0 1.37 142 21:37 20.01.2020
4289 Clouds -12 1017 48 0 1.37 142 21:19 20.01.2020
4290 Clouds -12 1017 48 0 1.37 142 20:56 20.01.2020
4291 Clouds -12 1017 48 0 1.37 142 20:38 20.01.2020
4292 Clouds -10 1016 25 0 1.91 137 20:18 20.01.2020
4293 Clouds -10 1016 25 0 1.91 137 19:56 20.01.2020
4294 Clouds -10 1016 25 0 1.91 137 19:37 20.01.2020
4295 Clouds -10 1016 25 0 1.91 137 19:18 20.01.2020
4296 Clouds -10 1016 25 0 1.91 137 18:43 20.01.2020
4297 Clouds -10 1016 25 0 1.91 137 18:22 20.01.2020
4298 Clouds -10 1016 25 0 1.91 137 17:41 20.01.2020
4299 Clouds -8 1015 14 0 0.93 159 17:20 20.01.2020
4300 Clouds -8 1015 14 0 0.93 159 17:20 20.01.2020
4301 Clouds -8 1015 14 0 0.93 159 16:59 20.01.2020
4302 Clouds -8 1015 14 0 0.93 159 16:39 20.01.2020
4303 Clouds -8 1015 14 0 0.93 159 16:18 20.01.2020
4304 Clouds -8 1015 14 0 0.93 159 16:18 20.01.2020
4305 Clouds -8 1015 14 0 0.93 159 16:18 20.01.2020
4306 Clouds -8 1015 14 0 0.93 159 16:18 20.01.2020
4307 Clouds -8 1015 14 0 0.93 159 16:18 20.01.2020
4308 Clouds -8 1015 14 0 0.93 159 15:56 20.01.2020
4309 Clouds -8 1015 14 0 0.93 159 15:38 20.01.2020
4310 Clouds -8 1015 14 0 0.93 159 15:20 20.01.2020
4311 Clouds -8 1015 14 0 0.93 159 14:41 20.01.2020
4312 Clouds -8 1015 14 0 0.93 159 14:22 20.01.2020
4313 Clear -8 1012 12 0 1.25 284 13:58 20.01.2020
4314 Clear -8 1012 12 0 1.25 284 13:40 20.01.2020
4315 Clouds -6 1011 11 0 3.9 285 13:21 20.01.2020
4316 Clouds -6 1011 11 0 3.9 285 12:46 20.01.2020
4317 Clouds -6 1011 11 0 3.9 285 12:28 20.01.2020
4318 Clouds -6 1011 11 0 3.9 285 11:58 20.01.2020
4319 Clouds -6 1011 11 0 3.9 285 11:39 20.01.2020
4320 Clear -1 1008 6 0 5.35 247 11:20 20.01.2020
4321 Clear -1 1008 6 0 5.35 247 10:48 20.01.2020
4322 Clear -1 1008 6 0 5.35 247 10:22 20.01.2020
4323 Clear -1 1008 6 0 5.35 247 09:57 20.01.2020
4324 Clear -1 1008 6 0 5.35 247 09:39 20.01.2020
4325 Clear -1 1008 6 0 5.35 247 09:20 20.01.2020
4326 Clear -1 1008 6 0 5.35 247 08:44 20.01.2020
4327 Clear -1 1008 6 0 5.35 247 08:26 20.01.2020
4328 Clear -3 1012 12 0 3.42 211 07:45 20.01.2020
4329 Clear -3 1012 12 0 3.42 211 07:25 20.01.2020
4330 Clear -3 1012 12 0 3.42 211 06:54 20.01.2020
4331 Clear -3 1012 12 0 3.42 211 06:28 20.01.2020
4332 Clear -3 1012 12 0 3.42 211 05:43 20.01.2020
4333 Clear -3 1012 12 0 3.42 211 05:22 20.01.2020
4334 Clear -7 1018 38 0 1.92 194 04:47 20.01.2020
4335 Clear -7 1018 38 0 1.92 194 02:58 20.01.2020
4336 Clear -14 1019 66 0 1.18 156 01:55 20.01.2020
4337 Clear -14 1019 66 0 1.18 156 01:37 20.01.2020
4338 Clear -14 1019 63 0 1.18 162 00:45 20.01.2020
4339 Clear -14 1019 63 0 1.18 162 00:24 20.01.2020
4340 Clear -14 1019 63 0 1.18 162 23:39 19.01.2020
4341 Clear -13 1017 59 0 1.12 149 23:20 19.01.2020
4342 Clear -13 1017 59 0 1.12 149 22:57 19.01.2020
4343 Clear -13 1017 59 0 1.12 149 22:39 19.01.2020
4344 Clear -13 1017 59 0 1.12 149 22:20 19.01.2020
4345 Clear -13 1017 59 0 1.12 149 21:57 19.01.2020
4346 Clear -13 1017 59 0 1.12 149 21:39 19.01.2020
4347 Clear -13 1017 59 0 1.12 149 21:20 19.01.2020
4348 Clear -13 1017 59 0 1.12 149 20:57 19.01.2020
4349 Clear -13 1017 59 0 1.12 149 20:39 19.01.2020
4350 Clear -11 1016 44 0 1.35 163 20:21 19.01.2020
4351 Clear -11 1016 44 0 1.35 163 19:57 19.01.2020
4352 Clear -11 1016 44 0 1.35 163 19:39 19.01.2020
4353 Clear -11 1016 44 0 1.35 163 19:21 19.01.2020
4354 Clear -11 1016 44 0 1.35 163 18:59 19.01.2020
4355 Clear -11 1016 44 0 1.35 163 18:41 19.01.2020
4356 Clear -11 1016 44 0 1.35 163 18:21 19.01.2020
4357 Clear -11 1016 44 0 1.35 163 17:59 19.01.2020
4358 Clear -11 1016 44 0 1.35 163 17:40 19.01.2020
4359 Clear -9 1013 31 0 1.74 178 17:21 19.01.2020
4360 Clear -9 1013 31 0 1.74 178 16:59 19.01.2020
4361 Clear -9 1013 31 0 1.74 178 16:40 19.01.2020
4362 Clear -9 1013 31 0 1.74 178 16:21 19.01.2020
4363 Clear -9 1013 31 0 1.74 178 15:59 19.01.2020
4364 Clear -9 1013 31 0 1.74 178 15:39 19.01.2020
4365 Clear -9 1013 31 0 1.74 178 15:20 19.01.2020
4366 Clear -9 1013 31 0 1.74 178 14:59 19.01.2020
4367 Clear -9 1013 31 0 1.74 178 14:39 19.01.2020
4368 Clouds -5 1008 21 0 6.82 211 14:19 19.01.2020
4369 Clouds -5 1008 21 0 6.82 211 13:58 19.01.2020
4370 Clouds -5 1008 21 0 6.82 211 13:38 19.01.2020
4371 Clouds -5 1008 20 0 7.56 211 13:20 19.01.2020
4372 Clouds -5 1008 20 0 7.56 211 12:56 19.01.2020
4373 Clouds -5 1008 20 0 7.56 211 12:37 19.01.2020
4374 Clouds -5 1008 20 0 7.56 211 12:19 19.01.2020
4375 Clouds -5 1008 20 0 7.56 211 11:43 19.01.2020
4376 Clouds 0 1004 9 0 8.83 210 11:21 19.01.2020
4377 Clouds 0 1004 9 0 8.83 210 10:57 19.01.2020
4378 Clouds 0 1004 9 0 8.83 210 10:39 19.01.2020
4379 Clouds 0 1004 9 0 8.83 210 10:19 19.01.2020
4380 Clouds 0 1004 9 0 8.83 210 09:56 19.01.2020
4381 Clouds 0 1004 9 0 8.83 210 09:56 19.01.2020
4382 Clouds 0 1004 9 0 8.83 210 09:56 19.01.2020
4383 Clouds 0 1004 9 0 8.83 210 09:37 19.01.2020
4384 Clouds 0 1004 9 0 8.83 210 09:19 19.01.2020
4385 Clouds 0 1004 9 0 8.83 210 08:54 19.01.2020
4386 Clouds 0 1004 9 0 8.83 210 08:30 19.01.2020
4387 Clear -2 1008 18 0 2.47 147 07:46 19.01.2020
4388 Clear -2 1008 18 0 2.47 147 07:27 19.01.2020
4389 Clear -2 1008 18 0 2.47 147 06:54 19.01.2020
4390 Clear -2 1008 18 0 2.47 147 06:21 19.01.2020
4391 Clear -6 1016 43 0 2.85 163 03:51 19.01.2020
4392 Clear -6 1016 43 0 2.85 163 02:28 19.01.2020
4393 Clear -11 1019 77 0 1.98 140 01:38 19.01.2020
4394 Clear -11 1020 74 0 2.02 146 01:18 19.01.2020
4395 Clear -11 1020 74 0 2.02 146 01:18 19.01.2020
4396 Clear -11 1020 74 0 2.02 146 00:41 19.01.2020
4397 Clear -11 1020 74 0 2.02 146 00:41 19.01.2020
4398 Clear -11 1020 74 0 2.02 146 00:19 19.01.2020
4399 Clear -11 1020 74 0 2.02 146 23:42 18.01.2020
4400 Clear -11 1020 74 0 2.02 146 23:24 18.01.2020
4401 Clear -10 1018 70 0 2 136 22:58 18.01.2020
4402 Clear -10 1018 70 0 2 136 22:40 18.01.2020
4403 Clear -10 1018 70 0 2 136 22:21 18.01.2020
4404 Clear -10 1018 70 0 2 136 21:58 18.01.2020
4405 Clear -10 1018 70 0 2 136 21:38 18.01.2020
4406 Clear -10 1018 70 0 2 136 21:20 18.01.2020
4407 Clear -10 1018 70 0 2 136 20:55 18.01.2020
4408 Clear -10 1018 70 0 2 136 20:36 18.01.2020
4409 Clear -8 1017 57 0 2.32 139 20:18 18.01.2020
4410 Clear -8 1017 57 0 2.32 139 19:42 18.01.2020
4411 Clear -8 1017 57 0 2.32 139 19:24 18.01.2020
4412 Clear -8 1017 57 0 2.32 139 18:43 18.01.2020
4413 Clear -8 1017 57 0 2.32 139 18:24 18.01.2020
4414 Clear -8 1017 57 0 2.32 139 17:57 18.01.2020
4415 Clear -8 1017 57 0 2.32 139 17:39 18.01.2020
4416 Clear -6 1015 42 0 2.42 149 17:20 18.01.2020
4417 Clear -6 1015 42 0 2.42 149 16:56 18.01.2020
4418 Clear -6 1015 42 0 2.42 149 16:37 18.01.2020
4419 Clear -6 1015 42 0 2.42 149 16:19 18.01.2020
4420 Clear -6 1015 42 0 2.42 149 15:43 18.01.2020
4421 Clear -6 1015 42 0 2.42 149 15:24 18.01.2020
4422 Clear -6 1015 42 0 2.42 149 14:58 18.01.2020
4423 Clear -6 1015 42 0 2.42 149 14:39 18.01.2020
4424 Clear -2 1008 22 0 1.95 196 14:19 18.01.2020
4425 Clear -2 1008 22 0 1.95 196 13:45 18.01.2020
4426 Clear -2 1008 22 0 1.95 196 13:27 18.01.2020
4427 Clear -2 1009 23 0 1.65 188 12:59 18.01.2020
4428 Clear -2 1009 23 0 1.65 188 12:40 18.01.2020
4429 Clear -2 1009 23 0 1.65 188 12:21 18.01.2020
4430 Clear -2 1009 23 0 1.65 188 11:44 18.01.2020
4431 Clear -2 1009 23 0 1.65 188 11:24 18.01.2020
4432 Clouds 3 1005 21 0 1.89 111 10:58 18.01.2020
4433 Clouds 3 1005 21 0 1.89 111 10:39 18.01.2020
4434 Clouds 3 1005 21 0 1.89 111 10:20 18.01.2020
4435 Clouds 3 1005 21 0 1.89 111 10:20 18.01.2020
4436 Clouds 3 1005 21 0 1.89 111 10:20 18.01.2020
4437 Clouds 3 1005 21 0 1.89 111 09:49 18.01.2020
4438 Clouds 3 1005 21 0 1.89 111 09:31 18.01.2020
4439 Clouds 3 1005 21 0 1.89 111 08:57 18.01.2020
4440 Clouds 3 1005 21 0 1.89 111 08:39 18.01.2020
4441 Clouds 0 1010 33 0 2.86 177 08:19 18.01.2020
4442 Clouds 0 1010 33 0 2.86 177 07:52 18.01.2020
4443 Clouds 0 1010 33 0 2.86 177 07:32 18.01.2020
4444 Clouds 0 1010 33 0 2.86 177 06:48 18.01.2020
4445 Clouds 0 1010 33 0 2.86 177 06:18 18.01.2020
4446 Clouds 0 1010 33 0 2.86 177 05:25 18.01.2020
4447 Clouds -5 1017 51 0 2.29 170 03:25 18.01.2020
4448 Clouds -10 1016 77 0 1.73 153 01:59 18.01.2020
4449 Clouds -10 1016 77 0 1.73 153 01:35 18.01.2020
4450 Clouds -10 1018 76 0 1.75 132 00:37 18.01.2020
4451 Clouds -10 1018 76 0 1.75 132 00:19 18.01.2020
4452 Clouds -10 1018 76 0 1.75 132 23:44 17.01.2020
4453 Clear -9 1017 73 0 1.8 139 23:20 17.01.2020
4454 Clear -9 1017 73 0 1.8 139 22:59 17.01.2020
4455 Clear -9 1017 73 0 1.8 139 22:40 17.01.2020
4456 Clear -9 1017 73 0 1.8 139 22:18 17.01.2020
4457 Clear -9 1017 73 0 1.8 139 21:41 17.01.2020
4458 Clear -9 1017 73 0 1.8 139 21:22 17.01.2020
4459 Clear -9 1017 73 0 1.8 139 20:58 17.01.2020
4460 Clear -9 1017 73 0 1.8 139 20:40 17.01.2020
4461 Clear -7 1016 64 0 2.24 133 20:20 17.01.2020
4462 Clear -7 1016 64 0 2.24 133 19:57 17.01.2020
4463 Clear -7 1016 64 0 2.24 133 19:38 17.01.2020
4464 Clear -7 1016 64 0 2.24 133 19:19 17.01.2020
4465 Clear -7 1016 64 0 2.24 133 18:57 17.01.2020
4466 Clear -7 1016 64 0 2.24 133 18:36 17.01.2020
4467 Clear -7 1016 64 0 2.24 133 18:18 17.01.2020
4468 Clear -7 1016 64 0 2.24 133 17:39 17.01.2020
4469 Clouds -5 1015 49 0 2.96 126 17:21 17.01.2020
4470 Clouds -5 1015 49 0 2.96 126 16:44 17.01.2020
4471 Clouds -5 1015 49 0 2.96 126 16:21 17.01.2020
4472 Clouds -5 1015 49 0 2.96 126 15:58 17.01.2020
4473 Clouds -5 1015 49 0 2.96 126 15:58 17.01.2020
4474 Clouds -5 1015 49 0 2.96 126 15:40 17.01.2020
4475 Clouds -5 1015 49 0 2.96 126 15:22 17.01.2020
4476 Clouds -5 1015 49 0 2.96 126 14:43 17.01.2020
4477 Clouds -5 1015 49 0 2.96 126 14:25 17.01.2020
4478 Clouds -1 1011 27 0 3.56 199 13:46 17.01.2020
4479 Clear -3 1011 33 0 1.55 181 13:23 17.01.2020
4480 Clear -3 1011 33 0 1.55 181 12:56 17.01.2020
4481 Clear -3 1011 33 0 1.55 181 12:37 17.01.2020
4482 Clear -3 1011 33 0 1.55 181 12:18 17.01.2020
4483 Clear -3 1011 33 0 1.55 181 11:37 17.01.2020
4484 Clear 3 1007 24 0 0.56 133 11:18 17.01.2020
4485 Clear 3 1007 24 0 0.56 133 10:42 17.01.2020
4486 Clear 3 1007 24 0 0.56 133 10:22 17.01.2020
4487 Clear 3 1007 24 0 0.56 133 09:57 17.01.2020
4488 Clear 3 1007 24 0 0.56 133 09:37 17.01.2020
4489 Clear 3 1007 24 0 0.56 133 09:18 17.01.2020
4490 Clear 3 1007 24 0 0.56 133 08:42 17.01.2020
4491 Clear 3 1007 24 0 0.56 133 08:24 17.01.2020
4492 Clear 1 1011 29 0 2.23 164 07:53 17.01.2020
4493 Clear 1 1011 29 0 2.23 164 07:31 17.01.2020
4494 Clear 1 1011 29 0 2.23 164 06:57 17.01.2020
4495 Clear 1 1011 29 0 2.23 164 06:38 17.01.2020
4496 Clear 1 1011 29 0 2.23 164 05:38 17.01.2020
4497 Clear -5 1018 56 0 2.07 172 03:39 17.01.2020
4498 Clear -5 1018 56 0 2.07 172 02:47 17.01.2020
4499 Clear -10 1018 81 0 1.72 138 01:47 17.01.2020
4500 Clear -10 1019 81 0 1.81 129 01:28 17.01.2020
4501 Clear -10 1019 81 0 1.81 129 00:48 17.01.2020
4502 Clear -10 1019 81 0 1.81 129 00:23 17.01.2020
4503 Clear -10 1019 81 0 1.81 129 23:44 16.01.2020
4504 Clear -10 1019 81 0 1.81 129 23:25 16.01.2020
4505 Clear -8 1017 74 0 2.22 134 22:56 16.01.2020
4506 Clear -8 1017 74 0 2.22 134 22:38 16.01.2020
4507 Clear -8 1017 74 0 2.22 134 22:19 16.01.2020
4508 Clear -8 1017 74 0 2.22 134 21:54 16.01.2020
4509 Clear -8 1017 74 0 2.22 134 21:36 16.01.2020
4510 Clear -8 1017 74 0 2.22 134 21:18 16.01.2020
4511 Clear -8 1017 74 0 2.22 134 20:40 16.01.2020
4512 Clear -6 1015 55 0 2.56 141 20:21 16.01.2020
4513 Clear -6 1015 55 0 2.56 141 19:58 16.01.2020
4514 Clear -6 1015 55 0 2.56 141 19:40 16.01.2020
4515 Clear -6 1015 55 0 2.56 141 19:22 16.01.2020
4516 Clear -6 1015 55 0 2.56 141 18:57 16.01.2020
4517 Clear -6 1015 55 0 2.56 141 18:38 16.01.2020
4518 Clear -6 1015 55 0 2.56 141 18:19 16.01.2020
4519 Clear -6 1015 55 0 2.56 141 17:58 16.01.2020
4520 Clear -6 1015 55 0 2.56 141 17:39 16.01.2020
4521 Clear -3 1014 36 0 2.87 143 17:20 16.01.2020
4522 Clear -3 1014 36 0 2.87 143 16:42 16.01.2020
4523 Clear -3 1014 36 0 2.87 143 16:24 16.01.2020
4524 Clear -3 1014 36 0 2.87 143 15:59 16.01.2020
4525 Clear -3 1014 36 0 2.87 143 15:39 16.01.2020
4526 Clear -3 1014 36 0 2.87 143 15:20 16.01.2020
4527 Clear -3 1014 36 0 2.87 143 14:45 16.01.2020
4528 Clear -3 1014 36 0 2.87 143 14:24 16.01.2020
4529 Clear -2 1009 38 0 1.09 138 13:56 16.01.2020
4530 Clear -2 1009 38 0 1.09 138 13:37 16.01.2020
4531 Clear -2 1009 38 0 1.09 138 13:19 16.01.2020
4532 Clear -2 1009 38 0 0.99 101 12:42 16.01.2020
4533 Clear -2 1009 38 0 0.99 101 12:22 16.01.2020
4534 Clear -2 1009 38 0 0.99 101 11:43 16.01.2020
4535 Clear -2 1009 38 0 0.99 101 11:43 16.01.2020
4536 Clear -2 1009 38 0 0.99 101 11:24 16.01.2020
4537 Clear 6 1004 20 0 0.77 99 10:59 16.01.2020
4538 Clear 6 1004 20 0 0.77 99 10:38 16.01.2020
4539 Clear 6 1004 20 0 0.77 99 10:20 16.01.2020
4540 Clear 6 1004 20 0 0.77 99 09:56 16.01.2020
4541 Clear 6 1004 20 0 0.77 99 09:37 16.01.2020
4542 Clear 6 1004 20 0 0.77 99 09:19 16.01.2020
4543 Clear 6 1004 20 0 0.77 99 08:48 16.01.2020
4544 Clear 6 1004 16 0 1.24 179 08:29 16.01.2020
4545 Clear 2 1008 27 0 2.11 195 07:57 16.01.2020
4546 Clear 2 1008 27 0 2.11 195 07:37 16.01.2020
4547 Clear 2 1008 27 0 2.11 195 07:18 16.01.2020
4548 Clear 2 1008 27 0 2.11 195 06:42 16.01.2020
4549 Clear 2 1008 27 0 2.11 195 05:58 16.01.2020
4550 Clear 2 1008 27 0 2.11 195 05:40 16.01.2020
4551 Clear -3 1017 44 0 1.73 185 04:37 16.01.2020
4552 Clear -3 1017 44 0 1.73 185 04:37 16.01.2020
4553 Clear -3 1017 44 0 1.73 185 03:28 16.01.2020
4554 Clear -3 1017 44 0 1.73 185 02:42 16.01.2020
4555 Clear -10 1017 72 0 1.57 129 00:53 16.01.2020
4556 Clear -10 1017 72 0 1.57 129 00:24 16.01.2020
4557 Clear -10 1017 72 0 1.57 129 23:48 15.01.2020
4558 Clear -10 1017 72 0 1.57 129 23:23 15.01.2020
4559 Clear -10 1017 72 0 1.57 129 23:23 15.01.2020
4560 Clear -8 1017 53 0 1.9 139 22:58 15.01.2020
4561 Clear -8 1017 53 0 1.9 139 22:40 15.01.2020
4562 Clear -8 1017 53 0 1.9 139 22:19 15.01.2020
4563 Clear -8 1017 53 0 1.9 139 21:58 15.01.2020
4564 Clear -8 1017 53 0 1.9 139 21:39 15.01.2020
4565 Clear -8 1017 53 0 1.9 139 21:20 15.01.2020
4566 Clear -8 1017 53 0 1.9 139 20:58 15.01.2020
4567 Clear -8 1017 53 0 1.9 139 20:58 15.01.2020
4568 Clear -8 1017 53 0 1.9 139 20:40 15.01.2020
4569 Clear -6 1016 44 0 1.78 149 20:21 15.01.2020
4570 Clear -6 1016 44 0 1.78 149 19:55 15.01.2020
4571 Clear -6 1016 44 0 1.78 149 19:37 15.01.2020
4572 Clear -6 1016 44 0 1.78 149 19:19 15.01.2020
4573 Clear -6 1016 44 0 1.78 149 18:57 15.01.2020
4574 Clear -6 1016 44 0 1.78 149 18:57 15.01.2020
4575 Clear -6 1016 44 0 1.78 149 18:38 15.01.2020
4576 Clear -6 1016 44 0 1.78 149 18:20 15.01.2020
4577 Clear -6 1016 44 0 1.78 149 18:20 15.01.2020
4578 Clear -6 1016 44 0 1.78 149 17:58 15.01.2020
4579 Clear -6 1016 44 0 1.78 149 17:40 15.01.2020
4580 Clear -4 1015 30 0 1.33 175 17:21 15.01.2020
4581 Clear -4 1015 30 0 1.33 175 16:42 15.01.2020
4582 Clear -4 1015 30 0 1.33 175 16:24 15.01.2020
4583 Clear -4 1015 30 0 1.33 175 15:59 15.01.2020
4584 Clear -4 1015 30 0 1.33 175 15:41 15.01.2020
4585 Clear -4 1015 30 0 1.33 175 15:20 15.01.2020
4586 Clear -4 1015 30 0 1.33 175 14:45 15.01.2020
4587 Clear -3 1011 24 0 1.39 232 14:21 15.01.2020
4588 Clear -3 1011 24 0 1.39 232 13:58 15.01.2020
4589 Clear -3 1011 24 0 1.39 232 13:40 15.01.2020
4590 Clear -3 1011 24 0 1.39 232 13:22 15.01.2020
4591 Clear -3 1011 27 0 1.09 226 12:55 15.01.2020
4592 Clear -3 1011 27 0 1.09 226 12:36 15.01.2020
4593 Clear -3 1011 27 0 1.09 226 12:18 15.01.2020
4594 Clear -3 1011 27 0 1.09 226 11:38 15.01.2020
4595 Clear 6 1007 15 0 2.13 215 11:20 15.01.2020
4596 Clear 6 1007 15 0 2.13 215 10:48 15.01.2020
4597 Clear 6 1007 15 0 2.13 215 10:29 15.01.2020
4598 Clear 6 1007 15 0 2.13 215 09:59 15.01.2020
4599 Clear 6 1007 15 0 2.13 215 09:41 15.01.2020
4600 Clear 6 1007 15 0 2.13 215 09:21 15.01.2020
4601 Clear 6 1007 15 0 2.13 215 08:44 15.01.2020
4602 Clear 6 1007 15 0 2.13 215 08:44 15.01.2020
4603 Clear 6 1007 16 0 2.73 189 08:26 15.01.2020
4604 Clear 3 1010 27 0 2.7 196 07:54 15.01.2020
4605 Clear 3 1010 27 0 2.7 196 07:33 15.01.2020
4606 Clear 3 1010 27 0 2.7 196 06:54 15.01.2020
4607 Clear 3 1010 27 0 2.7 196 06:28 15.01.2020
4608 Clear 3 1010 27 0 2.7 196 05:32 15.01.2020
4609 Clear -3 1017 43 0 1.73 168 03:20 15.01.2020
4610 Clear -9 1016 68 0 1.46 139 01:48 15.01.2020
4611 Clear -9 1016 69 0 1.61 142 01:22 15.01.2020
4612 Clear -9 1016 69 0 1.61 142 00:37 15.01.2020
4613 Clear -9 1016 69 0 1.61 142 00:19 15.01.2020
4614 Clear -9 1016 69 0 1.61 142 23:46 14.01.2020
4615 Clear -9 1016 69 0 1.61 142 23:28 14.01.2020
4616 Clear -7 1016 53 0 1.66 134 22:57 14.01.2020
4617 Clear -7 1016 53 0 1.66 134 22:39 14.01.2020
4618 Clear -7 1016 53 0 1.66 134 22:18 14.01.2020
4619 Clear -7 1016 53 0 1.66 134 21:57 14.01.2020
4620 Clear -7 1016 53 0 1.66 134 21:38 14.01.2020
4621 Clear -7 1016 53 0 1.66 134 21:19 14.01.2020
4622 Clear -7 1016 53 0 1.66 134 20:42 14.01.2020
4623 Clear -7 1016 53 0 1.66 134 20:23 14.01.2020
4624 Clear -6 1015 44 0 1.64 154 19:57 14.01.2020
4625 Clear -6 1015 44 0 1.64 154 19:39 14.01.2020
4626 Clear -6 1015 44 0 1.64 154 19:21 14.01.2020
4627 Clear -6 1015 44 0 1.64 154 18:59 14.01.2020
4628 Clear -6 1015 44 0 1.64 154 18:40 14.01.2020
4629 Clear -6 1015 44 0 1.64 154 18:20 14.01.2020
4630 Clear -6 1015 44 0 1.64 154 17:55 14.01.2020
4631 Clear -6 1015 44 0 1.64 154 17:36 14.01.2020
4632 Clear -4 1014 32 0 1.86 158 17:18 14.01.2020
4633 Clear -4 1014 32 0 1.86 158 16:42 14.01.2020
4634 Clear -4 1014 32 0 1.86 158 16:22 14.01.2020
4635 Clear -4 1014 32 0 1.86 158 15:56 14.01.2020
4636 Clear -4 1014 32 0 1.86 158 15:38 14.01.2020
4637 Clear -4 1014 32 0 1.86 158 15:19 14.01.2020
4638 Clear -4 1014 32 0 1.86 158 14:43 14.01.2020
4639 Clear -2 1009 15 0 2.26 299 14:20 14.01.2020
4640 Clear -2 1009 15 0 2.26 299 13:55 14.01.2020
4641 Clear -2 1009 15 0 2.26 299 13:37 14.01.2020
4642 Clear -1 1009 16 0 2.46 304 13:18 14.01.2020
4643 Clear -1 1009 16 0 2.46 304 12:41 14.01.2020
4644 Clear -1 1009 16 0 2.46 304 12:20 14.01.2020
4645 Clear -1 1009 16 0 2.46 304 11:43 14.01.2020
4646 Clear -1 1009 16 0 2.46 304 11:23 14.01.2020
4647 Clear 9 1004 6 0 4.08 244 10:59 14.01.2020
4648 Clear 9 1004 6 0 4.08 244 10:40 14.01.2020
4649 Clear 9 1004 6 0 4.08 244 10:20 14.01.2020
4650 Clear 9 1004 6 0 4.08 244 09:58 14.01.2020
4651 Clear 9 1004 6 0 4.08 244 09:40 14.01.2020
4652 Clear 9 1004 6 0 4.08 244 09:20 14.01.2020
4653 Clear 9 1004 6 0 4.08 244 08:48 14.01.2020
4654 Clear 9 1004 6 0 4.08 244 08:25 14.01.2020
4655 Clear 5 1008 22 0 2.79 197 07:56 14.01.2020
4656 Clear 5 1008 22 0 2.79 197 07:33 14.01.2020
4657 Clear 5 1008 22 0 2.79 197 06:56 14.01.2020
4658 Clear 5 1008 22 0 2.79 197 06:34 14.01.2020
4659 Clear 5 1008 22 0 2.79 197 05:28 14.01.2020
4660 Clear -1 1015 31 0 1.69 168 03:52 14.01.2020
4661 Clear -1 1015 31 0 1.69 168 03:52 14.01.2020
4662 Clear -1 1015 31 0 1.69 168 02:50 14.01.2020
4663 Clear -8 1015 52 0 1.89 143 01:58 14.01.2020
4664 Clear -8 1015 49 0 1.83 139 00:53 14.01.2020
4665 Clear -8 1015 49 0 1.83 139 00:35 14.01.2020
4666 Clear -8 1015 49 0 1.83 139 23:56 13.01.2020
4667 Clear -8 1015 49 0 1.83 139 23:37 13.01.2020
4668 Clear -6 1015 41 0 1.97 151 23:18 13.01.2020
4669 Clear -6 1015 41 0 1.97 151 22:43 13.01.2020
4670 Clear -6 1015 41 0 1.97 151 22:22 13.01.2020
4671 Clear -6 1015 41 0 1.97 151 22:22 13.01.2020
4672 Clear -6 1015 41 0 1.97 151 21:58 13.01.2020
4673 Clear -6 1015 41 0 1.97 151 21:38 13.01.2020
4674 Clear -6 1015 41 0 1.97 151 21:19 13.01.2020
4675 Clear -6 1015 41 0 1.97 151 20:59 13.01.2020
4676 Clear -6 1015 41 0 1.97 151 20:59 13.01.2020
4677 Clear -6 1015 41 0 1.97 151 20:41 13.01.2020
4678 Clear -6 1015 41 0 1.97 151 20:22 13.01.2020
4679 Clear -6 1015 41 0 1.97 151 20:22 13.01.2020
4680 Clear -7 1014 38 0 1.66 138 20:22 13.01.2020
4681 Clear -5 1013 33 0 1.59 101 19:59 13.01.2020
4682 Clear -5 1013 33 0 1.59 101 19:40 13.01.2020
4683 Clear -5 1013 33 0 1.59 101 19:20 13.01.2020
4684 Clear -5 1013 33 0 1.59 101 18:57 13.01.2020
4685 Clear -5 1013 33 0 1.59 101 18:37 13.01.2020
4686 Clear -5 1013 33 0 1.59 101 18:19 13.01.2020
4687 Clear -5 1013 33 0 1.59 101 17:55 13.01.2020
4688 Clear -5 1013 33 0 1.59 101 17:36 13.01.2020
4689 Clear -5 1013 33 0 1.59 101 17:36 13.01.2020
4690 Clear -4 1013 26 0 0.91 144 17:18 13.01.2020
4691 Clear -4 1013 26 0 0.91 144 16:40 13.01.2020
4692 Clear -4 1013 26 0 0.91 144 16:40 13.01.2020
4693 Clear -4 1013 26 0 0.91 144 16:21 13.01.2020
4694 Clear -4 1013 26 0 0.91 144 15:54 13.01.2020
4695 Clear -4 1013 26 0 0.91 144 15:36 13.01.2020
4696 Clear -4 1013 26 0 0.91 144 15:18 13.01.2020
4697 Clear -4 1013 26 0 0.91 144 14:42 13.01.2020
4698 Clear -4 1013 26 0 0.91 144 14:23 13.01.2020
4699 Clear -2 1009 20 0 1.28 170 13:57 13.01.2020
4700 Clear -2 1009 20 0 1.28 170 13:39 13.01.2020
4701 Clear -2 1009 21 0 1.2 178 13:21 13.01.2020
4702 Clear -2 1009 21 0 1.2 178 12:54 13.01.2020
4703 Clear -2 1009 21 0 1.2 178 12:36 13.01.2020
4704 Clear -2 1009 21 0 1.2 178 12:18 13.01.2020
4705 Clear -2 1009 21 0 1.2 178 11:39 13.01.2020
4706 Clear 8 1005 8 0 0.53 180 11:19 13.01.2020
4707 Clear 8 1005 8 0 0.53 180 10:57 13.01.2020
4708 Clear 8 1005 8 0 0.53 180 10:38 13.01.2020
4709 Clear 8 1005 8 0 0.53 180 10:20 13.01.2020
4710 Clear 8 1005 8 0 0.53 180 10:20 13.01.2020
4711 Clear 8 1005 8 0 0.53 180 09:56 13.01.2020
4712 Clear 8 1005 8 0 0.53 180 09:38 13.01.2020
4713 Clear 8 1005 8 0 0.53 180 09:19 13.01.2020
4714 Clear 8 1005 8 0 0.53 180 08:39 13.01.2020
4715 Clouds 4 1011 10 0 0.49 231 08:20 13.01.2020
4716 Clouds 4 1011 10 0 0.49 231 07:46 13.01.2020
4717 Clouds 4 1011 10 0 0.49 231 07:27 13.01.2020
4718 Clouds 4 1011 10 0 0.49 231 06:40 13.01.2020
4719 Clouds 4 1011 10 0 0.49 231 06:19 13.01.2020
4720 Clouds -1 1017 14 0 0.69 56 05:22 13.01.2020
4721 Clouds -1 1017 14 0 0.69 56 03:52 13.01.2020
4722 Clouds -1 1017 14 0 0.69 56 03:22 13.01.2020
4723 Clouds -1 1017 14 0 0.69 56 02:39 13.01.2020
4724 Clear -11 1016 48 0 0.98 29 02:18 13.01.2020
4725 Clear -11 1016 49 0 1.04 40 00:59 13.01.2020
4726 Clear -11 1016 49 0 1.04 40 00:40 13.01.2020
4727 Clear -11 1016 49 0 1.04 40 00:21 13.01.2020
4728 Clear -11 1016 49 0 1.04 40 23:42 12.01.2020
4729 Clear -11 1016 49 0 1.04 40 23:23 12.01.2020
4730 Clouds -9 1017 41 0 1.09 25 22:57 12.01.2020
4731 Clouds -9 1017 41 0 1.09 25 22:39 12.01.2020
4732 Clouds -9 1017 41 0 1.09 25 22:21 12.01.2020
4733 Clouds -9 1017 41 0 1.09 25 21:55 12.01.2020
4734 Clouds -9 1017 41 0 1.09 25 21:55 12.01.2020
4735 Clouds -9 1017 41 0 1.09 25 21:37 12.01.2020
4736 Clouds -9 1017 41 0 1.09 25 21:19 12.01.2020
4737 Clouds -9 1017 41 0 1.09 25 20:56 12.01.2020
4738 Clouds -9 1017 41 0 1.09 25 20:37 12.01.2020
4739 Clouds -8 1018 41 0 0.94 16 20:19 12.01.2020
4740 Clouds -8 1017 41 0 0.63 20 19:55 12.01.2020
4741 Clouds -8 1017 41 0 0.63 20 19:37 12.01.2020
4742 Clouds -8 1017 41 0 0.63 20 19:18 12.01.2020
4743 Clouds -8 1017 41 0 0.63 20 18:56 12.01.2020
4744 Clouds -8 1017 41 0 0.63 20 18:38 12.01.2020
4745 Clouds -8 1017 41 0 0.63 20 18:19 12.01.2020
4746 Clouds -8 1017 41 0 0.63 20 17:42 12.01.2020
4747 Clouds -6 1018 21 0 0.75 21 17:21 12.01.2020
4748 Clouds -6 1018 21 0 0.75 21 16:58 12.01.2020
4749 Clouds -6 1018 21 0 0.75 21 16:39 12.01.2020
4750 Clouds -6 1018 21 0 0.75 21 16:20 12.01.2020
4751 Clouds -6 1018 21 0 0.75 21 15:56 12.01.2020
4752 Clouds -6 1018 21 0 0.75 21 15:38 12.01.2020
4753 Clouds -6 1018 21 0 0.75 21 15:20 12.01.2020
4754 Clouds -6 1018 21 0 0.75 21 14:42 12.01.2020
4755 Clouds -6 1018 21 0 0.75 21 14:23 12.01.2020
4756 Clouds -5 1016 19 0 0.28 301 13:57 12.01.2020
4757 Clouds -5 1016 19 0 0.28 301 13:39 12.01.2020
4758 Clouds -5 1015 19 0 0.19 295 13:20 12.01.2020
4759 Clouds -5 1015 19 0 0.19 295 12:56 12.01.2020
4760 Clouds -5 1015 19 0 0.19 295 12:37 12.01.2020
4761 Clouds -5 1015 19 0 0.19 295 12:19 12.01.2020
4762 Clouds -5 1015 19 0 0.19 295 11:42 12.01.2020
4763 Clouds -5 1015 19 0 0.19 295 11:22 12.01.2020
4764 Clear 5 1011 9 0 0.41 223 10:56 12.01.2020
4765 Clear 5 1011 9 0 0.41 223 10:37 12.01.2020
4766 Clear 5 1011 9 0 0.41 223 10:19 12.01.2020
4767 Clear 5 1011 9 0 0.41 223 09:42 12.01.2020
4768 Clear 5 1011 9 0 0.41 223 09:23 12.01.2020
4769 Clear 5 1011 9 0 0.41 223 08:48 12.01.2020
4770 Clear 4 1012 8 0 0.52 193 08:24 12.01.2020
4771 Clear 1 1017 9 0 0.99 203 07:49 12.01.2020
4772 Clear 1 1017 9 0 0.99 203 07:30 12.01.2020
4773 Clear 1 1017 9 0 0.99 203 07:00 12.01.2020
4774 Clear 1 1017 9 0 0.99 203 06:38 12.01.2020
4775 Clear 1 1017 9 0 0.99 203 05:55 12.01.2020
4776 Clear -5 1025 15 0 0.76 28 04:56 12.01.2020
4777 Clear -5 1025 15 0 0.76 28 03:43 12.01.2020
4778 Clear -5 1025 15 0 0.76 28 02:48 12.01.2020
4779 Clear -5 1025 15 0 0.76 28 02:24 12.01.2020
4780 Clear -13 1026 43 0 1.46 37 01:34 12.01.2020
4781 Clear -13 1026 43 0 1.46 37 00:46 12.01.2020
4782 Clear -13 1026 43 0 1.46 37 00:22 12.01.2020
4783 Clear -13 1026 43 0 1.46 37 23:57 11.01.2020
4784 Clear -13 1026 43 0 1.46 37 23:39 11.01.2020
4785 Clear -11 1026 33 0 1.84 5 23:18 11.01.2020
4786 Clear -11 1026 33 0 1.84 5 22:56 11.01.2020
4787 Clear -11 1026 33 0 1.84 5 22:37 11.01.2020
4788 Clear -11 1026 33 0 1.84 5 22:19 11.01.2020
4789 Clear -11 1026 33 0 1.84 5 21:44 11.01.2020
4790 Clear -11 1026 33 0 1.84 5 21:19 11.01.2020
4791 Clear -11 1026 33 0 1.84 5 20:57 11.01.2020
4792 Clear -11 1026 33 0 1.84 5 20:39 11.01.2020
4793 Clear -10 1024 24 0 1.57 346 20:19 11.01.2020
4794 Clear -10 1024 24 0 1.57 346 19:57 11.01.2020
4795 Clear -10 1024 24 0 1.57 346 19:38 11.01.2020
4796 Clear -10 1024 24 0 1.57 346 19:38 11.01.2020
4797 Clear -10 1024 24 0 1.57 346 19:20 11.01.2020
4798 Clear -10 1024 24 0 1.57 346 18:55 11.01.2020
4799 Clear -10 1024 24 0 1.57 346 18:37 11.01.2020
4800 Clear -10 1024 24 0 1.57 346 18:18 11.01.2020
4801 Clear -10 1024 24 0 1.57 346 17:57 11.01.2020
4802 Clear -10 1024 24 0 1.57 346 17:39 11.01.2020
4803 Clear -8 1024 19 0 1.88 306 17:18 11.01.2020
4804 Clear -8 1024 19 0 1.88 306 16:44 11.01.2020
4805 Clear -8 1024 19 0 1.88 306 16:25 11.01.2020
4806 Clear -8 1024 19 0 1.88 306 15:56 11.01.2020
4807 Clear -8 1024 19 0 1.88 306 15:38 11.01.2020
4808 Clear -8 1024 19 0 1.88 306 15:20 11.01.2020
4809 Clear -8 1024 19 0 1.88 306 14:46 11.01.2020
4810 Clear -8 1024 19 0 1.88 306 14:46 11.01.2020
4811 Clear -8 1024 19 0 1.88 306 14:25 11.01.2020
4812 Clear -8 1024 19 0 1.88 306 14:25 11.01.2020
4813 Clouds -6 1020 15 0 1.77 289 13:58 11.01.2020
4814 Clouds -6 1020 15 0 1.77 289 13:38 11.01.2020
4815 Clouds -6 1020 15 0 1.69 302 13:20 11.01.2020
4816 Clouds -6 1020 15 0 1.69 302 12:56 11.01.2020
4817 Clouds -6 1020 15 0 1.69 302 12:37 11.01.2020
4818 Clouds -6 1020 15 0 1.69 302 12:19 11.01.2020
4819 Clouds -6 1020 15 0 1.69 302 11:42 11.01.2020
4820 Clouds -6 1020 15 0 1.69 302 11:24 11.01.2020
4821 Clear 2 1016 6 0 7.54 287 10:50 11.01.2020
4822 Clear 2 1016 6 0 7.54 287 10:30 11.01.2020
4823 Clear 2 1016 6 0 7.54 287 09:44 11.01.2020
4824 Clear 2 1016 6 0 7.54 287 09:21 11.01.2020
4825 Clear 2 1016 6 0 7.54 287 09:21 11.01.2020
4826 Clear 2 1016 6 0 7.54 287 08:59 11.01.2020
4827 Clear 2 1016 6 0 7.54 287 08:40 11.01.2020
4828 Clear -4 1020 15 0 1.06 141 08:19 11.01.2020
4829 Clear -4 1020 15 0 1.06 141 07:43 11.01.2020
4830 Clear -4 1020 15 0 1.06 141 07:24 11.01.2020
4831 Clear -4 1020 15 0 1.06 141 06:43 11.01.2020
4832 Clear -4 1020 15 0 1.06 141 05:31 11.01.2020
4833 Clear -10 1028 29 0 1.34 33 04:43 11.01.2020
4834 Clear -10 1028 29 0 1.34 33 04:25 11.01.2020
4835 Clear -10 1028 29 0 1.34 33 02:48 11.01.2020
4836 Clear -16 1029 51 0 1.73 35 01:48 11.01.2020
4837 Clear -16 1029 51 0 1.73 35 01:30 11.01.2020
4838 Clear -16 1030 53 0 1.63 35 00:58 11.01.2020
4839 Clear -16 1030 53 0 1.63 35 00:29 11.01.2020
4840 Clear -16 1030 53 0 1.63 35 23:59 10.01.2020
4841 Clear -16 1030 53 0 1.63 35 23:39 10.01.2020
4842 Clear -14 1029 50 0 2.02 39 23:20 10.01.2020
4843 Clear -14 1029 50 0 2.02 39 22:54 10.01.2020
4844 Clear -14 1029 50 0 2.02 39 22:36 10.01.2020
4845 Clear -14 1029 50 0 2.02 39 22:18 10.01.2020
4846 Clear -14 1029 50 0 2.02 39 21:41 10.01.2020
4847 Clear -14 1029 50 0 2.02 39 21:21 10.01.2020
4848 Clear -14 1029 50 0 2.02 39 20:59 10.01.2020
4849 Clear -14 1029 50 0 2.02 39 20:41 10.01.2020
4850 Clear -14 1028 51 0 2.04 38 20:23 10.01.2020
4851 Clear -13 1028 48 0 2.36 34 19:42 10.01.2020
4852 Clear -13 1028 48 0 2.36 34 19:21 10.01.2020
4853 Clear -13 1028 48 0 2.36 34 18:58 10.01.2020
4854 Clear -13 1028 48 0 2.36 34 18:40 10.01.2020
4855 Clear -13 1028 48 0 2.36 34 18:19 10.01.2020
4856 Clear -13 1028 48 0 2.36 34 17:57 10.01.2020
4857 Clear -13 1028 48 0 2.36 34 17:38 10.01.2020
4858 Clear -10 1028 42 0 3.04 38 17:20 10.01.2020
4859 Clear -10 1028 42 0 3.04 38 17:20 10.01.2020
4860 Clear -10 1028 42 0 3.04 38 16:55 10.01.2020
4861 Clear -10 1028 42 0 3.04 38 16:37 10.01.2020
4862 Clear -10 1028 42 0 3.04 38 16:19 10.01.2020
4863 Clear -10 1028 42 0 3.04 38 15:55 10.01.2020
4864 Clear -10 1028 42 0 3.04 38 15:36 10.01.2020
4865 Clear -10 1028 42 0 3.04 38 15:36 10.01.2020
4866 Clear -10 1028 42 0 3.04 38 15:18 10.01.2020
4867 Clear -10 1028 42 0 3.04 38 14:54 10.01.2020
4868 Clear -10 1028 42 0 3.04 38 14:36 10.01.2020
4869 Clouds -8 1022 25 0 2.3 58 14:18 10.01.2020
4870 Clouds -8 1022 25 0 2.3 58 13:41 10.01.2020
4871 Clouds -8 1023 23 0 2.1 65 13:23 10.01.2020
4872 Clouds -8 1023 23 0 2.1 65 12:58 10.01.2020
4873 Clouds -8 1023 23 0 2.1 65 12:38 10.01.2020
4874 Clouds -8 1023 23 0 2.1 65 12:19 10.01.2020
4875 Clouds -8 1023 23 0 2.1 65 11:55 10.01.2020
4876 Clouds -8 1023 23 0 2.1 65 11:37 10.01.2020
4877 Clouds -2 1017 11 0 0.7 64 11:18 10.01.2020
4878 Clouds -2 1017 11 0 0.7 64 10:43 10.01.2020
4879 Clouds -2 1017 11 0 0.7 64 10:24 10.01.2020
4880 Clouds -2 1017 11 0 0.7 64 09:56 10.01.2020
4881 Clouds -2 1017 11 0 0.7 64 09:38 10.01.2020
4882 Clouds -2 1017 11 0 0.7 64 09:20 10.01.2020
4883 Clouds -2 1017 11 0 0.7 64 08:42 10.01.2020
4884 Clouds -3 1017 15 0 1.52 94 08:23 10.01.2020
4885 Clouds -3 1017 15 0 1.52 94 08:23 10.01.2020
4886 Clouds -4 1020 24 0 1.61 52 07:46 10.01.2020
4887 Clouds -4 1020 24 0 1.61 52 07:26 10.01.2020
4888 Clouds -4 1020 24 0 1.61 52 06:50 10.01.2020
4889 Clouds -4 1020 24 0 1.61 52 06:26 10.01.2020
4890 Clouds -4 1020 24 0 1.61 52 05:51 10.01.2020
4891 Clouds -7 1025 42 0 0.86 42 03:45 10.01.2020
4892 Clouds -7 1025 42 0 0.86 42 03:22 10.01.2020
4893 Clouds -7 1025 42 0 0.86 42 02:49 10.01.2020
4894 Clear -13 1025 69 0 1.17 116 01:47 10.01.2020
4895 Clear -13 1025 69 0 1.17 116 01:28 10.01.2020
4896 Clear -13 1025 70 0 0.97 112 00:44 10.01.2020
4897 Clear -13 1025 70 0 0.97 112 23:58 09.01.2020
4898 Clear -13 1025 70 0 0.97 112 23:39 09.01.2020
4899 Clear -12 1021 65 0 1.7 136 23:20 09.01.2020
4900 Clear -12 1021 65 0 1.7 136 22:58 09.01.2020
4901 Clear -12 1021 65 0 1.7 136 22:39 09.01.2020
4902 Clear -12 1021 65 0 1.7 136 22:39 09.01.2020
4903 Clear -12 1021 65 0 1.7 136 22:19 09.01.2020
4904 Clear -12 1021 65 0 1.7 136 22:19 09.01.2020
4905 Clear -12 1021 65 0 1.7 136 21:57 09.01.2020
4906 Clear -12 1021 65 0 1.7 136 21:38 09.01.2020
4907 Clear -12 1021 65 0 1.7 136 21:19 09.01.2020
4908 Clear -12 1021 65 0 1.7 136 20:58 09.01.2020
4909 Clear -12 1021 65 0 1.7 136 20:39 09.01.2020
4910 Clear -10 1018 56 0 2.11 140 20:20 09.01.2020
4911 Clear -10 1018 56 0 2.11 140 19:58 09.01.2020
4912 Clear -10 1018 56 0 2.11 140 19:38 09.01.2020
4913 Clear -10 1018 56 0 2.11 140 19:19 09.01.2020
4914 Clear -10 1018 56 0 2.11 140 18:56 09.01.2020
4915 Clear -10 1018 56 0 2.11 140 18:37 09.01.2020
4916 Clear -10 1018 56 0 2.11 140 18:19 09.01.2020
4917 Clear -10 1018 56 0 2.11 140 17:41 09.01.2020
4918 Clear -10 1018 56 0 2.11 140 17:41 09.01.2020
4919 Clear -8 1015 46 0 2.45 155 17:19 09.01.2020
4920 Clear -8 1015 46 0 2.45 155 16:56 09.01.2020
4921 Clear -8 1015 46 0 2.45 155 16:36 09.01.2020
4922 Clear -8 1015 46 0 2.45 155 16:18 09.01.2020
4923 Clear -8 1015 46 0 2.45 155 15:41 09.01.2020
4924 Clear -8 1015 46 0 2.45 155 15:20 09.01.2020
4925 Clear -8 1015 46 0 2.45 155 14:55 09.01.2020
4926 Clear -8 1015 46 0 2.45 155 14:36 09.01.2020
4927 Clear -8 1015 46 0 2.45 155 14:36 09.01.2020
4928 Clouds -6 1009 30 0 1.63 263 14:18 09.01.2020
4929 Clouds -6 1009 30 0 1.63 263 13:54 09.01.2020
4930 Clouds -6 1009 30 0 1.63 263 13:36 09.01.2020
4931 Clouds -6 1009 30 0 1.41 257 13:18 09.01.2020
4932 Clouds -6 1009 30 0 1.41 257 12:41 09.01.2020
4933 Clouds -6 1009 30 0 1.41 257 12:22 09.01.2020
4934 Clouds -6 1009 30 0 1.41 257 11:59 09.01.2020
4935 Clouds -6 1009 30 0 1.41 257 11:41 09.01.2020
4936 Clouds -6 1009 30 0 1.41 257 11:22 09.01.2020
4937 Clouds 0 1004 18 0 2.47 180 10:55 09.01.2020
4938 -273 0 0 0 0 0 10:37 09.01.2020
4939 Clouds 0 1004 18 0 2.47 180 10:19 09.01.2020
4940 Clouds 0 1004 18 0 2.47 180 09:41 09.01.2020
4941 Clouds 0 1004 18 0 2.47 180 09:22 09.01.2020
4942 Clouds 0 1004 18 0 2.47 180 08:56 09.01.2020
4943 Clouds 0 1004 18 0 2.47 180 08:37 09.01.2020
4944 Clouds -2 1008 33 0 2.4 173 08:19 09.01.2020
4945 Clouds -2 1008 30 0 2.26 183 07:44 09.01.2020
4946 Clouds -2 1008 30 0 2.26 183 07:24 09.01.2020
4947 Clouds -2 1008 30 0 2.26 183 06:39 09.01.2020
4948 Clouds -2 1008 30 0 2.26 183 06:21 09.01.2020
4949 Clouds -2 1008 30 0 2.26 183 05:50 09.01.2020
4950 Clouds -8 1016 55 0 1.99 179 04:45 09.01.2020
4951 Clouds -8 1016 55 0 1.99 179 03:54 09.01.2020
4952 Clouds -8 1016 55 0 1.99 179 02:55 09.01.2020
4953 Clouds -8 1016 55 0 1.99 179 02:30 09.01.2020
4954 Clouds -12 1018 82 0 1.08 119 01:40 09.01.2020
4955 Clouds -12 1020 79 0 1.61 154 00:44 09.01.2020
4956 Clouds -12 1020 79 0 1.61 154 00:22 09.01.2020
4957 Clouds -12 1020 79 0 1.61 154 23:56 08.01.2020
4958 Clouds -12 1020 79 0 1.61 154 23:37 08.01.2020
4959 Clear -12 1019 84 0 1.94 135 23:19 08.01.2020
4960 Clear -12 1019 84 0 1.94 135 22:39 08.01.2020
4961 Clear -12 1019 84 0 1.94 135 22:21 08.01.2020
4962 Clear -12 1019 84 0 1.94 135 22:21 08.01.2020
4963 Clear -12 1019 84 0 1.94 135 21:58 08.01.2020
4964 Clear -12 1019 84 0 1.94 135 21:39 08.01.2020
4965 Clear -12 1019 84 0 1.94 135 21:20 08.01.2020
4966 Clear -12 1019 84 0 1.94 135 20:58 08.01.2020
4967 Clear -12 1019 84 0 1.94 135 20:40 08.01.2020
4968 Clouds -9 1018 78 0 2.54 142 20:20 08.01.2020
4969 Clouds -9 1018 78 0 2.54 142 19:57 08.01.2020
4970 Clouds -9 1018 78 0 2.54 142 19:37 08.01.2020
4971 Clouds -9 1018 78 0 2.54 142 19:19 08.01.2020
4972 Clouds -9 1018 78 0 2.54 142 18:56 08.01.2020
4973 Clouds -9 1018 78 0 2.54 142 18:37 08.01.2020
4974 Clouds -9 1018 78 0 2.54 142 18:18 08.01.2020
4975 Clouds -9 1018 78 0 2.54 142 17:56 08.01.2020
4976 Clouds -9 1018 78 0 2.54 142 17:37 08.01.2020
4977 Clouds -7 1017 57 0 2.64 122 17:18 08.01.2020
4978 Clouds -7 1017 57 0 2.64 122 16:54 08.01.2020
4979 Clouds -7 1017 57 0 2.64 122 16:36 08.01.2020
4980 Clouds -7 1017 57 0 2.64 122 16:18 08.01.2020
4981 Clouds -7 1017 57 0 2.64 122 15:41 08.01.2020
4982 Clouds -7 1017 57 0 2.64 122 15:21 08.01.2020
4983 Clouds -7 1017 57 0 2.64 122 14:57 08.01.2020
4984 Clouds -7 1017 57 0 2.64 122 14:39 08.01.2020
4985 Clouds -6 1012 39 0 1.04 310 14:20 08.01.2020
4986 Clouds -6 1012 39 0 1.04 310 13:40 08.01.2020
4987 Clouds -5 1012 34 0 1.36 137 13:19 08.01.2020
4988 Clouds -5 1012 34 0 1.36 137 12:42 08.01.2020
4989 Clouds -5 1012 34 0 1.36 137 12:19 08.01.2020
4990 Clouds -5 1012 34 0 1.36 137 11:55 08.01.2020
4991 Clouds -5 1012 34 0 1.36 137 11:37 08.01.2020
4992 Clouds 2 1008 16 0 3.83 197 11:19 08.01.2020
4993 Clouds 2 1008 16 0 3.83 197 10:55 08.01.2020
4994 Clouds 2 1008 16 0 3.83 197 10:37 08.01.2020
4995 Clouds 2 1008 16 0 3.83 197 10:18 08.01.2020
4996 Clouds 2 1008 16 0 3.83 197 09:41 08.01.2020
4997 Clouds 2 1008 16 0 3.83 197 09:19 08.01.2020
4998 Clouds 2 1008 16 0 3.83 197 08:57 08.01.2020
4999 Clouds 2 1008 16 0 3.83 197 08:37 08.01.2020
5000 Clear -2 1011 35 0 2.37 173 08:19 08.01.2020
5001 Clear -2 1011 35 0 2.37 173 07:49 08.01.2020
5002 Clear -2 1011 35 0 2.37 173 07:30 08.01.2020
5003 Clear -2 1011 35 0 2.37 173 06:48 08.01.2020
5004 Clear -2 1011 35 0 2.37 173 06:24 08.01.2020
5005 Clear -2 1011 35 0 2.37 173 05:41 08.01.2020
5006 Clear -7 1017 57 0 2.39 169 04:57 08.01.2020
5007 Clear -7 1017 57 0 2.39 169 04:25 08.01.2020
5008 Clear -7 1017 57 0 2.39 169 02:45 08.01.2020
5009 Clear -7 1017 57 0 2.39 169 02:22 08.01.2020
5010 Clouds -12 1019 83 0 2.12 128 01:48 08.01.2020
5011 Clouds -12 1019 83 0 2.12 128 01:23 08.01.2020
5012 Clouds -12 1019 87 0 1.87 131 00:38 08.01.2020
5013 Clouds -12 1019 87 0 1.87 131 00:20 08.01.2020
5014 Clouds -12 1019 87 0 1.87 131 23:43 07.01.2020
5015 Clear -10 1017 76 0 2.34 133 23:20 07.01.2020
5016 Clear -10 1017 76 0 2.34 133 22:40 07.01.2020
5017 Clear -10 1017 76 0 2.34 133 22:20 07.01.2020
5018 Clear -10 1017 76 0 2.34 133 21:57 07.01.2020
5019 Clear -10 1017 76 0 2.34 133 21:38 07.01.2020
5020 Clear -10 1017 76 0 2.34 133 21:20 07.01.2020
5021 Clear -10 1017 76 0 2.34 133 20:55 07.01.2020
5022 Clear -10 1017 76 0 2.34 133 20:37 07.01.2020
5023 Clouds -8 1017 50 0 2.18 133 20:19 07.01.2020
5024 Clouds -8 1017 50 0 2.18 133 19:38 07.01.2020
5025 Clouds -8 1017 50 0 2.18 133 19:20 07.01.2020
5026 Clouds -8 1017 50 0 2.18 133 18:58 07.01.2020
5027 Clouds -8 1017 50 0 2.18 133 18:40 07.01.2020
5028 Clouds -8 1017 50 0 2.18 133 18:19 07.01.2020
5029 Clouds -8 1017 50 0 2.18 133 17:59 07.01.2020
5030 Clouds -8 1017 50 0 2.18 133 17:39 07.01.2020
5031 Clouds -4 1016 25 0 0.73 179 17:21 07.01.2020
5032 Clouds -4 1016 25 0 0.73 179 16:57 07.01.2020
5033 Clouds -4 1016 25 0 0.73 179 16:38 07.01.2020
5034 Clouds -4 1016 25 0 0.73 179 16:19 07.01.2020
5035 Clouds -4 1016 25 0 0.73 179 15:58 07.01.2020
5036 Clouds -4 1016 25 0 0.73 179 15:39 07.01.2020
5037 Clouds -4 1016 25 0 0.73 179 15:21 07.01.2020
5038 Clouds -4 1016 25 0 0.73 179 14:54 07.01.2020
5039 Clouds -4 1016 25 0 0.73 179 14:36 07.01.2020
5040 Clouds -5 1011 23 0 2.18 289 14:18 07.01.2020
5041 Clouds -5 1011 23 0 2.18 289 13:39 07.01.2020
5042 Clouds -4 1012 22 0 1.26 160 13:19 07.01.2020
5043 Clouds -4 1012 22 0 1.26 160 12:41 07.01.2020
5044 Clouds -4 1012 22 0 1.26 160 12:20 07.01.2020
5045 Clouds -4 1012 22 0 1.26 160 11:57 07.01.2020
5046 Clouds -4 1012 22 0 1.26 160 11:38 07.01.2020
5047 Clouds 3 1007 13 0 3.18 206 11:20 07.01.2020
5048 Clouds 3 1007 13 0 3.18 206 10:42 07.01.2020
5049 Clouds 3 1007 13 0 3.18 206 10:24 07.01.2020
5050 Clouds 3 1007 13 0 3.18 206 09:58 07.01.2020
5051 Clouds 3 1007 13 0 3.18 206 09:38 07.01.2020
5052 Clouds 3 1007 13 0 3.18 206 09:20 07.01.2020
5053 Clouds 3 1007 13 0 3.18 206 08:43 07.01.2020
5054 Clouds 3 1006 14 0 2 165 08:25 07.01.2020
5055 Clear 0 1010 18 0 2.21 193 07:54 07.01.2020
5056 Clear 0 1010 18 0 2.21 193 07:28 07.01.2020
5057 Clear 0 1010 18 0 2.21 193 07:28 07.01.2020
5058 Clear 0 1010 18 0 2.21 193 07:28 07.01.2020
5059 Clear 0 1010 18 0 2.21 193 06:53 07.01.2020
5060 Clear 0 1010 18 0 2.21 193 06:34 07.01.2020
5061 Clear 0 1010 18 0 2.21 193 05:55 07.01.2020
5062 Clear -6 1017 20 0 1.82 181 04:39 07.01.2020
5063 Clear -6 1017 20 0 1.82 181 03:27 07.01.2020
5064 Clouds -12 1018 34 0 1.8 151 02:22 07.01.2020
5065 Clouds -12 1018 34 0 1.8 151 01:52 07.01.2020
5066 Clouds -12 1018 34 0 1.54 146 01:30 07.01.2020
5067 Clouds -12 1018 34 0 1.54 146 00:37 07.01.2020
5068 Clouds -12 1018 34 0 1.54 146 00:37 07.01.2020
5069 Clouds -12 1018 34 0 1.54 146 00:18 07.01.2020
5070 Clouds -12 1018 34 0 1.54 146 23:39 06.01.2020
5071 Clouds -12 1018 31 0 1.29 134 23:21 06.01.2020
5072 Clouds -12 1018 31 0 1.29 134 22:58 06.01.2020
5073 Clouds -12 1018 31 0 1.29 134 22:39 06.01.2020
5074 Clouds -12 1018 31 0 1.29 134 22:21 06.01.2020
5075 Clouds -12 1018 31 0 1.29 134 21:56 06.01.2020
5076 Clouds -12 1018 31 0 1.29 134 21:38 06.01.2020
5077 Clouds -12 1018 31 0 1.29 134 21:19 06.01.2020
5078 Clouds -12 1018 31 0 1.29 134 21:19 06.01.2020
5079 Clouds -12 1018 31 0 1.29 134 20:56 06.01.2020
5080 Clouds -12 1018 31 0 1.29 134 20:37 06.01.2020
5081 Clouds -10 1018 38 0 1.25 140 20:19 06.01.2020
5082 Clouds -10 1018 39 0 1.19 114 19:55 06.01.2020
5083 Clouds -10 1018 39 0 1.19 114 19:37 06.01.2020
5084 Clouds -10 1018 39 0 1.19 114 19:19 06.01.2020
5085 Clouds -10 1018 39 0 1.19 114 18:45 06.01.2020
5086 Clouds -10 1018 39 0 1.19 114 18:21 06.01.2020
5087 Clouds -10 1018 39 0 1.19 114 17:56 06.01.2020
5088 Clouds -10 1018 39 0 1.19 114 17:37 06.01.2020
5089 Clouds -9 1019 40 0 0.79 194 17:18 06.01.2020
5090 Clouds -9 1019 40 0 0.79 194 16:42 06.01.2020
5091 Clouds -9 1019 40 0 0.79 194 16:42 06.01.2020
5092 Clouds -9 1019 40 0 0.79 194 16:23 06.01.2020
5093 Clouds -9 1019 40 0 0.79 194 15:59 06.01.2020
5094 Clouds -9 1019 40 0 0.79 194 15:37 06.01.2020
5095 Clouds -9 1019 40 0 0.79 194 15:37 06.01.2020
5096 Clouds -9 1019 40 0 0.79 194 15:18 06.01.2020
5097 Clouds -9 1019 40 0 0.79 194 14:42 06.01.2020
5098 Clouds -9 1019 40 0 0.79 194 14:23 06.01.2020
5099 Clouds -9 1019 40 0 0.79 194 14:23 06.01.2020
5100 Clouds -9 1019 40 0 0.79 194 14:23 06.01.2020
5101 Clouds -5 1017 23 0 2.53 321 13:59 06.01.2020
5102 Clouds -5 1017 23 0 2.53 321 13:39 06.01.2020
5103 Clouds -6 1017 21 0 1.11 281 13:21 06.01.2020
5104 Clouds -6 1017 21 0 1.11 281 12:58 06.01.2020
5105 Clouds -6 1017 21 0 1.11 281 12:39 06.01.2020
5106 Clouds -6 1017 21 0 1.11 281 12:39 06.01.2020
5107 Clouds -6 1017 21 0 1.11 281 12:19 06.01.2020
5108 Clouds -6 1017 21 0 1.11 281 11:43 06.01.2020
5109 Clouds -6 1017 21 0 1.11 281 11:24 06.01.2020
5110 Clouds 2 1013 7 0 7.31 283 11:00 06.01.2020
5111 Clouds 2 1013 7 0 7.31 283 10:41 06.01.2020
5112 Clouds 2 1013 7 0 7.31 283 10:21 06.01.2020
5113 Clouds 2 1013 7 0 7.31 283 09:42 06.01.2020
5114 Clouds 2 1013 7 0 7.31 283 09:24 06.01.2020
5115 Clouds 2 1013 7 0 7.31 283 08:57 06.01.2020
5116 Clouds 2 1013 7 0 7.31 283 08:38 06.01.2020
5117 Clouds 2 1013 7 0 7.31 283 08:38 06.01.2020
5118 Clouds -5 1018 14 0 2.19 168 07:58 06.01.2020
5119 Clouds -5 1018 14 0 2.19 168 07:39 06.01.2020
5120 Clouds -5 1018 14 0 2.19 168 06:53 06.01.2020
5121 Clouds -5 1018 14 0 2.19 168 06:35 06.01.2020
5122 Clouds -5 1018 14 0 2.19 168 05:48 06.01.2020
5123 Clouds -5 1018 14 0 2.19 168 05:23 06.01.2020
5124 Clouds -10 1027 24 0 0.33 203 04:23 06.01.2020
5125 Clouds -10 1027 24 0 0.33 203 03:30 06.01.2020
5126 Clouds -10 1027 24 0 0.33 203 02:27 06.01.2020
5127 Clear -17 1032 49 0 0.77 348 01:53 06.01.2020
5128 Clear -17 1032 49 0 0.77 348 01:30 06.01.2020
5129 Clear -17 1032 49 0 0.86 348 00:46 06.01.2020
5130 Clear -17 1032 49 0 0.86 348 00:27 06.01.2020
5131 Clear -17 1032 49 0 0.86 348 23:57 05.01.2020
5132 Clear -17 1032 49 0 0.86 348 23:57 05.01.2020
5133 Clear -17 1032 49 0 0.86 348 23:38 05.01.2020
5134 Clear -15 1029 43 0 1.96 336 23:20 05.01.2020
5135 Clear -15 1029 43 0 1.96 336 22:40 05.01.2020
5136 Clear -15 1029 43 0 1.96 336 22:21 05.01.2020
5137 Clear -15 1029 43 0 1.96 336 21:58 05.01.2020
5138 Clear -15 1029 43 0 1.96 336 21:40 05.01.2020
5139 Clear -15 1029 43 0 1.96 336 21:20 05.01.2020
5140 Clear -15 1029 43 0 1.96 336 20:56 05.01.2020
5141 Clear -15 1029 43 0 1.96 336 20:38 05.01.2020
5142 Clouds -13 1024 50 0 1.93 283 20:19 05.01.2020
5143 Clouds -13 1024 50 0 1.93 283 19:58 05.01.2020
5144 Clouds -13 1024 50 0 1.93 283 19:38 05.01.2020
5145 Clouds -13 1024 50 0 1.93 283 19:20 05.01.2020
5146 Clouds -13 1024 50 0 1.93 283 19:20 05.01.2020
5147 Clouds -13 1024 50 0 1.93 283 18:55 05.01.2020
5148 Clouds -13 1024 50 0 1.93 283 18:37 05.01.2020
5149 Clouds -13 1024 50 0 1.93 283 18:19 05.01.2020
5150 Clouds -13 1024 50 0 1.93 283 17:57 05.01.2020
5151 Clouds -13 1024 50 0 1.93 283 17:38 05.01.2020
5152 Clouds -13 1024 50 0 1.93 283 17:38 05.01.2020
5153 Clouds -13 1024 50 0 1.93 283 17:38 05.01.2020
5154 Clouds -12 1019 58 0 1.44 242 17:19 05.01.2020
5155 Clouds -12 1019 58 0 1.44 242 16:56 05.01.2020
5156 Clouds -12 1019 58 0 1.44 242 16:38 05.01.2020
5157 Clouds -12 1019 58 0 1.44 242 16:19 05.01.2020
5158 Clouds -12 1019 58 0 1.44 242 15:39 05.01.2020
5159 Clouds -12 1019 58 0 1.44 242 15:38 05.01.2020
5160 Clouds -12 1019 58 0 1.44 242 15:20 05.01.2020
5161 Clouds -12 1019 58 0 1.44 242 14:56 05.01.2020
5162 Clouds -12 1019 58 0 1.44 242 14:38 05.01.2020
5163 Snow -9 1012 51 0 0.54 179 14:19 05.01.2020
5164 Snow -9 1012 51 0 0.54 179 13:56 05.01.2020
5165 Snow -9 1012 51 0 0.54 179 13:56 05.01.2020
5166 Snow -9 1012 51 0 0.54 179 13:37 05.01.2020
5167 Snow -9 1012 51 0 0.54 179 13:18 05.01.2020
5168 Snow -9 1012 51 0 0.54 179 13:18 05.01.2020
5169 Snow -9 1012 73 0 1.36 143 12:55 05.01.2020
5170 Snow -9 1012 73 0 1.36 143 12:37 05.01.2020
5171 Snow -9 1012 73 0 1.36 143 12:18 05.01.2020
5172 Snow -9 1012 73 0 1.36 143 11:43 05.01.2020
5173 Snow -5 1005 38 0 3.23 173 11:20 05.01.2020
5174 Snow -5 1005 38 0 3.23 173 10:58 05.01.2020
5175 Snow -5 1005 38 0 3.23 173 10:39 05.01.2020
5176 Snow -5 1005 38 0 3.23 173 10:39 05.01.2020
5177 Snow -5 1005 38 0 3.23 173 10:39 05.01.2020
5178 Snow -5 1005 38 0 3.23 173 10:39 05.01.2020
5179 Snow -5 1005 38 0 3.23 173 10:19 05.01.2020
5180 Snow -5 1005 38 0 3.23 173 09:42 05.01.2020
5181 Snow -5 1005 38 0 3.23 173 09:22 05.01.2020
5182 Snow -5 1005 38 0 3.23 173 08:50 05.01.2020
5183 Snow -5 1005 38 0 3.23 173 08:31 05.01.2020
5184 Clouds -5 1006 32 0 2.85 187 07:57 05.01.2020
5185 Clouds -5 1006 32 0 2.85 187 07:38 05.01.2020
5186 Clouds -5 1006 32 0 2.85 187 07:20 05.01.2020
5187 Clouds -5 1006 32 0 2.85 187 06:21 05.01.2020
5188 Clouds -5 1006 32 0 2.85 187 05:33 05.01.2020
5189 Clouds -9 1010 62 0 2.09 176 04:48 05.01.2020
5190 Clouds -9 1010 62 0 2.09 176 04:18 05.01.2020
5191 Clouds -9 1010 62 0 2.09 176 02:50 05.01.2020
5192 Clouds -9 1010 62 0 2.09 176 02:32 05.01.2020
5193 Clouds -11 1012 70 0 1.78 143 01:49 05.01.2020
5194 Clouds -12 1013 70 0 1.49 142 01:19 05.01.2020
5195 Clouds -12 1013 70 0 1.49 142 00:55 05.01.2020
5196 Clouds -12 1013 70 0 1.49 142 00:36 05.01.2020
5197 Clouds -12 1013 70 0 1.49 142 00:18 05.01.2020
5198 Clouds -12 1013 70 0 1.49 142 23:40 04.01.2020
5199 Clouds -11 1012 63 0 1.6 146 23:20 04.01.2020
5200 Clouds -11 1012 63 0 1.6 146 22:40 04.01.2020
5201 Clouds -11 1012 63 0 1.6 146 22:22 04.01.2020
5202 Clouds -11 1012 63 0 1.6 146 21:58 04.01.2020
5203 Clouds -11 1012 63 0 1.6 146 21:40 04.01.2020
5204 Clouds -11 1012 63 0 1.6 146 21:22 04.01.2020
5205 Clouds -11 1012 63 0 1.6 146 20:59 04.01.2020
5206 Clouds -11 1012 63 0 1.6 146 20:40 04.01.2020
5207 Clouds -9 1010 50 0 2.12 143 20:22 04.01.2020
5208 Clouds -9 1010 50 0 2.12 143 19:57 04.01.2020
5209 Clouds -9 1010 50 0 2.12 143 19:38 04.01.2020
5210 Clouds -9 1010 50 0 2.12 143 19:20 04.01.2020
5211 Clouds -9 1010 50 0 2.12 143 18:56 04.01.2020
5212 Clouds -9 1010 50 0 2.12 143 18:37 04.01.2020
5213 Clouds -9 1010 50 0 2.12 143 18:19 04.01.2020
5214 Clouds -9 1010 50 0 2.12 143 17:42 04.01.2020
5215 Clouds -9 1010 50 0 2.12 143 17:24 04.01.2020
5216 Clouds -6 1009 38 0 2.79 148 16:59 04.01.2020
5217 Clouds -6 1009 38 0 2.79 148 16:40 04.01.2020
5218 Clouds -6 1009 38 0 2.79 148 16:22 04.01.2020
5219 Clouds -6 1009 38 0 2.79 148 15:56 04.01.2020
5220 Clouds -6 1009 38 0 2.79 148 15:38 04.01.2020
5221 Clouds -6 1009 38 0 2.79 148 15:19 04.01.2020
5222 Clouds -6 1009 38 0 2.79 148 14:54 04.01.2020
5223 Clouds -6 1009 38 0 2.79 148 14:36 04.01.2020
5224 Clouds -7 1006 47 0 1.42 179 14:18 04.01.2020
5225 Clouds -7 1006 47 0 1.42 179 13:39 04.01.2020
5226 Snow -7 1006 57 0 1.2 130 13:20 04.01.2020
5227 Snow -7 1006 57 0 1.2 130 12:59 04.01.2020
5228 Snow -7 1006 57 0 1.2 130 12:40 04.01.2020
5229 Snow -7 1006 57 0 1.2 130 12:40 04.01.2020
5230 Snow -7 1006 57 0 1.2 130 12:19 04.01.2020
5231 Snow -7 1006 57 0 1.2 130 11:57 04.01.2020
5232 Snow -7 1006 57 0 1.2 130 11:38 04.01.2020
5233 Snow -3 1003 42 0 1.6 217 11:19 04.01.2020
5234 Snow -3 1003 42 0 1.6 217 10:41 04.01.2020
5235 Snow -3 1003 42 0 1.6 217 10:22 04.01.2020
5236 Snow -3 1003 42 0 1.6 217 09:50 04.01.2020
5237 Snow -3 1003 42 0 1.6 217 09:26 04.01.2020
5238 Snow -3 1003 42 0 1.6 217 09:26 04.01.2020
5239 Snow -3 1003 42 0 1.6 217 08:58 04.01.2020
5240 Snow -3 1003 42 0 1.6 217 08:39 04.01.2020
5241 Clouds -3 1007 32 0 2.83 192 08:20 04.01.2020
5242 Clouds -3 1008 31 0 2.57 186 07:42 04.01.2020
5243 Clouds -3 1008 31 0 2.57 186 06:52 04.01.2020
5244 Clouds -3 1008 31 0 2.57 186 06:33 04.01.2020
5245 Clouds -7 1013 59 0 2.03 186 05:19 04.01.2020
5246 Clouds -7 1013 59 0 2.03 186 04:34 04.01.2020
5247 Clouds -7 1013 59 0 2.03 186 03:43 04.01.2020
5248 Clouds -7 1013 59 0 2.03 186 03:18 04.01.2020
5249 Clouds -10 1015 84 0 0.91 178 02:21 04.01.2020
5250 Clouds -10 1015 84 0 0.91 178 01:55 04.01.2020
5251 Clouds -10 1015 84 0 0.91 178 01:31 04.01.2020
5252 Clouds -10 1015 83 0 0.89 167 00:43 04.01.2020
5253 Clouds -10 1015 83 0 0.89 167 00:23 04.01.2020
5254 Clouds -10 1015 83 0 0.89 167 23:44 03.01.2020
5255 Clouds -10 1015 83 0 0.89 167 23:25 03.01.2020
5256 Clouds -11 1014 84 0 1.49 165 22:41 03.01.2020
5257 Clouds -11 1014 84 0 1.49 165 22:20 03.01.2020
5258 Clouds -11 1014 84 0 1.49 165 21:59 03.01.2020
5259 Clouds -11 1014 84 0 1.49 165 21:39 03.01.2020
5260 Clouds -11 1014 84 0 1.49 165 21:19 03.01.2020
5261 Clouds -11 1014 84 0 1.49 165 21:19 03.01.2020
5262 Clouds -11 1014 84 0 1.49 165 20:59 03.01.2020
5263 Clouds -11 1014 84 0 1.49 165 20:41 03.01.2020
5264 Snow -11 1014 88 0 0.17 168 20:18 03.01.2020
5265 Snow -11 1014 88 0 0.17 168 19:57 03.01.2020
5266 Snow -11 1014 88 0 0.17 168 19:38 03.01.2020
5267 Snow -11 1014 88 0 0.17 168 19:20 03.01.2020
5268 Snow -11 1014 88 0 0.17 168 18:44 03.01.2020
5269 Snow -11 1014 88 0 0.17 168 18:25 03.01.2020
5270 Snow -11 1014 88 0 0.17 168 17:56 03.01.2020
5271 Snow -11 1014 88 0 0.17 168 17:38 03.01.2020
5272 Snow -11 1014 88 0 0.17 168 17:38 03.01.2020
5273 Snow -9 1015 91 0 0.19 301 17:19 03.01.2020
5274 Snow -9 1015 91 0 0.19 301 16:42 03.01.2020
5275 Snow -9 1015 91 0 0.19 301 16:24 03.01.2020
5276 Snow -9 1015 91 0 0.19 301 15:57 03.01.2020
5277 Snow -9 1015 91 0 0.19 301 15:39 03.01.2020
5278 Snow -9 1015 91 0 0.19 301 15:18 03.01.2020
5279 Snow -9 1015 91 0 0.19 301 14:39 03.01.2020
5280 Clouds -5 1013 51 0 0.86 175 14:19 03.01.2020
5281 Clouds -5 1013 51 0 0.86 175 13:56 03.01.2020
5282 Clouds -6 1013 52 0 0.8 189 13:37 03.01.2020
5283 Clouds -6 1013 52 0 0.8 189 13:19 03.01.2020
5284 Clouds -6 1013 52 0 0.8 189 12:39 03.01.2020
5285 Clouds -6 1013 52 0 0.8 189 12:21 03.01.2020
5286 Clouds -6 1013 52 0 0.8 189 11:48 03.01.2020
5287 Clouds -6 1013 52 0 0.8 189 11:29 03.01.2020
5288 Clouds -2 1012 29 0 2.6 157 10:47 03.01.2020
5289 Clouds -2 1012 29 0 2.6 157 10:27 03.01.2020
5290 Clouds -2 1012 29 0 2.6 157 09:59 03.01.2020
5291 Clouds -2 1012 29 0 2.6 157 09:40 03.01.2020
5292 Clouds -2 1012 29 0 2.6 157 09:22 03.01.2020
5293 Clouds -2 1012 29 0 2.6 157 08:57 03.01.2020
5294 Clouds -2 1012 29 0 2.6 157 08:38 03.01.2020
5295 Clouds -3 1017 26 0 2.66 181 08:19 03.01.2020
5296 Clouds -3 1017 26 0 2.66 181 07:40 03.01.2020
5297 Clouds -3 1017 26 0 2.66 181 07:19 03.01.2020
5298 Clouds -3 1017 26 0 2.66 181 06:51 03.01.2020
5299 Clouds -3 1017 26 0 2.66 181 06:33 03.01.2020
5300 Clouds -3 1017 26 0 2.66 181 05:47 03.01.2020
5301 Clouds -7 1023 50 0 1.79 158 04:27 03.01.2020
5302 Clouds -7 1023 50 0 1.79 158 03:18 03.01.2020
5303 Clouds -7 1023 50 0 1.79 158 02:45 03.01.2020
5304 Clear -13 1024 79 0 1.59 155 01:45 03.01.2020
5305 Clouds -12 1024 76 0 1.41 100 00:56 03.01.2020
5306 Clouds -12 1024 76 0 1.41 100 00:32 03.01.2020
5307 Clouds -12 1024 76 0 1.41 100 23:58 02.01.2020
5308 Clouds -12 1024 76 0 1.41 100 23:39 02.01.2020
5309 Clouds -11 1023 68 0 1.97 138 23:19 02.01.2020
5310 Clouds -11 1023 68 0 1.97 138 22:57 02.01.2020
5311 Clouds -11 1023 68 0 1.97 138 22:39 02.01.2020
5312 Clouds -11 1023 68 0 1.97 138 22:18 02.01.2020
5313 Clouds -11 1023 68 0 1.97 138 21:54 02.01.2020
5314 Clouds -11 1023 68 0 1.97 138 21:36 02.01.2020
5315 Clouds -11 1023 68 0 1.97 138 21:36 02.01.2020
5316 Clouds -11 1023 68 0 1.97 138 21:18 02.01.2020
5317 Clouds -11 1023 68 0 1.97 138 20:40 02.01.2020
5318 Clear -10 1022 56 0 1.85 137 20:21 02.01.2020
5319 Clear -10 1022 56 0 1.85 137 19:56 02.01.2020
5320 Clear -10 1022 56 0 1.85 137 19:38 02.01.2020
5321 Clear -10 1022 56 0 1.85 137 19:19 02.01.2020
5322 Clear -10 1022 56 0 1.85 137 18:58 02.01.2020
5323 Clear -10 1022 56 0 1.85 137 18:40 02.01.2020
5324 Clear -10 1022 56 0 1.85 137 18:22 02.01.2020
5325 Clear -10 1022 56 0 1.85 137 17:57 02.01.2020
5326 Clear -10 1022 56 0 1.85 137 17:37 02.01.2020
5327 Clouds -8 1021 46 0 1.64 142 17:19 02.01.2020
5328 Clouds -8 1021 46 0 1.64 142 16:57 02.01.2020
5329 Clouds -8 1021 46 0 1.64 142 16:38 02.01.2020
5330 Clouds -8 1021 46 0 1.64 142 16:20 02.01.2020
5331 Clouds -8 1021 46 0 1.64 142 15:56 02.01.2020
5332 Clouds -8 1021 46 0 1.64 142 15:37 02.01.2020
5333 Clouds -8 1021 46 0 1.64 142 15:19 02.01.2020
5334 Clouds -8 1021 46 0 1.64 142 14:54 02.01.2020
5335 Clouds -8 1021 46 0 1.64 142 14:54 02.01.2020
5336 Clouds -8 1021 46 0 1.64 142 14:36 02.01.2020
5337 Clouds -6 1018 37 0 0.79 153 14:18 02.01.2020
5338 Clouds -6 1018 37 0 0.79 153 13:45 02.01.2020
5339 Clouds -6 1018 37 0 0.79 153 13:26 02.01.2020
5340 Clouds -6 1018 44 0 1.58 39 12:43 02.01.2020
5341 Clouds -6 1018 44 0 1.58 39 12:24 02.01.2020
5342 Clouds -6 1018 44 0 1.58 39 11:43 02.01.2020
5343 Clouds -6 1018 44 0 1.58 39 11:24 02.01.2020
5344 Clouds 0 1015 24 0 1.42 246 10:56 02.01.2020
5345 Clouds 0 1015 24 0 1.42 246 10:37 02.01.2020
5346 Clouds 0 1015 24 0 1.42 246 10:18 02.01.2020
5347 Clouds 0 1015 24 0 1.42 246 09:41 02.01.2020
5348 Clouds 0 1015 24 0 1.42 246 09:22 02.01.2020
5349 Clouds 0 1015 24 0 1.42 246 08:44 02.01.2020
5350 Clouds 0 1015 24 0 1.42 246 08:25 02.01.2020
5351 Clouds -2 1019 27 0 3.05 177 07:48 02.01.2020
5352 Clouds -2 1019 27 0 3.05 177 07:28 02.01.2020
5353 Clouds -2 1019 27 0 3.05 177 06:43 02.01.2020
5354 Clouds -2 1019 27 0 3.05 177 05:58 02.01.2020
5355 Clouds -6 1026 42 0 1.99 164 04:40 02.01.2020
5356 Clouds -6 1026 42 0 1.99 164 04:21 02.01.2020
5357 Clouds -6 1026 42 0 1.99 164 02:28 02.01.2020
5358 Clouds -12 1026 69 0 2.05 146 01:57 02.01.2020
5359 Clouds -12 1026 69 0 2.05 146 01:32 02.01.2020
5360 Clouds -13 1026 70 0 1.73 139 00:53 02.01.2020
5361 Clouds -13 1026 70 0 1.73 139 00:32 02.01.2020
5362 Clouds -13 1026 70 0 1.73 139 23:48 01.01.2020
5363 Clouds -13 1026 70 0 1.73 139 23:25 01.01.2020
5364 Clouds -11 1025 51 0 1.85 135 22:55 01.01.2020
5365 Clouds -11 1025 51 0 1.85 135 22:37 01.01.2020
5366 Clouds -11 1025 51 0 1.85 135 22:18 01.01.2020
5367 Clouds -11 1025 51 0 1.85 135 21:42 01.01.2020
5368 Clouds -11 1025 51 0 1.85 135 21:21 01.01.2020
5369 Clouds -11 1025 51 0 1.85 135 20:59 01.01.2020
5370 Clouds -11 1025 51 0 1.85 135 20:39 01.01.2020
5371 Clouds -10 1025 39 0 2.4 150 20:21 01.01.2020
5372 Clouds -10 1025 39 0 2.4 150 19:58 01.01.2020
5373 Clouds -10 1025 39 0 2.4 150 19:39 01.01.2020
5374 Clouds -10 1025 39 0 2.4 150 19:20 01.01.2020
5375 Clouds -10 1025 39 0 2.4 150 18:57 01.01.2020
5376 Clouds -10 1025 39 0 2.4 150 18:39 01.01.2020
5377 Clouds -10 1025 39 0 2.4 150 18:20 01.01.2020
5378 Clouds -10 1025 39 0 2.4 150 17:59 01.01.2020
5379 Clouds -10 1025 39 0 2.4 150 17:40 01.01.2020
5380 Clouds -8 1024 28 0 2.22 152 17:20 01.01.2020
5381 Clouds -8 1024 28 0 2.22 152 16:59 01.01.2020
5382 Clouds -8 1024 28 0 2.22 152 16:38 01.01.2020
5383 Clouds -8 1024 28 0 2.22 152 16:20 01.01.2020
5384 Clouds -8 1024 28 0 2.22 152 15:57 01.01.2020
5385 Clouds -8 1024 28 0 2.22 152 15:57 01.01.2020
5386 Clouds -8 1024 28 0 2.22 152 15:38 01.01.2020
5387 Clouds -8 1024 28 0 2.22 152 15:20 01.01.2020
5388 Clouds -8 1024 28 0 2.22 152 14:56 01.01.2020
5389 Clouds -8 1024 28 0 2.22 152 14:37 01.01.2020
5390 Clouds -7 1020 19 0 1.26 158 14:19 01.01.2020
5391 Clouds -7 1020 19 0 1.26 158 14:19 01.01.2020
5392 Clouds -7 1020 19 0 1.26 158 13:55 01.01.2020
5393 Clouds -7 1020 19 0 1.26 158 13:36 01.01.2020
5394 Clouds -7 1020 19 0 0.97 114 13:18 01.01.2020
5395 Clouds -7 1020 19 0 0.97 114 12:40 01.01.2020
5396 Clouds -7 1020 19 0 0.97 114 12:20 01.01.2020
5397 Clouds -7 1020 19 0 0.97 114 11:58 01.01.2020
5398 Clouds -7 1020 19 0 0.97 114 11:58 01.01.2020
5399 Clouds -7 1020 19 0 0.97 114 11:39 01.01.2020
5400 Clouds -1 1017 11 0 1.1 170 11:20 01.01.2020
5401 Clouds -1 1017 11 0 1.1 170 10:55 01.01.2020
5402 Clouds -1 1017 11 0 1.1 170 10:55 01.01.2020
5403 Clouds -1 1017 11 0 1.1 170 10:37 01.01.2020
5404 Clouds -1 1017 11 0 1.1 170 10:18 01.01.2020
5405 Clouds -1 1017 11 0 1.1 170 09:40 01.01.2020
5406 Clouds -1 1017 11 0 1.1 170 09:22 01.01.2020
5407 Clouds -1 1017 11 0 1.1 170 08:57 01.01.2020
5408 Clouds -1 1017 11 0 1.1 170 08:57 01.01.2020
5409 Clouds -1 1017 11 0 1.1 170 08:38 01.01.2020
5410 Clouds -1 1017 11 0 1.1 170 08:38 01.01.2020
5411 Clouds -4 1020 15 0 2.45 184 08:20 01.01.2020
5412 Clouds -4 1020 15 0 2.45 184 07:57 01.01.2020
5413 Clouds -4 1020 15 0 2.45 184 07:39 01.01.2020
5414 Clouds -4 1020 15 0 2.45 184 06:55 01.01.2020
5415 Clouds -4 1020 15 0 2.45 184 06:36 01.01.2020
5416 Clouds -4 1020 15 0 2.45 184 05:48 01.01.2020
5417 Clouds -8 1026 29 0 2.11 176 04:20 01.01.2020
5418 Clouds -8 1026 29 0 2.11 176 03:39 01.01.2020
5419 Clouds -8 1026 29 0 2.11 176 03:21 01.01.2020
5420 Clouds -8 1026 29 0 2.11 176 02:41 01.01.2020
5421 Clouds -8 1026 29 0 2.11 176 02:22 01.01.2020
5422 Clear -14 1026 56 0 1.72 146 01:41 01.01.2020
5423 Clear -14 1026 56 0 1.72 146 01:22 01.01.2020
5424 Clear -14 1026 56 0 1.71 144 00:45 01.01.2020
5425 Clear -14 1026 56 0 1.71 144 00:26 01.01.2020
5426 Clear -14 1026 56 0 1.71 144 23:56 31.12.2019
5427 Clear -14 1026 56 0 1.71 144 23:36 31.12.2019
5428 Clear -12 1026 56 0 1.94 132 23:18 31.12.2019
5429 Clear -12 1026 56 0 1.94 132 22:55 31.12.2019
5430 Clear -12 1026 56 0 1.94 132 22:36 31.12.2019
5431 Clear -12 1026 56 0 1.94 132 22:18 31.12.2019
5432 Clear -12 1026 56 0 1.94 132 21:42 31.12.2019
5433 Clear -12 1026 56 0 1.94 132 21:24 31.12.2019
5434 Clear -12 1026 56 0 1.94 132 20:57 31.12.2019
5435 Clear -12 1026 56 0 1.94 132 20:57 31.12.2019
5436 Clear -12 1026 56 0 1.94 132 20:38 31.12.2019
5437 Clear -12 1026 56 0 1.94 132 20:38 31.12.2019
5438 Clouds -10 1024 46 0 1.89 135 20:20 31.12.2019
5439 Clear -11 1023 47 0 1.8 139 19:55 31.12.2019
5440 Clear -11 1023 47 0 1.8 139 19:37 31.12.2019
5441 Clear -11 1023 47 0 1.8 139 19:18 31.12.2019
5442 Clear -11 1023 47 0 1.8 139 18:55 31.12.2019
5443 Clear -11 1023 47 0 1.8 139 18:37 31.12.2019
5444 Clear -11 1023 47 0 1.8 139 18:19 31.12.2019
5445 Clear -11 1023 47 0 1.8 139 17:55 31.12.2019
5446 Clear -11 1023 47 0 1.8 139 17:36 31.12.2019
5447 Clear -8 1022 35 0 2.53 149 17:18 31.12.2019
5448 Clear -8 1022 35 0 2.53 149 16:55 31.12.2019
5449 Clear -8 1022 35 0 2.53 149 16:36 31.12.2019
5450 Clear -8 1022 35 0 2.53 149 16:18 31.12.2019
5451 Clear -8 1022 35 0 2.53 149 15:55 31.12.2019
5452 Clear -8 1022 35 0 2.53 149 15:37 31.12.2019
5453 Clear -8 1022 35 0 2.53 149 15:19 31.12.2019
5454 Clear -8 1022 35 0 2.53 149 14:55 31.12.2019
5455 Clear -8 1022 35 0 2.53 149 14:37 31.12.2019
5456 Clear -8 1022 35 0 2.53 149 14:37 31.12.2019
5457 Clouds -5 1017 21 0 2.83 147 14:18 31.12.2019
5458 Clouds -5 1017 21 0 2.83 147 13:55 31.12.2019
5459 Clouds -5 1017 21 0 2.83 147 13:37 31.12.2019
5460 Clouds -5 1017 22 0 2.91 152 13:19 31.12.2019
5461 Clouds -5 1017 22 0 2.91 152 12:55 31.12.2019
5462 Clouds -5 1017 22 0 2.91 152 12:37 31.12.2019
5463 Clouds -5 1017 22 0 2.91 152 12:18 31.12.2019
5464 Clouds -5 1017 22 0 2.91 152 11:54 31.12.2019
5465 Clouds -5 1017 22 0 2.91 152 11:36 31.12.2019
5466 Clouds 1 1014 13 0 1.62 186 11:18 31.12.2019
5467 Clouds 1 1014 13 0 1.62 186 10:54 31.12.2019
5468 Clouds 1 1014 13 0 1.62 186 10:36 31.12.2019
5469 Clouds 1 1014 13 0 1.62 186 10:18 31.12.2019
5470 Clouds 1 1014 13 0 1.62 186 09:55 31.12.2019
5471 Clouds 1 1014 13 0 1.62 186 09:37 31.12.2019
5472 Clouds 1 1014 13 0 1.62 186 09:37 31.12.2019
5473 Clouds 1 1014 13 0 1.62 186 09:18 31.12.2019
5474 Clouds 1 1014 13 0 1.62 186 08:42 31.12.2019
5475 Clouds 1 1014 13 0 1.62 186 08:42 31.12.2019
5476 Clouds -1 1017 19 0 2.88 183 08:22 31.12.2019
5477 Clouds -1 1017 19 0 2.88 183 07:45 31.12.2019
5478 Clouds -1 1017 19 0 2.88 183 07:22 31.12.2019
5479 Clouds -1 1017 19 0 2.88 183 06:51 31.12.2019
5480 Clouds -1 1017 19 0 2.88 183 06:27 31.12.2019
5481 Clouds -6 1023 38 0 2.23 169 04:55 31.12.2019
5482 Clouds -6 1023 38 0 2.23 169 04:25 31.12.2019
5483 Clouds -6 1023 38 0 2.23 169 02:57 31.12.2019
5484 Clear -13 1023 71 0 1.9 145 02:21 31.12.2019
5485 Clear -13 1023 71 0 1.9 145 02:21 31.12.2019
5486 Clear -13 1023 71 0 1.9 145 01:50 31.12.2019
5487 Clear -13 1023 70 0 1.83 145 01:31 31.12.2019
5488 Clear -13 1023 70 0 1.83 145 00:49 31.12.2019
5489 Clear -13 1023 70 0 1.83 145 00:26 31.12.2019
5490 Clear -13 1023 70 0 1.83 145 23:59 30.12.2019
5491 Clear -13 1023 70 0 1.83 145 23:41 30.12.2019
5492 Clear -13 1023 70 0 1.83 145 23:23 30.12.2019
5493 Clear -11 1021 57 0 1.81 141 22:59 30.12.2019
5494 Clear -11 1021 57 0 1.81 141 22:41 30.12.2019
5495 Clear -11 1021 57 0 1.81 141 22:22 30.12.2019
5496 Clear -11 1021 57 0 1.81 141 21:57 30.12.2019
5497 Clear -11 1021 57 0 1.81 141 21:39 30.12.2019
5498 Clear -11 1021 57 0 1.81 141 21:39 30.12.2019
5499 Clear -11 1021 57 0 1.81 141 21:20 30.12.2019
5500 Clear -11 1021 57 0 1.81 141 20:59 30.12.2019
5501 Clear -11 1021 57 0 1.81 141 20:41 30.12.2019
5502 Clear -9 1020 40 0 2.14 139 20:20 30.12.2019
5503 Clear -9 1020 40 0 2.14 139 19:59 30.12.2019
5504 Clear -9 1020 40 0 2.14 139 19:39 30.12.2019
5505 Clear -9 1020 40 0 2.14 139 19:20 30.12.2019
5506 Clear -9 1020 40 0 2.14 139 18:59 30.12.2019
5507 Clear -9 1020 40 0 2.14 139 18:41 30.12.2019
5508 Clear -9 1020 40 0 2.14 139 18:20 30.12.2019
5509 Clear -9 1020 40 0 2.14 139 17:58 30.12.2019
5510 Clear -9 1020 40 0 2.14 139 17:40 30.12.2019
5511 Clear -7 1020 22 0 2.63 142 17:19 30.12.2019
5512 Clear -7 1020 22 0 2.63 142 16:58 30.12.2019
5513 Clear -7 1020 22 0 2.63 142 16:38 30.12.2019
5514 Clear -7 1020 22 0 2.63 142 16:20 30.12.2019
5515 Clear -7 1020 22 0 2.63 142 15:56 30.12.2019
5516 Clear -7 1020 22 0 2.63 142 15:37 30.12.2019
5517 Clear -7 1020 22 0 2.63 142 15:19 30.12.2019
5518 Clear -7 1020 22 0 2.63 142 14:43 30.12.2019
5519 Clouds -6 1014 14 0 1.54 197 14:21 30.12.2019
5520 Clouds -6 1014 14 0 1.54 197 13:58 30.12.2019
5521 Clouds -6 1014 14 0 1.54 197 13:40 30.12.2019
5522 Clouds -6 1014 14 0 1.54 197 13:40 30.12.2019
5523 Clouds -7 1014 14 0 1.29 207 13:22 30.12.2019
5524 Clouds -7 1014 14 0 1.29 207 12:56 30.12.2019
5525 Clouds -7 1014 14 0 1.29 207 12:37 30.12.2019
5526 Clouds -7 1014 14 0 1.29 207 12:18 30.12.2019
5527 Clouds -7 1014 14 0 1.29 207 11:45 30.12.2019
5528 Clouds 3 1011 6 0 0.81 222 11:20 30.12.2019
5529 Clouds 3 1011 6 0 0.81 222 10:59 30.12.2019
5530 Clouds 3 1011 6 0 0.81 222 10:40 30.12.2019
5531 Clouds 3 1011 6 0 0.81 222 10:19 30.12.2019
5532 Clouds 3 1011 6 0 0.81 222 09:42 30.12.2019
5533 Clouds 3 1011 6 0 0.81 222 09:21 30.12.2019
5534 Clouds 3 1011 6 0 0.81 222 08:57 30.12.2019
5535 Clouds 3 1011 6 0 0.81 222 08:38 30.12.2019
5536 Clear 1 1014 10 0 1.75 201 08:19 30.12.2019
5537 Clear 1 1014 10 0 1.76 201 07:44 30.12.2019
5538 Clear 1 1014 10 0 1.76 201 07:18 30.12.2019
5539 Clear 1 1014 10 0 1.76 201 06:30 30.12.2019
5540 Clear -4 1021 11 0 1.23 172 04:29 30.12.2019
5541 Clear -4 1021 11 0 1.23 172 03:43 30.12.2019
5542 Clear -4 1021 11 0 1.23 172 02:45 30.12.2019
5543 Clear -4 1021 11 0 1.23 172 02:25 30.12.2019
5544 Clear -14 1020 46 0 1.3 138 01:27 30.12.2019
5545 Clear -14 1020 47 0 1.14 141 00:56 30.12.2019
5546 Clear -14 1020 47 0 1.14 141 00:36 30.12.2019
5547 Clear -14 1020 47 0 1.14 141 23:42 29.12.2019
5548 Clear -14 1020 47 0 1.14 141 23:24 29.12.2019
5549 Clear -13 1019 47 0 1.01 118 22:58 29.12.2019
5550 Clear -13 1019 47 0 1.01 118 22:38 29.12.2019
5551 Clear -13 1019 47 0 1.01 118 22:20 29.12.2019
5552 Clear -13 1019 47 0 1.01 118 21:55 29.12.2019
5553 Clear -13 1019 47 0 1.01 118 21:55 29.12.2019
5554 Clear -13 1019 47 0 1.01 118 21:37 29.12.2019
5555 Clear -13 1019 47 0 1.01 118 21:18 29.12.2019
5556 Clear -13 1019 47 0 1.01 118 20:55 29.12.2019
5557 Clear -13 1019 47 0 1.01 118 20:37 29.12.2019
5558 Clear -11 1019 36 0 0.98 141 20:18 29.12.2019
5559 Clear -11 1019 36 0 0.98 141 19:55 29.12.2019
5560 Clear -11 1019 36 0 0.98 141 19:37 29.12.2019
5561 Clear -11 1019 36 0 0.98 141 19:18 29.12.2019
5562 Clear -11 1019 36 0 0.98 141 18:54 29.12.2019
5563 Clear -11 1019 36 0 0.98 141 18:36 29.12.2019
5564 Clear -11 1019 36 0 0.98 141 18:18 29.12.2019
5565 Clear -11 1019 36 0 0.98 141 17:55 29.12.2019
5566 Clear -11 1019 36 0 0.98 141 17:36 29.12.2019
5567 Clear -10 1019 36 0 0.58 187 17:18 29.12.2019
5568 Clear -10 1019 36 0 0.58 187 16:55 29.12.2019
5569 Clear -10 1019 36 0 0.58 187 16:36 29.12.2019
5570 Clear -10 1019 36 0 0.58 187 16:18 29.12.2019
5571 Clear -10 1019 36 0 0.58 187 15:55 29.12.2019
5572 Clear -10 1019 36 0 0.58 187 15:37 29.12.2019
5573 Clear -10 1019 36 0 0.58 187 15:18 29.12.2019
5574 Clear -10 1019 36 0 0.58 187 14:55 29.12.2019
5575 Clear -10 1019 36 0 0.58 187 14:37 29.12.2019
5576 Clear -9 1015 14 0 0.39 213 14:18 29.12.2019
5577 Clear -9 1015 14 0 0.39 213 13:41 29.12.2019
5578 Clear -9 1015 14 0 0.39 213 13:22 29.12.2019
5579 Clear -9 1015 14 0 0.43 249 12:59 29.12.2019
5580 Clear -9 1015 14 0 0.43 249 12:41 29.12.2019
5581 Clear -9 1015 14 0 0.43 249 12:22 29.12.2019
5582 Clear -9 1015 14 0 0.43 249 11:54 29.12.2019
5583 Clear -9 1015 14 0 0.43 249 11:36 29.12.2019
5584 Clear 1 1012 6 0 1.28 196 11:18 29.12.2019
5585 Clear 1 1012 6 0 1.28 196 10:41 29.12.2019
5586 Clear 1 1012 6 0 1.28 196 10:20 29.12.2019
5587 Clear 1 1012 6 0 1.28 196 09:54 29.12.2019
5588 Clear 1 1012 6 0 1.28 196 09:36 29.12.2019
5589 Clear 1 1012 6 0 1.28 196 09:18 29.12.2019
5590 Clear 1 1012 6 0 1.28 196 08:44 29.12.2019
5591 Clear 0 1012 6 0 1.34 195 08:24 29.12.2019
5592 Clear -2 1016 9 0 1.38 202 07:54 29.12.2019
5593 Clear -2 1016 9 0 1.38 202 07:27 29.12.2019
5594 Clear -2 1016 9 0 1.38 202 06:53 29.12.2019
5595 Clear -2 1016 9 0 1.38 202 06:23 29.12.2019
5596 Clear -2 1016 9 0 1.38 202 05:48 29.12.2019
5597 Clear -7 1023 13 0 0.24 30 04:34 29.12.2019
5598 Clear -7 1023 13 0 0.24 30 03:40 29.12.2019
5599 Clear -7 1023 13 0 0.24 30 02:49 29.12.2019
5600 Clear -16 1024 46 0 0.58 57 02:19 29.12.2019
5601 Clear -16 1024 46 0 0.58 57 01:31 29.12.2019
5602 Clear -16 1024 46 0 0.6 38 00:51 29.12.2019
5603 Clear -16 1024 46 0 0.6 38 00:27 29.12.2019
5604 Clear -16 1024 46 0 0.6 38 23:56 28.12.2019
5605 Clear -16 1024 46 0 0.6 38 23:37 28.12.2019
5606 Clear -15 1024 41 0 0.51 101 23:18 28.12.2019
5607 Clear -15 1024 41 0 0.51 101 22:38 28.12.2019
5608 Clear -15 1024 41 0 0.51 101 22:38 28.12.2019
5609 Clear -15 1024 41 0 0.51 101 22:19 28.12.2019
5610 Clear -15 1024 41 0 0.51 101 21:57 28.12.2019
5611 Clear -15 1024 41 0 0.51 101 21:38 28.12.2019
5612 Clear -15 1024 41 0 0.51 101 21:38 28.12.2019
5613 Clear -15 1024 41 0 0.51 101 21:20 28.12.2019
5614 Clear -15 1024 41 0 0.51 101 20:55 28.12.2019
5615 Clear -15 1024 41 0 0.51 101 20:36 28.12.2019
5616 Clear -14 1024 28 0 0.44 158 20:18 28.12.2019
5617 Clear -14 1024 28 0 0.44 158 19:54 28.12.2019
5618 Clear -14 1024 28 0 0.44 158 19:36 28.12.2019
5619 Clear -14 1024 28 0 0.44 158 19:18 28.12.2019
5620 Clear -14 1024 28 0 0.44 158 18:43 28.12.2019
5621 Clear -14 1024 28 0 0.44 158 18:20 28.12.2019
5622 Clear -14 1024 28 0 0.44 158 17:59 28.12.2019
5623 Clear -14 1024 28 0 0.44 158 17:41 28.12.2019
5624 Clear -12 1024 20 0 1.04 155 17:21 28.12.2019
5625 Clear -12 1024 20 0 1.04 155 16:55 28.12.2019
5626 Clear -12 1024 20 0 1.04 155 16:37 28.12.2019
5627 Clear -12 1024 20 0 1.04 155 16:19 28.12.2019
5628 Clear -12 1024 20 0 1.04 155 15:43 28.12.2019
5629 Clear -12 1024 20 0 1.04 155 15:22 28.12.2019
5630 Clear -12 1024 20 0 1.04 155 14:55 28.12.2019
5631 Clear -12 1024 20 0 1.04 155 14:37 28.12.2019
5632 Clear -10 1021 18 0 1.22 176 14:18 28.12.2019
5633 Clear -10 1021 18 0 1.22 176 13:42 28.12.2019
5634 Clear -10 1021 18 0 1.22 176 13:21 28.12.2019
5635 Clear -10 1021 19 0 1.23 180 12:58 28.12.2019
5636 Clear -10 1021 19 0 1.23 180 12:40 28.12.2019
5637 Clear -10 1021 19 0 1.23 180 12:21 28.12.2019
5638 Clear -10 1021 19 0 1.23 180 11:40 28.12.2019
5639 Clear -4 1019 12 0 0.81 148 11:21 28.12.2019
5640 Clear -4 1019 12 0 0.81 148 10:59 28.12.2019
5641 Clear -4 1019 12 0 0.81 148 10:41 28.12.2019
5642 Clear -4 1019 12 0 0.81 148 10:20 28.12.2019
5643 Clear -4 1019 12 0 0.81 148 09:54 28.12.2019
5644 Clear -4 1019 12 0 0.81 148 09:36 28.12.2019
5645 Clear -4 1019 12 0 0.81 148 09:18 28.12.2019
5646 Clear -4 1019 12 0 0.81 148 08:43 28.12.2019
5647 Clear -6 1020 28 0 1.87 349 08:24 28.12.2019
5648 Clear -8 1025 30 0 1.36 339 07:48 28.12.2019
5649 Clear -8 1025 30 0 1.36 339 07:23 28.12.2019
5650 Clear -8 1025 30 0 1.36 339 05:51 28.12.2019
5651 Clear -13 1033 50 0 1.86 21 03:48 28.12.2019
5652 Clear -13 1033 50 0 1.86 21 02:51 28.12.2019
5653 Clear -13 1033 50 0 1.86 21 02:31 28.12.2019
5654 Clear -18 1035 67 0 2.57 25 01:56 28.12.2019
5655 Clear -18 1035 67 0 2.57 25 01:56 28.12.2019
5656 Clear -18 1036 69 0 2.56 21 01:24 28.12.2019
5657 Clear -18 1036 69 0 2.56 21 00:50 28.12.2019
5658 Clear -18 1036 69 0 2.56 21 00:30 28.12.2019
5659 Clear -18 1036 69 0 2.56 21 23:58 27.12.2019
5660 Clear -18 1036 69 0 2.56 21 23:39 27.12.2019
5661 Clear -17 1033 64 0 2.87 22 23:19 27.12.2019
5662 Clear -17 1033 64 0 2.87 22 22:57 27.12.2019
5663 Clear -17 1033 64 0 2.87 22 22:38 27.12.2019
5664 Clear -17 1033 64 0 2.87 22 22:38 27.12.2019
5665 Clear -17 1033 64 0 2.87 22 22:19 27.12.2019
5666 Clear -17 1033 64 0 2.87 22 21:43 27.12.2019
5667 Clear -17 1033 64 0 2.87 22 21:43 27.12.2019
5668 Clear -17 1033 64 0 2.87 22 21:25 27.12.2019
5669 Clear -17 1033 64 0 2.87 22 20:58 27.12.2019
5670 Clear -17 1033 64 0 2.87 22 20:40 27.12.2019
5671 Clear -16 1030 61 0 2.9 19 20:21 27.12.2019
5672 Clear -16 1030 60 0 2.75 19 19:41 27.12.2019
5673 Clear -16 1030 60 0 2.75 19 19:20 27.12.2019
5674 Clear -16 1030 60 0 2.75 19 18:57 27.12.2019
5675 Clear -16 1030 60 0 2.75 19 18:37 27.12.2019
5676 Clear -16 1030 60 0 2.75 19 18:19 27.12.2019
5677 Clear -16 1030 60 0 2.75 19 17:56 27.12.2019
5678 Clear -16 1030 60 0 2.75 19 17:38 27.12.2019
5679 Clear -14 1025 54 0 3.33 17 17:18 27.12.2019
5680 Clear -14 1025 54 0 3.33 17 16:56 27.12.2019
5681 Clear -14 1025 54 0 3.33 17 16:37 27.12.2019
5682 Clear -14 1025 54 0 3.33 17 16:19 27.12.2019
5683 Clear -14 1025 54 0 3.33 17 15:43 27.12.2019
5684 Clear -14 1025 54 0 3.33 17 15:20 27.12.2019
5685 Clear -14 1025 54 0 3.33 17 14:57 27.12.2019
5686 Clear -14 1025 54 0 3.33 17 14:38 27.12.2019
5687 Snow -11 1018 69 0 3.12 15 14:20 27.12.2019
5688 Snow -11 1018 69 0 3.12 15 13:48 27.12.2019
5689 Snow -11 1018 62 0 3.48 20 13:25 27.12.2019
5690 Snow -11 1018 62 0 3.48 20 12:58 27.12.2019
5691 Snow -11 1018 62 0 3.48 20 12:39 27.12.2019
5692 Snow -11 1018 62 0 3.48 20 12:21 27.12.2019
5693 Snow -11 1018 62 0 3.48 20 11:44 27.12.2019
5694 Snow -11 1018 62 0 3.48 20 11:24 27.12.2019
5695 Snow -5 1013 44 0 2.41 9 10:56 27.12.2019
5696 Snow -5 1013 44 0 2.41 9 10:38 27.12.2019
5697 Snow -5 1013 44 0 2.41 9 10:20 27.12.2019
5698 Snow -5 1013 44 0 2.41 9 09:43 27.12.2019
5699 Snow -5 1013 44 0 2.41 9 09:21 27.12.2019
5700 Snow -5 1013 44 0 2.41 9 08:58 27.12.2019
5701 Snow -5 1013 44 0 2.41 9 08:36 27.12.2019
5702 Snow -7 1015 48 0 1.65 356 07:51 27.12.2019
5703 Snow -7 1015 48 0 1.65 356 07:32 27.12.2019
5704 Snow -7 1015 48 0 1.65 356 06:37 27.12.2019
5705 Snow -7 1015 48 0 1.65 356 05:37 27.12.2019
5706 Snow -9 1019 83 0 1.01 37 03:44 27.12.2019
5707 Clouds -10 1018 76 0 1.23 102 02:21 27.12.2019
5708 Clouds -10 1018 76 0 1.23 102 01:38 27.12.2019
5709 Clouds -11 1018 79 0 1.02 84 01:19 27.12.2019
5710 Clouds -11 1018 79 0 1.02 84 00:43 27.12.2019
5711 Clouds -11 1018 79 0 1.02 84 00:24 27.12.2019
5712 Clouds -11 1018 79 0 1.02 84 00:24 27.12.2019
5713 Clouds -11 1018 79 0 1.02 84 23:42 26.12.2019
5714 Clouds -11 1015 66 0 1.48 104 23:22 26.12.2019
5715 Clouds -11 1015 66 0 1.48 104 22:57 26.12.2019
5716 Clouds -11 1015 66 0 1.48 104 22:37 26.12.2019
5717 Clouds -11 1015 66 0 1.48 104 22:18 26.12.2019
5718 Clouds -11 1015 66 0 1.48 104 21:39 26.12.2019
5719 Clouds -11 1015 66 0 1.48 104 21:21 26.12.2019
5720 Clouds -11 1015 66 0 1.48 104 20:47 26.12.2019
5721 Clouds -10 1015 62 0 1.3 107 20:23 26.12.2019
5722 Clouds -9 1013 53 0 2.24 135 19:59 26.12.2019
5723 Clouds -9 1013 53 0 2.24 135 19:40 26.12.2019
5724 Clouds -9 1013 53 0 2.24 135 19:22 26.12.2019
5725 Clouds -9 1013 53 0 2.24 135 18:58 26.12.2019
5726 Clouds -9 1013 53 0 2.24 135 18:40 26.12.2019
5727 Clouds -9 1013 53 0 2.24 135 18:20 26.12.2019
5728 Clouds -9 1013 53 0 2.24 135 17:57 26.12.2019
5729 Clouds -9 1013 53 0 2.24 135 17:38 26.12.2019
5730 Clouds -9 1013 53 0 2.24 135 17:38 26.12.2019
5731 Clouds -7 1011 41 0 2.9 147 17:19 26.12.2019
5732 Clouds -7 1011 41 0 2.9 147 16:45 26.12.2019
5733 Clouds -7 1011 41 0 2.9 147 16:24 26.12.2019
5734 Clouds -7 1011 41 0 2.9 147 15:56 26.12.2019
5735 Clouds -7 1011 41 0 2.9 147 15:38 26.12.2019
5736 Clouds -7 1011 41 0 2.9 147 15:18 26.12.2019
5737 Clouds -7 1011 41 0 2.9 147 14:41 26.12.2019
5738 Clouds -7 1011 41 0 2.9 147 14:22 26.12.2019
5739 Clouds -4 1007 37 0 1.31 181 13:45 26.12.2019
5740 Clouds -5 1007 37 0 1.64 217 13:23 26.12.2019
5741 Clouds -5 1007 37 0 1.64 217 12:58 26.12.2019
5742 Clouds -5 1007 37 0 1.64 217 12:40 26.12.2019
5743 Clouds -5 1007 37 0 1.64 217 12:21 26.12.2019
5744 Clouds -5 1007 37 0 1.64 217 11:58 26.12.2019
5745 Clouds -5 1007 37 0 1.64 217 11:39 26.12.2019
5746 Clouds 0 1004 25 0 3.3 187 11:20 26.12.2019
5747 Clouds 0 1004 25 0 3.3 187 10:49 26.12.2019
5748 Clouds 0 1004 25 0 3.3 187 10:20 26.12.2019
5749 Clouds 0 1004 25 0 3.3 187 09:54 26.12.2019
5750 Clouds 0 1004 25 0 3.3 187 09:32 26.12.2019
5751 Clouds 0 1004 25 0 3.3 187 08:57 26.12.2019
5752 Clouds 0 1004 25 0 3.3 187 08:38 26.12.2019
5753 Clear -2 1009 32 0 2.45 185 08:20 26.12.2019
5754 Clear -2 1009 32 0 2.45 185 07:31 26.12.2019
5755 Clear -2 1009 32 0 2.45 185 06:56 26.12.2019
5756 Clear -2 1009 32 0 2.45 185 06:33 26.12.2019
5757 Clear -2 1009 32 0 2.45 185 05:57 26.12.2019
5758 Clear -2 1009 32 0 2.45 185 05:38 26.12.2019
5759 Clear -6 1015 42 0 0.82 152 04:32 26.12.2019
5760 Clear -6 1015 42 0 0.82 152 03:20 26.12.2019
5761 Clear -6 1015 42 0 0.82 152 02:40 26.12.2019
5762 Clear -13 1015 69 0 0.9 103 02:20 26.12.2019
5763 Clear -13 1015 69 0 0.9 103 01:42 26.12.2019
5764 Clear -13 1015 72 0 1.03 104 01:24 26.12.2019
5765 Clear -13 1015 72 0 1.03 104 00:42 26.12.2019
5766 Clear -13 1015 72 0 1.03 104 00:22 26.12.2019
5767 Clear -13 1015 72 0 1.03 104 23:56 25.12.2019
5768 Clear -13 1015 72 0 1.03 104 23:36 25.12.2019
5769 Clear -11 1013 65 0 1.42 128 23:18 25.12.2019
5770 Clear -11 1013 65 0 1.42 128 22:55 25.12.2019
5771 Clear -11 1013 65 0 1.42 128 22:36 25.12.2019
5772 Clear -11 1013 65 0 1.42 128 22:18 25.12.2019
5773 Clear -11 1013 65 0 1.42 128 21:40 25.12.2019
5774 -273 0 0 0 0 0 21:22 25.12.2019
5775 Clear -11 1013 65 0 1.42 128 20:58 25.12.2019
5776 Clear -11 1013 65 0 1.42 128 20:40 25.12.2019
5777 Clear -9 1013 36 0 1.81 144 20:18 25.12.2019
5778 Clear -9 1013 36 0 1.81 144 19:57 25.12.2019
5779 Clear -9 1013 36 0 1.81 144 19:39 25.12.2019
5780 Clear -9 1013 36 0 1.81 144 19:21 25.12.2019
5781 Clear -9 1013 36 0 1.81 144 18:39 25.12.2019
5782 Clear -9 1013 36 0 1.81 144 18:20 25.12.2019
5783 Clear -9 1013 36 0 1.81 144 17:43 25.12.2019
5784 Clear -8 1012 14 0 1.86 158 17:21 25.12.2019
5785 Clear -8 1012 14 0 1.86 158 16:59 25.12.2019
5786 Clear -8 1012 14 0 1.86 158 16:39 25.12.2019
5787 Clear -8 1012 14 0 1.86 158 16:19 25.12.2019
5788 Clear -8 1012 14 0 1.86 158 16:19 25.12.2019
5789 Clear -8 1012 14 0 1.86 158 15:58 25.12.2019
5790 Clear -8 1012 14 0 1.86 158 15:39 25.12.2019
5791 Clear -8 1012 14 0 1.86 158 15:39 25.12.2019
5792 Clear -8 1012 14 0 1.86 158 15:21 25.12.2019
5793 Clear -8 1012 14 0 1.86 158 14:58 25.12.2019
5794 Clear -8 1012 14 0 1.86 158 14:40 25.12.2019
5795 Clear -5 1008 7 0 3.24 312 14:21 25.12.2019
5796 Clear -5 1008 7 0 3.24 312 14:21 25.12.2019
5797 Clear -5 1008 7 0 3.24 312 14:21 25.12.2019
5798 Clear -5 1008 7 0 3.24 312 13:57 25.12.2019
5799 Clear -5 1008 7 0 3.24 312 13:38 25.12.2019
5800 Clear -5 1008 7 0 3.24 312 13:19 25.12.2019
5801 Clear -6 1008 7 0 2.59 295 12:40 25.12.2019
5802 Clear -6 1008 7 0 2.59 295 12:20 25.12.2019
5803 Clear -6 1008 7 0 2.59 295 11:55 25.12.2019
5804 Clear -6 1008 7 0 2.59 295 11:55 25.12.2019
5805 Clear -6 1008 7 0 2.59 295 11:37 25.12.2019
5806 Clear 5 1002 3 0 8.96 272 11:18 25.12.2019
5807 Clear 5 1002 3 0 8.96 272 10:38 25.12.2019
5808 Clear 5 1002 3 0 8.96 272 10:19 25.12.2019
5809 Clear 5 1002 3 0 8.96 272 09:50 25.12.2019
5810 Clear 5 1002 3 0 8.96 272 09:32 25.12.2019
5811 Clear 5 1002 3 0 8.96 272 08:51 25.12.2019
5812 Clear 5 1002 3 0 8.96 272 08:30 25.12.2019
5813 Clear 1 1007 9 0 2.63 203 07:50 25.12.2019
5814 Clear 1 1007 9 0 2.63 203 07:32 25.12.2019
5815 Clear 1 1007 9 0 2.63 203 06:51 25.12.2019
5816 Clear 1 1007 9 0 2.63 203 06:22 25.12.2019
5817 Clear -5 1012 24 0 1.79 161 05:18 25.12.2019
5818 Clear -5 1012 24 0 1.79 161 04:39 25.12.2019
5819 Clear -5 1012 24 0 1.79 161 04:20 25.12.2019
5820 Clear -5 1012 24 0 1.79 161 03:41 25.12.2019
5821 Clear -5 1012 24 0 1.79 161 02:53 25.12.2019
5822 Clear -5 1012 24 0 1.79 161 02:27 25.12.2019
5823 Clear -14 1013 50 0 0.91 160 01:25 25.12.2019
5824 Clear -14 1013 58 0 1.17 146 00:54 25.12.2019
5825 Clear -14 1013 58 0 1.17 146 00:54 25.12.2019
5826 Clear -14 1013 58 0 1.17 146 00:32 25.12.2019
5827 Clear -14 1013 58 0 1.17 146 23:57 24.12.2019
5828 Clear -14 1013 58 0 1.17 146 23:38 24.12.2019
5829 Clear -11 1013 46 0 1.59 172 23:20 24.12.2019
5830 Clear -11 1013 46 0 1.59 172 22:41 24.12.2019
5831 Clear -11 1013 46 0 1.59 172 22:21 24.12.2019
5832 Clear -11 1013 46 0 1.59 172 21:44 24.12.2019
5833 Clear -11 1013 46 0 1.59 172 21:23 24.12.2019
5834 Clear -11 1013 46 0 1.59 172 20:59 24.12.2019
5835 Clear -11 1013 46 0 1.59 172 20:40 24.12.2019
5836 Clear -10 1014 37 0 1.38 218 20:19 24.12.2019
5837 Clear -10 1014 29 0 1.38 167 19:45 24.12.2019
5838 Clear -10 1014 29 0 1.38 167 19:20 24.12.2019
5839 Clear -10 1014 29 0 1.38 167 18:57 24.12.2019
5840 Clear -10 1014 29 0 1.38 167 18:38 24.12.2019
5841 Clear -10 1014 29 0 1.38 167 18:18 24.12.2019
5842 Clear -10 1014 29 0 1.38 167 17:39 24.12.2019
5843 Clear -8 1013 16 0 1.03 189 17:21 24.12.2019
5844 Clear -8 1013 16 0 1.03 189 16:56 24.12.2019
5845 Clear -8 1013 16 0 1.03 189 16:38 24.12.2019
5846 Clear -8 1013 16 0 1.03 189 16:20 24.12.2019
5847 Clear -8 1013 16 0 1.03 189 15:56 24.12.2019
5848 Clear -8 1013 16 0 1.03 189 15:36 24.12.2019
5849 Clear -8 1013 16 0 1.03 189 15:18 24.12.2019
5850 Clear -8 1013 16 0 1.03 189 14:56 24.12.2019
5851 Clear -8 1013 16 0 1.03 189 14:38 24.12.2019
5852 Clear -5 1009 11 0 2.35 278 14:20 24.12.2019
5853 Clear -5 1009 11 0 2.35 278 13:55 24.12.2019
5854 Clear -5 1009 11 0 2.35 278 13:37 24.12.2019
5855 Clear -5 1009 13 0 2.97 298 13:19 24.12.2019
5856 Clear -5 1009 13 0 2.97 298 12:55 24.12.2019
5857 Clear -5 1009 13 0 2.97 298 12:36 24.12.2019
5858 Clear -5 1009 13 0 2.97 298 12:18 24.12.2019
5859 Clear -5 1009 13 0 2.97 298 11:55 24.12.2019
5860 Clear -5 1009 13 0 2.97 298 11:36 24.12.2019
5861 Clear 4 1004 8 0 4.51 254 11:18 24.12.2019
5862 Clear 4 1004 8 0 4.51 254 10:55 24.12.2019
5863 Clear 4 1004 8 0 4.51 254 10:55 24.12.2019
5864 Clear 4 1004 8 0 4.51 254 10:37 24.12.2019
5865 Clear 4 1004 8 0 4.51 254 10:19 24.12.2019
5866 Clear 4 1004 8 0 4.51 254 09:54 24.12.2019
5867 Clear 4 1004 8 0 4.51 254 09:36 24.12.2019
5868 Clear 4 1004 8 0 4.51 254 09:18 24.12.2019
5869 Clear 4 1004 8 0 4.51 254 08:43 24.12.2019
5870 Clouds 1 1008 28 0 3.5 191 08:20 24.12.2019
5871 Clouds 0 1008 26 0 2.68 189 07:45 24.12.2019
5872 Clouds 0 1008 26 0 2.68 189 07:25 24.12.2019
5873 Clouds 0 1008 26 0 2.68 189 06:58 24.12.2019
5874 Clouds 0 1008 26 0 2.68 189 06:38 24.12.2019
5875 Clouds 0 1008 26 0 2.68 189 06:18 24.12.2019
5876 Clouds -5 1015 44 0 2.19 184 05:20 24.12.2019
5877 Clouds -5 1015 44 0 2.19 184 04:44 24.12.2019
5878 Clouds -5 1015 44 0 2.19 184 03:50 24.12.2019
5879 Clouds -5 1015 44 0 2.19 184 03:18 24.12.2019
5880 Clouds -11 1016 71 0 1.76 149 02:21 24.12.2019
5881 Clouds -11 1016 71 0 1.76 149 01:50 24.12.2019
5882 Clouds -11 1016 73 0 1.58 147 01:21 24.12.2019
5883 Clouds -11 1016 73 0 1.58 147 00:45 24.12.2019
5884 Clouds -11 1016 73 0 1.58 147 00:23 24.12.2019
5885 Clouds -11 1016 73 0 1.58 147 23:56 23.12.2019
5886 Clouds -11 1016 73 0 1.58 147 23:37 23.12.2019
5887 Clear -10 1015 62 0 1.89 137 23:19 23.12.2019
5888 Clear -10 1015 62 0 1.89 137 22:56 23.12.2019
5889 Clear -10 1015 62 0 1.89 137 22:36 23.12.2019
5890 Clear -10 1015 62 0 1.89 137 22:18 23.12.2019
5891 Clear -10 1015 62 0 1.89 137 21:55 23.12.2019
5892 Clear -10 1015 62 0 1.89 137 21:36 23.12.2019
5893 Clear -10 1015 62 0 1.89 137 21:18 23.12.2019
5894 Clear -10 1015 62 0 1.89 137 20:56 23.12.2019
5895 Clear -10 1015 62 0 1.89 137 20:38 23.12.2019
5896 Clear -8 1015 55 0 1.61 136 20:18 23.12.2019
5897 Clear -8 1015 55 0 1.61 136 19:55 23.12.2019
5898 Clear -8 1015 55 0 1.61 136 19:37 23.12.2019
5899 Clear -8 1015 55 0 1.61 136 19:19 23.12.2019
5900 Clear -8 1015 55 0 1.61 136 18:55 23.12.2019
5901 Clear -8 1015 55 0 1.61 136 18:37 23.12.2019
5902 Clear -8 1015 55 0 1.61 136 18:19 23.12.2019
5903 Clear -8 1015 55 0 1.61 136 17:55 23.12.2019
5904 Clear -8 1015 55 0 1.61 136 17:37 23.12.2019
5905 Clear -7 1014 24 0 1.54 157 17:18 23.12.2019
5906 Clear -7 1014 24 0 1.54 157 16:42 23.12.2019
5907 Clear -7 1014 24 0 1.54 157 16:19 23.12.2019
5908 Clear -7 1014 24 0 1.54 157 15:59 23.12.2019
5909 Clear -7 1014 24 0 1.54 157 15:38 23.12.2019
5910 Clear -7 1014 24 0 1.54 157 15:20 23.12.2019
5911 Clear -7 1014 24 0 1.54 157 14:59 23.12.2019
5912 Clear -7 1014 24 0 1.54 157 14:41 23.12.2019
5913 Clear -7 1014 24 0 1.54 157 14:23 23.12.2019
5914 Clear -6 1009 13 0 0.97 191 13:58 23.12.2019
5915 Clear -6 1009 13 0 0.97 191 13:40 23.12.2019
5916 Clear -6 1009 13 0 0.97 191 13:22 23.12.2019
5917 Clear -6 1009 13 0 0.97 191 13:22 23.12.2019
5918 Clear -5 1009 15 0 1.32 206 12:58 23.12.2019
5919 Clear -5 1009 15 0 1.32 206 12:39 23.12.2019
5920 Clear -5 1009 15 0 1.32 206 12:20 23.12.2019
5921 Clear -5 1009 15 0 1.32 206 11:44 23.12.2019
5922 Clear -5 1009 15 0 1.32 206 11:44 23.12.2019
5923 Clear -5 1009 15 0 1.32 206 11:26 23.12.2019
5924 Clear 3 1006 7 0 0.86 211 10:59 23.12.2019
5925 Clear 3 1006 7 0 0.86 211 10:41 23.12.2019
5926 Clear 3 1006 7 0 0.86 211 10:21 23.12.2019
5927 Clear 3 1006 7 0 0.86 211 09:59 23.12.2019
5928 Clear 3 1006 7 0 0.86 211 09:40 23.12.2019
5929 Clear 3 1006 7 0 0.86 211 09:21 23.12.2019
5930 Clear 3 1006 7 0 0.86 211 08:58 23.12.2019
5931 Clear 3 1006 7 0 0.86 211 08:40 23.12.2019
5932 Clear 2 1010 6 0 1.59 193 08:22 23.12.2019
5933 Clear 2 1010 6 0 1.59 193 07:48 23.12.2019
5934 Clear 2 1010 6 0 1.59 193 07:21 23.12.2019
5935 Clear 2 1010 6 0 1.59 193 06:57 23.12.2019
5936 Clear 2 1010 6 0 1.59 193 06:26 23.12.2019
5937 Clear 2 1010 6 0 1.59 193 05:56 23.12.2019
5938 Clear 2 1010 6 0 1.59 193 05:29 23.12.2019
5939 Clear -2 1016 9 0 0.33 116 04:34 23.12.2019
5940 Clear -2 1016 9 0 0.33 116 03:26 23.12.2019
5941 Clear -2 1016 9 0 0.33 116 02:42 23.12.2019
5942 Clear -12 1016 38 0 1.2 1 02:19 23.12.2019
5943 Clear -12 1016 38 0 1.2 1 01:43 23.12.2019
5944 Clear -12 1015 39 0 1 2 01:25 23.12.2019
5945 Clear -12 1015 39 0 1 2 00:44 23.12.2019
5946 Clear -12 1015 39 0 1 2 00:23 23.12.2019
5947 Clear -12 1015 39 0 1 2 23:40 22.12.2019
5948 Clear -11 1015 30 0 1.66 350 23:22 22.12.2019
5949 Clear -11 1015 30 0 1.66 350 22:58 22.12.2019
5950 Clear -11 1015 30 0 1.66 350 22:40 22.12.2019
5951 Clear -11 1015 30 0 1.66 350 22:22 22.12.2019
5952 Clear -11 1015 30 0 1.66 350 21:58 22.12.2019
5953 Clear -11 1015 30 0 1.66 350 21:40 22.12.2019
5954 Clear -11 1015 30 0 1.66 350 21:21 22.12.2019
5955 Clear -11 1015 30 0 1.66 350 20:58 22.12.2019
5956 Clear -11 1015 30 0 1.66 350 20:39 22.12.2019
5957 Clear -9 1014 25 0 1.99 308 20:19 22.12.2019
5958 Clear -9 1014 25 0 1.99 308 19:57 22.12.2019
5959 Clear -9 1014 25 0 1.99 308 19:39 22.12.2019
5960 Clear -9 1014 25 0 1.99 308 19:19 22.12.2019
5961 Clear -9 1014 25 0 1.99 308 18:42 22.12.2019
5962 Clear -9 1014 25 0 1.99 308 18:24 22.12.2019
5963 Clear -9 1014 25 0 1.99 308 17:56 22.12.2019
5964 Clear -9 1014 25 0 1.99 308 17:38 22.12.2019
5965 Clear -4 1013 12 0 3.64 329 17:19 22.12.2019
5966 Clear -4 1013 12 0 3.64 329 16:57 22.12.2019
5967 Clear -4 1013 12 0 3.64 329 16:38 22.12.2019
5968 Clear -4 1013 12 0 3.64 329 16:20 22.12.2019
5969 Clear -4 1013 12 0 3.64 329 15:56 22.12.2019
5970 Clear -4 1013 12 0 3.64 329 15:56 22.12.2019
5971 Clear -4 1013 12 0 3.64 329 15:38 22.12.2019
5972 Clear -4 1013 12 0 3.64 329 15:19 22.12.2019
5973 Clear -4 1013 12 0 3.64 329 14:55 22.12.2019
5974 Clear -4 1013 12 0 3.64 329 14:37 22.12.2019
5975 Clear -2 1009 9 0 4.36 296 14:18 22.12.2019
5976 Clear -2 1009 9 0 4.36 296 13:55 22.12.2019
5977 Clear -2 1009 9 0 4.36 296 13:36 22.12.2019
5978 Clear -2 1009 9 0 4.36 296 13:36 22.12.2019
5979 Clear -2 1009 10 0 3.87 286 13:18 22.12.2019
5980 Clear -2 1009 10 0 3.87 286 12:55 22.12.2019
5981 Clear -2 1009 10 0 3.87 286 12:55 22.12.2019
5982 Clear -2 1009 10 0 3.87 286 12:37 22.12.2019
5983 Clear -2 1009 10 0 3.87 286 12:18 22.12.2019
5984 Clear -2 1009 10 0 3.87 286 11:56 22.12.2019
5985 Clear -2 1009 10 0 3.87 286 11:37 22.12.2019
5986 Clear 7 1002 4 0 12.99 271 11:18 22.12.2019
5987 Clear 7 1002 4 0 12.99 271 10:54 22.12.2019
5988 Clear 7 1002 4 0 12.99 271 10:36 22.12.2019
5989 Clear 7 1002 4 0 12.99 271 10:18 22.12.2019
5990 Clear 7 1002 4 0 12.99 271 09:56 22.12.2019
5991 Clear 7 1002 4 0 12.99 271 09:37 22.12.2019
5992 Clear 7 1002 4 0 12.99 271 09:19 22.12.2019
5993 Clear 7 1002 4 0 12.99 271 08:39 22.12.2019
5994 Clear 6 1004 7 0 3.98 244 08:21 22.12.2019
5995 Clear 6 1004 7 0 3.98 244 07:40 22.12.2019
5996 Clear 6 1004 7 0 3.98 244 07:21 22.12.2019
5997 Clear 6 1004 7 0 3.98 244 06:41 22.12.2019
5998 Clear 6 1004 7 0 3.98 244 06:21 22.12.2019
5999 Clear 6 1004 7 0 3.98 244 05:29 22.12.2019
6000 Clear -1 1011 31 0 2.67 190 04:31 22.12.2019
6001 Clear -1 1011 31 0 2.67 190 03:58 22.12.2019
6002 Clear -1 1011 31 0 2.67 190 02:43 22.12.2019
6003 Clear -1 1011 31 0 2.67 190 02:43 22.12.2019
6004 Clear -1 1011 31 0 2.67 190 02:43 22.12.2019
6005 Clear -8 1010 60 0 1.73 149 01:54 22.12.2019
6006 Clear -8 1010 60 0 1.73 149 01:31 22.12.2019
6007 Clear -8 1011 59 0 1.8 158 00:48 22.12.2019
6008 Clear -8 1011 59 0 1.8 158 00:28 22.12.2019
6009 Clear -8 1011 59 0 1.8 158 23:57 21.12.2019
6010 Clear -8 1011 59 0 1.8 158 23:39 21.12.2019
6011 Clear -7 1010 50 0 1.35 136 23:20 21.12.2019
6012 Clear -7 1010 50 0 1.35 136 22:46 21.12.2019
6013 Clear -7 1010 50 0 1.35 136 22:46 21.12.2019
6014 Clear -7 1010 50 0 1.35 136 22:20 21.12.2019
6015 Clear -7 1010 50 0 1.35 136 21:58 21.12.2019
6016 Clear -7 1010 50 0 1.35 136 21:39 21.12.2019
6017 Clear -7 1010 50 0 1.35 136 21:20 21.12.2019
6018 Clear -7 1010 50 0 1.35 136 20:59 21.12.2019
6019 Clear -7 1010 50 0 1.35 136 20:41 21.12.2019
6020 Clear -5 1008 28 0 1.78 118 20:22 21.12.2019
6021 Clear -5 1008 28 0 1.78 118 19:58 21.12.2019
6022 Clear -5 1008 28 0 1.78 118 19:40 21.12.2019
6023 Clear -5 1008 28 0 1.78 118 19:19 21.12.2019
6024 Clear -5 1008 28 0 1.78 118 18:55 21.12.2019
6025 Clear -5 1008 28 0 1.78 118 18:37 21.12.2019
6026 Clear -5 1008 28 0 1.78 118 18:19 21.12.2019
6027 Clear -5 1008 28 0 1.78 118 17:55 21.12.2019
6028 Clear -5 1008 28 0 1.78 118 17:36 21.12.2019
6029 Clear -4 1008 27 0 0.42 202 17:18 21.12.2019
6030 Clear -4 1008 27 0 0.42 202 17:18 21.12.2019
6031 Clear -4 1008 27 0 0.42 202 16:41 21.12.2019
6032 Clear -4 1008 27 0 0.42 202 16:19 21.12.2019
6033 Clear -4 1008 27 0 0.42 202 15:57 21.12.2019
6034 Clear -4 1008 27 0 0.42 202 15:39 21.12.2019
6035 Clear -4 1008 27 0 0.42 202 15:20 21.12.2019
6036 Clear -4 1008 27 0 0.42 202 14:57 21.12.2019
6037 Clear -4 1008 27 0 0.42 202 14:39 21.12.2019
6038 Clear -4 1008 27 0 0.42 202 14:39 21.12.2019
6039 Clouds 0 1004 13 0 2.85 305 14:20 21.12.2019
6040 Clouds 0 1004 13 0 2.85 305 13:56 21.12.2019
6041 Clouds 0 1004 13 0 2.85 305 13:38 21.12.2019
6042 Clear 0 1005 12 0 2.43 286 13:18 21.12.2019
6043 Clear 0 1005 12 0 2.43 286 12:55 21.12.2019
6044 Clear 0 1005 12 0 2.43 286 12:37 21.12.2019
6045 Clear 0 1005 12 0 2.43 286 12:18 21.12.2019
6046 Clear 0 1005 12 0 2.43 286 11:44 21.12.2019
6047 Clear 0 1005 12 0 2.43 286 11:26 21.12.2019
6048 Clouds 9 999 6 0 13.74 265 10:57 21.12.2019
6049 Clouds 9 999 6 0 13.74 265 10:57 21.12.2019
6050 Clouds 9 999 6 0 13.74 265 10:38 21.12.2019
6051 Clouds 9 999 6 0 13.74 265 10:38 21.12.2019
6052 Clouds 9 999 6 0 13.74 265 10:20 21.12.2019
6053 Clouds 9 999 6 0 13.74 265 09:56 21.12.2019
6054 Clouds 9 999 6 0 13.74 265 09:37 21.12.2019
6055 Clouds 9 999 6 0 13.74 265 09:18 21.12.2019
6056 Clouds 9 999 6 0 13.74 265 08:44 21.12.2019
6057 Clouds 9 999 6 0 13.74 265 08:25 21.12.2019
6058 Clouds 9 1002 6 0 12.11 265 07:46 21.12.2019
6059 Clouds 9 1002 6 0 12.11 265 07:22 21.12.2019
6060 Clouds 9 1002 6 0 12.11 265 06:46 21.12.2019
6061 Clouds 9 1002 6 0 12.11 265 06:26 21.12.2019
6062 Clouds 9 1002 6 0 12.11 265 05:55 21.12.2019
6063 Clouds 2 1008 15 0 2.9 204 04:58 21.12.2019
6064 Clouds 2 1008 15 0 2.9 204 03:59 21.12.2019
6065 Clouds 2 1008 15 0 2.9 204 03:37 21.12.2019
6066 Clouds -6 1009 28 0 1.58 155 02:18 21.12.2019
6067 Clouds -6 1009 28 0 1.58 155 01:38 21.12.2019
6068 Clouds -7 1009 41 0 1.51 187 01:20 21.12.2019
6069 Clouds -7 1009 41 0 1.51 187 00:37 21.12.2019
6070 Clouds -7 1009 41 0 1.51 187 00:18 21.12.2019
6071 Clouds -7 1009 41 0 1.51 187 23:38 20.12.2019
6072 Clouds -5 1009 36 0 2.2 263 23:19 20.12.2019
6073 Clouds -5 1009 36 0 2.2 263 22:57 20.12.2019
6074 Clouds -5 1009 36 0 2.2 263 22:36 20.12.2019
6075 Clouds -5 1009 36 0 2.2 263 22:18 20.12.2019
6076 Clouds -5 1009 36 0 2.2 263 21:40 20.12.2019
6077 Clouds -5 1009 36 0 2.2 263 21:20 20.12.2019
6078 Clouds -5 1009 36 0 2.2 263 20:56 20.12.2019
6079 Clouds -5 1009 36 0 2.2 263 20:36 20.12.2019
6080 Clouds -4 1010 29 0 2.45 285 20:18 20.12.2019
6081 Clouds -4 1010 33 0 1.08 226 19:42 20.12.2019
6082 Clouds -4 1010 33 0 1.08 226 19:21 20.12.2019
6083 Clouds -4 1010 33 0 1.08 226 18:58 20.12.2019
6084 Clouds -4 1010 33 0 1.08 226 18:39 20.12.2019
6085 Clouds -4 1010 33 0 1.08 226 18:21 20.12.2019
6086 Clouds -4 1010 33 0 1.08 226 17:55 20.12.2019
6087 Clouds -4 1010 33 0 1.08 226 17:37 20.12.2019
6088 Clouds -1 1009 17 0 3.2 306 17:18 20.12.2019
6089 Clouds -1 1009 17 0 3.2 306 16:41 20.12.2019
6090 Clouds -1 1009 17 0 3.2 306 16:21 20.12.2019
6091 Clouds -1 1009 17 0 3.2 306 15:57 20.12.2019
6092 Clouds -1 1009 17 0 3.2 306 15:39 20.12.2019
6093 Clouds -1 1009 17 0 3.2 306 15:21 20.12.2019
6094 Clouds -1 1009 17 0 3.2 306 14:59 20.12.2019
6095 Clouds -1 1009 17 0 3.2 306 14:41 20.12.2019
6096 Clouds -1 1009 17 0 3.2 306 14:23 20.12.2019
6097 Clouds 2 1005 14 0 5.2 288 13:56 20.12.2019
6098 Clouds 2 1005 14 0 5.2 288 13:37 20.12.2019
6099 Clouds 2 1005 14 0 5.2 288 13:18 20.12.2019
6100 Clouds 2 1005 14 0 5.92 285 12:55 20.12.2019
6101 Clouds 2 1005 14 0 5.92 285 12:36 20.12.2019
6102 Clouds 2 1005 14 0 5.92 285 12:18 20.12.2019
6103 Clouds 2 1005 14 0 5.92 285 11:56 20.12.2019
6104 Clouds 2 1005 14 0 5.92 285 11:37 20.12.2019
6105 Clouds 8 1000 8 0 12.29 263 11:18 20.12.2019
6106 Clouds 8 1000 8 0 12.29 263 10:54 20.12.2019
6107 Clouds 8 1000 8 0 12.29 263 10:36 20.12.2019
6108 Clouds 8 1000 8 0 12.29 263 10:18 20.12.2019
6109 Clouds 8 1000 8 0 12.29 263 09:41 20.12.2019
6110 Clouds 8 1000 8 0 12.29 263 09:21 20.12.2019
6111 Clouds 8 1000 8 0 12.29 263 09:21 20.12.2019
6112 Clouds 8 1000 8 0 12.29 263 08:54 20.12.2019
6113 Clouds 8 1000 8 0 12.29 263 08:36 20.12.2019
6114 Clear 8 1003 7 0 10.09 270 08:18 20.12.2019
6115 Clear 8 1003 7 0 10.09 270 07:41 20.12.2019
6116 Clear 8 1003 7 0 10.09 270 07:22 20.12.2019
6117 Clear 8 1003 7 0 10.09 270 06:52 20.12.2019
6118 Clear 8 1003 7 0 10.09 270 06:33 20.12.2019
6119 Clear 8 1003 7 0 10.09 270 05:56 20.12.2019
6120 Clear 8 1003 7 0 10.09 270 05:38 20.12.2019
6121 Clear 0 1009 15 0 1.91 197 04:46 20.12.2019
6122 Clear 0 1009 15 0 1.91 197 03:33 20.12.2019
6123 Clear 0 1009 15 0 1.91 197 02:45 20.12.2019
6124 Clear 0 1009 15 0 1.91 197 02:45 20.12.2019
6125 Clouds -10 1010 48 0 0.64 321 01:54 20.12.2019
6126 Clouds -10 1010 48 0 0.64 321 01:34 20.12.2019
6127 Clouds -10 1010 49 0 0.37 327 00:53 20.12.2019
6128 Clouds -10 1010 49 0 0.37 327 00:34 20.12.2019
6129 Clouds -10 1010 49 0 0.37 327 23:57 19.12.2019
6130 Clouds -10 1010 49 0 0.37 327 23:38 19.12.2019
6131 Clouds -10 1010 49 0 0.37 327 23:38 19.12.2019
6132 Clear -8 1011 45 0 1.79 287 23:19 19.12.2019
6133 Clear -8 1011 45 0 1.79 287 23:19 19.12.2019
6134 Clear -8 1011 45 0 1.79 287 22:38 19.12.2019
6135 Clear -8 1011 45 0 1.79 287 22:20 19.12.2019
6136 Clear -8 1011 45 0 1.79 287 21:56 19.12.2019
6137 Clear -8 1011 45 0 1.79 287 21:38 19.12.2019
6138 Clear -8 1011 45 0 1.79 287 21:19 19.12.2019
6139 Clear -8 1011 45 0 1.79 287 20:56 19.12.2019
6140 Clear -8 1011 45 0 1.79 287 20:37 19.12.2019
6141 Clouds -7 1010 42 0 1.74 260 20:19 19.12.2019
6142 Clouds -7 1010 42 0 1.74 260 19:58 19.12.2019
6143 Clouds -7 1010 42 0 1.74 260 19:39 19.12.2019
6144 Clouds -7 1010 42 0 1.74 260 19:19 19.12.2019
6145 Clouds -7 1010 42 0 1.74 260 19:19 19.12.2019
6146 Clouds -7 1010 42 0 1.74 260 19:19 19.12.2019
6147 Clouds -7 1010 42 0 1.74 260 18:56 19.12.2019
6148 Clouds -7 1010 42 0 1.74 260 18:38 19.12.2019
6149 Clouds -7 1010 42 0 1.74 260 18:18 19.12.2019
6150 Clouds -7 1010 42 0 1.74 260 17:55 19.12.2019
6151 Clouds -7 1010 42 0 1.74 260 17:37 19.12.2019
6152 Clouds -7 1010 42 0 1.74 260 17:37 19.12.2019
6153 Clouds -5 1011 22 0 1.52 309 17:18 19.12.2019
6154 Clouds -5 1011 22 0 1.52 309 16:55 19.12.2019
6155 Clouds -5 1011 22 0 1.52 309 16:36 19.12.2019
6156 Clouds -5 1011 22 0 1.52 309 16:18 19.12.2019
6157 Clouds -5 1011 22 0 1.52 309 15:55 19.12.2019
6158 Clouds -5 1011 22 0 1.52 309 15:36 19.12.2019
6159 Clouds -5 1011 22 0 1.52 309 15:18 19.12.2019
6160 Clouds -5 1011 22 0 1.52 309 14:42 19.12.2019
6161 Clouds -1 1009 14 0 3.57 222 14:20 19.12.2019
6162 Clouds -1 1009 14 0 3.57 222 13:58 19.12.2019
6163 Clouds -1 1009 14 0 3.57 222 13:38 19.12.2019
6164 Clouds -2 1009 16 0 2.57 243 13:19 19.12.2019
6165 Clouds -2 1009 16 0 2.57 243 12:57 19.12.2019
6166 Clouds -2 1009 16 0 2.57 243 12:39 19.12.2019
6167 Clouds -2 1009 16 0 2.57 243 12:39 19.12.2019
6168 Clouds -2 1009 16 0 2.57 243 12:19 19.12.2019
6169 Clouds -2 1009 16 0 2.57 243 11:58 19.12.2019
6170 Clouds -2 1009 16 0 2.57 243 11:40 19.12.2019
6171 Clouds 6 1007 9 0 8.29 268 11:18 19.12.2019
6172 Clouds 6 1007 9 0 8.29 268 10:56 19.12.2019
6173 Clouds 6 1007 9 0 8.29 268 10:38 19.12.2019
6174 Clouds 6 1007 9 0 8.29 268 10:19 19.12.2019
6175 Clouds 6 1007 9 0 8.29 268 09:54 19.12.2019
6176 Clouds 6 1007 9 0 8.29 268 09:36 19.12.2019
6177 Clouds 6 1007 9 0 8.29 268 09:18 19.12.2019
6178 Clouds 6 1007 9 0 8.29 268 08:41 19.12.2019
6179 Clouds 6 1010 8 0 10.86 282 08:19 19.12.2019
6180 Clouds 6 1010 8 0 10.86 282 07:58 19.12.2019
6181 Clouds 6 1010 8 0 10.86 282 07:38 19.12.2019
6182 Clouds 6 1010 8 0 10.86 282 07:20 19.12.2019
6183 Clouds 6 1010 8 0 10.86 282 06:50 19.12.2019
6184 Clouds 6 1010 8 0 10.86 282 06:30 19.12.2019
6185 Clouds 6 1010 8 0 10.86 282 05:55 19.12.2019
6186 Clouds 6 1010 8 0 10.86 282 05:36 19.12.2019
6187 Clear -1 1016 10 0 1.59 176 04:52 19.12.2019
6188 Clear -1 1016 10 0 1.59 176 03:23 19.12.2019
6189 Clear -1 1016 10 0 1.59 176 02:23 19.12.2019
6190 Clouds -11 1017 36 0 0.91 196 01:23 19.12.2019
6191 Clouds -11 1017 36 0 0.91 196 00:44 19.12.2019
6192 Clouds -11 1017 36 0 0.91 196 00:24 19.12.2019
6193 Clouds -11 1017 36 0 0.91 196 23:58 18.12.2019
6194 Clouds -11 1017 36 0 0.91 196 23:38 18.12.2019
6195 Clouds -10 1016 18 0 0.66 187 23:19 18.12.2019
6196 Clouds -10 1016 18 0 0.66 187 22:56 18.12.2019
6197 Clouds -10 1016 18 0 0.66 187 22:37 18.12.2019
6198 Clouds -10 1016 18 0 0.66 187 22:19 18.12.2019
6199 Clouds -10 1016 18 0 0.66 187 21:57 18.12.2019
6200 Clouds -10 1016 18 0 0.66 187 21:39 18.12.2019
6201 Clouds -10 1016 18 0 0.66 187 21:19 18.12.2019
6202 Clouds -10 1016 18 0 0.66 187 20:55 18.12.2019
6203 Clouds -10 1016 18 0 0.66 187 20:37 18.12.2019
6204 Clouds -10 1016 18 0 0.66 187 20:37 18.12.2019
6205 Clouds -8 1017 14 0 0.62 287 20:19 18.12.2019
6206 Clouds -8 1017 14 0 0.62 287 19:55 18.12.2019
6207 Clouds -8 1017 14 0 0.62 287 19:37 18.12.2019
6208 Clouds -8 1017 14 0 0.62 287 19:18 18.12.2019
6209 Clouds -8 1017 14 0 0.62 287 18:44 18.12.2019
6210 Clouds -8 1017 14 0 0.62 287 18:25 18.12.2019
6211 Clouds -8 1017 14 0 0.62 287 17:57 18.12.2019
6212 Clouds -8 1017 14 0 0.62 287 17:39 18.12.2019
6213 Clouds -7 1019 13 0 1.2 61 17:20 18.12.2019
6214 Clouds -7 1019 13 0 1.2 61 16:57 18.12.2019
6215 Clouds -7 1019 13 0 1.2 61 16:39 18.12.2019
6216 Clouds -7 1019 13 0 1.2 61 16:20 18.12.2019
6217 Clouds -7 1019 13 0 1.2 61 15:56 18.12.2019
6218 Clouds -7 1019 13 0 1.2 61 15:37 18.12.2019
6219 Clouds -7 1019 13 0 1.2 61 15:19 18.12.2019
6220 Clouds -7 1019 13 0 1.2 61 14:42 18.12.2019
6221 Clouds -6 1016 15 0 0.87 346 14:22 18.12.2019
6222 Clouds -6 1016 15 0 0.87 346 13:57 18.12.2019
6223 Clouds -6 1016 15 0 0.87 346 13:39 18.12.2019
6224 Clouds -6 1016 16 0 1.45 16 13:20 18.12.2019
6225 Clouds -6 1016 16 0 1.45 16 12:59 18.12.2019
6226 Clouds -6 1016 16 0 1.45 16 12:59 18.12.2019
6227 Clouds -6 1016 16 0 1.45 16 12:39 18.12.2019
6228 Clouds -6 1016 16 0 1.45 16 12:20 18.12.2019
6229 Clouds -6 1016 16 0 1.45 16 11:56 18.12.2019
6230 Clouds -6 1016 16 0 1.45 16 11:38 18.12.2019
6231 Clouds -6 1016 16 0 1.45 16 11:38 18.12.2019
6232 Clouds 3 1013 8 0 7.01 298 11:19 18.12.2019
6233 Clouds 3 1013 8 0 7.01 298 10:57 18.12.2019
6234 Clouds 3 1013 8 0 7.01 298 10:39 18.12.2019
6235 Clouds 3 1013 8 0 7.01 298 10:20 18.12.2019
6236 Clouds 3 1013 8 0 7.01 298 09:57 18.12.2019
6237 Clouds 3 1013 8 0 7.01 298 09:19 18.12.2019
6238 Clouds 3 1013 8 0 7.01 298 08:42 18.12.2019
6239 Clouds 3 1013 8 0 7.01 298 08:24 18.12.2019
6240 Clouds 2 1016 6 0 5.73 325 07:56 18.12.2019
6241 Clouds 2 1016 6 0 5.73 325 07:56 18.12.2019
6242 Clouds 2 1016 6 0 5.73 325 07:38 18.12.2019
6243 Clouds 2 1016 6 0 5.73 325 07:19 18.12.2019
6244 Clouds 2 1016 6 0 5.73 325 06:50 18.12.2019
6245 Clouds 2 1016 6 0 5.73 325 06:22 18.12.2019
6246 Clouds 2 1016 6 0 5.73 325 05:34 18.12.2019
6247 Clear -6 1021 18 0 1.8 16 03:46 18.12.2019
6248 Clear -6 1021 18 0 1.8 16 02:44 18.12.2019
6249 Clear -6 1021 18 0 1.8 16 02:26 18.12.2019
6250 Clear -13 1021 33 0 2.48 16 01:43 18.12.2019
6251 Clear -13 1022 37 0 2.34 25 01:25 18.12.2019
6252 Clear -13 1022 37 0 2.34 25 00:42 18.12.2019
6253 Clear -13 1022 37 0 2.34 25 00:24 18.12.2019
6254 Clear -13 1022 37 0 2.34 25 23:58 17.12.2019
6255 Clear -13 1022 37 0 2.34 25 23:40 17.12.2019
6256 Clear -12 1020 37 0 1.11 1 23:21 17.12.2019
6257 Clear -12 1020 37 0 1.11 1 22:57 17.12.2019
6258 Clear -12 1020 37 0 1.11 1 22:39 17.12.2019
6259 Clear -12 1020 37 0 1.11 1 22:19 17.12.2019
6260 Clear -12 1020 37 0 1.11 1 21:57 17.12.2019
6261 Clear -12 1020 37 0 1.11 1 21:38 17.12.2019
6262 Clear -12 1020 37 0 1.11 1 21:20 17.12.2019
6263 Clear -12 1020 37 0 1.11 1 20:59 17.12.2019
6264 Clear -12 1020 37 0 1.11 1 20:39 17.12.2019
6265 Clouds -11 1020 24 0 0.72 254 20:19 17.12.2019
6266 Clouds -11 1020 24 0 0.72 254 19:57 17.12.2019
6267 Clouds -11 1020 24 0 0.72 254 19:39 17.12.2019
6268 Clouds -11 1020 24 0 0.72 254 19:19 17.12.2019
6269 Clouds -11 1020 24 0 0.72 254 18:57 17.12.2019
6270 Clouds -11 1020 24 0 0.72 254 18:57 17.12.2019
6271 Clouds -11 1020 24 0 0.72 254 18:37 17.12.2019
6272 Clouds -11 1020 24 0 0.72 254 18:19 17.12.2019
6273 Clouds -11 1020 24 0 0.72 254 17:54 17.12.2019
6274 Clouds -11 1020 24 0 0.72 254 17:36 17.12.2019
6275 Clouds -9 1020 28 0 0.37 10 17:18 17.12.2019
6276 Clouds -9 1020 28 0 0.37 10 16:54 17.12.2019
6277 Clouds -9 1020 28 0 0.37 10 16:36 17.12.2019
6278 Clouds -9 1020 28 0 0.37 10 16:18 17.12.2019
6279 Clouds -9 1020 28 0 0.37 10 15:38 17.12.2019
6280 Clouds -9 1020 28 0 0.37 10 15:20 17.12.2019
6281 Clouds -9 1020 28 0 0.37 10 14:56 17.12.2019
6282 Clouds -9 1020 28 0 0.37 10 14:38 17.12.2019
6283 Clouds -5 1016 22 0 2.7 308 14:19 17.12.2019
6284 Clouds -5 1016 22 0 2.7 308 13:58 17.12.2019
6285 Clouds -5 1016 22 0 2.7 308 13:39 17.12.2019
6286 Clouds -5 1016 28 0 3.55 333 13:19 17.12.2019
6287 Clouds -5 1016 28 0 3.55 333 12:59 17.12.2019
6288 Clouds -5 1016 28 0 3.55 333 12:38 17.12.2019
6289 Clouds -5 1016 28 0 3.55 333 12:38 17.12.2019
6290 Clouds -5 1016 28 0 3.55 333 12:18 17.12.2019
6291 Clouds -5 1016 28 0 3.55 333 11:57 17.12.2019
6292 Clouds -5 1016 28 0 3.55 333 11:37 17.12.2019
6293 Clouds 0 1012 12 0 3.36 255 11:18 17.12.2019
6294 Clouds 0 1012 12 0 3.36 255 10:57 17.12.2019
6295 Clouds 0 1012 12 0 3.36 255 10:38 17.12.2019
6296 Clouds 0 1012 12 0 3.36 255 10:19 17.12.2019
6297 Clouds 0 1012 12 0 3.36 255 10:19 17.12.2019
6298 Clouds 0 1012 12 0 3.36 255 09:56 17.12.2019
6299 Clouds 0 1012 12 0 3.36 255 09:38 17.12.2019
6300 Clouds 0 1012 12 0 3.36 255 09:18 17.12.2019
6301 Clouds 0 1012 12 0 3.36 255 08:54 17.12.2019
6302 Clouds 0 1012 12 0 3.36 255 08:36 17.12.2019
6303 Clouds -2 1015 28 0 2.13 194 08:18 17.12.2019
6304 Clouds -2 1015 28 0 2.13 194 07:42 17.12.2019
6305 Clouds -2 1015 28 0 2.13 194 07:22 17.12.2019
6306 Clouds -2 1015 28 0 2.13 194 06:50 17.12.2019
6307 Clouds -2 1015 28 0 2.13 194 06:32 17.12.2019
6308 Clouds -2 1015 28 0 2.13 194 05:50 17.12.2019
6309 Clouds -2 1015 28 0 2.13 194 05:31 17.12.2019
6310 Clouds -6 1020 47 0 2.06 168 04:00 17.12.2019
6311 Clouds -6 1020 47 0 2.06 168 02:26 17.12.2019
6312 Clear -12 1019 77 0 1.54 135 01:22 17.12.2019
6313 Clear -12 1019 77 0 1.54 135 00:48 17.12.2019
6314 Clear -12 1019 77 0 1.54 135 00:22 17.12.2019
6315 Clear -12 1019 77 0 1.54 135 23:58 16.12.2019
6316 Clear -12 1019 77 0 1.54 135 23:40 16.12.2019
6317 Clear -10 1018 69 0 1.76 139 23:18 16.12.2019
6318 Clear -10 1018 69 0 1.76 139 22:55 16.12.2019
6319 Clear -10 1018 69 0 1.76 139 22:36 16.12.2019
6320 Clear -10 1018 69 0 1.76 139 22:18 16.12.2019
6321 Clear -10 1018 69 0 1.76 139 21:54 16.12.2019
6322 Clear -10 1018 69 0 1.76 139 21:36 16.12.2019
6323 Clear -10 1018 69 0 1.76 139 21:18 16.12.2019
6324 Clear -10 1018 69 0 1.76 139 20:56 16.12.2019
6325 Clear -10 1018 69 0 1.76 139 20:37 16.12.2019
6326 Clear -10 1018 69 0 1.76 139 20:37 16.12.2019
6327 Clear -9 1017 53 0 2.15 143 20:18 16.12.2019
6328 Clear -9 1017 53 0 2.15 143 19:55 16.12.2019
6329 Clear -9 1017 53 0 2.15 143 19:36 16.12.2019
6330 Clear -9 1017 53 0 2.15 143 19:18 16.12.2019
6331 Clear -9 1017 53 0 2.15 143 18:54 16.12.2019
6332 Clear -9 1017 53 0 2.15 143 18:36 16.12.2019
6333 Clear -9 1017 53 0 2.15 143 18:18 16.12.2019
6334 Clear -9 1017 53 0 2.15 143 17:55 16.12.2019
6335 Clear -9 1017 53 0 2.15 143 17:37 16.12.2019
6336 Clear -7 1017 39 0 2.4 146 17:18 16.12.2019
6337 Clear -7 1017 39 0 2.4 146 16:54 16.12.2019
6338 Clear -7 1017 39 0 2.4 146 16:36 16.12.2019
6339 Clear -7 1017 39 0 2.4 146 16:18 16.12.2019
6340 Clear -7 1017 39 0 2.4 146 15:54 16.12.2019
6341 Clear -7 1017 39 0 2.4 146 15:36 16.12.2019
6342 Clear -7 1017 39 0 2.4 146 15:18 16.12.2019
6343 Clear -7 1017 39 0 2.4 146 14:54 16.12.2019
6344 Clear -7 1017 39 0 2.4 146 14:36 16.12.2019
6345 Clear -5 1013 28 0 0.46 40 14:18 16.12.2019
6346 Clear -5 1013 28 0 0.46 40 13:38 16.12.2019
6347 Clear -6 1013 32 0 0.53 180 13:20 16.12.2019
6348 Clear -6 1013 32 0 0.53 180 12:58 16.12.2019
6349 Clear -5 1012 29 0 1.22 130 12:58 16.12.2019
6350 Clear -5 1012 29 0 1.22 130 12:40 16.12.2019
6351 Clear -5 1012 29 0 1.22 130 12:20 16.12.2019
6352 Clear -6 1013 32 0 0.53 180 11:59 16.12.2019
6353 Clear -5 1012 29 0 1.22 130 11:41 16.12.2019
6354 Clear 1 1009 20 0 0.53 90 11:22 16.12.2019
6355 Clear 1 1009 20 0 0.53 90 10:59 16.12.2019
6356 Clear 1 1009 20 0 0.53 90 10:40 16.12.2019
6357 Clear 0 1010 21 0 1.09 195 10:21 16.12.2019
6358 Clear 0 1010 21 0 1.09 195 09:47 16.12.2019
6359 Clear 0 1010 21 0 1.09 195 09:29 16.12.2019
6360 Clear 0 1010 21 0 1.09 195 08:58 16.12.2019
6361 Clear 1 1009 20 0 0.53 90 08:38 16.12.2019
6362 Clear -1 1013 26 0 2.71 199 08:19 16.12.2019
6363 Clear -1 1013 26 0 2.71 199 07:51 16.12.2019
6364 Clear -1 1013 26 0 2.71 199 07:31 16.12.2019
6365 Clear -1 1013 26 0 2.71 199 07:31 16.12.2019
6366 Clear -1 1013 26 0 2.71 199 06:48 16.12.2019
6367 Clear -1 1013 26 0 2.71 199 06:27 16.12.2019
6368 Clear -1 1013 26 0 2.71 199 05:58 16.12.2019
6369 Clear -1 1013 26 0 2.71 199 05:39 16.12.2019
6370 Clear -5 1019 43 0 2.22 183 05:21 16.12.2019
6371 Clear -5 1019 43 0 2.22 183 02:50 16.12.2019
6372 Clear -11 1020 75 0 1.79 146 01:45 16.12.2019
6373 Clear -11 1020 73 0 1.59 138 00:56 16.12.2019
6374 Clear -11 1020 73 0 1.59 138 00:37 16.12.2019
6375 Clear -11 1020 73 0 1.59 138 00:18 16.12.2019
6376 Clear -11 1020 73 0 1.59 138 23:41 15.12.2019
6377 Clear -10 1019 67 0 1.84 135 23:22 15.12.2019
6378 Clear -10 1019 67 0 1.84 135 22:57 15.12.2019
6379 Clear -10 1019 67 0 1.84 135 22:57 15.12.2019
6380 Clear -10 1019 67 0 1.84 135 22:38 15.12.2019
6381 Clear -10 1019 67 0 1.84 135 22:19 15.12.2019
6382 Clear -10 1019 67 0 1.84 135 21:57 15.12.2019
6383 Clear -10 1019 67 0 1.84 135 21:38 15.12.2019
6384 Clear -10 1019 67 0 1.84 135 21:38 15.12.2019
6385 Clear -10 1019 67 0 1.84 135 21:19 15.12.2019
6386 Clear -10 1019 67 0 1.84 135 21:19 15.12.2019
6387 Clear -10 1019 67 0 1.84 135 20:58 15.12.2019
6388 Clear -10 1019 67 0 1.84 135 20:39 15.12.2019
6389 Clear -10 1019 67 0 1.84 135 20:39 15.12.2019
6390 Clouds -9 1017 51 0 1.73 131 20:20 15.12.2019
6391 Clouds -9 1017 54 0 1.74 134 19:58 15.12.2019
6392 Clouds -9 1017 54 0 1.74 134 19:39 15.12.2019
6393 Clouds -9 1017 54 0 1.74 134 19:19 15.12.2019
6394 Clouds -9 1017 51 0 1.73 131 18:57 15.12.2019
6395 Clouds -9 1017 51 0 1.73 131 18:57 15.12.2019
6396 Clouds -9 1017 51 0 1.73 131 18:39 15.12.2019
6397 Clouds -9 1017 54 0 1.74 134 18:19 15.12.2019
6398 Clouds -9 1017 54 0 1.74 134 17:56 15.12.2019
6399 Clouds -9 1017 54 0 1.74 134 17:37 15.12.2019
6400 Clouds -9 1017 54 0 1.74 134 17:37 15.12.2019
6401 Clouds -6 1015 33 0 2.47 182 17:19 15.12.2019
6402 Clouds -6 1015 33 0 2.47 182 16:57 15.12.2019
6403 Clouds -6 1015 33 0 2.47 182 16:39 15.12.2019
6404 Clouds -6 1015 33 0 2.47 182 16:20 15.12.2019
6405 Clouds -6 1015 33 0 2.47 182 15:55 15.12.2019
6406 Clouds -7 1016 37 0 2.37 162 15:55 15.12.2019
6407 Clouds -6 1015 33 0 2.47 182 15:55 15.12.2019
6408 Clouds -7 1016 37 0 2.37 162 15:37 15.12.2019
6409 Clouds -6 1015 33 0 2.47 182 15:18 15.12.2019
6410 Clouds -6 1015 33 0 2.47 182 14:55 15.12.2019
6411 Clouds -7 1016 37 0 2.37 162 14:36 15.12.2019
6412 Clouds -2 1011 23 0 5.01 189 14:18 15.12.2019
6413 Clouds -2 1012 27 0 3.57 202 13:56 15.12.2019
6414 Clouds -2 1011 23 0 5.01 189 13:37 15.12.2019
6415 Clouds -2 1012 27 0 3.57 202 13:19 15.12.2019
6416 Clouds -2 1012 27 0 3.57 202 13:19 15.12.2019
6417 Clouds -2 1011 23 0 5.01 189 12:56 15.12.2019
6418 Clouds -2 1011 23 0 5.01 189 12:38 15.12.2019
6419 Clouds -2 1011 23 0 5.01 189 12:20 15.12.2019
6420 Clouds -2 1011 23 0 5.01 189 11:39 15.12.2019
6421 Clouds 2 1009 16 0 4.63 165 11:20 15.12.2019
6422 Clouds 2 1009 16 0 4.63 165 10:59 15.12.2019
6423 Clouds 2 1009 16 0 4.63 165 10:41 15.12.2019
6424 Clouds 2 1009 16 0 4.63 165 10:20 15.12.2019
6425 Clouds 2 1009 16 0 4.63 165 09:59 15.12.2019
6426 Clouds 2 1009 16 0 4.63 165 09:39 15.12.2019
6427 Clouds 2 1009 16 0 4.63 165 09:20 15.12.2019
6428 Clouds 2 1009 16 0 4.63 165 08:56 15.12.2019
6429 Clouds 2 1009 16 0 4.63 165 08:38 15.12.2019
6430 Clear -1 1012 27 0 2.85 170 08:20 15.12.2019
6431 Clear -1 1012 27 0 2.85 170 07:55 15.12.2019
6432 Clear -1 1012 27 0 2.85 170 07:33 15.12.2019
6433 Clear -1 1012 27 0 2.85 170 06:31 15.12.2019
6434 Clear -1 1012 27 0 2.85 170 05:51 15.12.2019
6435 Clear -1 1012 27 0 2.85 170 05:25 15.12.2019
6436 Clear -5 1019 48 0 2.67 163 04:24 15.12.2019
6437 Clear -5 1019 48 0 2.67 163 03:22 15.12.2019
6438 Clear -5 1019 48 0 2.67 163 02:33 15.12.2019
6439 Clear -10 1020 79 0 1.9 140 01:44 15.12.2019
6440 Clear -10 1020 79 0 1.9 140 01:25 15.12.2019
6441 Clear -11 1020 78 0 1.89 139 00:54 15.12.2019
6442 Clear -11 1020 78 0 1.89 139 00:35 15.12.2019
6443 Clear -11 1020 78 0 1.89 139 23:58 14.12.2019
6444 Clear -11 1020 78 0 1.89 139 23:39 14.12.2019
6445 Clear -9 1019 69 0 2.08 140 23:18 14.12.2019
6446 Clear -9 1019 69 0 2.08 140 22:57 14.12.2019
6447 Clear -9 1019 69 0 2.08 140 22:39 14.12.2019
6448 Clear -9 1019 69 0 2.08 140 22:20 14.12.2019
6449 Clear -9 1019 69 0 2.08 140 21:55 14.12.2019
6450 Clear -9 1019 69 0 2.08 140 21:55 14.12.2019
6451 Clear -9 1019 69 0 2.08 140 21:37 14.12.2019
6452 Clear -9 1019 69 0 2.08 140 21:18 14.12.2019
6453 Clear -9 1019 69 0 2.08 140 20:55 14.12.2019
6454 Clear -9 1019 69 0 2.08 140 20:55 14.12.2019
6455 Clear -9 1019 69 0 2.08 140 20:37 14.12.2019
6456 Clear -9 1019 69 0 2.08 140 20:37 14.12.2019
6457 Clouds -7 1017 57 0 2.18 144 20:19 14.12.2019
6458 Clouds -7 1017 57 0 2.18 144 19:40 14.12.2019
6459 Clouds -7 1017 57 0 2.18 144 19:21 14.12.2019
6460 Clouds -7 1017 57 0 2.18 144 18:58 14.12.2019
6461 Clouds -7 1017 57 0 2.18 144 18:39 14.12.2019
6462 Clouds -7 1017 57 0 2.18 144 18:21 14.12.2019
6463 Clouds -7 1017 57 0 2.18 144 17:59 14.12.2019
6464 Clouds -7 1017 57 0 2.18 144 17:41 14.12.2019
6465 Clouds -5 1017 45 0 2.06 134 17:22 14.12.2019
6466 Clouds -5 1017 45 0 2.06 134 16:42 14.12.2019
6467 Clouds -5 1017 45 0 2.06 134 16:20 14.12.2019
6468 Clouds -5 1017 45 0 2.06 134 15:57 14.12.2019
6469 Clouds -5 1017 45 0 2.06 134 15:38 14.12.2019
6470 Clouds -5 1017 45 0 2.06 134 15:38 14.12.2019
6471 Clouds -5 1017 45 0 2.06 134 15:19 14.12.2019
6472 Clouds -5 1017 45 0 2.06 134 14:57 14.12.2019
6473 -273 0 0 0 0 0 14:38 14.12.2019
6474 Rain -2 1013 36 0 1.22 24 14:19 14.12.2019
6475 Rain -2 1013 36 0 1.22 24 13:44 14.12.2019
6476 Clouds -3 1013 32 0 1.42 97 13:20 14.12.2019
6477 Clouds -3 1012 36 0 1.1 17 12:58 14.12.2019
6478 Clouds -3 1012 36 0 1.1 17 12:40 14.12.2019
6479 Clouds -3 1012 36 0 1.1 17 12:21 14.12.2019
6480 Clouds -3 1012 36 0 1.1 17 11:58 14.12.2019
6481 Clouds -3 1013 32 0 1.42 97 11:39 14.12.2019
6482 Clouds 2 1009 22 0 1.96 261 11:19 14.12.2019
6483 Clouds 2 1009 22 0 1.96 261 10:57 14.12.2019
6484 Clouds 2 1009 22 0 1.96 261 10:39 14.12.2019
6485 Clouds 2 1009 22 0 1.96 261 10:20 14.12.2019
6486 Clouds 2 1009 22 0 1.96 261 09:57 14.12.2019
6487 Clouds 2 1009 22 0 1.96 261 09:38 14.12.2019
6488 Clouds 2 1009 22 0 1.96 261 09:18 14.12.2019
6489 Clouds 2 1009 23 0 1.5 259 08:42 14.12.2019
6490 Clouds 0 1013 32 0 1.98 169 08:19 14.12.2019
6491 Clouds 0 1013 32 0 1.98 169 07:44 14.12.2019
6492 Clouds 0 1013 32 0 1.98 169 07:23 14.12.2019
6493 Clouds 0 1013 32 0 1.98 169 06:56 14.12.2019
6494 Clouds 0 1013 32 0 1.98 169 06:37 14.12.2019
6495 Clouds 0 1013 32 0 1.98 169 05:58 14.12.2019
6496 Clouds -4 1019 44 0 2.54 181 04:47 14.12.2019
6497 Clouds -4 1019 44 0 2.54 181 02:31 14.12.2019
6498 Clouds -9 1020 68 0 1.67 154 01:56 14.12.2019
6499 Clouds -9 1020 68 0 1.67 154 01:56 14.12.2019
6500 Clouds -9 1020 68 0 1.67 154 01:37 14.12.2019
6501 Clouds -9 1020 68 0 1.23 150 00:47 14.12.2019
6502 Clouds -9 1020 68 0 1.23 150 00:27 14.12.2019
6503 Clouds -9 1020 68 0 1.23 150 23:56 13.12.2019
6504 Clouds -9 1020 68 0 1.23 150 23:37 13.12.2019
6505 Clouds -8 1020 64 0 1.79 143 23:18 13.12.2019
6506 Clouds -8 1020 64 0 1.79 143 22:40 13.12.2019
6507 Clouds -8 1020 64 0 1.79 143 22:19 13.12.2019
6508 Clouds -8 1020 64 0 1.79 143 21:56 13.12.2019
6509 Clouds -8 1020 64 0 1.79 143 21:37 13.12.2019
6510 Clouds -8 1020 64 0 1.79 143 21:19 13.12.2019
6511 Clouds -8 1020 64 0 1.79 143 20:42 13.12.2019
6512 Clouds -8 1020 64 0 1.79 143 20:23 13.12.2019
6513 Clouds -5 1020 56 0 1.82 152 19:59 13.12.2019
6514 Clouds -5 1020 56 0 1.82 152 19:41 13.12.2019
6515 Clouds -5 1020 56 0 1.82 152 19:22 13.12.2019
6516 Clouds -5 1020 56 0 1.82 152 18:59 13.12.2019
6517 Clouds -5 1020 56 0 1.82 152 18:40 13.12.2019
6518 Clouds -5 1020 56 0 1.82 152 18:19 13.12.2019
6519 Clouds -5 1020 56 0 1.82 152 17:55 13.12.2019
6520 Clouds -5 1020 56 0 1.82 152 17:37 13.12.2019
6521 Snow -4 1019 65 0 0.6 142 17:18 13.12.2019
6522 Snow -4 1019 65 0 0.6 142 16:54 13.12.2019
6523 Snow -4 1019 65 0 0.6 142 16:36 13.12.2019
6524 Snow -4 1019 65 0 0.6 142 16:18 13.12.2019
6525 Snow -4 1019 65 0 0.6 142 15:38 13.12.2019
6526 Snow -4 1019 65 0 0.6 142 15:20 13.12.2019
6527 Snow -4 1019 65 0 0.6 142 14:41 13.12.2019
6528 Snow -3 1016 60 0 1.49 334 14:21 13.12.2019
6529 Snow -3 1016 60 0 1.49 334 13:58 13.12.2019
6530 Snow -3 1016 60 0 1.49 334 13:39 13.12.2019
6531 Snow -2 1016 61 0 2.94 302 13:21 13.12.2019
6532 Snow -2 1016 61 0 2.94 302 12:42 13.12.2019
6533 Snow -2 1016 61 0 2.94 302 12:20 13.12.2019
6534 Snow -2 1016 61 0 2.94 302 11:57 13.12.2019
6535 Snow -2 1016 61 0 2.94 302 11:57 13.12.2019
6536 Snow -2 1016 61 0 2.94 302 11:39 13.12.2019
6537 Clouds 1 1012 33 0 1.5 215 11:21 13.12.2019
6538 Clouds 1 1012 33 0 1.5 215 10:43 13.12.2019
6539 Clouds 1 1012 33 0 1.5 215 10:23 13.12.2019
6540 Clouds 1 1012 33 0 1.5 215 09:59 13.12.2019
6541 Clouds 1 1012 33 0 1.5 215 09:39 13.12.2019
6542 Clouds 1 1012 33 0 1.5 215 09:19 13.12.2019
6543 Clouds 1 1012 33 0 1.5 215 08:42 13.12.2019
6544 Clouds 1 1012 36 0 2.19 188 08:24 13.12.2019
6545 Clouds 1 1014 27 0 2.93 198 07:46 13.12.2019
6546 Clouds 1 1014 27 0 2.93 198 07:23 13.12.2019
6547 Clouds 1 1014 27 0 2.93 198 06:55 13.12.2019
6548 Clouds 1 1014 27 0 2.93 198 06:29 13.12.2019
6549 Clouds 1 1014 27 0 2.93 198 05:47 13.12.2019
6550 Clouds 1 1014 27 0 2.93 198 05:28 13.12.2019
6551 Clouds -2 1019 37 0 1.93 162 04:46 13.12.2019
6552 Clouds -2 1019 37 0 1.93 162 03:48 13.12.2019
6553 Clouds -2 1019 37 0 1.93 162 02:34 13.12.2019
6554 Clouds -8 1019 72 0 2.2 127 01:48 13.12.2019
6555 Clouds -8 1019 72 0 2.2 127 01:19 13.12.2019
6556 Clouds -8 1019 68 0 1.95 131 00:45 13.12.2019
6557 Clouds -8 1019 68 0 1.95 131 00:22 13.12.2019
6558 Clouds -8 1019 68 0 1.95 131 23:41 12.12.2019
6559 Clouds -7 1017 63 0 2.11 131 23:22 12.12.2019
6560 Clouds -7 1017 63 0 2.11 131 22:56 12.12.2019
6561 Clouds -7 1017 63 0 2.11 131 22:38 12.12.2019
6562 Clouds -7 1017 63 0 2.11 131 22:19 12.12.2019
6563 Clouds -7 1017 63 0 2.11 131 21:55 12.12.2019
6564 Clouds -7 1017 63 0 2.11 131 21:37 12.12.2019
6565 Clouds -7 1017 63 0 2.11 131 21:19 12.12.2019
6566 Clouds -7 1017 63 0 2.11 131 20:57 12.12.2019
6567 Clouds -7 1017 63 0 2.11 131 20:38 12.12.2019
6568 Clouds -5 1017 58 0 2.35 128 20:20 12.12.2019
6569 Clouds -5 1016 54 0 2.66 129 19:55 12.12.2019
6570 Clouds -5 1016 54 0 2.66 129 19:37 12.12.2019
6571 Clouds -5 1016 54 0 2.66 129 19:18 12.12.2019
6572 Clouds -5 1016 54 0 2.66 129 18:55 12.12.2019
6573 Clouds -5 1016 54 0 2.66 129 18:36 12.12.2019
6574 Clouds -5 1016 54 0 2.66 129 18:18 12.12.2019
6575 Clouds -5 1016 54 0 2.66 129 17:55 12.12.2019
6576 Clouds -5 1016 54 0 2.66 129 17:37 12.12.2019
6577 Clouds -3 1016 35 0 2.37 158 17:18 12.12.2019
6578 Clouds -3 1016 35 0 2.37 158 16:42 12.12.2019
6579 Clouds -3 1016 35 0 2.37 158 16:21 12.12.2019
6580 Clouds -3 1016 35 0 2.37 158 15:59 12.12.2019
6581 Clouds -3 1016 35 0 2.37 158 15:41 12.12.2019
6582 Clouds -3 1016 35 0 2.37 158 15:19 12.12.2019
6583 Clouds -3 1016 35 0 2.37 158 14:57 12.12.2019
6584 Clouds -3 1016 35 0 2.37 158 14:36 12.12.2019
6585 Clouds -2 1011 29 0 1.1 239 14:18 12.12.2019
6586 Clouds -2 1011 29 0 1.1 239 13:54 12.12.2019
6587 Clouds -2 1011 29 0 1.1 239 13:36 12.12.2019
6588 Clouds -2 1011 30 0 0.72 221 13:18 12.12.2019
6589 Clouds -2 1011 30 0 0.72 221 13:18 12.12.2019
6590 Clouds -2 1011 30 0 0.72 221 12:42 12.12.2019
6591 Clouds -2 1011 30 0 0.72 221 12:23 12.12.2019
6592 Clouds -2 1011 30 0 0.72 221 11:59 12.12.2019
6593 Clouds -2 1011 30 0 0.72 221 11:40 12.12.2019
6594 Clouds 6 1007 15 0 2.69 196 11:22 12.12.2019
6595 Clouds 6 1007 15 0 2.69 196 10:59 12.12.2019
6596 Clouds 6 1007 15 0 2.69 196 10:40 12.12.2019
6597 Clouds 6 1007 15 0 2.69 196 10:22 12.12.2019
6598 Clouds 6 1007 15 0 2.69 196 09:56 12.12.2019
6599 Clouds 6 1007 15 0 2.69 196 09:38 12.12.2019
6600 Clouds 6 1007 15 0 2.69 196 09:20 12.12.2019
6601 Clouds 6 1007 15 0 2.69 196 08:48 12.12.2019
6602 Clouds 6 1007 15 0 2.69 196 08:29 12.12.2019
6603 Clouds 3 1009 20 0 2.49 195 07:56 12.12.2019
6604 Clouds 3 1009 20 0 2.49 195 07:37 12.12.2019
6605 Clouds 3 1009 20 0 2.49 195 07:19 12.12.2019
6606 Clouds 3 1009 20 0 2.49 195 06:41 12.12.2019
6607 Clouds 3 1009 20 0 2.49 195 06:22 12.12.2019
6608 Clouds 3 1009 20 0 2.49 195 05:32 12.12.2019
6609 Clouds -3 1016 37 0 1.2 165 04:47 12.12.2019
6610 Clouds -3 1016 37 0 1.2 165 02:43 12.12.2019
6611 Clouds -3 1016 37 0 1.2 165 02:24 12.12.2019
6612 Clouds -9 1017 61 0 1.19 151 01:59 12.12.2019
6613 Clouds -9 1017 61 0 1.19 151 01:36 12.12.2019
6614 Clouds -9 1017 59 0 1.15 150 00:50 12.12.2019
6615 Clouds -9 1017 59 0 1.15 150 00:22 12.12.2019
6616 Clouds -9 1017 59 0 1.15 150 23:58 11.12.2019
6617 Clouds -9 1017 59 0 1.15 150 23:38 11.12.2019
6618 Clouds -8 1016 25 0 0.99 186 23:18 11.12.2019
6619 Clouds -8 1016 25 0 0.99 186 22:56 11.12.2019
6620 Clouds -8 1016 25 0 0.99 186 22:38 11.12.2019
6621 Clouds -8 1016 25 0 0.99 186 22:19 11.12.2019
6622 Clouds -8 1016 25 0 0.99 186 21:55 11.12.2019
6623 Clouds -8 1016 25 0 0.99 186 21:36 11.12.2019
6624 Clouds -8 1016 25 0 0.99 186 21:18 11.12.2019
6625 Clouds -8 1016 25 0 0.99 186 21:18 11.12.2019
6626 Clouds -8 1016 25 0 0.99 186 20:55 11.12.2019
6627 Clouds -8 1016 25 0 0.99 186 20:36 11.12.2019
6628 Clouds -7 1014 18 0 1.59 318 20:18 11.12.2019
6629 Clouds -7 1014 18 0 1.59 318 19:42 11.12.2019
6630 Clouds -7 1014 18 0 1.59 318 19:23 11.12.2019
6631 Clouds -7 1014 18 0 1.59 318 18:59 11.12.2019
6632 Clouds -7 1014 18 0 1.59 318 18:40 11.12.2019
6633 Clouds -7 1014 18 0 1.59 318 18:20 11.12.2019
6634 Clouds -7 1014 18 0 1.59 318 17:57 11.12.2019
6635 Clouds -7 1014 18 0 1.59 318 17:38 11.12.2019
6636 Clouds -5 1014 14 0 1.65 287 17:18 11.12.2019
6637 Clouds -5 1014 14 0 1.65 287 16:56 11.12.2019
6638 Clouds -5 1014 14 0 1.65 287 16:37 11.12.2019
6639 Clouds -5 1014 14 0 1.65 287 16:19 11.12.2019
6640 Clouds -5 1014 14 0 1.65 287 15:57 11.12.2019
6641 Clouds -5 1014 14 0 1.65 287 15:37 11.12.2019
6642 Clouds -5 1014 14 0 1.65 287 15:19 11.12.2019
6643 Clouds -5 1014 14 0 1.65 287 14:55 11.12.2019
6644 Clouds -5 1014 14 0 1.65 287 14:55 11.12.2019
6645 Clouds -5 1014 14 0 1.65 287 14:37 11.12.2019
6646 Clouds -3 1008 12 0 1.99 274 14:18 11.12.2019
6647 Clouds -3 1008 12 0 1.99 274 13:44 11.12.2019
6648 Clouds -3 1008 13 0 1.79 246 13:23 11.12.2019
6649 Clouds -3 1008 13 0 1.79 246 12:59 11.12.2019
6650 Clouds -3 1008 13 0 1.79 246 12:40 11.12.2019
6651 Clouds -3 1008 13 0 1.79 246 12:22 11.12.2019
6652 Clouds -3 1008 13 0 1.79 246 11:58 11.12.2019
6653 Clouds -3 1008 13 0 1.79 246 11:39 11.12.2019
6654 Clouds -3 1008 13 0 1.79 246 11:39 11.12.2019
6655 Clouds 5 1004 7 0 9.97 251 11:19 11.12.2019
6656 Clouds 5 1004 7 0 9.97 251 10:59 11.12.2019
6657 Clouds 5 1004 7 0 9.97 251 10:40 11.12.2019
6658 Clouds 5 1004 7 0 9.97 251 10:22 11.12.2019
6659 Clouds 5 1004 7 0 9.97 251 09:58 11.12.2019
6660 Clouds 5 1004 7 0 9.97 251 09:38 11.12.2019
6661 Clouds 5 1004 7 0 9.97 251 09:19 11.12.2019
6662 Clouds 5 1004 7 0 9.97 251 08:56 11.12.2019
6663 Clouds 5 1004 7 0 9.97 251 08:37 11.12.2019
6664 Clouds 4 1007 8 0 7.91 265 08:18 11.12.2019
6665 Clouds 4 1008 10 0 7.12 252 07:44 11.12.2019
6666 Clouds 4 1008 10 0 7.12 252 07:24 11.12.2019
6667 Clouds 4 1008 10 0 7.12 252 06:46 11.12.2019
6668 Clouds 4 1008 10 0 7.12 252 06:25 11.12.2019
6669 Clouds 4 1008 10 0 7.12 252 05:56 11.12.2019
6670 Clouds 4 1008 10 0 7.12 252 05:36 11.12.2019
6671 Clouds -1 1014 36 0 2.43 155 04:53 11.12.2019
6672 Clouds -1 1014 36 0 2.43 155 03:37 11.12.2019
6673 Clouds -1 1014 36 0 2.43 155 02:39 11.12.2019
6674 Clouds -9 1013 68 0 0.39 10 01:22 11.12.2019
6675 Clouds -6 1013 59 0 1.71 41 00:45 11.12.2019
6676 Clouds -6 1013 59 0 1.71 41 00:19 11.12.2019
6677 Clouds -6 1013 59 0 1.71 41 23:46 10.12.2019
6678 Clouds -6 1013 59 0 1.71 41 23:26 10.12.2019
6679 Clouds -5 1012 50 0 3.41 53 22:57 10.12.2019
6680 Clouds -5 1012 50 0 3.41 53 22:39 10.12.2019
6681 Clouds -5 1012 50 0 3.41 53 22:21 10.12.2019
6682 Clouds -5 1012 50 0 3.41 53 21:54 10.12.2019
6683 Clouds -5 1012 50 0 3.41 53 21:36 10.12.2019
6684 Clouds -5 1012 50 0 3.41 53 21:18 10.12.2019
6685 Clouds -5 1012 50 0 3.41 53 20:56 10.12.2019
6686 Clouds -5 1012 50 0 3.41 53 20:37 10.12.2019
6687 Clouds -5 1012 45 0 3.02 28 20:18 10.12.2019
6688 Clouds -5 1012 45 0 3.02 28 19:44 10.12.2019
6689 Clouds -5 1012 45 0 3.02 28 19:26 10.12.2019
6690 Clouds -5 1012 45 0 3.02 28 18:59 10.12.2019
6691 Clouds -5 1012 45 0 3.02 28 18:39 10.12.2019
6692 Clouds -5 1012 45 0 3.02 28 18:20 10.12.2019
6693 Clouds -5 1012 45 0 3.02 28 17:55 10.12.2019
6694 Clouds -5 1012 45 0 3.02 28 17:37 10.12.2019
6695 Clouds -3 1012 21 0 1.87 344 17:19 10.12.2019
6696 Clouds -3 1012 21 0 1.87 344 16:43 10.12.2019
6697 Clouds -3 1012 21 0 1.87 344 16:20 10.12.2019
6698 Clouds -3 1012 21 0 1.87 344 16:20 10.12.2019
6699 Clouds -3 1012 21 0 1.87 344 15:58 10.12.2019
6700 Clouds -3 1012 21 0 1.87 344 15:37 10.12.2019
6701 Clouds -3 1012 21 0 1.87 344 15:18 10.12.2019
6702 Clouds -3 1012 21 0 1.87 344 15:18 10.12.2019
6703 Clouds -3 1012 21 0 1.87 344 15:18 10.12.2019
6704 Clouds -3 1012 21 0 1.87 344 14:55 10.12.2019
6705 Clouds -3 1012 21 0 1.87 344 14:37 10.12.2019
6706 Clouds -1 1009 17 0 2.27 338 14:19 10.12.2019
6707 Clouds -1 1009 17 0 2.27 338 13:56 10.12.2019
6708 Clouds -1 1009 17 0 2.27 338 13:37 10.12.2019
6709 Clouds -1 1009 17 0 2.27 338 13:18 10.12.2019
6710 Clouds 0 1010 17 0 2.92 5 12:40 10.12.2019
6711 Clouds 0 1010 17 0 2.92 5 12:22 10.12.2019
6712 Clouds 0 1010 17 0 2.92 5 11:42 10.12.2019
6713 Clouds 0 1010 17 0 2.92 5 11:24 10.12.2019
6714 Clouds 6 1006 9 0 4.11 256 10:57 10.12.2019
6715 Clouds 6 1006 9 0 4.11 256 10:38 10.12.2019
6716 Clouds 6 1006 9 0 4.11 256 10:20 10.12.2019
6717 Clouds 6 1006 9 0 4.11 256 09:56 10.12.2019
6718 Clouds 6 1006 9 0 4.11 256 09:56 10.12.2019
6719 Clouds 6 1006 9 0 4.11 256 09:38 10.12.2019
6720 Clouds 6 1006 9 0 4.11 256 09:38 10.12.2019
6721 Clouds 6 1006 9 0 4.11 256 09:19 10.12.2019
6722 Clouds 6 1006 9 0 4.11 256 08:55 10.12.2019
6723 Clouds 6 1006 9 0 4.11 256 08:37 10.12.2019
6724 Clear 3 1010 9 0 0.86 167 08:18 10.12.2019
6725 Clear 3 1010 9 0 0.86 167 07:44 10.12.2019
6726 Clear 3 1010 9 0 0.86 167 07:25 10.12.2019
6727 Clear 3 1010 9 0 0.86 167 06:48 10.12.2019
6728 Clear 3 1010 9 0 0.86 167 06:22 10.12.2019
6729 Clear 3 1010 9 0 0.86 167 05:55 10.12.2019
6730 Clear -2 1016 17 0 0.78 27 04:58 10.12.2019
6731 Clear -2 1016 17 0 0.78 27 03:47 10.12.2019
6732 Clear -2 1016 17 0 0.78 27 02:48 10.12.2019
6733 Clouds -10 1017 39 0 1.91 32 01:51 10.12.2019
6734 Clouds -11 1017 43 0 1.63 31 01:26 10.12.2019
6735 Clouds -11 1017 43 0 1.63 31 00:49 10.12.2019
6736 Clouds -11 1017 43 0 1.63 31 00:24 10.12.2019
6737 Clouds -11 1017 43 0 1.63 31 23:43 09.12.2019
6738 Clouds -11 1017 43 0 1.63 31 23:24 09.12.2019
6739 Clouds -9 1017 26 0 1.95 41 22:58 09.12.2019
6740 Clouds -9 1017 26 0 1.95 41 22:40 09.12.2019
6741 Clouds -9 1017 26 0 1.95 41 22:21 09.12.2019
6742 Clouds -9 1017 26 0 1.95 41 21:58 09.12.2019
6743 Clouds -9 1017 26 0 1.95 41 21:39 09.12.2019
6744 Clouds -9 1017 26 0 1.95 41 21:19 09.12.2019
6745 Clouds -9 1017 26 0 1.95 41 20:57 09.12.2019
6746 Clouds -9 1017 26 0 1.95 41 20:39 09.12.2019
6747 Clouds -7 1018 18 0 2.08 35 20:20 09.12.2019
6748 Clouds -7 1018 18 0 2.08 35 19:57 09.12.2019
6749 Clouds -7 1018 18 0 2.08 35 19:39 09.12.2019
6750 Clouds -7 1018 18 0 2.08 35 19:20 09.12.2019
6751 Clouds -7 1018 18 0 2.08 35 18:59 09.12.2019
6752 Clouds -7 1018 18 0 2.08 35 18:40 09.12.2019
6753 Clouds -7 1018 18 0 2.08 35 18:20 09.12.2019
6754 Clouds -7 1018 18 0 2.08 35 17:59 09.12.2019
6755 Clouds -7 1018 18 0 2.08 35 17:40 09.12.2019
6756 Clouds -6 1019 9 0 0.29 24 17:21 09.12.2019
6757 Clouds -6 1019 9 0 0.29 24 16:56 09.12.2019
6758 Clouds -6 1019 9 0 0.29 24 16:38 09.12.2019
6759 Clouds -6 1019 9 0 0.29 24 16:20 09.12.2019
6760 Clouds -6 1019 9 0 0.29 24 15:56 09.12.2019
6761 Clouds -6 1019 9 0 0.29 24 15:56 09.12.2019
6762 Clouds -6 1019 9 0 0.29 24 15:37 09.12.2019
6763 Clouds -6 1019 9 0 0.29 24 15:19 09.12.2019
6764 Clouds -6 1019 9 0 0.29 24 14:58 09.12.2019
6765 Clouds -6 1019 9 0 0.29 24 14:39 09.12.2019
6766 Clouds -3 1017 8 0 1.75 68 14:18 09.12.2019
6767 Clouds -3 1017 8 0 1.75 68 13:55 09.12.2019
6768 Clouds -3 1017 8 0 1.75 68 13:36 09.12.2019
6769 Clouds -3 1017 8 0 1.78 65 13:18 09.12.2019
6770 Clouds -3 1017 8 0 1.78 65 12:54 09.12.2019
6771 Clouds -3 1017 8 0 1.78 65 12:36 09.12.2019
6772 Clouds -3 1017 8 0 1.78 65 12:18 09.12.2019
6773 Clouds -3 1017 8 0 1.78 65 11:40 09.12.2019
6774 Clear 5 1015 4 0 2.8 310 11:21 09.12.2019
6775 Clear 5 1015 4 0 2.8 310 10:57 09.12.2019
6776 Clear 5 1015 4 0 2.8 310 10:38 09.12.2019
6777 Clear 5 1015 4 0 2.8 310 10:19 09.12.2019
6778 Clear 5 1015 4 0 2.8 310 09:44 09.12.2019
6779 Clear 5 1015 4 0 2.8 310 09:25 09.12.2019
6780 Clear 5 1015 4 0 2.8 310 08:57 09.12.2019
6781 Clear 5 1015 4 0 2.8 310 08:39 09.12.2019
6782 Clear 4 1018 4 0 1.94 298 08:20 09.12.2019
6783 Clear 4 1018 4 0 1.94 298 07:49 09.12.2019
6784 Clear 4 1018 4 0 1.94 298 07:30 09.12.2019
6785 Clear 4 1018 4 0 1.94 298 06:55 09.12.2019
6786 Clear 4 1018 4 0 1.94 298 06:30 09.12.2019
6787 Clear 4 1018 4 0 1.94 298 05:42 09.12.2019
6788 Clear -1 1023 10 0 0.41 75 05:20 09.12.2019
6789 Clear -1 1023 10 0 0.41 75 04:27 09.12.2019
6790 Clear -1 1023 10 0 0.41 75 04:27 09.12.2019
6791 Clear -1 1023 10 0 0.41 75 02:28 09.12.2019
6792 Clear -10 1023 32 0 1.48 25 01:46 09.12.2019
6793 Clouds -10 1023 37 0 1.61 35 00:58 09.12.2019
6794 Clouds -10 1023 37 0 1.61 35 00:33 09.12.2019
6795 Clouds -10 1023 37 0 1.61 35 23:55 08.12.2019
6796 Clouds -10 1023 37 0 1.61 35 23:37 08.12.2019
6797 Clouds -8 1022 29 0 2.43 22 23:19 08.12.2019
6798 Clouds -8 1022 29 0 2.43 22 22:56 08.12.2019
6799 Clouds -8 1022 29 0 2.43 22 22:38 08.12.2019
6800 Clouds -8 1022 29 0 2.43 22 22:18 08.12.2019
6801 Clouds -8 1022 29 0 2.43 22 21:56 08.12.2019
6802 Clouds -8 1022 29 0 2.43 22 21:37 08.12.2019
6803 Clouds -8 1022 29 0 2.43 22 21:19 08.12.2019
6804 Clouds -8 1022 29 0 2.43 22 21:19 08.12.2019
6805 Clouds -8 1022 29 0 2.43 22 20:55 08.12.2019
6806 Clouds -8 1022 29 0 2.43 22 20:55 08.12.2019
6807 Clouds -8 1022 29 0 2.43 22 20:37 08.12.2019
6808 Clouds -8 1021 20 0 1.42 25 20:19 08.12.2019
6809 Clouds -8 1021 20 0 1.42 25 19:55 08.12.2019
6810 Clouds -8 1021 20 0 1.42 25 19:36 08.12.2019
6811 Clouds -8 1021 20 0 1.42 25 19:18 08.12.2019
6812 Clouds -8 1021 20 0 1.42 25 19:18 08.12.2019
6813 Clouds -8 1021 20 0 1.42 25 18:54 08.12.2019
6814 Clouds -8 1021 20 0 1.42 25 18:36 08.12.2019
6815 Clouds -8 1021 20 0 1.42 25 18:18 08.12.2019
6816 Clouds -8 1021 20 0 1.42 25 17:54 08.12.2019